<?xml version="1.0" encoding="UTF-8" standalone="no" ?>
<gpx xmlns="http://www.topografix.com/GPX/1/1" xmlns:xsi="http://www.w3.org/2001/XMLSchema-instance" xsi:schemaLocation="http://www.topografix.com/GPX/1/1 http://www.topografix.com/GPX/1/1/gpx.xsd" version="1.1" creator="VisuGPX - https://www.visugpx.com">
  <metadata>
    <name>2021-01-05 08:52:49 [Suunto App]</name>
  </metadata>
  <trk>
    <name><![CDATA[2021-01-05 08:52:49 [Suunto App]_1]]></name>
    <trkseg>
      <trkpt lat="45.49432" lon="6.92704">
        <ele>1796</ele>
        <time>2021-01-05T07:52:49Z</time>
      </trkpt>
      <trkpt lat="45.49433" lon="6.92698">
        <ele>1796</ele>
        <time>2021-01-05T07:52:51Z</time>
      </trkpt>
      <trkpt lat="45.49434" lon="6.92695">
        <ele>1796</ele>
        <time>2021-01-05T07:52:52Z</time>
      </trkpt>
      <trkpt lat="45.49436" lon="6.92693">
        <ele>1796.1</ele>
        <time>2021-01-05T07:52:53Z</time>
      </trkpt>
      <trkpt lat="45.49437" lon="6.92692">
        <ele>1796.1</ele>
        <time>2021-01-05T07:52:54Z</time>
      </trkpt>
      <trkpt lat="45.49439" lon="6.92691">
        <ele>1796.1</ele>
        <time>2021-01-05T07:52:55Z</time>
      </trkpt>
      <trkpt lat="45.49442" lon="6.92691">
        <ele>1796.1</ele>
        <time>2021-01-05T07:52:56Z</time>
      </trkpt>
      <trkpt lat="45.49444" lon="6.92691">
        <ele>1796.1</ele>
        <time>2021-01-05T07:52:57Z</time>
      </trkpt>
      <trkpt lat="45.49446" lon="6.92692">
        <ele>1766.8</ele>
        <time>2021-01-05T07:52:58Z</time>
      </trkpt>
      <trkpt lat="45.49449" lon="6.92692">
        <ele>1766.8</ele>
        <time>2021-01-05T07:52:59Z</time>
      </trkpt>
      <trkpt lat="45.49452" lon="6.92693">
        <ele>1766.8</ele>
        <time>2021-01-05T07:53:00Z</time>
      </trkpt>
      <trkpt lat="45.49455" lon="6.92694">
        <ele>1766.8</ele>
        <time>2021-01-05T07:53:01Z</time>
      </trkpt>
      <trkpt lat="45.49458" lon="6.92695">
        <ele>1766.8</ele>
        <time>2021-01-05T07:53:02Z</time>
      </trkpt>
      <trkpt lat="45.4946" lon="6.92696">
        <ele>1766.8</ele>
        <time>2021-01-05T07:53:03Z</time>
      </trkpt>
      <trkpt lat="45.49463" lon="6.92696">
        <ele>1766.8</ele>
        <time>2021-01-05T07:53:04Z</time>
      </trkpt>
      <trkpt lat="45.49466" lon="6.92696">
        <ele>1766.8</ele>
        <time>2021-01-05T07:53:05Z</time>
      </trkpt>
      <trkpt lat="45.49468" lon="6.92695">
        <ele>1766.8</ele>
        <time>2021-01-05T07:53:06Z</time>
      </trkpt>
      <trkpt lat="45.4947" lon="6.92695">
        <ele>1766.8</ele>
        <time>2021-01-05T07:53:07Z</time>
      </trkpt>
      <trkpt lat="45.49472" lon="6.92695">
        <ele>1768.6</ele>
        <time>2021-01-05T07:53:08Z</time>
      </trkpt>
      <trkpt lat="45.49475" lon="6.92695">
        <ele>1768.6</ele>
        <time>2021-01-05T07:53:09Z</time>
      </trkpt>
      <trkpt lat="45.49478" lon="6.92693">
        <ele>1768.6</ele>
        <time>2021-01-05T07:53:11Z</time>
      </trkpt>
      <trkpt lat="45.4948" lon="6.92692">
        <ele>1768.6</ele>
        <time>2021-01-05T07:53:12Z</time>
      </trkpt>
      <trkpt lat="45.49482" lon="6.92691">
        <ele>1768.6</ele>
        <time>2021-01-05T07:53:13Z</time>
      </trkpt>
      <trkpt lat="45.49484" lon="6.9269">
        <ele>1768.6</ele>
        <time>2021-01-05T07:53:14Z</time>
      </trkpt>
      <trkpt lat="45.49485" lon="6.92688">
        <ele>1768.6</ele>
        <time>2021-01-05T07:53:15Z</time>
      </trkpt>
      <trkpt lat="45.49487" lon="6.92687">
        <ele>1768.6</ele>
        <time>2021-01-05T07:53:16Z</time>
      </trkpt>
      <trkpt lat="45.49489" lon="6.92685">
        <ele>1768.6</ele>
        <time>2021-01-05T07:53:17Z</time>
      </trkpt>
      <trkpt lat="45.49491" lon="6.92683">
        <ele>1772.8</ele>
        <time>2021-01-05T07:53:18Z</time>
      </trkpt>
      <trkpt lat="45.49492" lon="6.92681">
        <ele>1772.8</ele>
        <time>2021-01-05T07:53:19Z</time>
      </trkpt>
      <trkpt lat="45.49493" lon="6.92677">
        <ele>1772.8</ele>
        <time>2021-01-05T07:53:21Z</time>
      </trkpt>
      <trkpt lat="45.49493" lon="6.92674">
        <ele>1772.8</ele>
        <time>2021-01-05T07:53:23Z</time>
      </trkpt>
      <trkpt lat="45.49493" lon="6.9267">
        <ele>1772.8</ele>
        <time>2021-01-05T07:53:26Z</time>
      </trkpt>
      <trkpt lat="45.49491" lon="6.92668">
        <ele>1772.8</ele>
        <time>2021-01-05T07:53:30Z</time>
      </trkpt>
      <trkpt lat="45.49492" lon="6.92663">
        <ele>1772.8</ele>
        <time>2021-01-05T07:53:33Z</time>
      </trkpt>
      <trkpt lat="45.49493" lon="6.92661">
        <ele>1772.8</ele>
        <time>2021-01-05T07:53:34Z</time>
      </trkpt>
      <trkpt lat="45.49496" lon="6.92662">
        <ele>1777.2</ele>
        <time>2021-01-05T07:53:38Z</time>
      </trkpt>
      <trkpt lat="45.49498" lon="6.92662">
        <ele>1777.2</ele>
        <time>2021-01-05T07:53:39Z</time>
      </trkpt>
      <trkpt lat="45.49499" lon="6.92659">
        <ele>1777.2</ele>
        <time>2021-01-05T07:53:40Z</time>
      </trkpt>
      <trkpt lat="45.49501" lon="6.92656">
        <ele>1777.2</ele>
        <time>2021-01-05T07:53:41Z</time>
      </trkpt>
      <trkpt lat="45.49503" lon="6.92654">
        <ele>1777.2</ele>
        <time>2021-01-05T07:53:42Z</time>
      </trkpt>
      <trkpt lat="45.49505" lon="6.92652">
        <ele>1777.2</ele>
        <time>2021-01-05T07:53:43Z</time>
      </trkpt>
      <trkpt lat="45.49508" lon="6.92649">
        <ele>1777.2</ele>
        <time>2021-01-05T07:53:45Z</time>
      </trkpt>
      <trkpt lat="45.49509" lon="6.92647">
        <ele>1777.2</ele>
        <time>2021-01-05T07:53:46Z</time>
      </trkpt>
      <trkpt lat="45.4951" lon="6.92644">
        <ele>1777.2</ele>
        <time>2021-01-05T07:53:47Z</time>
      </trkpt>
      <trkpt lat="45.49511" lon="6.92641">
        <ele>1780.8</ele>
        <time>2021-01-05T07:53:48Z</time>
      </trkpt>
      <trkpt lat="45.49511" lon="6.92637">
        <ele>1780.8</ele>
        <time>2021-01-05T07:53:49Z</time>
      </trkpt>
      <trkpt lat="45.49512" lon="6.92633">
        <ele>1780.8</ele>
        <time>2021-01-05T07:53:50Z</time>
      </trkpt>
      <trkpt lat="45.49513" lon="6.9263">
        <ele>1780.8</ele>
        <time>2021-01-05T07:53:51Z</time>
      </trkpt>
      <trkpt lat="45.49513" lon="6.92627">
        <ele>1780.8</ele>
        <time>2021-01-05T07:53:52Z</time>
      </trkpt>
      <trkpt lat="45.49515" lon="6.92623">
        <ele>1780.8</ele>
        <time>2021-01-05T07:53:54Z</time>
      </trkpt>
      <trkpt lat="45.49516" lon="6.9262">
        <ele>1780.8</ele>
        <time>2021-01-05T07:53:55Z</time>
      </trkpt>
      <trkpt lat="45.49517" lon="6.92618">
        <ele>1780.8</ele>
        <time>2021-01-05T07:53:56Z</time>
      </trkpt>
      <trkpt lat="45.49519" lon="6.92615">
        <ele>1780.8</ele>
        <time>2021-01-05T07:53:57Z</time>
      </trkpt>
      <trkpt lat="45.4952" lon="6.92612">
        <ele>1784</ele>
        <time>2021-01-05T07:53:58Z</time>
      </trkpt>
      <trkpt lat="45.49521" lon="6.92609">
        <ele>1784</ele>
        <time>2021-01-05T07:53:59Z</time>
      </trkpt>
      <trkpt lat="45.49521" lon="6.92605">
        <ele>1784</ele>
        <time>2021-01-05T07:54:00Z</time>
      </trkpt>
      <trkpt lat="45.49522" lon="6.92602">
        <ele>1784</ele>
        <time>2021-01-05T07:54:01Z</time>
      </trkpt>
      <trkpt lat="45.49522" lon="6.92599">
        <ele>1784</ele>
        <time>2021-01-05T07:54:02Z</time>
      </trkpt>
      <trkpt lat="45.49521" lon="6.92595">
        <ele>1784</ele>
        <time>2021-01-05T07:54:03Z</time>
      </trkpt>
      <trkpt lat="45.49521" lon="6.92591">
        <ele>1784</ele>
        <time>2021-01-05T07:54:04Z</time>
      </trkpt>
      <trkpt lat="45.49521" lon="6.92588">
        <ele>1784</ele>
        <time>2021-01-05T07:54:05Z</time>
      </trkpt>
      <trkpt lat="45.49521" lon="6.92585">
        <ele>1784</ele>
        <time>2021-01-05T07:54:06Z</time>
      </trkpt>
      <trkpt lat="45.49521" lon="6.92582">
        <ele>1784</ele>
        <time>2021-01-05T07:54:07Z</time>
      </trkpt>
      <trkpt lat="45.49522" lon="6.9258">
        <ele>1785.8</ele>
        <time>2021-01-05T07:54:08Z</time>
      </trkpt>
      <trkpt lat="45.49523" lon="6.92577">
        <ele>1785.8</ele>
        <time>2021-01-05T07:54:09Z</time>
      </trkpt>
      <trkpt lat="45.49524" lon="6.92574">
        <ele>1785.8</ele>
        <time>2021-01-05T07:54:10Z</time>
      </trkpt>
      <trkpt lat="45.49525" lon="6.92572">
        <ele>1785.8</ele>
        <time>2021-01-05T07:54:11Z</time>
      </trkpt>
      <trkpt lat="45.49527" lon="6.9257">
        <ele>1785.8</ele>
        <time>2021-01-05T07:54:12Z</time>
      </trkpt>
      <trkpt lat="45.49529" lon="6.92567">
        <ele>1785.8</ele>
        <time>2021-01-05T07:54:13Z</time>
      </trkpt>
      <trkpt lat="45.49531" lon="6.92565">
        <ele>1785.8</ele>
        <time>2021-01-05T07:54:14Z</time>
      </trkpt>
      <trkpt lat="45.49533" lon="6.92562">
        <ele>1785.8</ele>
        <time>2021-01-05T07:54:15Z</time>
      </trkpt>
      <trkpt lat="45.49535" lon="6.92561">
        <ele>1785.8</ele>
        <time>2021-01-05T07:54:16Z</time>
      </trkpt>
      <trkpt lat="45.49537" lon="6.92558">
        <ele>1785.8</ele>
        <time>2021-01-05T07:54:17Z</time>
      </trkpt>
      <trkpt lat="45.49538" lon="6.92556">
        <ele>1788</ele>
        <time>2021-01-05T07:54:18Z</time>
      </trkpt>
      <trkpt lat="45.4954" lon="6.92552">
        <ele>1788</ele>
        <time>2021-01-05T07:54:20Z</time>
      </trkpt>
      <trkpt lat="45.4954" lon="6.92549">
        <ele>1788</ele>
        <time>2021-01-05T07:54:21Z</time>
      </trkpt>
      <trkpt lat="45.49541" lon="6.92546">
        <ele>1788</ele>
        <time>2021-01-05T07:54:22Z</time>
      </trkpt>
      <trkpt lat="45.49541" lon="6.92543">
        <ele>1788</ele>
        <time>2021-01-05T07:54:23Z</time>
      </trkpt>
      <trkpt lat="45.49542" lon="6.9254">
        <ele>1788</ele>
        <time>2021-01-05T07:54:24Z</time>
      </trkpt>
      <trkpt lat="45.49542" lon="6.92536">
        <ele>1788</ele>
        <time>2021-01-05T07:54:25Z</time>
      </trkpt>
      <trkpt lat="45.49542" lon="6.92533">
        <ele>1788</ele>
        <time>2021-01-05T07:54:26Z</time>
      </trkpt>
      <trkpt lat="45.49542" lon="6.9253">
        <ele>1788</ele>
        <time>2021-01-05T07:54:27Z</time>
      </trkpt>
      <trkpt lat="45.49541" lon="6.92525">
        <ele>1788</ele>
        <time>2021-01-05T07:54:29Z</time>
      </trkpt>
      <trkpt lat="45.4954" lon="6.92522">
        <ele>1788</ele>
        <time>2021-01-05T07:54:30Z</time>
      </trkpt>
      <trkpt lat="45.4954" lon="6.92519">
        <ele>1788</ele>
        <time>2021-01-05T07:54:31Z</time>
      </trkpt>
      <trkpt lat="45.49539" lon="6.92516">
        <ele>1788</ele>
        <time>2021-01-05T07:54:32Z</time>
      </trkpt>
      <trkpt lat="45.49538" lon="6.92513">
        <ele>1788</ele>
        <time>2021-01-05T07:54:33Z</time>
      </trkpt>
      <trkpt lat="45.49537" lon="6.92508">
        <ele>1788</ele>
        <time>2021-01-05T07:54:35Z</time>
      </trkpt>
      <trkpt lat="45.49537" lon="6.92504">
        <ele>1788</ele>
        <time>2021-01-05T07:54:36Z</time>
      </trkpt>
      <trkpt lat="45.49537" lon="6.92501">
        <ele>1788</ele>
        <time>2021-01-05T07:54:37Z</time>
      </trkpt>
      <trkpt lat="45.49538" lon="6.92498">
        <ele>1793.2</ele>
        <time>2021-01-05T07:54:38Z</time>
      </trkpt>
      <trkpt lat="45.49538" lon="6.92494">
        <ele>1793.2</ele>
        <time>2021-01-05T07:54:40Z</time>
      </trkpt>
      <trkpt lat="45.49539" lon="6.92488">
        <ele>1793.2</ele>
        <time>2021-01-05T07:54:42Z</time>
      </trkpt>
      <trkpt lat="45.4954" lon="6.92484">
        <ele>1793.2</ele>
        <time>2021-01-05T07:54:44Z</time>
      </trkpt>
      <trkpt lat="45.49541" lon="6.9248">
        <ele>1793.2</ele>
        <time>2021-01-05T07:54:46Z</time>
      </trkpt>
      <trkpt lat="45.49543" lon="6.92476">
        <ele>1795.6</ele>
        <time>2021-01-05T07:54:48Z</time>
      </trkpt>
      <trkpt lat="45.49545" lon="6.92472">
        <ele>1795.6</ele>
        <time>2021-01-05T07:54:50Z</time>
      </trkpt>
      <trkpt lat="45.49547" lon="6.92468">
        <ele>1795.6</ele>
        <time>2021-01-05T07:54:52Z</time>
      </trkpt>
      <trkpt lat="45.49549" lon="6.92464">
        <ele>1795.6</ele>
        <time>2021-01-05T07:54:54Z</time>
      </trkpt>
      <trkpt lat="45.49551" lon="6.9246">
        <ele>1795.6</ele>
        <time>2021-01-05T07:54:56Z</time>
      </trkpt>
      <trkpt lat="45.49553" lon="6.92457">
        <ele>1798</ele>
        <time>2021-01-05T07:54:58Z</time>
      </trkpt>
      <trkpt lat="45.49555" lon="6.92454">
        <ele>1798</ele>
        <time>2021-01-05T07:55:00Z</time>
      </trkpt>
      <trkpt lat="45.49556" lon="6.92452">
        <ele>1798</ele>
        <time>2021-01-05T07:55:01Z</time>
      </trkpt>
      <trkpt lat="45.49559" lon="6.92448">
        <ele>1798</ele>
        <time>2021-01-05T07:55:03Z</time>
      </trkpt>
      <trkpt lat="45.49561" lon="6.92444">
        <ele>1798</ele>
        <time>2021-01-05T07:55:05Z</time>
      </trkpt>
      <trkpt lat="45.49562" lon="6.9244">
        <ele>1798</ele>
        <time>2021-01-05T07:55:07Z</time>
      </trkpt>
      <trkpt lat="45.49564" lon="6.92436">
        <ele>1798</ele>
        <time>2021-01-05T07:55:09Z</time>
      </trkpt>
      <trkpt lat="45.49566" lon="6.92433">
        <ele>1798</ele>
        <time>2021-01-05T07:55:11Z</time>
      </trkpt>
      <trkpt lat="45.49567" lon="6.9243">
        <ele>1798</ele>
        <time>2021-01-05T07:55:13Z</time>
      </trkpt>
      <trkpt lat="45.49569" lon="6.92426">
        <ele>1798</ele>
        <time>2021-01-05T07:55:15Z</time>
      </trkpt>
      <trkpt lat="45.49569" lon="6.92423">
        <ele>1803.2</ele>
        <time>2021-01-05T07:55:18Z</time>
      </trkpt>
      <trkpt lat="45.49569" lon="6.92419">
        <ele>1803.2</ele>
        <time>2021-01-05T07:55:20Z</time>
      </trkpt>
      <trkpt lat="45.49568" lon="6.92415">
        <ele>1803.2</ele>
        <time>2021-01-05T07:55:22Z</time>
      </trkpt>
      <trkpt lat="45.49568" lon="6.92412">
        <ele>1803.2</ele>
        <time>2021-01-05T07:55:24Z</time>
      </trkpt>
      <trkpt lat="45.49569" lon="6.92408">
        <ele>1803.2</ele>
        <time>2021-01-05T07:55:26Z</time>
      </trkpt>
      <trkpt lat="45.49571" lon="6.92405">
        <ele>1807.4</ele>
        <time>2021-01-05T07:55:28Z</time>
      </trkpt>
      <trkpt lat="45.49572" lon="6.92402">
        <ele>1807.4</ele>
        <time>2021-01-05T07:55:31Z</time>
      </trkpt>
      <trkpt lat="45.49573" lon="6.92398">
        <ele>1807.4</ele>
        <time>2021-01-05T07:55:33Z</time>
      </trkpt>
      <trkpt lat="45.49575" lon="6.92395">
        <ele>1807.4</ele>
        <time>2021-01-05T07:55:35Z</time>
      </trkpt>
      <trkpt lat="45.49576" lon="6.92394">
        <ele>1807.4</ele>
        <time>2021-01-05T07:55:37Z</time>
      </trkpt>
      <trkpt lat="45.49579" lon="6.92391">
        <ele>1807.4</ele>
        <time>2021-01-05T07:55:39Z</time>
      </trkpt>
      <trkpt lat="45.4958" lon="6.9239">
        <ele>1807.4</ele>
        <time>2021-01-05T07:55:40Z</time>
      </trkpt>
      <trkpt lat="45.49582" lon="6.92388">
        <ele>1807.4</ele>
        <time>2021-01-05T07:55:42Z</time>
      </trkpt>
      <trkpt lat="45.49583" lon="6.92385">
        <ele>1807.4</ele>
        <time>2021-01-05T07:55:44Z</time>
      </trkpt>
      <trkpt lat="45.49586" lon="6.92383">
        <ele>1807.4</ele>
        <time>2021-01-05T07:55:46Z</time>
      </trkpt>
      <trkpt lat="45.49587" lon="6.92381">
        <ele>1807.4</ele>
        <time>2021-01-05T07:55:47Z</time>
      </trkpt>
      <trkpt lat="45.49589" lon="6.92379">
        <ele>1807.4</ele>
        <time>2021-01-05T07:55:49Z</time>
      </trkpt>
      <trkpt lat="45.49591" lon="6.92376">
        <ele>1807.4</ele>
        <time>2021-01-05T07:55:51Z</time>
      </trkpt>
      <trkpt lat="45.49593" lon="6.92372">
        <ele>1807.4</ele>
        <time>2021-01-05T07:55:53Z</time>
      </trkpt>
      <trkpt lat="45.49595" lon="6.92368">
        <ele>1807.4</ele>
        <time>2021-01-05T07:55:55Z</time>
      </trkpt>
      <trkpt lat="45.49596" lon="6.92366">
        <ele>1807.4</ele>
        <time>2021-01-05T07:55:57Z</time>
      </trkpt>
      <trkpt lat="45.49597" lon="6.92363">
        <ele>1807.4</ele>
        <time>2021-01-05T07:55:59Z</time>
      </trkpt>
      <trkpt lat="45.49599" lon="6.92361">
        <ele>1807.4</ele>
        <time>2021-01-05T07:56:01Z</time>
      </trkpt>
      <trkpt lat="45.49601" lon="6.92357">
        <ele>1807.4</ele>
        <time>2021-01-05T07:56:03Z</time>
      </trkpt>
      <trkpt lat="45.49603" lon="6.92354">
        <ele>1807.4</ele>
        <time>2021-01-05T07:56:05Z</time>
      </trkpt>
      <trkpt lat="45.49604" lon="6.92351">
        <ele>1807.4</ele>
        <time>2021-01-05T07:56:07Z</time>
      </trkpt>
      <trkpt lat="45.49605" lon="6.92349">
        <ele>1824.2</ele>
        <time>2021-01-05T07:56:08Z</time>
      </trkpt>
      <trkpt lat="45.49607" lon="6.92347">
        <ele>1824.2</ele>
        <time>2021-01-05T07:56:10Z</time>
      </trkpt>
      <trkpt lat="45.49609" lon="6.92344">
        <ele>1824.2</ele>
        <time>2021-01-05T07:56:12Z</time>
      </trkpt>
      <trkpt lat="45.49611" lon="6.92342">
        <ele>1824.2</ele>
        <time>2021-01-05T07:56:13Z</time>
      </trkpt>
      <trkpt lat="45.49612" lon="6.92339">
        <ele>1824.2</ele>
        <time>2021-01-05T07:56:15Z</time>
      </trkpt>
      <trkpt lat="45.49614" lon="6.92337">
        <ele>1824.2</ele>
        <time>2021-01-05T07:56:17Z</time>
      </trkpt>
      <trkpt lat="45.49616" lon="6.92334">
        <ele>1824.2</ele>
        <time>2021-01-05T07:56:19Z</time>
      </trkpt>
      <trkpt lat="45.49618" lon="6.92331">
        <ele>1824.2</ele>
        <time>2021-01-05T07:56:21Z</time>
      </trkpt>
      <trkpt lat="45.4962" lon="6.92328">
        <ele>1824.2</ele>
        <time>2021-01-05T07:56:23Z</time>
      </trkpt>
      <trkpt lat="45.49621" lon="6.92325">
        <ele>1824.2</ele>
        <time>2021-01-05T07:56:25Z</time>
      </trkpt>
      <trkpt lat="45.49623" lon="6.92322">
        <ele>1824.2</ele>
        <time>2021-01-05T07:56:27Z</time>
      </trkpt>
      <trkpt lat="45.49623" lon="6.92319">
        <ele>1824.2</ele>
        <time>2021-01-05T07:56:29Z</time>
      </trkpt>
      <trkpt lat="45.4962" lon="6.92318">
        <ele>1824.2</ele>
        <time>2021-01-05T07:56:32Z</time>
      </trkpt>
      <trkpt lat="45.49618" lon="6.92317">
        <ele>1824.2</ele>
        <time>2021-01-05T07:56:34Z</time>
      </trkpt>
      <trkpt lat="45.49615" lon="6.92319">
        <ele>1824.2</ele>
        <time>2021-01-05T07:56:36Z</time>
      </trkpt>
      <trkpt lat="45.49613" lon="6.92318">
        <ele>1834.8</ele>
        <time>2021-01-05T07:56:38Z</time>
      </trkpt>
      <trkpt lat="45.49611" lon="6.92318">
        <ele>1834.8</ele>
        <time>2021-01-05T07:56:40Z</time>
      </trkpt>
      <trkpt lat="45.49608" lon="6.92317">
        <ele>1834.8</ele>
        <time>2021-01-05T07:56:42Z</time>
      </trkpt>
      <trkpt lat="45.49605" lon="6.92316">
        <ele>1834.8</ele>
        <time>2021-01-05T07:56:45Z</time>
      </trkpt>
      <trkpt lat="45.49604" lon="6.92315">
        <ele>1834.8</ele>
        <time>2021-01-05T07:56:47Z</time>
      </trkpt>
      <trkpt lat="45.49601" lon="6.92314">
        <ele>1834.8</ele>
        <time>2021-01-05T07:56:50Z</time>
      </trkpt>
      <trkpt lat="45.49599" lon="6.92314">
        <ele>1834.8</ele>
        <time>2021-01-05T07:56:52Z</time>
      </trkpt>
      <trkpt lat="45.49597" lon="6.92313">
        <ele>1834.8</ele>
        <time>2021-01-05T07:56:54Z</time>
      </trkpt>
      <trkpt lat="45.49594" lon="6.92313">
        <ele>1834.8</ele>
        <time>2021-01-05T07:56:56Z</time>
      </trkpt>
      <trkpt lat="45.49591" lon="6.92313">
        <ele>1842.2</ele>
        <time>2021-01-05T07:56:58Z</time>
      </trkpt>
      <trkpt lat="45.49588" lon="6.9231">
        <ele>1842.2</ele>
        <time>2021-01-05T07:57:00Z</time>
      </trkpt>
      <trkpt lat="45.49586" lon="6.92308">
        <ele>1842.2</ele>
        <time>2021-01-05T07:57:01Z</time>
      </trkpt>
      <trkpt lat="45.49583" lon="6.92306">
        <ele>1842.2</ele>
        <time>2021-01-05T07:57:03Z</time>
      </trkpt>
      <trkpt lat="45.4958" lon="6.92304">
        <ele>1842.2</ele>
        <time>2021-01-05T07:57:05Z</time>
      </trkpt>
      <trkpt lat="45.49578" lon="6.92302">
        <ele>1842.2</ele>
        <time>2021-01-05T07:57:07Z</time>
      </trkpt>
      <trkpt lat="45.49575" lon="6.92302">
        <ele>1842.2</ele>
        <time>2021-01-05T07:57:09Z</time>
      </trkpt>
      <trkpt lat="45.49572" lon="6.92303">
        <ele>1842.2</ele>
        <time>2021-01-05T07:57:11Z</time>
      </trkpt>
      <trkpt lat="45.49568" lon="6.92304">
        <ele>1842.2</ele>
        <time>2021-01-05T07:57:13Z</time>
      </trkpt>
      <trkpt lat="45.49565" lon="6.92302">
        <ele>1842.2</ele>
        <time>2021-01-05T07:57:15Z</time>
      </trkpt>
      <trkpt lat="45.49563" lon="6.92299">
        <ele>1842.2</ele>
        <time>2021-01-05T07:57:17Z</time>
      </trkpt>
      <trkpt lat="45.49563" lon="6.92295">
        <ele>1842.2</ele>
        <time>2021-01-05T07:57:19Z</time>
      </trkpt>
      <trkpt lat="45.49562" lon="6.92291">
        <ele>1842.2</ele>
        <time>2021-01-05T07:57:21Z</time>
      </trkpt>
      <trkpt lat="45.49562" lon="6.92289">
        <ele>1842.2</ele>
        <time>2021-01-05T07:57:22Z</time>
      </trkpt>
      <trkpt lat="45.49561" lon="6.92284">
        <ele>1842.2</ele>
        <time>2021-01-05T07:57:24Z</time>
      </trkpt>
      <trkpt lat="45.4956" lon="6.92281">
        <ele>1842.2</ele>
        <time>2021-01-05T07:57:25Z</time>
      </trkpt>
      <trkpt lat="45.4956" lon="6.92277">
        <ele>1842.2</ele>
        <time>2021-01-05T07:57:26Z</time>
      </trkpt>
      <trkpt lat="45.49559" lon="6.92275">
        <ele>1842.2</ele>
        <time>2021-01-05T07:57:27Z</time>
      </trkpt>
      <trkpt lat="45.49557" lon="6.9227">
        <ele>1842.2</ele>
        <time>2021-01-05T07:57:29Z</time>
      </trkpt>
      <trkpt lat="45.49556" lon="6.92265">
        <ele>1842.2</ele>
        <time>2021-01-05T07:57:31Z</time>
      </trkpt>
      <trkpt lat="45.49554" lon="6.92261">
        <ele>1842.2</ele>
        <time>2021-01-05T07:57:33Z</time>
      </trkpt>
      <trkpt lat="45.49553" lon="6.92256">
        <ele>1842.2</ele>
        <time>2021-01-05T07:57:35Z</time>
      </trkpt>
      <trkpt lat="45.49553" lon="6.92253">
        <ele>1842.2</ele>
        <time>2021-01-05T07:57:36Z</time>
      </trkpt>
      <trkpt lat="45.49552" lon="6.92248">
        <ele>1849.6</ele>
        <time>2021-01-05T07:57:38Z</time>
      </trkpt>
      <trkpt lat="45.49551" lon="6.92244">
        <ele>1849.6</ele>
        <time>2021-01-05T07:57:40Z</time>
      </trkpt>
      <trkpt lat="45.4955" lon="6.92241">
        <ele>1849.6</ele>
        <time>2021-01-05T07:57:42Z</time>
      </trkpt>
      <trkpt lat="45.4955" lon="6.92239">
        <ele>1849.6</ele>
        <time>2021-01-05T07:57:43Z</time>
      </trkpt>
      <trkpt lat="45.49549" lon="6.92235">
        <ele>1849.6</ele>
        <time>2021-01-05T07:57:45Z</time>
      </trkpt>
      <trkpt lat="45.49548" lon="6.9223">
        <ele>1849.6</ele>
        <time>2021-01-05T07:57:47Z</time>
      </trkpt>
      <trkpt lat="45.49548" lon="6.92227">
        <ele>1850.4</ele>
        <time>2021-01-05T07:57:48Z</time>
      </trkpt>
      <trkpt lat="45.49548" lon="6.92224">
        <ele>1850.4</ele>
        <time>2021-01-05T07:57:49Z</time>
      </trkpt>
      <trkpt lat="45.49547" lon="6.92221">
        <ele>1850.4</ele>
        <time>2021-01-05T07:57:50Z</time>
      </trkpt>
      <trkpt lat="45.49547" lon="6.92218">
        <ele>1850.4</ele>
        <time>2021-01-05T07:57:51Z</time>
      </trkpt>
      <trkpt lat="45.49546" lon="6.92214">
        <ele>1850.4</ele>
        <time>2021-01-05T07:57:53Z</time>
      </trkpt>
      <trkpt lat="45.49545" lon="6.92211">
        <ele>1850.4</ele>
        <time>2021-01-05T07:57:55Z</time>
      </trkpt>
      <trkpt lat="45.49544" lon="6.92209">
        <ele>1850.4</ele>
        <time>2021-01-05T07:57:57Z</time>
      </trkpt>
      <trkpt lat="45.49543" lon="6.92206">
        <ele>1850.4</ele>
        <time>2021-01-05T07:57:59Z</time>
      </trkpt>
      <trkpt lat="45.49542" lon="6.92203">
        <ele>1850.4</ele>
        <time>2021-01-05T07:58:01Z</time>
      </trkpt>
      <trkpt lat="45.49541" lon="6.92198">
        <ele>1850.4</ele>
        <time>2021-01-05T07:58:03Z</time>
      </trkpt>
      <trkpt lat="45.49539" lon="6.92195">
        <ele>1850.4</ele>
        <time>2021-01-05T07:58:04Z</time>
      </trkpt>
      <trkpt lat="45.49537" lon="6.92194">
        <ele>1850.4</ele>
        <time>2021-01-05T07:58:05Z</time>
      </trkpt>
      <trkpt lat="45.49535" lon="6.92194">
        <ele>1850.4</ele>
        <time>2021-01-05T07:58:06Z</time>
      </trkpt>
      <trkpt lat="45.49532" lon="6.92194">
        <ele>1858</ele>
        <time>2021-01-05T07:58:08Z</time>
      </trkpt>
      <trkpt lat="45.49529" lon="6.92196">
        <ele>1858</ele>
        <time>2021-01-05T07:58:10Z</time>
      </trkpt>
      <trkpt lat="45.49526" lon="6.92197">
        <ele>1858</ele>
        <time>2021-01-05T07:58:12Z</time>
      </trkpt>
      <trkpt lat="45.49524" lon="6.92199">
        <ele>1858</ele>
        <time>2021-01-05T07:58:14Z</time>
      </trkpt>
      <trkpt lat="45.49522" lon="6.92199">
        <ele>1858</ele>
        <time>2021-01-05T07:58:16Z</time>
      </trkpt>
      <trkpt lat="45.49519" lon="6.92198">
        <ele>1861.4</ele>
        <time>2021-01-05T07:58:18Z</time>
      </trkpt>
      <trkpt lat="45.49516" lon="6.92198">
        <ele>1861.4</ele>
        <time>2021-01-05T07:58:20Z</time>
      </trkpt>
      <trkpt lat="45.49514" lon="6.92199">
        <ele>1861.4</ele>
        <time>2021-01-05T07:58:21Z</time>
      </trkpt>
      <trkpt lat="45.49511" lon="6.922">
        <ele>1861.4</ele>
        <time>2021-01-05T07:58:23Z</time>
      </trkpt>
      <trkpt lat="45.49508" lon="6.92201">
        <ele>1861.4</ele>
        <time>2021-01-05T07:58:25Z</time>
      </trkpt>
      <trkpt lat="45.49506" lon="6.92203">
        <ele>1861.4</ele>
        <time>2021-01-05T07:58:27Z</time>
      </trkpt>
      <trkpt lat="45.49503" lon="6.92204">
        <ele>1861.4</ele>
        <time>2021-01-05T07:58:29Z</time>
      </trkpt>
      <trkpt lat="45.495" lon="6.92204">
        <ele>1861.4</ele>
        <time>2021-01-05T07:58:31Z</time>
      </trkpt>
      <trkpt lat="45.49497" lon="6.92206">
        <ele>1861.4</ele>
        <time>2021-01-05T07:58:33Z</time>
      </trkpt>
      <trkpt lat="45.49495" lon="6.92206">
        <ele>1861.4</ele>
        <time>2021-01-05T07:58:34Z</time>
      </trkpt>
      <trkpt lat="45.49492" lon="6.92206">
        <ele>1861.4</ele>
        <time>2021-01-05T07:58:36Z</time>
      </trkpt>
      <trkpt lat="45.4949" lon="6.92207">
        <ele>1866.8</ele>
        <time>2021-01-05T07:58:38Z</time>
      </trkpt>
      <trkpt lat="45.49486" lon="6.92207">
        <ele>1866.8</ele>
        <time>2021-01-05T07:58:40Z</time>
      </trkpt>
      <trkpt lat="45.49484" lon="6.92207">
        <ele>1866.8</ele>
        <time>2021-01-05T07:58:41Z</time>
      </trkpt>
      <trkpt lat="45.49482" lon="6.92207">
        <ele>1866.8</ele>
        <time>2021-01-05T07:58:43Z</time>
      </trkpt>
      <trkpt lat="45.4948" lon="6.92208">
        <ele>1866.8</ele>
        <time>2021-01-05T07:58:45Z</time>
      </trkpt>
      <trkpt lat="45.49477" lon="6.92209">
        <ele>1866.8</ele>
        <time>2021-01-05T07:58:47Z</time>
      </trkpt>
      <trkpt lat="45.49473" lon="6.92209">
        <ele>1866.8</ele>
        <time>2021-01-05T07:58:49Z</time>
      </trkpt>
      <trkpt lat="45.49471" lon="6.92209">
        <ele>1866.8</ele>
        <time>2021-01-05T07:58:50Z</time>
      </trkpt>
      <trkpt lat="45.49468" lon="6.9221">
        <ele>1866.8</ele>
        <time>2021-01-05T07:58:52Z</time>
      </trkpt>
      <trkpt lat="45.49466" lon="6.92211">
        <ele>1866.8</ele>
        <time>2021-01-05T07:58:54Z</time>
      </trkpt>
      <trkpt lat="45.49462" lon="6.92211">
        <ele>1866.8</ele>
        <time>2021-01-05T07:58:56Z</time>
      </trkpt>
      <trkpt lat="45.4946" lon="6.92211">
        <ele>1870</ele>
        <time>2021-01-05T07:58:58Z</time>
      </trkpt>
      <trkpt lat="45.49458" lon="6.92211">
        <ele>1870</ele>
        <time>2021-01-05T07:58:59Z</time>
      </trkpt>
      <trkpt lat="45.49454" lon="6.92211">
        <ele>1870</ele>
        <time>2021-01-05T07:59:01Z</time>
      </trkpt>
      <trkpt lat="45.49452" lon="6.9221">
        <ele>1870</ele>
        <time>2021-01-05T07:59:03Z</time>
      </trkpt>
      <trkpt lat="45.4945" lon="6.9221">
        <ele>1870</ele>
        <time>2021-01-05T07:59:05Z</time>
      </trkpt>
      <trkpt lat="45.49448" lon="6.9221">
        <ele>1870</ele>
        <time>2021-01-05T07:59:07Z</time>
      </trkpt>
      <trkpt lat="45.49446" lon="6.92208">
        <ele>1870</ele>
        <time>2021-01-05T07:59:09Z</time>
      </trkpt>
      <trkpt lat="45.49444" lon="6.92206">
        <ele>1870</ele>
        <time>2021-01-05T07:59:11Z</time>
      </trkpt>
      <trkpt lat="45.49443" lon="6.92204">
        <ele>1870</ele>
        <time>2021-01-05T07:59:13Z</time>
      </trkpt>
      <trkpt lat="45.4944" lon="6.92201">
        <ele>1870</ele>
        <time>2021-01-05T07:59:15Z</time>
      </trkpt>
      <trkpt lat="45.49438" lon="6.92198">
        <ele>1870</ele>
        <time>2021-01-05T07:59:17Z</time>
      </trkpt>
      <trkpt lat="45.49436" lon="6.92194">
        <ele>1870</ele>
        <time>2021-01-05T07:59:19Z</time>
      </trkpt>
      <trkpt lat="45.49436" lon="6.92192">
        <ele>1870</ele>
        <time>2021-01-05T07:59:21Z</time>
      </trkpt>
      <trkpt lat="45.49436" lon="6.92189">
        <ele>1870</ele>
        <time>2021-01-05T07:59:23Z</time>
      </trkpt>
      <trkpt lat="45.49435" lon="6.92186">
        <ele>1870</ele>
        <time>2021-01-05T07:59:26Z</time>
      </trkpt>
      <trkpt lat="45.49435" lon="6.92182">
        <ele>1870</ele>
        <time>2021-01-05T07:59:29Z</time>
      </trkpt>
      <trkpt lat="45.49436" lon="6.92179">
        <ele>1870</ele>
        <time>2021-01-05T07:59:32Z</time>
      </trkpt>
      <trkpt lat="45.49435" lon="6.92176">
        <ele>1870</ele>
        <time>2021-01-05T07:59:34Z</time>
      </trkpt>
      <trkpt lat="45.49435" lon="6.92173">
        <ele>1870</ele>
        <time>2021-01-05T07:59:36Z</time>
      </trkpt>
      <trkpt lat="45.49435" lon="6.9217">
        <ele>1870</ele>
        <time>2021-01-05T07:59:39Z</time>
      </trkpt>
      <trkpt lat="45.49437" lon="6.92168">
        <ele>1870</ele>
        <time>2021-01-05T07:59:41Z</time>
      </trkpt>
      <trkpt lat="45.49438" lon="6.92165">
        <ele>1870</ele>
        <time>2021-01-05T07:59:43Z</time>
      </trkpt>
      <trkpt lat="45.49439" lon="6.92162">
        <ele>1870</ele>
        <time>2021-01-05T07:59:45Z</time>
      </trkpt>
      <trkpt lat="45.49441" lon="6.92159">
        <ele>1870</ele>
        <time>2021-01-05T07:59:47Z</time>
      </trkpt>
      <trkpt lat="45.49442" lon="6.92156">
        <ele>1870</ele>
        <time>2021-01-05T07:59:49Z</time>
      </trkpt>
      <trkpt lat="45.49444" lon="6.92154">
        <ele>1870</ele>
        <time>2021-01-05T07:59:51Z</time>
      </trkpt>
      <trkpt lat="45.49445" lon="6.92152">
        <ele>1870</ele>
        <time>2021-01-05T07:59:53Z</time>
      </trkpt>
      <trkpt lat="45.49448" lon="6.92149">
        <ele>1870</ele>
        <time>2021-01-05T07:59:56Z</time>
      </trkpt>
      <trkpt lat="45.4945" lon="6.92146">
        <ele>1889.8</ele>
        <time>2021-01-05T07:59:58Z</time>
      </trkpt>
      <trkpt lat="45.49451" lon="6.92142">
        <ele>1889.8</ele>
        <time>2021-01-05T08:00:00Z</time>
      </trkpt>
      <trkpt lat="45.49452" lon="6.92137">
        <ele>1889.8</ele>
        <time>2021-01-05T08:00:03Z</time>
      </trkpt>
      <trkpt lat="45.49452" lon="6.92134">
        <ele>1889.8</ele>
        <time>2021-01-05T08:00:05Z</time>
      </trkpt>
      <trkpt lat="45.49452" lon="6.92131">
        <ele>1889.8</ele>
        <time>2021-01-05T08:00:07Z</time>
      </trkpt>
      <trkpt lat="45.49452" lon="6.92128">
        <ele>1889.8</ele>
        <time>2021-01-05T08:00:09Z</time>
      </trkpt>
      <trkpt lat="45.49452" lon="6.92124">
        <ele>1889.8</ele>
        <time>2021-01-05T08:00:12Z</time>
      </trkpt>
      <trkpt lat="45.49451" lon="6.92121">
        <ele>1889.8</ele>
        <time>2021-01-05T08:00:15Z</time>
      </trkpt>
      <trkpt lat="45.4945" lon="6.92118">
        <ele>1889.8</ele>
        <time>2021-01-05T08:00:17Z</time>
      </trkpt>
      <trkpt lat="45.49448" lon="6.92116">
        <ele>1889.8</ele>
        <time>2021-01-05T08:00:20Z</time>
      </trkpt>
      <trkpt lat="45.49446" lon="6.92114">
        <ele>1889.8</ele>
        <time>2021-01-05T08:00:21Z</time>
      </trkpt>
      <trkpt lat="45.49444" lon="6.92114">
        <ele>1889.8</ele>
        <time>2021-01-05T08:00:23Z</time>
      </trkpt>
      <trkpt lat="45.49442" lon="6.92114">
        <ele>1889.8</ele>
        <time>2021-01-05T08:00:25Z</time>
      </trkpt>
      <trkpt lat="45.49439" lon="6.92114">
        <ele>1889.8</ele>
        <time>2021-01-05T08:00:27Z</time>
      </trkpt>
      <trkpt lat="45.49437" lon="6.92114">
        <ele>1889.8</ele>
        <time>2021-01-05T08:00:29Z</time>
      </trkpt>
      <trkpt lat="45.49435" lon="6.92115">
        <ele>1889.8</ele>
        <time>2021-01-05T08:00:31Z</time>
      </trkpt>
      <trkpt lat="45.49432" lon="6.92115">
        <ele>1889.8</ele>
        <time>2021-01-05T08:00:33Z</time>
      </trkpt>
      <trkpt lat="45.4943" lon="6.92116">
        <ele>1889.8</ele>
        <time>2021-01-05T08:00:35Z</time>
      </trkpt>
      <trkpt lat="45.49427" lon="6.92117">
        <ele>1889.8</ele>
        <time>2021-01-05T08:00:37Z</time>
      </trkpt>
      <trkpt lat="45.49424" lon="6.92118">
        <ele>1889.8</ele>
        <time>2021-01-05T08:00:40Z</time>
      </trkpt>
      <trkpt lat="45.49421" lon="6.92119">
        <ele>1889.8</ele>
        <time>2021-01-05T08:00:42Z</time>
      </trkpt>
      <trkpt lat="45.49419" lon="6.92119">
        <ele>1889.8</ele>
        <time>2021-01-05T08:00:44Z</time>
      </trkpt>
      <trkpt lat="45.49416" lon="6.9212">
        <ele>1889.8</ele>
        <time>2021-01-05T08:00:46Z</time>
      </trkpt>
      <trkpt lat="45.49414" lon="6.92121">
        <ele>1904</ele>
        <time>2021-01-05T08:00:48Z</time>
      </trkpt>
      <trkpt lat="45.49412" lon="6.92121">
        <ele>1904</ele>
        <time>2021-01-05T08:00:50Z</time>
      </trkpt>
      <trkpt lat="45.49409" lon="6.92122">
        <ele>1904</ele>
        <time>2021-01-05T08:00:52Z</time>
      </trkpt>
      <trkpt lat="45.49406" lon="6.92123">
        <ele>1904</ele>
        <time>2021-01-05T08:00:54Z</time>
      </trkpt>
      <trkpt lat="45.49404" lon="6.92123">
        <ele>1904</ele>
        <time>2021-01-05T08:00:56Z</time>
      </trkpt>
      <trkpt lat="45.49402" lon="6.92123">
        <ele>1905.2</ele>
        <time>2021-01-05T08:00:58Z</time>
      </trkpt>
      <trkpt lat="45.494" lon="6.92123">
        <ele>1905.2</ele>
        <time>2021-01-05T08:01:00Z</time>
      </trkpt>
      <trkpt lat="45.49397" lon="6.92124">
        <ele>1905.2</ele>
        <time>2021-01-05T08:01:02Z</time>
      </trkpt>
      <trkpt lat="45.49395" lon="6.92126">
        <ele>1905.2</ele>
        <time>2021-01-05T08:01:04Z</time>
      </trkpt>
      <trkpt lat="45.49392" lon="6.92126">
        <ele>1905.2</ele>
        <time>2021-01-05T08:01:05Z</time>
      </trkpt>
      <trkpt lat="45.4939" lon="6.92127">
        <ele>1906.2</ele>
        <time>2021-01-05T08:01:08Z</time>
      </trkpt>
      <trkpt lat="45.49387" lon="6.92127">
        <ele>1906.2</ele>
        <time>2021-01-05T08:01:10Z</time>
      </trkpt>
      <trkpt lat="45.49385" lon="6.92129">
        <ele>1906.2</ele>
        <time>2021-01-05T08:01:12Z</time>
      </trkpt>
      <trkpt lat="45.49382" lon="6.9213">
        <ele>1906.2</ele>
        <time>2021-01-05T08:01:14Z</time>
      </trkpt>
      <trkpt lat="45.4938" lon="6.9213">
        <ele>1906.2</ele>
        <time>2021-01-05T08:01:16Z</time>
      </trkpt>
      <trkpt lat="45.49378" lon="6.92131">
        <ele>1907</ele>
        <time>2021-01-05T08:01:18Z</time>
      </trkpt>
      <trkpt lat="45.49374" lon="6.92132">
        <ele>1907</ele>
        <time>2021-01-05T08:01:20Z</time>
      </trkpt>
      <trkpt lat="45.49372" lon="6.92132">
        <ele>1907</ele>
        <time>2021-01-05T08:01:22Z</time>
      </trkpt>
      <trkpt lat="45.49369" lon="6.92134">
        <ele>1907</ele>
        <time>2021-01-05T08:01:24Z</time>
      </trkpt>
      <trkpt lat="45.49365" lon="6.92136">
        <ele>1907</ele>
        <time>2021-01-05T08:01:26Z</time>
      </trkpt>
      <trkpt lat="45.49363" lon="6.92137">
        <ele>1908</ele>
        <time>2021-01-05T08:01:28Z</time>
      </trkpt>
      <trkpt lat="45.49361" lon="6.92138">
        <ele>1908</ele>
        <time>2021-01-05T08:01:30Z</time>
      </trkpt>
      <trkpt lat="45.49358" lon="6.92138">
        <ele>1908</ele>
        <time>2021-01-05T08:01:32Z</time>
      </trkpt>
      <trkpt lat="45.49356" lon="6.92138">
        <ele>1908</ele>
        <time>2021-01-05T08:01:34Z</time>
      </trkpt>
      <trkpt lat="45.49353" lon="6.92139">
        <ele>1908</ele>
        <time>2021-01-05T08:01:36Z</time>
      </trkpt>
      <trkpt lat="45.49351" lon="6.92138">
        <ele>1909.6</ele>
        <time>2021-01-05T08:01:38Z</time>
      </trkpt>
      <trkpt lat="45.49348" lon="6.92139">
        <ele>1909.6</ele>
        <time>2021-01-05T08:01:41Z</time>
      </trkpt>
      <trkpt lat="45.49346" lon="6.9214">
        <ele>1909.6</ele>
        <time>2021-01-05T08:01:43Z</time>
      </trkpt>
      <trkpt lat="45.49344" lon="6.9214">
        <ele>1909.6</ele>
        <time>2021-01-05T08:01:45Z</time>
      </trkpt>
      <trkpt lat="45.49342" lon="6.9214">
        <ele>1909.6</ele>
        <time>2021-01-05T08:01:47Z</time>
      </trkpt>
      <trkpt lat="45.4934" lon="6.9214">
        <ele>1909.6</ele>
        <time>2021-01-05T08:01:49Z</time>
      </trkpt>
      <trkpt lat="45.49338" lon="6.9214">
        <ele>1909.6</ele>
        <time>2021-01-05T08:01:51Z</time>
      </trkpt>
      <trkpt lat="45.49336" lon="6.92141">
        <ele>1909.6</ele>
        <time>2021-01-05T08:01:53Z</time>
      </trkpt>
      <trkpt lat="45.49334" lon="6.92141">
        <ele>1909.6</ele>
        <time>2021-01-05T08:01:55Z</time>
      </trkpt>
      <trkpt lat="45.49332" lon="6.92142">
        <ele>1909.6</ele>
        <time>2021-01-05T08:01:57Z</time>
      </trkpt>
      <trkpt lat="45.4933" lon="6.92143">
        <ele>1909.6</ele>
        <time>2021-01-05T08:02:00Z</time>
      </trkpt>
      <trkpt lat="45.49327" lon="6.92143">
        <ele>1909.6</ele>
        <time>2021-01-05T08:02:02Z</time>
      </trkpt>
      <trkpt lat="45.49325" lon="6.92144">
        <ele>1909.6</ele>
        <time>2021-01-05T08:02:05Z</time>
      </trkpt>
      <trkpt lat="45.49323" lon="6.92144">
        <ele>1909.6</ele>
        <time>2021-01-05T08:02:07Z</time>
      </trkpt>
      <trkpt lat="45.49321" lon="6.92143">
        <ele>1909.6</ele>
        <time>2021-01-05T08:02:09Z</time>
      </trkpt>
      <trkpt lat="45.49319" lon="6.92144">
        <ele>1909.6</ele>
        <time>2021-01-05T08:02:11Z</time>
      </trkpt>
      <trkpt lat="45.49317" lon="6.92143">
        <ele>1909.6</ele>
        <time>2021-01-05T08:02:13Z</time>
      </trkpt>
      <trkpt lat="45.49314" lon="6.92142">
        <ele>1909.6</ele>
        <time>2021-01-05T08:02:15Z</time>
      </trkpt>
      <trkpt lat="45.49312" lon="6.92142">
        <ele>1918.6</ele>
        <time>2021-01-05T08:02:18Z</time>
      </trkpt>
      <trkpt lat="45.49309" lon="6.92144">
        <ele>1918.6</ele>
        <time>2021-01-05T08:02:20Z</time>
      </trkpt>
      <trkpt lat="45.49307" lon="6.92145">
        <ele>1918.6</ele>
        <time>2021-01-05T08:02:22Z</time>
      </trkpt>
      <trkpt lat="45.49304" lon="6.92146">
        <ele>1918.6</ele>
        <time>2021-01-05T08:02:24Z</time>
      </trkpt>
      <trkpt lat="45.49301" lon="6.92148">
        <ele>1918.6</ele>
        <time>2021-01-05T08:02:26Z</time>
      </trkpt>
      <trkpt lat="45.49299" lon="6.92148">
        <ele>1920</ele>
        <time>2021-01-05T08:02:28Z</time>
      </trkpt>
      <trkpt lat="45.49297" lon="6.92148">
        <ele>1920</ele>
        <time>2021-01-05T08:02:30Z</time>
      </trkpt>
      <trkpt lat="45.49294" lon="6.92148">
        <ele>1920</ele>
        <time>2021-01-05T08:02:32Z</time>
      </trkpt>
      <trkpt lat="45.49292" lon="6.92146">
        <ele>1920</ele>
        <time>2021-01-05T08:02:34Z</time>
      </trkpt>
      <trkpt lat="45.4929" lon="6.92146">
        <ele>1920</ele>
        <time>2021-01-05T08:02:36Z</time>
      </trkpt>
      <trkpt lat="45.49288" lon="6.92145">
        <ele>1921.2</ele>
        <time>2021-01-05T08:02:38Z</time>
      </trkpt>
      <trkpt lat="45.49285" lon="6.92145">
        <ele>1921.2</ele>
        <time>2021-01-05T08:02:40Z</time>
      </trkpt>
      <trkpt lat="45.49282" lon="6.92145">
        <ele>1921.2</ele>
        <time>2021-01-05T08:02:42Z</time>
      </trkpt>
      <trkpt lat="45.4928" lon="6.92146">
        <ele>1921.2</ele>
        <time>2021-01-05T08:02:44Z</time>
      </trkpt>
      <trkpt lat="45.49277" lon="6.92145">
        <ele>1921.2</ele>
        <time>2021-01-05T08:02:46Z</time>
      </trkpt>
      <trkpt lat="45.49275" lon="6.92146">
        <ele>1922.8</ele>
        <time>2021-01-05T08:02:48Z</time>
      </trkpt>
      <trkpt lat="45.49273" lon="6.92148">
        <ele>1922.8</ele>
        <time>2021-01-05T08:02:50Z</time>
      </trkpt>
      <trkpt lat="45.49271" lon="6.92149">
        <ele>1922.8</ele>
        <time>2021-01-05T08:02:52Z</time>
      </trkpt>
      <trkpt lat="45.49269" lon="6.9215">
        <ele>1922.8</ele>
        <time>2021-01-05T08:02:54Z</time>
      </trkpt>
      <trkpt lat="45.49267" lon="6.92152">
        <ele>1922.8</ele>
        <time>2021-01-05T08:02:56Z</time>
      </trkpt>
      <trkpt lat="45.49265" lon="6.92152">
        <ele>1924.8</ele>
        <time>2021-01-05T08:02:58Z</time>
      </trkpt>
      <trkpt lat="45.49262" lon="6.92153">
        <ele>1924.8</ele>
        <time>2021-01-05T08:03:00Z</time>
      </trkpt>
      <trkpt lat="45.49259" lon="6.92153">
        <ele>1924.8</ele>
        <time>2021-01-05T08:03:04Z</time>
      </trkpt>
      <trkpt lat="45.49257" lon="6.92153">
        <ele>1924.8</ele>
        <time>2021-01-05T08:03:07Z</time>
      </trkpt>
      <trkpt lat="45.49254" lon="6.92152">
        <ele>1924.8</ele>
        <time>2021-01-05T08:03:10Z</time>
      </trkpt>
      <trkpt lat="45.49252" lon="6.92153">
        <ele>1924.8</ele>
        <time>2021-01-05T08:03:13Z</time>
      </trkpt>
      <trkpt lat="45.4925" lon="6.92154">
        <ele>1924.8</ele>
        <time>2021-01-05T08:03:15Z</time>
      </trkpt>
      <trkpt lat="45.49248" lon="6.92155">
        <ele>1924.8</ele>
        <time>2021-01-05T08:03:17Z</time>
      </trkpt>
      <trkpt lat="45.49245" lon="6.92156">
        <ele>1924.8</ele>
        <time>2021-01-05T08:03:20Z</time>
      </trkpt>
      <trkpt lat="45.49243" lon="6.92156">
        <ele>1924.8</ele>
        <time>2021-01-05T08:03:22Z</time>
      </trkpt>
      <trkpt lat="45.49241" lon="6.92155">
        <ele>1924.8</ele>
        <time>2021-01-05T08:03:24Z</time>
      </trkpt>
      <trkpt lat="45.49239" lon="6.92154">
        <ele>1924.8</ele>
        <time>2021-01-05T08:03:26Z</time>
      </trkpt>
      <trkpt lat="45.49237" lon="6.92155">
        <ele>1924.8</ele>
        <time>2021-01-05T08:03:29Z</time>
      </trkpt>
      <trkpt lat="45.49235" lon="6.92155">
        <ele>1924.8</ele>
        <time>2021-01-05T08:03:31Z</time>
      </trkpt>
      <trkpt lat="45.49233" lon="6.92155">
        <ele>1924.8</ele>
        <time>2021-01-05T08:03:34Z</time>
      </trkpt>
      <trkpt lat="45.49231" lon="6.92156">
        <ele>1924.8</ele>
        <time>2021-01-05T08:03:37Z</time>
      </trkpt>
      <trkpt lat="45.49229" lon="6.92157">
        <ele>1924.8</ele>
        <time>2021-01-05T08:03:39Z</time>
      </trkpt>
      <trkpt lat="45.49228" lon="6.92158">
        <ele>1924.8</ele>
        <time>2021-01-05T08:03:41Z</time>
      </trkpt>
      <trkpt lat="45.49226" lon="6.9216">
        <ele>1924.8</ele>
        <time>2021-01-05T08:03:43Z</time>
      </trkpt>
      <trkpt lat="45.49224" lon="6.9216">
        <ele>1924.8</ele>
        <time>2021-01-05T08:03:45Z</time>
      </trkpt>
      <trkpt lat="45.49221" lon="6.92159">
        <ele>1924.8</ele>
        <time>2021-01-05T08:03:47Z</time>
      </trkpt>
      <trkpt lat="45.49219" lon="6.92158">
        <ele>1924.8</ele>
        <time>2021-01-05T08:03:50Z</time>
      </trkpt>
      <trkpt lat="45.49217" lon="6.92157">
        <ele>1924.8</ele>
        <time>2021-01-05T08:03:52Z</time>
      </trkpt>
      <trkpt lat="45.49215" lon="6.92156">
        <ele>1924.8</ele>
        <time>2021-01-05T08:03:55Z</time>
      </trkpt>
      <trkpt lat="45.49213" lon="6.92154">
        <ele>1924.8</ele>
        <time>2021-01-05T08:03:59Z</time>
      </trkpt>
      <trkpt lat="45.49211" lon="6.92154">
        <ele>1924.8</ele>
        <time>2021-01-05T08:04:02Z</time>
      </trkpt>
      <trkpt lat="45.49208" lon="6.92154">
        <ele>1924.8</ele>
        <time>2021-01-05T08:04:04Z</time>
      </trkpt>
      <trkpt lat="45.49206" lon="6.92153">
        <ele>1924.8</ele>
        <time>2021-01-05T08:04:06Z</time>
      </trkpt>
      <trkpt lat="45.49204" lon="6.92152">
        <ele>1924.8</ele>
        <time>2021-01-05T08:04:09Z</time>
      </trkpt>
      <trkpt lat="45.49202" lon="6.92153">
        <ele>1924.8</ele>
        <time>2021-01-05T08:04:11Z</time>
      </trkpt>
      <trkpt lat="45.49199" lon="6.92154">
        <ele>1924.8</ele>
        <time>2021-01-05T08:04:14Z</time>
      </trkpt>
      <trkpt lat="45.49197" lon="6.92154">
        <ele>1924.8</ele>
        <time>2021-01-05T08:04:16Z</time>
      </trkpt>
      <trkpt lat="45.49195" lon="6.92155">
        <ele>1945</ele>
        <time>2021-01-05T08:04:18Z</time>
      </trkpt>
      <trkpt lat="45.49193" lon="6.92156">
        <ele>1945</ele>
        <time>2021-01-05T08:04:20Z</time>
      </trkpt>
      <trkpt lat="45.4919" lon="6.92155">
        <ele>1945</ele>
        <time>2021-01-05T08:04:23Z</time>
      </trkpt>
      <trkpt lat="45.49188" lon="6.92155">
        <ele>1945</ele>
        <time>2021-01-05T08:04:26Z</time>
      </trkpt>
      <trkpt lat="45.49184" lon="6.92155">
        <ele>1945</ele>
        <time>2021-01-05T08:04:29Z</time>
      </trkpt>
      <trkpt lat="45.49182" lon="6.92155">
        <ele>1945</ele>
        <time>2021-01-05T08:04:31Z</time>
      </trkpt>
      <trkpt lat="45.4918" lon="6.92155">
        <ele>1945</ele>
        <time>2021-01-05T08:04:33Z</time>
      </trkpt>
      <trkpt lat="45.49178" lon="6.92156">
        <ele>1945</ele>
        <time>2021-01-05T08:04:36Z</time>
      </trkpt>
      <trkpt lat="45.49176" lon="6.92158">
        <ele>1945</ele>
        <time>2021-01-05T08:04:39Z</time>
      </trkpt>
      <trkpt lat="45.49174" lon="6.92159">
        <ele>1945</ele>
        <time>2021-01-05T08:04:41Z</time>
      </trkpt>
      <trkpt lat="45.49172" lon="6.92161">
        <ele>1945</ele>
        <time>2021-01-05T08:04:43Z</time>
      </trkpt>
      <trkpt lat="45.4917" lon="6.9216">
        <ele>1945</ele>
        <time>2021-01-05T08:04:46Z</time>
      </trkpt>
      <trkpt lat="45.49167" lon="6.9216">
        <ele>1945</ele>
        <time>2021-01-05T08:04:49Z</time>
      </trkpt>
      <trkpt lat="45.49165" lon="6.92161">
        <ele>1945</ele>
        <time>2021-01-05T08:04:52Z</time>
      </trkpt>
      <trkpt lat="45.49163" lon="6.92162">
        <ele>1945</ele>
        <time>2021-01-05T08:04:54Z</time>
      </trkpt>
      <trkpt lat="45.49161" lon="6.92164">
        <ele>1945</ele>
        <time>2021-01-05T08:04:56Z</time>
      </trkpt>
      <trkpt lat="45.49158" lon="6.92164">
        <ele>1945</ele>
        <time>2021-01-05T08:04:59Z</time>
      </trkpt>
      <trkpt lat="45.49156" lon="6.92164">
        <ele>1945</ele>
        <time>2021-01-05T08:05:01Z</time>
      </trkpt>
      <trkpt lat="45.49155" lon="6.92166">
        <ele>1945</ele>
        <time>2021-01-05T08:05:04Z</time>
      </trkpt>
      <trkpt lat="45.49153" lon="6.92168">
        <ele>1945</ele>
        <time>2021-01-05T08:05:07Z</time>
      </trkpt>
      <trkpt lat="45.4915" lon="6.92169">
        <ele>1945</ele>
        <time>2021-01-05T08:05:09Z</time>
      </trkpt>
      <trkpt lat="45.49148" lon="6.92171">
        <ele>1945</ele>
        <time>2021-01-05T08:05:12Z</time>
      </trkpt>
      <trkpt lat="45.49146" lon="6.92172">
        <ele>1945</ele>
        <time>2021-01-05T08:05:15Z</time>
      </trkpt>
      <trkpt lat="45.49144" lon="6.92172">
        <ele>1945</ele>
        <time>2021-01-05T08:05:17Z</time>
      </trkpt>
      <trkpt lat="45.49142" lon="6.92173">
        <ele>1945</ele>
        <time>2021-01-05T08:05:19Z</time>
      </trkpt>
      <trkpt lat="45.49139" lon="6.92174">
        <ele>1945</ele>
        <time>2021-01-05T08:05:21Z</time>
      </trkpt>
      <trkpt lat="45.49136" lon="6.92175">
        <ele>1945</ele>
        <time>2021-01-05T08:05:24Z</time>
      </trkpt>
      <trkpt lat="45.49134" lon="6.92174">
        <ele>1945</ele>
        <time>2021-01-05T08:05:26Z</time>
      </trkpt>
      <trkpt lat="45.49132" lon="6.92175">
        <ele>1963.4</ele>
        <time>2021-01-05T08:05:28Z</time>
      </trkpt>
      <trkpt lat="45.49131" lon="6.92176">
        <ele>1963.4</ele>
        <time>2021-01-05T08:05:30Z</time>
      </trkpt>
      <trkpt lat="45.49129" lon="6.92177">
        <ele>1963.4</ele>
        <time>2021-01-05T08:05:32Z</time>
      </trkpt>
      <trkpt lat="45.49126" lon="6.92179">
        <ele>1963.4</ele>
        <time>2021-01-05T08:05:35Z</time>
      </trkpt>
      <trkpt lat="45.49124" lon="6.9218">
        <ele>1963.4</ele>
        <time>2021-01-05T08:05:37Z</time>
      </trkpt>
      <trkpt lat="45.49123" lon="6.92182">
        <ele>1963.4</ele>
        <time>2021-01-05T08:05:39Z</time>
      </trkpt>
      <trkpt lat="45.49121" lon="6.92183">
        <ele>1963.4</ele>
        <time>2021-01-05T08:05:41Z</time>
      </trkpt>
      <trkpt lat="45.49119" lon="6.92184">
        <ele>1963.4</ele>
        <time>2021-01-05T08:05:43Z</time>
      </trkpt>
      <trkpt lat="45.49116" lon="6.92184">
        <ele>1963.4</ele>
        <time>2021-01-05T08:05:45Z</time>
      </trkpt>
      <trkpt lat="45.49114" lon="6.92185">
        <ele>1963.4</ele>
        <time>2021-01-05T08:05:47Z</time>
      </trkpt>
      <trkpt lat="45.49112" lon="6.92187">
        <ele>1963.4</ele>
        <time>2021-01-05T08:05:49Z</time>
      </trkpt>
      <trkpt lat="45.4911" lon="6.92189">
        <ele>1963.4</ele>
        <time>2021-01-05T08:05:51Z</time>
      </trkpt>
      <trkpt lat="45.49108" lon="6.92191">
        <ele>1963.4</ele>
        <time>2021-01-05T08:05:53Z</time>
      </trkpt>
      <trkpt lat="45.49106" lon="6.92192">
        <ele>1963.4</ele>
        <time>2021-01-05T08:05:55Z</time>
      </trkpt>
      <trkpt lat="45.49104" lon="6.92194">
        <ele>1963.4</ele>
        <time>2021-01-05T08:05:57Z</time>
      </trkpt>
      <trkpt lat="45.49102" lon="6.92196">
        <ele>1963.4</ele>
        <time>2021-01-05T08:05:59Z</time>
      </trkpt>
      <trkpt lat="45.49099" lon="6.92198">
        <ele>1963.4</ele>
        <time>2021-01-05T08:06:01Z</time>
      </trkpt>
      <trkpt lat="45.49098" lon="6.92201">
        <ele>1963.4</ele>
        <time>2021-01-05T08:06:03Z</time>
      </trkpt>
      <trkpt lat="45.49095" lon="6.92204">
        <ele>1963.4</ele>
        <time>2021-01-05T08:06:05Z</time>
      </trkpt>
      <trkpt lat="45.49092" lon="6.92207">
        <ele>1972.8</ele>
        <time>2021-01-05T08:06:08Z</time>
      </trkpt>
      <trkpt lat="45.49091" lon="6.92209">
        <ele>1972.8</ele>
        <time>2021-01-05T08:06:10Z</time>
      </trkpt>
      <trkpt lat="45.49089" lon="6.92211">
        <ele>1972.8</ele>
        <time>2021-01-05T08:06:12Z</time>
      </trkpt>
      <trkpt lat="45.49087" lon="6.92214">
        <ele>1972.8</ele>
        <time>2021-01-05T08:06:14Z</time>
      </trkpt>
      <trkpt lat="45.49086" lon="6.92216">
        <ele>1972.8</ele>
        <time>2021-01-05T08:06:16Z</time>
      </trkpt>
      <trkpt lat="45.49084" lon="6.92218">
        <ele>1973.4</ele>
        <time>2021-01-05T08:06:18Z</time>
      </trkpt>
      <trkpt lat="45.49083" lon="6.9222">
        <ele>1973.4</ele>
        <time>2021-01-05T08:06:20Z</time>
      </trkpt>
      <trkpt lat="45.49081" lon="6.92224">
        <ele>1973.4</ele>
        <time>2021-01-05T08:06:22Z</time>
      </trkpt>
      <trkpt lat="45.49079" lon="6.92226">
        <ele>1973.4</ele>
        <time>2021-01-05T08:06:24Z</time>
      </trkpt>
      <trkpt lat="45.49079" lon="6.92229">
        <ele>1973.4</ele>
        <time>2021-01-05T08:06:26Z</time>
      </trkpt>
      <trkpt lat="45.49077" lon="6.92231">
        <ele>1972.6</ele>
        <time>2021-01-05T08:06:28Z</time>
      </trkpt>
      <trkpt lat="45.49075" lon="6.92233">
        <ele>1972.6</ele>
        <time>2021-01-05T08:06:31Z</time>
      </trkpt>
      <trkpt lat="45.49073" lon="6.92234">
        <ele>1972.6</ele>
        <time>2021-01-05T08:06:33Z</time>
      </trkpt>
      <trkpt lat="45.4907" lon="6.92235">
        <ele>1972.6</ele>
        <time>2021-01-05T08:06:35Z</time>
      </trkpt>
      <trkpt lat="45.49068" lon="6.92235">
        <ele>1972.8</ele>
        <time>2021-01-05T08:06:38Z</time>
      </trkpt>
      <trkpt lat="45.49067" lon="6.92236">
        <ele>1972.8</ele>
        <time>2021-01-05T08:06:42Z</time>
      </trkpt>
      <trkpt lat="45.49065" lon="6.92239">
        <ele>1972.8</ele>
        <time>2021-01-05T08:06:46Z</time>
      </trkpt>
      <trkpt lat="45.49065" lon="6.92241">
        <ele>1974</ele>
        <time>2021-01-05T08:06:48Z</time>
      </trkpt>
      <trkpt lat="45.49062" lon="6.92242">
        <ele>1974</ele>
        <time>2021-01-05T08:06:51Z</time>
      </trkpt>
      <trkpt lat="45.4906" lon="6.92243">
        <ele>1974</ele>
        <time>2021-01-05T08:06:54Z</time>
      </trkpt>
      <trkpt lat="45.49058" lon="6.92244">
        <ele>1974</ele>
        <time>2021-01-05T08:06:56Z</time>
      </trkpt>
      <trkpt lat="45.49056" lon="6.92245">
        <ele>1976.8</ele>
        <time>2021-01-05T08:06:58Z</time>
      </trkpt>
      <trkpt lat="45.49054" lon="6.92246">
        <ele>1976.8</ele>
        <time>2021-01-05T08:07:01Z</time>
      </trkpt>
      <trkpt lat="45.49052" lon="6.92246">
        <ele>1976.8</ele>
        <time>2021-01-05T08:07:03Z</time>
      </trkpt>
      <trkpt lat="45.49049" lon="6.92248">
        <ele>1976.8</ele>
        <time>2021-01-05T08:07:05Z</time>
      </trkpt>
      <trkpt lat="45.49047" lon="6.92248">
        <ele>1976.8</ele>
        <time>2021-01-05T08:07:07Z</time>
      </trkpt>
      <trkpt lat="45.49045" lon="6.92246">
        <ele>1976.8</ele>
        <time>2021-01-05T08:07:09Z</time>
      </trkpt>
      <trkpt lat="45.49043" lon="6.92244">
        <ele>1976.8</ele>
        <time>2021-01-05T08:07:11Z</time>
      </trkpt>
      <trkpt lat="45.49041" lon="6.92241">
        <ele>1976.8</ele>
        <time>2021-01-05T08:07:13Z</time>
      </trkpt>
      <trkpt lat="45.4904" lon="6.92238">
        <ele>1976.8</ele>
        <time>2021-01-05T08:07:15Z</time>
      </trkpt>
      <trkpt lat="45.49038" lon="6.92234">
        <ele>1976.8</ele>
        <time>2021-01-05T08:07:17Z</time>
      </trkpt>
      <trkpt lat="45.49037" lon="6.9223">
        <ele>1976.8</ele>
        <time>2021-01-05T08:07:19Z</time>
      </trkpt>
      <trkpt lat="45.49037" lon="6.92228">
        <ele>1976.8</ele>
        <time>2021-01-05T08:07:21Z</time>
      </trkpt>
      <trkpt lat="45.49037" lon="6.92224">
        <ele>1976.8</ele>
        <time>2021-01-05T08:07:23Z</time>
      </trkpt>
      <trkpt lat="45.49036" lon="6.92221">
        <ele>1976.8</ele>
        <time>2021-01-05T08:07:25Z</time>
      </trkpt>
      <trkpt lat="45.49035" lon="6.92219">
        <ele>1976.8</ele>
        <time>2021-01-05T08:07:27Z</time>
      </trkpt>
      <trkpt lat="45.49035" lon="6.92215">
        <ele>1976.8</ele>
        <time>2021-01-05T08:07:29Z</time>
      </trkpt>
      <trkpt lat="45.49036" lon="6.92212">
        <ele>1976.8</ele>
        <time>2021-01-05T08:07:32Z</time>
      </trkpt>
      <trkpt lat="45.49036" lon="6.92209">
        <ele>1976.8</ele>
        <time>2021-01-05T08:07:34Z</time>
      </trkpt>
      <trkpt lat="45.49037" lon="6.92206">
        <ele>1976.8</ele>
        <time>2021-01-05T08:07:36Z</time>
      </trkpt>
      <trkpt lat="45.49038" lon="6.92203">
        <ele>1988.8</ele>
        <time>2021-01-05T08:07:38Z</time>
      </trkpt>
      <trkpt lat="45.49039" lon="6.92199">
        <ele>1988.8</ele>
        <time>2021-01-05T08:07:41Z</time>
      </trkpt>
      <trkpt lat="45.4904" lon="6.92197">
        <ele>1988.8</ele>
        <time>2021-01-05T08:07:42Z</time>
      </trkpt>
      <trkpt lat="45.49041" lon="6.92194">
        <ele>1988.8</ele>
        <time>2021-01-05T08:07:44Z</time>
      </trkpt>
      <trkpt lat="45.49043" lon="6.92191">
        <ele>1988.8</ele>
        <time>2021-01-05T08:07:46Z</time>
      </trkpt>
      <trkpt lat="45.49044" lon="6.92187">
        <ele>1994</ele>
        <time>2021-01-05T08:07:48Z</time>
      </trkpt>
      <trkpt lat="45.49044" lon="6.92184">
        <ele>1994</ele>
        <time>2021-01-05T08:07:50Z</time>
      </trkpt>
      <trkpt lat="45.49044" lon="6.92181">
        <ele>1994</ele>
        <time>2021-01-05T08:07:52Z</time>
      </trkpt>
      <trkpt lat="45.49045" lon="6.92178">
        <ele>1994</ele>
        <time>2021-01-05T08:07:54Z</time>
      </trkpt>
      <trkpt lat="45.49045" lon="6.92175">
        <ele>1994</ele>
        <time>2021-01-05T08:07:56Z</time>
      </trkpt>
      <trkpt lat="45.49046" lon="6.92172">
        <ele>1997.4</ele>
        <time>2021-01-05T08:07:58Z</time>
      </trkpt>
      <trkpt lat="45.49048" lon="6.92169">
        <ele>1997.4</ele>
        <time>2021-01-05T08:08:00Z</time>
      </trkpt>
      <trkpt lat="45.49049" lon="6.92166">
        <ele>1997.4</ele>
        <time>2021-01-05T08:08:02Z</time>
      </trkpt>
      <trkpt lat="45.4905" lon="6.92163">
        <ele>1997.4</ele>
        <time>2021-01-05T08:08:04Z</time>
      </trkpt>
      <trkpt lat="45.49051" lon="6.9216">
        <ele>1997.4</ele>
        <time>2021-01-05T08:08:06Z</time>
      </trkpt>
      <trkpt lat="45.49052" lon="6.92158">
        <ele>2001.6</ele>
        <time>2021-01-05T08:08:08Z</time>
      </trkpt>
      <trkpt lat="45.49054" lon="6.92155">
        <ele>2001.6</ele>
        <time>2021-01-05T08:08:10Z</time>
      </trkpt>
      <trkpt lat="45.49055" lon="6.92152">
        <ele>2001.6</ele>
        <time>2021-01-05T08:08:12Z</time>
      </trkpt>
      <trkpt lat="45.49057" lon="6.92149">
        <ele>2001.6</ele>
        <time>2021-01-05T08:08:14Z</time>
      </trkpt>
      <trkpt lat="45.49057" lon="6.92146">
        <ele>2001.6</ele>
        <time>2021-01-05T08:08:16Z</time>
      </trkpt>
      <trkpt lat="45.49059" lon="6.92143">
        <ele>2005</ele>
        <time>2021-01-05T08:08:18Z</time>
      </trkpt>
      <trkpt lat="45.4906" lon="6.9214">
        <ele>2005</ele>
        <time>2021-01-05T08:08:20Z</time>
      </trkpt>
      <trkpt lat="45.49061" lon="6.92137">
        <ele>2005</ele>
        <time>2021-01-05T08:08:23Z</time>
      </trkpt>
      <trkpt lat="45.49061" lon="6.92133">
        <ele>2005</ele>
        <time>2021-01-05T08:08:25Z</time>
      </trkpt>
      <trkpt lat="45.49061" lon="6.92129">
        <ele>2008.4</ele>
        <time>2021-01-05T08:08:28Z</time>
      </trkpt>
      <trkpt lat="45.49061" lon="6.92126">
        <ele>2008.4</ele>
        <time>2021-01-05T08:08:30Z</time>
      </trkpt>
      <trkpt lat="45.49062" lon="6.92122">
        <ele>2008.4</ele>
        <time>2021-01-05T08:08:33Z</time>
      </trkpt>
      <trkpt lat="45.49063" lon="6.92118">
        <ele>2008.4</ele>
        <time>2021-01-05T08:08:35Z</time>
      </trkpt>
      <trkpt lat="45.49063" lon="6.92116">
        <ele>2008.4</ele>
        <time>2021-01-05T08:08:37Z</time>
      </trkpt>
      <trkpt lat="45.49064" lon="6.92113">
        <ele>2008.4</ele>
        <time>2021-01-05T08:08:39Z</time>
      </trkpt>
      <trkpt lat="45.49065" lon="6.9211">
        <ele>2008.4</ele>
        <time>2021-01-05T08:08:41Z</time>
      </trkpt>
      <trkpt lat="45.49066" lon="6.92108">
        <ele>2008.4</ele>
        <time>2021-01-05T08:08:43Z</time>
      </trkpt>
      <trkpt lat="45.49066" lon="6.92104">
        <ele>2008.4</ele>
        <time>2021-01-05T08:08:45Z</time>
      </trkpt>
      <trkpt lat="45.49067" lon="6.92101">
        <ele>2008.4</ele>
        <time>2021-01-05T08:08:47Z</time>
      </trkpt>
      <trkpt lat="45.49067" lon="6.92097">
        <ele>2008.4</ele>
        <time>2021-01-05T08:08:49Z</time>
      </trkpt>
      <trkpt lat="45.49068" lon="6.92093">
        <ele>2008.4</ele>
        <time>2021-01-05T08:08:51Z</time>
      </trkpt>
      <trkpt lat="45.49069" lon="6.9209">
        <ele>2008.4</ele>
        <time>2021-01-05T08:08:53Z</time>
      </trkpt>
      <trkpt lat="45.49069" lon="6.92086">
        <ele>2008.4</ele>
        <time>2021-01-05T08:08:55Z</time>
      </trkpt>
      <trkpt lat="45.4907" lon="6.92082">
        <ele>2008.4</ele>
        <time>2021-01-05T08:08:57Z</time>
      </trkpt>
      <trkpt lat="45.49071" lon="6.92078">
        <ele>2008.4</ele>
        <time>2021-01-05T08:08:59Z</time>
      </trkpt>
      <trkpt lat="45.49072" lon="6.92074">
        <ele>2008.4</ele>
        <time>2021-01-05T08:09:01Z</time>
      </trkpt>
      <trkpt lat="45.49074" lon="6.92071">
        <ele>2008.4</ele>
        <time>2021-01-05T08:09:03Z</time>
      </trkpt>
      <trkpt lat="45.49075" lon="6.92068">
        <ele>2008.4</ele>
        <time>2021-01-05T08:09:05Z</time>
      </trkpt>
      <trkpt lat="45.49077" lon="6.92065">
        <ele>2008.4</ele>
        <time>2021-01-05T08:09:07Z</time>
      </trkpt>
      <trkpt lat="45.49078" lon="6.92062">
        <ele>2008.4</ele>
        <time>2021-01-05T08:09:09Z</time>
      </trkpt>
      <trkpt lat="45.4908" lon="6.9206">
        <ele>2008.4</ele>
        <time>2021-01-05T08:09:11Z</time>
      </trkpt>
      <trkpt lat="45.49082" lon="6.92057">
        <ele>2008.4</ele>
        <time>2021-01-05T08:09:13Z</time>
      </trkpt>
      <trkpt lat="45.49084" lon="6.92054">
        <ele>2008.4</ele>
        <time>2021-01-05T08:09:15Z</time>
      </trkpt>
      <trkpt lat="45.49086" lon="6.92052">
        <ele>2008.4</ele>
        <time>2021-01-05T08:09:17Z</time>
      </trkpt>
      <trkpt lat="45.49089" lon="6.92048">
        <ele>2008.4</ele>
        <time>2021-01-05T08:09:19Z</time>
      </trkpt>
      <trkpt lat="45.4909" lon="6.92046">
        <ele>2008.4</ele>
        <time>2021-01-05T08:09:21Z</time>
      </trkpt>
      <trkpt lat="45.49092" lon="6.92044">
        <ele>2008.4</ele>
        <time>2021-01-05T08:09:23Z</time>
      </trkpt>
      <trkpt lat="45.49094" lon="6.92042">
        <ele>2008.4</ele>
        <time>2021-01-05T08:09:25Z</time>
      </trkpt>
      <trkpt lat="45.49096" lon="6.92039">
        <ele>2008.4</ele>
        <time>2021-01-05T08:09:27Z</time>
      </trkpt>
      <trkpt lat="45.49098" lon="6.92036">
        <ele>2008.4</ele>
        <time>2021-01-05T08:09:29Z</time>
      </trkpt>
      <trkpt lat="45.491" lon="6.92034">
        <ele>2008.4</ele>
        <time>2021-01-05T08:09:31Z</time>
      </trkpt>
      <trkpt lat="45.49103" lon="6.92032">
        <ele>2008.4</ele>
        <time>2021-01-05T08:09:33Z</time>
      </trkpt>
      <trkpt lat="45.49105" lon="6.9203">
        <ele>2008.4</ele>
        <time>2021-01-05T08:09:35Z</time>
      </trkpt>
      <trkpt lat="45.49108" lon="6.92028">
        <ele>2031.4</ele>
        <time>2021-01-05T08:09:38Z</time>
      </trkpt>
      <trkpt lat="45.49111" lon="6.92027">
        <ele>2031.4</ele>
        <time>2021-01-05T08:09:40Z</time>
      </trkpt>
      <trkpt lat="45.49113" lon="6.92025">
        <ele>2031.4</ele>
        <time>2021-01-05T08:09:42Z</time>
      </trkpt>
      <trkpt lat="45.49116" lon="6.92024">
        <ele>2031.4</ele>
        <time>2021-01-05T08:09:44Z</time>
      </trkpt>
      <trkpt lat="45.49118" lon="6.92023">
        <ele>2031.4</ele>
        <time>2021-01-05T08:09:46Z</time>
      </trkpt>
      <trkpt lat="45.4912" lon="6.92022">
        <ele>2035</ele>
        <time>2021-01-05T08:09:48Z</time>
      </trkpt>
      <trkpt lat="45.49122" lon="6.9202">
        <ele>2035</ele>
        <time>2021-01-05T08:09:49Z</time>
      </trkpt>
      <trkpt lat="45.49124" lon="6.92018">
        <ele>2035</ele>
        <time>2021-01-05T08:09:51Z</time>
      </trkpt>
      <trkpt lat="45.49127" lon="6.92017">
        <ele>2035</ele>
        <time>2021-01-05T08:09:53Z</time>
      </trkpt>
      <trkpt lat="45.4913" lon="6.92016">
        <ele>2035</ele>
        <time>2021-01-05T08:09:55Z</time>
      </trkpt>
      <trkpt lat="45.49132" lon="6.92014">
        <ele>2035</ele>
        <time>2021-01-05T08:09:57Z</time>
      </trkpt>
      <trkpt lat="45.49134" lon="6.92013">
        <ele>2038</ele>
        <time>2021-01-05T08:09:58Z</time>
      </trkpt>
      <trkpt lat="45.49136" lon="6.92012">
        <ele>2038</ele>
        <time>2021-01-05T08:09:59Z</time>
      </trkpt>
      <trkpt lat="45.49138" lon="6.92011">
        <ele>2038</ele>
        <time>2021-01-05T08:10:01Z</time>
      </trkpt>
      <trkpt lat="45.4914" lon="6.9201">
        <ele>2038</ele>
        <time>2021-01-05T08:10:03Z</time>
      </trkpt>
      <trkpt lat="45.49142" lon="6.92008">
        <ele>2038</ele>
        <time>2021-01-05T08:10:05Z</time>
      </trkpt>
      <trkpt lat="45.49144" lon="6.92007">
        <ele>2038</ele>
        <time>2021-01-05T08:10:07Z</time>
      </trkpt>
      <trkpt lat="45.49147" lon="6.92005">
        <ele>2038</ele>
        <time>2021-01-05T08:10:09Z</time>
      </trkpt>
      <trkpt lat="45.49148" lon="6.92004">
        <ele>2038</ele>
        <time>2021-01-05T08:10:11Z</time>
      </trkpt>
      <trkpt lat="45.4915" lon="6.92002">
        <ele>2038</ele>
        <time>2021-01-05T08:10:13Z</time>
      </trkpt>
      <trkpt lat="45.49152" lon="6.92001">
        <ele>2038</ele>
        <time>2021-01-05T08:10:15Z</time>
      </trkpt>
      <trkpt lat="45.49155" lon="6.91998">
        <ele>2038</ele>
        <time>2021-01-05T08:10:17Z</time>
      </trkpt>
      <trkpt lat="45.49158" lon="6.91997">
        <ele>2038</ele>
        <time>2021-01-05T08:10:19Z</time>
      </trkpt>
      <trkpt lat="45.4916" lon="6.91996">
        <ele>2038</ele>
        <time>2021-01-05T08:10:21Z</time>
      </trkpt>
      <trkpt lat="45.49163" lon="6.91994">
        <ele>2038</ele>
        <time>2021-01-05T08:10:23Z</time>
      </trkpt>
      <trkpt lat="45.49165" lon="6.91992">
        <ele>2038</ele>
        <time>2021-01-05T08:10:25Z</time>
      </trkpt>
      <trkpt lat="45.49167" lon="6.91991">
        <ele>2038</ele>
        <time>2021-01-05T08:10:27Z</time>
      </trkpt>
      <trkpt lat="45.4917" lon="6.9199">
        <ele>2038</ele>
        <time>2021-01-05T08:10:29Z</time>
      </trkpt>
      <trkpt lat="45.49172" lon="6.91988">
        <ele>2038</ele>
        <time>2021-01-05T08:10:31Z</time>
      </trkpt>
      <trkpt lat="45.49175" lon="6.91986">
        <ele>2038</ele>
        <time>2021-01-05T08:10:33Z</time>
      </trkpt>
      <trkpt lat="45.49178" lon="6.91986">
        <ele>2038</ele>
        <time>2021-01-05T08:10:35Z</time>
      </trkpt>
      <trkpt lat="45.4918" lon="6.91984">
        <ele>2038</ele>
        <time>2021-01-05T08:10:37Z</time>
      </trkpt>
      <trkpt lat="45.49182" lon="6.91982">
        <ele>2038</ele>
        <time>2021-01-05T08:10:39Z</time>
      </trkpt>
      <trkpt lat="45.49185" lon="6.9198">
        <ele>2038</ele>
        <time>2021-01-05T08:10:41Z</time>
      </trkpt>
      <trkpt lat="45.49187" lon="6.91978">
        <ele>2038</ele>
        <time>2021-01-05T08:10:43Z</time>
      </trkpt>
      <trkpt lat="45.49189" lon="6.91976">
        <ele>2038</ele>
        <time>2021-01-05T08:10:45Z</time>
      </trkpt>
      <trkpt lat="45.49192" lon="6.91974">
        <ele>2038</ele>
        <time>2021-01-05T08:10:47Z</time>
      </trkpt>
      <trkpt lat="45.49193" lon="6.91972">
        <ele>2038</ele>
        <time>2021-01-05T08:10:49Z</time>
      </trkpt>
      <trkpt lat="45.49196" lon="6.91969">
        <ele>2038</ele>
        <time>2021-01-05T08:10:51Z</time>
      </trkpt>
      <trkpt lat="45.49197" lon="6.91968">
        <ele>2038</ele>
        <time>2021-01-05T08:10:53Z</time>
      </trkpt>
      <trkpt lat="45.492" lon="6.91966">
        <ele>2038</ele>
        <time>2021-01-05T08:10:55Z</time>
      </trkpt>
      <trkpt lat="45.49202" lon="6.91964">
        <ele>2038</ele>
        <time>2021-01-05T08:10:57Z</time>
      </trkpt>
      <trkpt lat="45.49204" lon="6.91962">
        <ele>2038</ele>
        <time>2021-01-05T08:10:59Z</time>
      </trkpt>
      <trkpt lat="45.49206" lon="6.9196">
        <ele>2038</ele>
        <time>2021-01-05T08:11:01Z</time>
      </trkpt>
      <trkpt lat="45.49209" lon="6.91958">
        <ele>2038</ele>
        <time>2021-01-05T08:11:03Z</time>
      </trkpt>
      <trkpt lat="45.49211" lon="6.91956">
        <ele>2038</ele>
        <time>2021-01-05T08:11:05Z</time>
      </trkpt>
      <trkpt lat="45.49213" lon="6.91953">
        <ele>2038</ele>
        <time>2021-01-05T08:11:07Z</time>
      </trkpt>
      <trkpt lat="45.49215" lon="6.9195">
        <ele>2038</ele>
        <time>2021-01-05T08:11:09Z</time>
      </trkpt>
      <trkpt lat="45.49217" lon="6.91948">
        <ele>2038</ele>
        <time>2021-01-05T08:11:11Z</time>
      </trkpt>
      <trkpt lat="45.49219" lon="6.91946">
        <ele>2038</ele>
        <time>2021-01-05T08:11:13Z</time>
      </trkpt>
      <trkpt lat="45.49222" lon="6.91944">
        <ele>2038</ele>
        <time>2021-01-05T08:11:15Z</time>
      </trkpt>
      <trkpt lat="45.49224" lon="6.91942">
        <ele>2038</ele>
        <time>2021-01-05T08:11:17Z</time>
      </trkpt>
      <trkpt lat="45.49225" lon="6.91939">
        <ele>2038</ele>
        <time>2021-01-05T08:11:19Z</time>
      </trkpt>
      <trkpt lat="45.49227" lon="6.91936">
        <ele>2038</ele>
        <time>2021-01-05T08:11:21Z</time>
      </trkpt>
      <trkpt lat="45.49229" lon="6.91934">
        <ele>2038</ele>
        <time>2021-01-05T08:11:23Z</time>
      </trkpt>
      <trkpt lat="45.49231" lon="6.9193">
        <ele>2038</ele>
        <time>2021-01-05T08:11:25Z</time>
      </trkpt>
      <trkpt lat="45.49232" lon="6.91928">
        <ele>2038</ele>
        <time>2021-01-05T08:11:27Z</time>
      </trkpt>
      <trkpt lat="45.49235" lon="6.91925">
        <ele>2038</ele>
        <time>2021-01-05T08:11:29Z</time>
      </trkpt>
      <trkpt lat="45.49237" lon="6.91922">
        <ele>2038</ele>
        <time>2021-01-05T08:11:31Z</time>
      </trkpt>
      <trkpt lat="45.49238" lon="6.91919">
        <ele>2038</ele>
        <time>2021-01-05T08:11:33Z</time>
      </trkpt>
      <trkpt lat="45.4924" lon="6.91916">
        <ele>2038</ele>
        <time>2021-01-05T08:11:35Z</time>
      </trkpt>
      <trkpt lat="45.49243" lon="6.91913">
        <ele>2038</ele>
        <time>2021-01-05T08:11:37Z</time>
      </trkpt>
      <trkpt lat="45.49245" lon="6.9191">
        <ele>2038</ele>
        <time>2021-01-05T08:11:39Z</time>
      </trkpt>
      <trkpt lat="45.49247" lon="6.91907">
        <ele>2038</ele>
        <time>2021-01-05T08:11:41Z</time>
      </trkpt>
      <trkpt lat="45.49249" lon="6.91904">
        <ele>2038</ele>
        <time>2021-01-05T08:11:43Z</time>
      </trkpt>
      <trkpt lat="45.49252" lon="6.91901">
        <ele>2038</ele>
        <time>2021-01-05T08:11:45Z</time>
      </trkpt>
      <trkpt lat="45.49254" lon="6.91898">
        <ele>2038</ele>
        <time>2021-01-05T08:11:47Z</time>
      </trkpt>
      <trkpt lat="45.49256" lon="6.91895">
        <ele>2038</ele>
        <time>2021-01-05T08:11:49Z</time>
      </trkpt>
      <trkpt lat="45.49257" lon="6.91892">
        <ele>2038</ele>
        <time>2021-01-05T08:11:50Z</time>
      </trkpt>
      <trkpt lat="45.49259" lon="6.91891">
        <ele>2038</ele>
        <time>2021-01-05T08:11:51Z</time>
      </trkpt>
      <trkpt lat="45.49261" lon="6.91888">
        <ele>2038</ele>
        <time>2021-01-05T08:11:53Z</time>
      </trkpt>
      <trkpt lat="45.49263" lon="6.91885">
        <ele>2038</ele>
        <time>2021-01-05T08:11:55Z</time>
      </trkpt>
      <trkpt lat="45.49264" lon="6.91883">
        <ele>2038</ele>
        <time>2021-01-05T08:11:56Z</time>
      </trkpt>
      <trkpt lat="45.49266" lon="6.9188">
        <ele>2064.8</ele>
        <time>2021-01-05T08:11:58Z</time>
      </trkpt>
      <trkpt lat="45.49267" lon="6.91878">
        <ele>2064.8</ele>
        <time>2021-01-05T08:11:59Z</time>
      </trkpt>
      <trkpt lat="45.49269" lon="6.91876">
        <ele>2064.8</ele>
        <time>2021-01-05T08:12:00Z</time>
      </trkpt>
      <trkpt lat="45.49271" lon="6.91872">
        <ele>2064.8</ele>
        <time>2021-01-05T08:12:02Z</time>
      </trkpt>
      <trkpt lat="45.49273" lon="6.91869">
        <ele>2064.8</ele>
        <time>2021-01-05T08:12:04Z</time>
      </trkpt>
      <trkpt lat="45.49275" lon="6.91865">
        <ele>2064.8</ele>
        <time>2021-01-05T08:12:06Z</time>
      </trkpt>
      <trkpt lat="45.49276" lon="6.91863">
        <ele>2064.8</ele>
        <time>2021-01-05T08:12:07Z</time>
      </trkpt>
      <trkpt lat="45.49279" lon="6.9186">
        <ele>2064.8</ele>
        <time>2021-01-05T08:12:09Z</time>
      </trkpt>
      <trkpt lat="45.49281" lon="6.91857">
        <ele>2064.8</ele>
        <time>2021-01-05T08:12:11Z</time>
      </trkpt>
      <trkpt lat="45.49283" lon="6.91853">
        <ele>2064.8</ele>
        <time>2021-01-05T08:12:13Z</time>
      </trkpt>
      <trkpt lat="45.49285" lon="6.91851">
        <ele>2064.8</ele>
        <time>2021-01-05T08:12:15Z</time>
      </trkpt>
      <trkpt lat="45.49286" lon="6.9185">
        <ele>2064.8</ele>
        <time>2021-01-05T08:12:16Z</time>
      </trkpt>
      <trkpt lat="45.49288" lon="6.91847">
        <ele>2064.2</ele>
        <time>2021-01-05T08:12:18Z</time>
      </trkpt>
      <trkpt lat="45.4929" lon="6.91844">
        <ele>2064.2</ele>
        <time>2021-01-05T08:12:20Z</time>
      </trkpt>
      <trkpt lat="45.49292" lon="6.9184">
        <ele>2064.2</ele>
        <time>2021-01-05T08:12:22Z</time>
      </trkpt>
      <trkpt lat="45.49295" lon="6.91837">
        <ele>2064.2</ele>
        <time>2021-01-05T08:12:24Z</time>
      </trkpt>
      <trkpt lat="45.49296" lon="6.91834">
        <ele>2064.2</ele>
        <time>2021-01-05T08:12:26Z</time>
      </trkpt>
      <trkpt lat="45.49299" lon="6.9183">
        <ele>2063.8</ele>
        <time>2021-01-05T08:12:28Z</time>
      </trkpt>
      <trkpt lat="45.493" lon="6.91828">
        <ele>2063.8</ele>
        <time>2021-01-05T08:12:30Z</time>
      </trkpt>
      <trkpt lat="45.49301" lon="6.91824">
        <ele>2063.8</ele>
        <time>2021-01-05T08:12:32Z</time>
      </trkpt>
      <trkpt lat="45.49303" lon="6.91822">
        <ele>2063.8</ele>
        <time>2021-01-05T08:12:33Z</time>
      </trkpt>
      <trkpt lat="45.49305" lon="6.91819">
        <ele>2063.8</ele>
        <time>2021-01-05T08:12:35Z</time>
      </trkpt>
      <trkpt lat="45.49307" lon="6.91816">
        <ele>2063.8</ele>
        <time>2021-01-05T08:12:37Z</time>
      </trkpt>
      <trkpt lat="45.49308" lon="6.91813">
        <ele>2063.8</ele>
        <time>2021-01-05T08:12:39Z</time>
      </trkpt>
      <trkpt lat="45.4931" lon="6.91809">
        <ele>2063.8</ele>
        <time>2021-01-05T08:12:41Z</time>
      </trkpt>
      <trkpt lat="45.49313" lon="6.91805">
        <ele>2063.8</ele>
        <time>2021-01-05T08:12:43Z</time>
      </trkpt>
      <trkpt lat="45.49315" lon="6.91802">
        <ele>2063.8</ele>
        <time>2021-01-05T08:12:45Z</time>
      </trkpt>
      <trkpt lat="45.49316" lon="6.91798">
        <ele>2063.8</ele>
        <time>2021-01-05T08:12:47Z</time>
      </trkpt>
      <trkpt lat="45.49317" lon="6.91796">
        <ele>2065.8</ele>
        <time>2021-01-05T08:12:48Z</time>
      </trkpt>
      <trkpt lat="45.49319" lon="6.91794">
        <ele>2065.8</ele>
        <time>2021-01-05T08:12:49Z</time>
      </trkpt>
      <trkpt lat="45.4932" lon="6.91792">
        <ele>2065.8</ele>
        <time>2021-01-05T08:12:50Z</time>
      </trkpt>
      <trkpt lat="45.49322" lon="6.91789">
        <ele>2065.8</ele>
        <time>2021-01-05T08:12:52Z</time>
      </trkpt>
      <trkpt lat="45.49324" lon="6.91786">
        <ele>2065.8</ele>
        <time>2021-01-05T08:12:54Z</time>
      </trkpt>
      <trkpt lat="45.49325" lon="6.91781">
        <ele>2065.8</ele>
        <time>2021-01-05T08:12:56Z</time>
      </trkpt>
      <trkpt lat="45.49326" lon="6.91777">
        <ele>2068.2</ele>
        <time>2021-01-05T08:12:58Z</time>
      </trkpt>
      <trkpt lat="45.49328" lon="6.91774">
        <ele>2068.2</ele>
        <time>2021-01-05T08:13:00Z</time>
      </trkpt>
      <trkpt lat="45.4933" lon="6.9177">
        <ele>2068.2</ele>
        <time>2021-01-05T08:13:02Z</time>
      </trkpt>
      <trkpt lat="45.49332" lon="6.91766">
        <ele>2068.2</ele>
        <time>2021-01-05T08:13:04Z</time>
      </trkpt>
      <trkpt lat="45.49333" lon="6.91763">
        <ele>2068.2</ele>
        <time>2021-01-05T08:13:06Z</time>
      </trkpt>
      <trkpt lat="45.49333" lon="6.91758">
        <ele>2069.4</ele>
        <time>2021-01-05T08:13:08Z</time>
      </trkpt>
      <trkpt lat="45.49334" lon="6.91754">
        <ele>2069.4</ele>
        <time>2021-01-05T08:13:10Z</time>
      </trkpt>
      <trkpt lat="45.49335" lon="6.91751">
        <ele>2069.4</ele>
        <time>2021-01-05T08:13:12Z</time>
      </trkpt>
      <trkpt lat="45.49335" lon="6.91748">
        <ele>2069.4</ele>
        <time>2021-01-05T08:13:14Z</time>
      </trkpt>
      <trkpt lat="45.49335" lon="6.91745">
        <ele>2069.4</ele>
        <time>2021-01-05T08:13:16Z</time>
      </trkpt>
      <trkpt lat="45.49334" lon="6.91742">
        <ele>2071.2</ele>
        <time>2021-01-05T08:13:18Z</time>
      </trkpt>
      <trkpt lat="45.49334" lon="6.9174">
        <ele>2071.2</ele>
        <time>2021-01-05T08:13:20Z</time>
      </trkpt>
      <trkpt lat="45.49334" lon="6.91737">
        <ele>2071.2</ele>
        <time>2021-01-05T08:13:22Z</time>
      </trkpt>
      <trkpt lat="45.49333" lon="6.91733">
        <ele>2071.2</ele>
        <time>2021-01-05T08:13:25Z</time>
      </trkpt>
      <trkpt lat="45.49334" lon="6.91729">
        <ele>2071.2</ele>
        <time>2021-01-05T08:13:27Z</time>
      </trkpt>
      <trkpt lat="45.49333" lon="6.91726">
        <ele>2071.2</ele>
        <time>2021-01-05T08:13:29Z</time>
      </trkpt>
      <trkpt lat="45.49333" lon="6.91723">
        <ele>2071.2</ele>
        <time>2021-01-05T08:13:31Z</time>
      </trkpt>
      <trkpt lat="45.49334" lon="6.9172">
        <ele>2071.2</ele>
        <time>2021-01-05T08:13:33Z</time>
      </trkpt>
      <trkpt lat="45.49335" lon="6.91716">
        <ele>2071.2</ele>
        <time>2021-01-05T08:13:35Z</time>
      </trkpt>
      <trkpt lat="45.49335" lon="6.91714">
        <ele>2071.2</ele>
        <time>2021-01-05T08:13:36Z</time>
      </trkpt>
      <trkpt lat="45.49335" lon="6.91711">
        <ele>2071.2</ele>
        <time>2021-01-05T08:13:37Z</time>
      </trkpt>
      <trkpt lat="45.49335" lon="6.91707">
        <ele>2071.2</ele>
        <time>2021-01-05T08:13:39Z</time>
      </trkpt>
      <trkpt lat="45.49335" lon="6.91704">
        <ele>2071.2</ele>
        <time>2021-01-05T08:13:41Z</time>
      </trkpt>
      <trkpt lat="45.49336" lon="6.91701">
        <ele>2071.2</ele>
        <time>2021-01-05T08:13:43Z</time>
      </trkpt>
      <trkpt lat="45.49337" lon="6.91699">
        <ele>2071.2</ele>
        <time>2021-01-05T08:13:45Z</time>
      </trkpt>
      <trkpt lat="45.49338" lon="6.91696">
        <ele>2071.2</ele>
        <time>2021-01-05T08:13:47Z</time>
      </trkpt>
      <trkpt lat="45.49338" lon="6.91692">
        <ele>2071.2</ele>
        <time>2021-01-05T08:13:49Z</time>
      </trkpt>
      <trkpt lat="45.49338" lon="6.91689">
        <ele>2071.2</ele>
        <time>2021-01-05T08:13:51Z</time>
      </trkpt>
      <trkpt lat="45.49339" lon="6.91686">
        <ele>2071.2</ele>
        <time>2021-01-05T08:13:53Z</time>
      </trkpt>
      <trkpt lat="45.49339" lon="6.91682">
        <ele>2071.2</ele>
        <time>2021-01-05T08:13:55Z</time>
      </trkpt>
      <trkpt lat="45.4934" lon="6.91679">
        <ele>2071.2</ele>
        <time>2021-01-05T08:13:57Z</time>
      </trkpt>
      <trkpt lat="45.49341" lon="6.91676">
        <ele>2071.2</ele>
        <time>2021-01-05T08:13:59Z</time>
      </trkpt>
      <trkpt lat="45.49342" lon="6.91673">
        <ele>2071.2</ele>
        <time>2021-01-05T08:14:01Z</time>
      </trkpt>
      <trkpt lat="45.49343" lon="6.91671">
        <ele>2071.2</ele>
        <time>2021-01-05T08:14:03Z</time>
      </trkpt>
      <trkpt lat="45.49345" lon="6.91668">
        <ele>2071.2</ele>
        <time>2021-01-05T08:14:05Z</time>
      </trkpt>
      <trkpt lat="45.49346" lon="6.91666">
        <ele>2071.2</ele>
        <time>2021-01-05T08:14:07Z</time>
      </trkpt>
      <trkpt lat="45.49347" lon="6.91663">
        <ele>2071.2</ele>
        <time>2021-01-05T08:14:09Z</time>
      </trkpt>
      <trkpt lat="45.49348" lon="6.91661">
        <ele>2071.2</ele>
        <time>2021-01-05T08:14:11Z</time>
      </trkpt>
      <trkpt lat="45.49349" lon="6.91658">
        <ele>2071.2</ele>
        <time>2021-01-05T08:14:13Z</time>
      </trkpt>
      <trkpt lat="45.4935" lon="6.91656">
        <ele>2071.2</ele>
        <time>2021-01-05T08:14:15Z</time>
      </trkpt>
      <trkpt lat="45.49351" lon="6.91653">
        <ele>2071.2</ele>
        <time>2021-01-05T08:14:17Z</time>
      </trkpt>
      <trkpt lat="45.49353" lon="6.9165">
        <ele>2071.2</ele>
        <time>2021-01-05T08:14:19Z</time>
      </trkpt>
      <trkpt lat="45.49354" lon="6.91647">
        <ele>2071.2</ele>
        <time>2021-01-05T08:14:21Z</time>
      </trkpt>
      <trkpt lat="45.49356" lon="6.91644">
        <ele>2071.2</ele>
        <time>2021-01-05T08:14:23Z</time>
      </trkpt>
      <trkpt lat="45.49358" lon="6.91641">
        <ele>2071.2</ele>
        <time>2021-01-05T08:14:26Z</time>
      </trkpt>
      <trkpt lat="45.49359" lon="6.91638">
        <ele>2093.2</ele>
        <time>2021-01-05T08:14:28Z</time>
      </trkpt>
      <trkpt lat="45.4936" lon="6.91636">
        <ele>2093.2</ele>
        <time>2021-01-05T08:14:30Z</time>
      </trkpt>
      <trkpt lat="45.49361" lon="6.91633">
        <ele>2093.2</ele>
        <time>2021-01-05T08:14:32Z</time>
      </trkpt>
      <trkpt lat="45.49361" lon="6.9163">
        <ele>2093.2</ele>
        <time>2021-01-05T08:14:34Z</time>
      </trkpt>
      <trkpt lat="45.49362" lon="6.91627">
        <ele>2093.2</ele>
        <time>2021-01-05T08:14:36Z</time>
      </trkpt>
      <trkpt lat="45.49362" lon="6.91623">
        <ele>2096.2</ele>
        <time>2021-01-05T08:14:38Z</time>
      </trkpt>
      <trkpt lat="45.49362" lon="6.9162">
        <ele>2096.2</ele>
        <time>2021-01-05T08:14:40Z</time>
      </trkpt>
      <trkpt lat="45.49361" lon="6.91617">
        <ele>2096.2</ele>
        <time>2021-01-05T08:14:42Z</time>
      </trkpt>
      <trkpt lat="45.49361" lon="6.91614">
        <ele>2096.2</ele>
        <time>2021-01-05T08:14:44Z</time>
      </trkpt>
      <trkpt lat="45.49361" lon="6.91611">
        <ele>2096.2</ele>
        <time>2021-01-05T08:14:46Z</time>
      </trkpt>
      <trkpt lat="45.4936" lon="6.91608">
        <ele>2102</ele>
        <time>2021-01-05T08:14:48Z</time>
      </trkpt>
      <trkpt lat="45.49359" lon="6.91605">
        <ele>2102</ele>
        <time>2021-01-05T08:14:50Z</time>
      </trkpt>
      <trkpt lat="45.49359" lon="6.91602">
        <ele>2102</ele>
        <time>2021-01-05T08:14:52Z</time>
      </trkpt>
      <trkpt lat="45.49359" lon="6.916">
        <ele>2102</ele>
        <time>2021-01-05T08:14:54Z</time>
      </trkpt>
      <trkpt lat="45.49357" lon="6.91596">
        <ele>2102</ele>
        <time>2021-01-05T08:14:57Z</time>
      </trkpt>
      <trkpt lat="45.49356" lon="6.91594">
        <ele>2102</ele>
        <time>2021-01-05T08:14:59Z</time>
      </trkpt>
      <trkpt lat="45.49355" lon="6.91591">
        <ele>2102</ele>
        <time>2021-01-05T08:15:01Z</time>
      </trkpt>
      <trkpt lat="45.49354" lon="6.91586">
        <ele>2102</ele>
        <time>2021-01-05T08:15:03Z</time>
      </trkpt>
      <trkpt lat="45.49354" lon="6.91583">
        <ele>2102</ele>
        <time>2021-01-05T08:15:05Z</time>
      </trkpt>
      <trkpt lat="45.49353" lon="6.9158">
        <ele>2102</ele>
        <time>2021-01-05T08:15:07Z</time>
      </trkpt>
      <trkpt lat="45.49352" lon="6.91577">
        <ele>2102</ele>
        <time>2021-01-05T08:15:09Z</time>
      </trkpt>
      <trkpt lat="45.49352" lon="6.91574">
        <ele>2102</ele>
        <time>2021-01-05T08:15:11Z</time>
      </trkpt>
      <trkpt lat="45.49351" lon="6.91571">
        <ele>2102</ele>
        <time>2021-01-05T08:15:14Z</time>
      </trkpt>
      <trkpt lat="45.49349" lon="6.9157">
        <ele>2102</ele>
        <time>2021-01-05T08:15:17Z</time>
      </trkpt>
      <trkpt lat="45.49347" lon="6.91569">
        <ele>2102</ele>
        <time>2021-01-05T08:15:19Z</time>
      </trkpt>
      <trkpt lat="45.49345" lon="6.91568">
        <ele>2102</ele>
        <time>2021-01-05T08:15:22Z</time>
      </trkpt>
      <trkpt lat="45.49343" lon="6.91568">
        <ele>2102</ele>
        <time>2021-01-05T08:15:25Z</time>
      </trkpt>
      <trkpt lat="45.4934" lon="6.91568">
        <ele>2102</ele>
        <time>2021-01-05T08:15:27Z</time>
      </trkpt>
      <trkpt lat="45.49338" lon="6.91568">
        <ele>2102</ele>
        <time>2021-01-05T08:15:29Z</time>
      </trkpt>
      <trkpt lat="45.49335" lon="6.91568">
        <ele>2102</ele>
        <time>2021-01-05T08:15:32Z</time>
      </trkpt>
      <trkpt lat="45.49333" lon="6.91568">
        <ele>2102</ele>
        <time>2021-01-05T08:15:34Z</time>
      </trkpt>
      <trkpt lat="45.49331" lon="6.91568">
        <ele>2102</ele>
        <time>2021-01-05T08:15:36Z</time>
      </trkpt>
      <trkpt lat="45.49329" lon="6.91567">
        <ele>2121.2</ele>
        <time>2021-01-05T08:15:38Z</time>
      </trkpt>
      <trkpt lat="45.49327" lon="6.91567">
        <ele>2121.2</ele>
        <time>2021-01-05T08:15:40Z</time>
      </trkpt>
      <trkpt lat="45.49324" lon="6.91566">
        <ele>2121.2</ele>
        <time>2021-01-05T08:15:43Z</time>
      </trkpt>
      <trkpt lat="45.49322" lon="6.91566">
        <ele>2121.2</ele>
        <time>2021-01-05T08:15:45Z</time>
      </trkpt>
      <trkpt lat="45.4932" lon="6.91564">
        <ele>2121.2</ele>
        <time>2021-01-05T08:15:47Z</time>
      </trkpt>
      <trkpt lat="45.49318" lon="6.91562">
        <ele>2121.2</ele>
        <time>2021-01-05T08:15:49Z</time>
      </trkpt>
      <trkpt lat="45.49317" lon="6.9156">
        <ele>2121.2</ele>
        <time>2021-01-05T08:15:51Z</time>
      </trkpt>
      <trkpt lat="45.49315" lon="6.91558">
        <ele>2121.2</ele>
        <time>2021-01-05T08:15:53Z</time>
      </trkpt>
      <trkpt lat="45.49314" lon="6.91555">
        <ele>2121.2</ele>
        <time>2021-01-05T08:15:56Z</time>
      </trkpt>
      <trkpt lat="45.49312" lon="6.91554">
        <ele>2129.4</ele>
        <time>2021-01-05T08:15:58Z</time>
      </trkpt>
      <trkpt lat="45.49309" lon="6.91553">
        <ele>2129.4</ele>
        <time>2021-01-05T08:16:01Z</time>
      </trkpt>
      <trkpt lat="45.49307" lon="6.9155">
        <ele>2129.4</ele>
        <time>2021-01-05T08:16:04Z</time>
      </trkpt>
      <trkpt lat="45.49306" lon="6.91548">
        <ele>2129.4</ele>
        <time>2021-01-05T08:16:06Z</time>
      </trkpt>
      <trkpt lat="45.49305" lon="6.91545">
        <ele>2134.4</ele>
        <time>2021-01-05T08:16:08Z</time>
      </trkpt>
      <trkpt lat="45.49303" lon="6.91543">
        <ele>2134.4</ele>
        <time>2021-01-05T08:16:10Z</time>
      </trkpt>
      <trkpt lat="45.49301" lon="6.91542">
        <ele>2134.4</ele>
        <time>2021-01-05T08:16:12Z</time>
      </trkpt>
      <trkpt lat="45.49299" lon="6.9154">
        <ele>2134.4</ele>
        <time>2021-01-05T08:16:14Z</time>
      </trkpt>
      <trkpt lat="45.49297" lon="6.9154">
        <ele>2134.4</ele>
        <time>2021-01-05T08:16:16Z</time>
      </trkpt>
      <trkpt lat="45.49295" lon="6.91539">
        <ele>2140.8</ele>
        <time>2021-01-05T08:16:18Z</time>
      </trkpt>
      <trkpt lat="45.49293" lon="6.91537">
        <ele>2140.8</ele>
        <time>2021-01-05T08:16:21Z</time>
      </trkpt>
      <trkpt lat="45.49291" lon="6.91537">
        <ele>2140.8</ele>
        <time>2021-01-05T08:16:23Z</time>
      </trkpt>
      <trkpt lat="45.49288" lon="6.91536">
        <ele>2140.8</ele>
        <time>2021-01-05T08:16:26Z</time>
      </trkpt>
      <trkpt lat="45.49286" lon="6.91535">
        <ele>2146.6</ele>
        <time>2021-01-05T08:16:28Z</time>
      </trkpt>
      <trkpt lat="45.49284" lon="6.91534">
        <ele>2146.6</ele>
        <time>2021-01-05T08:16:30Z</time>
      </trkpt>
      <trkpt lat="45.49283" lon="6.91534">
        <ele>2146.6</ele>
        <time>2021-01-05T08:16:32Z</time>
      </trkpt>
      <trkpt lat="45.49281" lon="6.91532">
        <ele>2146.6</ele>
        <time>2021-01-05T08:16:34Z</time>
      </trkpt>
      <trkpt lat="45.49279" lon="6.91531">
        <ele>2146.6</ele>
        <time>2021-01-05T08:16:36Z</time>
      </trkpt>
      <trkpt lat="45.49277" lon="6.91529">
        <ele>2148.6</ele>
        <time>2021-01-05T08:16:38Z</time>
      </trkpt>
      <trkpt lat="45.49275" lon="6.91527">
        <ele>2148.6</ele>
        <time>2021-01-05T08:16:40Z</time>
      </trkpt>
      <trkpt lat="45.49273" lon="6.91525">
        <ele>2148.6</ele>
        <time>2021-01-05T08:16:42Z</time>
      </trkpt>
      <trkpt lat="45.4927" lon="6.91524">
        <ele>2148.6</ele>
        <time>2021-01-05T08:16:44Z</time>
      </trkpt>
      <trkpt lat="45.49268" lon="6.91522">
        <ele>2148.6</ele>
        <time>2021-01-05T08:16:46Z</time>
      </trkpt>
      <trkpt lat="45.49266" lon="6.9152">
        <ele>2149.6</ele>
        <time>2021-01-05T08:16:48Z</time>
      </trkpt>
      <trkpt lat="45.49264" lon="6.91518">
        <ele>2149.6</ele>
        <time>2021-01-05T08:16:50Z</time>
      </trkpt>
      <trkpt lat="45.49261" lon="6.91516">
        <ele>2149.6</ele>
        <time>2021-01-05T08:16:52Z</time>
      </trkpt>
      <trkpt lat="45.49259" lon="6.91514">
        <ele>2149.6</ele>
        <time>2021-01-05T08:16:54Z</time>
      </trkpt>
      <trkpt lat="45.49258" lon="6.91512">
        <ele>2149.6</ele>
        <time>2021-01-05T08:16:56Z</time>
      </trkpt>
      <trkpt lat="45.49256" lon="6.91511">
        <ele>2149.6</ele>
        <time>2021-01-05T08:16:57Z</time>
      </trkpt>
      <trkpt lat="45.49254" lon="6.9151">
        <ele>2149.6</ele>
        <time>2021-01-05T08:16:59Z</time>
      </trkpt>
      <trkpt lat="45.49252" lon="6.91508">
        <ele>2149.6</ele>
        <time>2021-01-05T08:17:01Z</time>
      </trkpt>
      <trkpt lat="45.4925" lon="6.91506">
        <ele>2149.6</ele>
        <time>2021-01-05T08:17:02Z</time>
      </trkpt>
      <trkpt lat="45.49248" lon="6.91505">
        <ele>2149.6</ele>
        <time>2021-01-05T08:17:04Z</time>
      </trkpt>
      <trkpt lat="45.49245" lon="6.91502">
        <ele>2149.6</ele>
        <time>2021-01-05T08:17:06Z</time>
      </trkpt>
      <trkpt lat="45.49243" lon="6.915">
        <ele>2158</ele>
        <time>2021-01-05T08:17:08Z</time>
      </trkpt>
      <trkpt lat="45.49241" lon="6.91498">
        <ele>2158</ele>
        <time>2021-01-05T08:17:10Z</time>
      </trkpt>
      <trkpt lat="45.49239" lon="6.91497">
        <ele>2158</ele>
        <time>2021-01-05T08:17:12Z</time>
      </trkpt>
      <trkpt lat="45.49236" lon="6.91495">
        <ele>2158</ele>
        <time>2021-01-05T08:17:14Z</time>
      </trkpt>
      <trkpt lat="45.49234" lon="6.91494">
        <ele>2158</ele>
        <time>2021-01-05T08:17:16Z</time>
      </trkpt>
      <trkpt lat="45.49231" lon="6.91492">
        <ele>2160.8</ele>
        <time>2021-01-05T08:17:18Z</time>
      </trkpt>
      <trkpt lat="45.49229" lon="6.9149">
        <ele>2160.8</ele>
        <time>2021-01-05T08:17:20Z</time>
      </trkpt>
      <trkpt lat="45.49226" lon="6.91488">
        <ele>2160.8</ele>
        <time>2021-01-05T08:17:22Z</time>
      </trkpt>
      <trkpt lat="45.49224" lon="6.91487">
        <ele>2160.8</ele>
        <time>2021-01-05T08:17:23Z</time>
      </trkpt>
      <trkpt lat="45.49222" lon="6.91486">
        <ele>2160.8</ele>
        <time>2021-01-05T08:17:25Z</time>
      </trkpt>
      <trkpt lat="45.4922" lon="6.91484">
        <ele>2160.8</ele>
        <time>2021-01-05T08:17:27Z</time>
      </trkpt>
      <trkpt lat="45.49217" lon="6.91483">
        <ele>2160.8</ele>
        <time>2021-01-05T08:17:29Z</time>
      </trkpt>
      <trkpt lat="45.49215" lon="6.91482">
        <ele>2160.8</ele>
        <time>2021-01-05T08:17:31Z</time>
      </trkpt>
      <trkpt lat="45.49213" lon="6.9148">
        <ele>2160.8</ele>
        <time>2021-01-05T08:17:33Z</time>
      </trkpt>
      <trkpt lat="45.49211" lon="6.91478">
        <ele>2160.8</ele>
        <time>2021-01-05T08:17:35Z</time>
      </trkpt>
      <trkpt lat="45.49208" lon="6.91476">
        <ele>2160.8</ele>
        <time>2021-01-05T08:17:37Z</time>
      </trkpt>
      <trkpt lat="45.49206" lon="6.91474">
        <ele>2160.8</ele>
        <time>2021-01-05T08:17:39Z</time>
      </trkpt>
      <trkpt lat="45.49204" lon="6.91472">
        <ele>2160.8</ele>
        <time>2021-01-05T08:17:41Z</time>
      </trkpt>
      <trkpt lat="45.492" lon="6.9147">
        <ele>2160.8</ele>
        <time>2021-01-05T08:17:43Z</time>
      </trkpt>
      <trkpt lat="45.49198" lon="6.91467">
        <ele>2160.8</ele>
        <time>2021-01-05T08:17:45Z</time>
      </trkpt>
      <trkpt lat="45.49195" lon="6.91465">
        <ele>2160.8</ele>
        <time>2021-01-05T08:17:47Z</time>
      </trkpt>
      <trkpt lat="45.49192" lon="6.91464">
        <ele>2160.8</ele>
        <time>2021-01-05T08:17:49Z</time>
      </trkpt>
      <trkpt lat="45.49189" lon="6.91462">
        <ele>2160.8</ele>
        <time>2021-01-05T08:17:51Z</time>
      </trkpt>
      <trkpt lat="45.49186" lon="6.9146">
        <ele>2160.8</ele>
        <time>2021-01-05T08:17:53Z</time>
      </trkpt>
      <trkpt lat="45.49183" lon="6.91459">
        <ele>2160.8</ele>
        <time>2021-01-05T08:17:55Z</time>
      </trkpt>
      <trkpt lat="45.4918" lon="6.91458">
        <ele>2160.8</ele>
        <time>2021-01-05T08:17:57Z</time>
      </trkpt>
      <trkpt lat="45.49178" lon="6.91456">
        <ele>2160.8</ele>
        <time>2021-01-05T08:17:59Z</time>
      </trkpt>
      <trkpt lat="45.49174" lon="6.91454">
        <ele>2160.8</ele>
        <time>2021-01-05T08:18:01Z</time>
      </trkpt>
      <trkpt lat="45.49172" lon="6.91453">
        <ele>2160.8</ele>
        <time>2021-01-05T08:18:03Z</time>
      </trkpt>
      <trkpt lat="45.49169" lon="6.91451">
        <ele>2160.8</ele>
        <time>2021-01-05T08:18:05Z</time>
      </trkpt>
      <trkpt lat="45.49166" lon="6.9145">
        <ele>2160.8</ele>
        <time>2021-01-05T08:18:07Z</time>
      </trkpt>
      <trkpt lat="45.49164" lon="6.91448">
        <ele>2160.8</ele>
        <time>2021-01-05T08:18:09Z</time>
      </trkpt>
      <trkpt lat="45.4916" lon="6.91446">
        <ele>2160.8</ele>
        <time>2021-01-05T08:18:11Z</time>
      </trkpt>
      <trkpt lat="45.49158" lon="6.91444">
        <ele>2160.8</ele>
        <time>2021-01-05T08:18:13Z</time>
      </trkpt>
      <trkpt lat="45.49156" lon="6.91443">
        <ele>2160.8</ele>
        <time>2021-01-05T08:18:14Z</time>
      </trkpt>
      <trkpt lat="45.49154" lon="6.91441">
        <ele>2160.8</ele>
        <time>2021-01-05T08:18:16Z</time>
      </trkpt>
      <trkpt lat="45.49152" lon="6.91439">
        <ele>2167.2</ele>
        <time>2021-01-05T08:18:18Z</time>
      </trkpt>
      <trkpt lat="45.4915" lon="6.91438">
        <ele>2167.2</ele>
        <time>2021-01-05T08:18:20Z</time>
      </trkpt>
      <trkpt lat="45.49148" lon="6.91437">
        <ele>2167.2</ele>
        <time>2021-01-05T08:18:22Z</time>
      </trkpt>
      <trkpt lat="45.49146" lon="6.91436">
        <ele>2167.2</ele>
        <time>2021-01-05T08:18:24Z</time>
      </trkpt>
      <trkpt lat="45.49143" lon="6.91434">
        <ele>2167.2</ele>
        <time>2021-01-05T08:18:26Z</time>
      </trkpt>
      <trkpt lat="45.4914" lon="6.91432">
        <ele>2167.8</ele>
        <time>2021-01-05T08:18:28Z</time>
      </trkpt>
      <trkpt lat="45.49137" lon="6.9143">
        <ele>2167.8</ele>
        <time>2021-01-05T08:18:30Z</time>
      </trkpt>
      <trkpt lat="45.49134" lon="6.91427">
        <ele>2167.8</ele>
        <time>2021-01-05T08:18:32Z</time>
      </trkpt>
      <trkpt lat="45.49132" lon="6.91426">
        <ele>2167.8</ele>
        <time>2021-01-05T08:18:33Z</time>
      </trkpt>
      <trkpt lat="45.49129" lon="6.91425">
        <ele>2167.8</ele>
        <time>2021-01-05T08:18:35Z</time>
      </trkpt>
      <trkpt lat="45.49127" lon="6.91424">
        <ele>2167.8</ele>
        <time>2021-01-05T08:18:37Z</time>
      </trkpt>
      <trkpt lat="45.49124" lon="6.91423">
        <ele>2167.8</ele>
        <time>2021-01-05T08:18:39Z</time>
      </trkpt>
      <trkpt lat="45.49122" lon="6.91422">
        <ele>2167.8</ele>
        <time>2021-01-05T08:18:41Z</time>
      </trkpt>
      <trkpt lat="45.49118" lon="6.9142">
        <ele>2167.8</ele>
        <time>2021-01-05T08:18:43Z</time>
      </trkpt>
      <trkpt lat="45.49116" lon="6.91418">
        <ele>2167.8</ele>
        <time>2021-01-05T08:18:44Z</time>
      </trkpt>
      <trkpt lat="45.49114" lon="6.91417">
        <ele>2167.8</ele>
        <time>2021-01-05T08:18:46Z</time>
      </trkpt>
      <trkpt lat="45.49112" lon="6.91416">
        <ele>2167.8</ele>
        <time>2021-01-05T08:18:47Z</time>
      </trkpt>
      <trkpt lat="45.4911" lon="6.91414">
        <ele>2173.4</ele>
        <time>2021-01-05T08:18:48Z</time>
      </trkpt>
      <trkpt lat="45.49107" lon="6.91412">
        <ele>2173.4</ele>
        <time>2021-01-05T08:18:50Z</time>
      </trkpt>
      <trkpt lat="45.49104" lon="6.9141">
        <ele>2173.4</ele>
        <time>2021-01-05T08:18:52Z</time>
      </trkpt>
      <trkpt lat="45.49101" lon="6.91408">
        <ele>2173.4</ele>
        <time>2021-01-05T08:18:54Z</time>
      </trkpt>
      <trkpt lat="45.49099" lon="6.91407">
        <ele>2173.4</ele>
        <time>2021-01-05T08:18:56Z</time>
      </trkpt>
      <trkpt lat="45.49096" lon="6.91405">
        <ele>2177.6</ele>
        <time>2021-01-05T08:18:58Z</time>
      </trkpt>
      <trkpt lat="45.49093" lon="6.91403">
        <ele>2177.6</ele>
        <time>2021-01-05T08:19:00Z</time>
      </trkpt>
      <trkpt lat="45.49091" lon="6.91402">
        <ele>2177.6</ele>
        <time>2021-01-05T08:19:01Z</time>
      </trkpt>
      <trkpt lat="45.49088" lon="6.914">
        <ele>2177.6</ele>
        <time>2021-01-05T08:19:03Z</time>
      </trkpt>
      <trkpt lat="45.49086" lon="6.91399">
        <ele>2177.6</ele>
        <time>2021-01-05T08:19:04Z</time>
      </trkpt>
      <trkpt lat="45.49084" lon="6.91398">
        <ele>2177.6</ele>
        <time>2021-01-05T08:19:05Z</time>
      </trkpt>
      <trkpt lat="45.49082" lon="6.91397">
        <ele>2177.6</ele>
        <time>2021-01-05T08:19:06Z</time>
      </trkpt>
      <trkpt lat="45.49079" lon="6.91395">
        <ele>2180.4</ele>
        <time>2021-01-05T08:19:08Z</time>
      </trkpt>
      <trkpt lat="45.49076" lon="6.91393">
        <ele>2180.4</ele>
        <time>2021-01-05T08:19:10Z</time>
      </trkpt>
      <trkpt lat="45.49074" lon="6.91392">
        <ele>2180.4</ele>
        <time>2021-01-05T08:19:11Z</time>
      </trkpt>
      <trkpt lat="45.4907" lon="6.9139">
        <ele>2180.4</ele>
        <time>2021-01-05T08:19:13Z</time>
      </trkpt>
      <trkpt lat="45.49068" lon="6.91389">
        <ele>2180.4</ele>
        <time>2021-01-05T08:19:14Z</time>
      </trkpt>
      <trkpt lat="45.49065" lon="6.91388">
        <ele>2180.4</ele>
        <time>2021-01-05T08:19:16Z</time>
      </trkpt>
      <trkpt lat="45.49062" lon="6.91386">
        <ele>2181.4</ele>
        <time>2021-01-05T08:19:18Z</time>
      </trkpt>
      <trkpt lat="45.4906" lon="6.91385">
        <ele>2181.4</ele>
        <time>2021-01-05T08:19:19Z</time>
      </trkpt>
      <trkpt lat="45.49059" lon="6.91384">
        <ele>2181.4</ele>
        <time>2021-01-05T08:19:20Z</time>
      </trkpt>
      <trkpt lat="45.49057" lon="6.91382">
        <ele>2181.4</ele>
        <time>2021-01-05T08:19:21Z</time>
      </trkpt>
      <trkpt lat="45.49055" lon="6.91382">
        <ele>2181.4</ele>
        <time>2021-01-05T08:19:22Z</time>
      </trkpt>
      <trkpt lat="45.49052" lon="6.9138">
        <ele>2181.4</ele>
        <time>2021-01-05T08:19:24Z</time>
      </trkpt>
      <trkpt lat="45.4905" lon="6.91379">
        <ele>2181.4</ele>
        <time>2021-01-05T08:19:25Z</time>
      </trkpt>
      <trkpt lat="45.49045" lon="6.91377">
        <ele>2181.4</ele>
        <time>2021-01-05T08:19:27Z</time>
      </trkpt>
      <trkpt lat="45.49044" lon="6.91376">
        <ele>2181.4</ele>
        <time>2021-01-05T08:19:28Z</time>
      </trkpt>
      <trkpt lat="45.4904" lon="6.91375">
        <ele>2181.4</ele>
        <time>2021-01-05T08:19:30Z</time>
      </trkpt>
      <trkpt lat="45.49038" lon="6.91374">
        <ele>2181.4</ele>
        <time>2021-01-05T08:19:31Z</time>
      </trkpt>
      <trkpt lat="45.49036" lon="6.91374">
        <ele>2181.4</ele>
        <time>2021-01-05T08:19:32Z</time>
      </trkpt>
      <trkpt lat="45.49034" lon="6.91373">
        <ele>2181.4</ele>
        <time>2021-01-05T08:19:33Z</time>
      </trkpt>
      <trkpt lat="45.49033" lon="6.91371">
        <ele>2181.4</ele>
        <time>2021-01-05T08:19:34Z</time>
      </trkpt>
      <trkpt lat="45.49031" lon="6.9137">
        <ele>2181.4</ele>
        <time>2021-01-05T08:19:35Z</time>
      </trkpt>
      <trkpt lat="45.49029" lon="6.91368">
        <ele>2181.4</ele>
        <time>2021-01-05T08:19:36Z</time>
      </trkpt>
      <trkpt lat="45.49027" lon="6.91366">
        <ele>2181.4</ele>
        <time>2021-01-05T08:19:37Z</time>
      </trkpt>
      <trkpt lat="45.49025" lon="6.91364">
        <ele>2180</ele>
        <time>2021-01-05T08:19:38Z</time>
      </trkpt>
      <trkpt lat="45.49023" lon="6.91362">
        <ele>2180</ele>
        <time>2021-01-05T08:19:39Z</time>
      </trkpt>
      <trkpt lat="45.49021" lon="6.91361">
        <ele>2180</ele>
        <time>2021-01-05T08:19:40Z</time>
      </trkpt>
      <trkpt lat="45.49018" lon="6.91359">
        <ele>2180</ele>
        <time>2021-01-05T08:19:42Z</time>
      </trkpt>
      <trkpt lat="45.49016" lon="6.91358">
        <ele>2180</ele>
        <time>2021-01-05T08:19:43Z</time>
      </trkpt>
      <trkpt lat="45.49015" lon="6.91357">
        <ele>2180</ele>
        <time>2021-01-05T08:19:44Z</time>
      </trkpt>
      <trkpt lat="45.49013" lon="6.91356">
        <ele>2180</ele>
        <time>2021-01-05T08:19:45Z</time>
      </trkpt>
      <trkpt lat="45.4901" lon="6.91354">
        <ele>2180</ele>
        <time>2021-01-05T08:19:47Z</time>
      </trkpt>
      <trkpt lat="45.49006" lon="6.91352">
        <ele>2180</ele>
        <time>2021-01-05T08:19:49Z</time>
      </trkpt>
      <trkpt lat="45.49004" lon="6.91351">
        <ele>2180</ele>
        <time>2021-01-05T08:19:50Z</time>
      </trkpt>
      <trkpt lat="45.49001" lon="6.91349">
        <ele>2180</ele>
        <time>2021-01-05T08:19:52Z</time>
      </trkpt>
      <trkpt lat="45.48997" lon="6.91348">
        <ele>2180</ele>
        <time>2021-01-05T08:19:54Z</time>
      </trkpt>
      <trkpt lat="45.48996" lon="6.91347">
        <ele>2180</ele>
        <time>2021-01-05T08:19:55Z</time>
      </trkpt>
      <trkpt lat="45.48994" lon="6.91346">
        <ele>2180</ele>
        <time>2021-01-05T08:19:56Z</time>
      </trkpt>
      <trkpt lat="45.48992" lon="6.91345">
        <ele>2180</ele>
        <time>2021-01-05T08:19:57Z</time>
      </trkpt>
      <trkpt lat="45.48989" lon="6.91343">
        <ele>2180</ele>
        <time>2021-01-05T08:19:59Z</time>
      </trkpt>
      <trkpt lat="45.48987" lon="6.91341">
        <ele>2180</ele>
        <time>2021-01-05T08:20:01Z</time>
      </trkpt>
      <trkpt lat="45.48983" lon="6.91339">
        <ele>2180</ele>
        <time>2021-01-05T08:20:03Z</time>
      </trkpt>
      <trkpt lat="45.48981" lon="6.91338">
        <ele>2180</ele>
        <time>2021-01-05T08:20:04Z</time>
      </trkpt>
      <trkpt lat="45.48978" lon="6.91336">
        <ele>2180</ele>
        <time>2021-01-05T08:20:06Z</time>
      </trkpt>
      <trkpt lat="45.48975" lon="6.91334">
        <ele>2180.6</ele>
        <time>2021-01-05T08:20:08Z</time>
      </trkpt>
      <trkpt lat="45.48974" lon="6.91333">
        <ele>2180.6</ele>
        <time>2021-01-05T08:20:09Z</time>
      </trkpt>
      <trkpt lat="45.48972" lon="6.91332">
        <ele>2180.6</ele>
        <time>2021-01-05T08:20:10Z</time>
      </trkpt>
      <trkpt lat="45.4897" lon="6.91331">
        <ele>2180.6</ele>
        <time>2021-01-05T08:20:11Z</time>
      </trkpt>
      <trkpt lat="45.48967" lon="6.91329">
        <ele>2180.6</ele>
        <time>2021-01-05T08:20:13Z</time>
      </trkpt>
      <trkpt lat="45.48964" lon="6.91328">
        <ele>2180.6</ele>
        <time>2021-01-05T08:20:15Z</time>
      </trkpt>
      <trkpt lat="45.48961" lon="6.91327">
        <ele>2180.6</ele>
        <time>2021-01-05T08:20:17Z</time>
      </trkpt>
      <trkpt lat="45.48959" lon="6.91325">
        <ele>2180.2</ele>
        <time>2021-01-05T08:20:18Z</time>
      </trkpt>
      <trkpt lat="45.48957" lon="6.91324">
        <ele>2180.2</ele>
        <time>2021-01-05T08:20:20Z</time>
      </trkpt>
      <trkpt lat="45.48954" lon="6.91322">
        <ele>2180.2</ele>
        <time>2021-01-05T08:20:22Z</time>
      </trkpt>
      <trkpt lat="45.48951" lon="6.91321">
        <ele>2180.2</ele>
        <time>2021-01-05T08:20:24Z</time>
      </trkpt>
      <trkpt lat="45.48949" lon="6.9132">
        <ele>2180.2</ele>
        <time>2021-01-05T08:20:25Z</time>
      </trkpt>
      <trkpt lat="45.48948" lon="6.91319">
        <ele>2180.2</ele>
        <time>2021-01-05T08:20:26Z</time>
      </trkpt>
      <trkpt lat="45.48946" lon="6.91317">
        <ele>2180.8</ele>
        <time>2021-01-05T08:20:28Z</time>
      </trkpt>
      <trkpt lat="45.48943" lon="6.91316">
        <ele>2180.8</ele>
        <time>2021-01-05T08:20:30Z</time>
      </trkpt>
      <trkpt lat="45.4894" lon="6.91314">
        <ele>2180.8</ele>
        <time>2021-01-05T08:20:32Z</time>
      </trkpt>
      <trkpt lat="45.48938" lon="6.91313">
        <ele>2180.8</ele>
        <time>2021-01-05T08:20:33Z</time>
      </trkpt>
      <trkpt lat="45.48936" lon="6.91312">
        <ele>2180.8</ele>
        <time>2021-01-05T08:20:35Z</time>
      </trkpt>
      <trkpt lat="45.48934" lon="6.9131">
        <ele>2180.8</ele>
        <time>2021-01-05T08:20:37Z</time>
      </trkpt>
      <trkpt lat="45.48931" lon="6.91308">
        <ele>2180.8</ele>
        <time>2021-01-05T08:20:39Z</time>
      </trkpt>
      <trkpt lat="45.48928" lon="6.91306">
        <ele>2180.8</ele>
        <time>2021-01-05T08:20:41Z</time>
      </trkpt>
      <trkpt lat="45.48926" lon="6.91304">
        <ele>2180.8</ele>
        <time>2021-01-05T08:20:43Z</time>
      </trkpt>
      <trkpt lat="45.48923" lon="6.91303">
        <ele>2180.8</ele>
        <time>2021-01-05T08:20:45Z</time>
      </trkpt>
      <trkpt lat="45.4892" lon="6.91301">
        <ele>2180.8</ele>
        <time>2021-01-05T08:20:47Z</time>
      </trkpt>
      <trkpt lat="45.48918" lon="6.91299">
        <ele>2180.8</ele>
        <time>2021-01-05T08:20:49Z</time>
      </trkpt>
      <trkpt lat="45.48916" lon="6.91297">
        <ele>2180.8</ele>
        <time>2021-01-05T08:20:51Z</time>
      </trkpt>
      <trkpt lat="45.48913" lon="6.91295">
        <ele>2180.8</ele>
        <time>2021-01-05T08:20:53Z</time>
      </trkpt>
      <trkpt lat="45.4891" lon="6.91293">
        <ele>2180.8</ele>
        <time>2021-01-05T08:20:55Z</time>
      </trkpt>
      <trkpt lat="45.48908" lon="6.91291">
        <ele>2180.8</ele>
        <time>2021-01-05T08:20:57Z</time>
      </trkpt>
      <trkpt lat="45.48906" lon="6.9129">
        <ele>2180.8</ele>
        <time>2021-01-05T08:20:59Z</time>
      </trkpt>
      <trkpt lat="45.48903" lon="6.91288">
        <ele>2180.8</ele>
        <time>2021-01-05T08:21:01Z</time>
      </trkpt>
      <trkpt lat="45.489" lon="6.91286">
        <ele>2180.8</ele>
        <time>2021-01-05T08:21:03Z</time>
      </trkpt>
      <trkpt lat="45.48898" lon="6.91286">
        <ele>2180.8</ele>
        <time>2021-01-05T08:21:05Z</time>
      </trkpt>
      <trkpt lat="45.48895" lon="6.91285">
        <ele>2180.8</ele>
        <time>2021-01-05T08:21:07Z</time>
      </trkpt>
      <trkpt lat="45.48892" lon="6.91283">
        <ele>2180.8</ele>
        <time>2021-01-05T08:21:09Z</time>
      </trkpt>
      <trkpt lat="45.48891" lon="6.91282">
        <ele>2180.8</ele>
        <time>2021-01-05T08:21:10Z</time>
      </trkpt>
      <trkpt lat="45.48889" lon="6.9128">
        <ele>2180.8</ele>
        <time>2021-01-05T08:21:12Z</time>
      </trkpt>
      <trkpt lat="45.48886" lon="6.91279">
        <ele>2180.8</ele>
        <time>2021-01-05T08:21:14Z</time>
      </trkpt>
      <trkpt lat="45.48884" lon="6.91278">
        <ele>2180.8</ele>
        <time>2021-01-05T08:21:16Z</time>
      </trkpt>
      <trkpt lat="45.48881" lon="6.91276">
        <ele>2185</ele>
        <time>2021-01-05T08:21:18Z</time>
      </trkpt>
      <trkpt lat="45.48879" lon="6.91275">
        <ele>2185</ele>
        <time>2021-01-05T08:21:20Z</time>
      </trkpt>
      <trkpt lat="45.48877" lon="6.91274">
        <ele>2185</ele>
        <time>2021-01-05T08:21:22Z</time>
      </trkpt>
      <trkpt lat="45.48875" lon="6.91272">
        <ele>2185</ele>
        <time>2021-01-05T08:21:24Z</time>
      </trkpt>
      <trkpt lat="45.48873" lon="6.91271">
        <ele>2185</ele>
        <time>2021-01-05T08:21:26Z</time>
      </trkpt>
      <trkpt lat="45.4887" lon="6.91269">
        <ele>2186.4</ele>
        <time>2021-01-05T08:21:28Z</time>
      </trkpt>
      <trkpt lat="45.48868" lon="6.91267">
        <ele>2186.4</ele>
        <time>2021-01-05T08:21:30Z</time>
      </trkpt>
      <trkpt lat="45.48866" lon="6.91265">
        <ele>2186.4</ele>
        <time>2021-01-05T08:21:33Z</time>
      </trkpt>
      <trkpt lat="45.48864" lon="6.91264">
        <ele>2186.4</ele>
        <time>2021-01-05T08:21:35Z</time>
      </trkpt>
      <trkpt lat="45.48862" lon="6.91263">
        <ele>2186.4</ele>
        <time>2021-01-05T08:21:37Z</time>
      </trkpt>
      <trkpt lat="45.4886" lon="6.91262">
        <ele>2186.4</ele>
        <time>2021-01-05T08:21:39Z</time>
      </trkpt>
      <trkpt lat="45.48858" lon="6.91261">
        <ele>2186.4</ele>
        <time>2021-01-05T08:21:41Z</time>
      </trkpt>
      <trkpt lat="45.48855" lon="6.9126">
        <ele>2186.4</ele>
        <time>2021-01-05T08:21:43Z</time>
      </trkpt>
      <trkpt lat="45.48853" lon="6.91259">
        <ele>2186.4</ele>
        <time>2021-01-05T08:21:45Z</time>
      </trkpt>
      <trkpt lat="45.48851" lon="6.91259">
        <ele>2186.4</ele>
        <time>2021-01-05T08:21:47Z</time>
      </trkpt>
      <trkpt lat="45.48848" lon="6.91257">
        <ele>2186.4</ele>
        <time>2021-01-05T08:21:49Z</time>
      </trkpt>
      <trkpt lat="45.48846" lon="6.91256">
        <ele>2186.4</ele>
        <time>2021-01-05T08:21:51Z</time>
      </trkpt>
      <trkpt lat="45.48844" lon="6.91255">
        <ele>2186.4</ele>
        <time>2021-01-05T08:21:53Z</time>
      </trkpt>
      <trkpt lat="45.48842" lon="6.91254">
        <ele>2186.4</ele>
        <time>2021-01-05T08:21:55Z</time>
      </trkpt>
      <trkpt lat="45.4884" lon="6.91253">
        <ele>2186.4</ele>
        <time>2021-01-05T08:21:57Z</time>
      </trkpt>
      <trkpt lat="45.48838" lon="6.91251">
        <ele>2186.4</ele>
        <time>2021-01-05T08:21:59Z</time>
      </trkpt>
      <trkpt lat="45.48836" lon="6.9125">
        <ele>2186.4</ele>
        <time>2021-01-05T08:22:01Z</time>
      </trkpt>
      <trkpt lat="45.48834" lon="6.91248">
        <ele>2186.4</ele>
        <time>2021-01-05T08:22:03Z</time>
      </trkpt>
      <trkpt lat="45.48832" lon="6.91247">
        <ele>2186.4</ele>
        <time>2021-01-05T08:22:05Z</time>
      </trkpt>
      <trkpt lat="45.4883" lon="6.91247">
        <ele>2186.4</ele>
        <time>2021-01-05T08:22:07Z</time>
      </trkpt>
      <trkpt lat="45.48828" lon="6.91246">
        <ele>2186.4</ele>
        <time>2021-01-05T08:22:09Z</time>
      </trkpt>
      <trkpt lat="45.48827" lon="6.91244">
        <ele>2186.4</ele>
        <time>2021-01-05T08:22:11Z</time>
      </trkpt>
      <trkpt lat="45.48824" lon="6.91243">
        <ele>2186.4</ele>
        <time>2021-01-05T08:22:13Z</time>
      </trkpt>
      <trkpt lat="45.48822" lon="6.91242">
        <ele>2186.4</ele>
        <time>2021-01-05T08:22:15Z</time>
      </trkpt>
      <trkpt lat="45.4882" lon="6.91241">
        <ele>2186.4</ele>
        <time>2021-01-05T08:22:17Z</time>
      </trkpt>
      <trkpt lat="45.48818" lon="6.91239">
        <ele>2186.4</ele>
        <time>2021-01-05T08:22:19Z</time>
      </trkpt>
      <trkpt lat="45.48816" lon="6.91238">
        <ele>2186.4</ele>
        <time>2021-01-05T08:22:21Z</time>
      </trkpt>
      <trkpt lat="45.48814" lon="6.91236">
        <ele>2186.4</ele>
        <time>2021-01-05T08:22:23Z</time>
      </trkpt>
      <trkpt lat="45.48811" lon="6.91234">
        <ele>2186.4</ele>
        <time>2021-01-05T08:22:25Z</time>
      </trkpt>
      <trkpt lat="45.48809" lon="6.91233">
        <ele>2186.4</ele>
        <time>2021-01-05T08:22:27Z</time>
      </trkpt>
      <trkpt lat="45.48807" lon="6.91231">
        <ele>2186.4</ele>
        <time>2021-01-05T08:22:29Z</time>
      </trkpt>
      <trkpt lat="45.48804" lon="6.9123">
        <ele>2186.4</ele>
        <time>2021-01-05T08:22:31Z</time>
      </trkpt>
      <trkpt lat="45.48802" lon="6.91229">
        <ele>2186.4</ele>
        <time>2021-01-05T08:22:33Z</time>
      </trkpt>
      <trkpt lat="45.48801" lon="6.91227">
        <ele>2186.4</ele>
        <time>2021-01-05T08:22:35Z</time>
      </trkpt>
      <trkpt lat="45.48798" lon="6.91226">
        <ele>2207.4</ele>
        <time>2021-01-05T08:22:38Z</time>
      </trkpt>
      <trkpt lat="45.48796" lon="6.91226">
        <ele>2207.4</ele>
        <time>2021-01-05T08:22:40Z</time>
      </trkpt>
      <trkpt lat="45.48795" lon="6.91225">
        <ele>2207.4</ele>
        <time>2021-01-05T08:22:42Z</time>
      </trkpt>
      <trkpt lat="45.48793" lon="6.91224">
        <ele>2207.4</ele>
        <time>2021-01-05T08:22:44Z</time>
      </trkpt>
      <trkpt lat="45.48791" lon="6.91222">
        <ele>2207.4</ele>
        <time>2021-01-05T08:22:47Z</time>
      </trkpt>
      <trkpt lat="45.48789" lon="6.9122">
        <ele>2207.4</ele>
        <time>2021-01-05T08:22:50Z</time>
      </trkpt>
      <trkpt lat="45.48786" lon="6.91219">
        <ele>2207.4</ele>
        <time>2021-01-05T08:22:53Z</time>
      </trkpt>
      <trkpt lat="45.48784" lon="6.91218">
        <ele>2207.4</ele>
        <time>2021-01-05T08:22:55Z</time>
      </trkpt>
      <trkpt lat="45.48782" lon="6.91217">
        <ele>2213.2</ele>
        <time>2021-01-05T08:22:58Z</time>
      </trkpt>
      <trkpt lat="45.4878" lon="6.91215">
        <ele>2213.2</ele>
        <time>2021-01-05T08:23:00Z</time>
      </trkpt>
      <trkpt lat="45.48777" lon="6.91215">
        <ele>2213.2</ele>
        <time>2021-01-05T08:23:03Z</time>
      </trkpt>
      <trkpt lat="45.48775" lon="6.91215">
        <ele>2213.2</ele>
        <time>2021-01-05T08:23:06Z</time>
      </trkpt>
      <trkpt lat="45.48773" lon="6.91214">
        <ele>2216.6</ele>
        <time>2021-01-05T08:23:08Z</time>
      </trkpt>
      <trkpt lat="45.4877" lon="6.91213">
        <ele>2216.6</ele>
        <time>2021-01-05T08:23:11Z</time>
      </trkpt>
      <trkpt lat="45.48768" lon="6.91212">
        <ele>2216.6</ele>
        <time>2021-01-05T08:23:14Z</time>
      </trkpt>
      <trkpt lat="45.48766" lon="6.91212">
        <ele>2216.6</ele>
        <time>2021-01-05T08:23:16Z</time>
      </trkpt>
      <trkpt lat="45.48764" lon="6.9121">
        <ele>2219.8</ele>
        <time>2021-01-05T08:23:18Z</time>
      </trkpt>
      <trkpt lat="45.48763" lon="6.91207">
        <ele>2219.8</ele>
        <time>2021-01-05T08:23:21Z</time>
      </trkpt>
      <trkpt lat="45.48761" lon="6.91205">
        <ele>2219.8</ele>
        <time>2021-01-05T08:23:24Z</time>
      </trkpt>
      <trkpt lat="45.48758" lon="6.91204">
        <ele>2219.8</ele>
        <time>2021-01-05T08:23:26Z</time>
      </trkpt>
      <trkpt lat="45.48757" lon="6.91202">
        <ele>2221</ele>
        <time>2021-01-05T08:23:28Z</time>
      </trkpt>
      <trkpt lat="45.48755" lon="6.91199">
        <ele>2221</ele>
        <time>2021-01-05T08:23:31Z</time>
      </trkpt>
      <trkpt lat="45.48753" lon="6.91198">
        <ele>2221</ele>
        <time>2021-01-05T08:23:33Z</time>
      </trkpt>
      <trkpt lat="45.48751" lon="6.91197">
        <ele>2221</ele>
        <time>2021-01-05T08:23:35Z</time>
      </trkpt>
      <trkpt lat="45.48749" lon="6.91196">
        <ele>2221</ele>
        <time>2021-01-05T08:23:37Z</time>
      </trkpt>
      <trkpt lat="45.48748" lon="6.91194">
        <ele>2221</ele>
        <time>2021-01-05T08:23:39Z</time>
      </trkpt>
      <trkpt lat="45.48745" lon="6.91194">
        <ele>2221</ele>
        <time>2021-01-05T08:23:41Z</time>
      </trkpt>
      <trkpt lat="45.48743" lon="6.91193">
        <ele>2221</ele>
        <time>2021-01-05T08:23:43Z</time>
      </trkpt>
      <trkpt lat="45.48741" lon="6.91191">
        <ele>2221</ele>
        <time>2021-01-05T08:23:45Z</time>
      </trkpt>
      <trkpt lat="45.4874" lon="6.91188">
        <ele>2221</ele>
        <time>2021-01-05T08:23:47Z</time>
      </trkpt>
      <trkpt lat="45.48737" lon="6.91187">
        <ele>2221</ele>
        <time>2021-01-05T08:23:49Z</time>
      </trkpt>
      <trkpt lat="45.48735" lon="6.91186">
        <ele>2221</ele>
        <time>2021-01-05T08:23:50Z</time>
      </trkpt>
      <trkpt lat="45.48732" lon="6.91184">
        <ele>2221</ele>
        <time>2021-01-05T08:23:52Z</time>
      </trkpt>
      <trkpt lat="45.4873" lon="6.91183">
        <ele>2221</ele>
        <time>2021-01-05T08:23:54Z</time>
      </trkpt>
      <trkpt lat="45.48727" lon="6.91182">
        <ele>2221</ele>
        <time>2021-01-05T08:23:56Z</time>
      </trkpt>
      <trkpt lat="45.48725" lon="6.91181">
        <ele>2224</ele>
        <time>2021-01-05T08:23:58Z</time>
      </trkpt>
      <trkpt lat="45.48722" lon="6.9118">
        <ele>2224</ele>
        <time>2021-01-05T08:24:00Z</time>
      </trkpt>
      <trkpt lat="45.48719" lon="6.91178">
        <ele>2224</ele>
        <time>2021-01-05T08:24:02Z</time>
      </trkpt>
      <trkpt lat="45.48716" lon="6.91177">
        <ele>2224</ele>
        <time>2021-01-05T08:24:04Z</time>
      </trkpt>
      <trkpt lat="45.48714" lon="6.91176">
        <ele>2224</ele>
        <time>2021-01-05T08:24:06Z</time>
      </trkpt>
      <trkpt lat="45.48711" lon="6.91175">
        <ele>2223</ele>
        <time>2021-01-05T08:24:08Z</time>
      </trkpt>
      <trkpt lat="45.48709" lon="6.91174">
        <ele>2223</ele>
        <time>2021-01-05T08:24:10Z</time>
      </trkpt>
      <trkpt lat="45.48707" lon="6.91172">
        <ele>2223</ele>
        <time>2021-01-05T08:24:12Z</time>
      </trkpt>
      <trkpt lat="45.48705" lon="6.91171">
        <ele>2223</ele>
        <time>2021-01-05T08:24:14Z</time>
      </trkpt>
      <trkpt lat="45.48703" lon="6.9117">
        <ele>2223</ele>
        <time>2021-01-05T08:24:16Z</time>
      </trkpt>
      <trkpt lat="45.48701" lon="6.91169">
        <ele>2223</ele>
        <time>2021-01-05T08:24:17Z</time>
      </trkpt>
      <trkpt lat="45.48699" lon="6.91168">
        <ele>2223</ele>
        <time>2021-01-05T08:24:19Z</time>
      </trkpt>
      <trkpt lat="45.48696" lon="6.91167">
        <ele>2223</ele>
        <time>2021-01-05T08:24:21Z</time>
      </trkpt>
      <trkpt lat="45.48694" lon="6.91166">
        <ele>2223</ele>
        <time>2021-01-05T08:24:23Z</time>
      </trkpt>
      <trkpt lat="45.48691" lon="6.91166">
        <ele>2223</ele>
        <time>2021-01-05T08:24:25Z</time>
      </trkpt>
      <trkpt lat="45.48689" lon="6.91164">
        <ele>2223</ele>
        <time>2021-01-05T08:24:27Z</time>
      </trkpt>
      <trkpt lat="45.48687" lon="6.91164">
        <ele>2223</ele>
        <time>2021-01-05T08:24:29Z</time>
      </trkpt>
      <trkpt lat="45.48684" lon="6.91162">
        <ele>2223</ele>
        <time>2021-01-05T08:24:31Z</time>
      </trkpt>
      <trkpt lat="45.48682" lon="6.91159">
        <ele>2223</ele>
        <time>2021-01-05T08:24:34Z</time>
      </trkpt>
      <trkpt lat="45.4868" lon="6.91158">
        <ele>2223</ele>
        <time>2021-01-05T08:24:36Z</time>
      </trkpt>
      <trkpt lat="45.48677" lon="6.91157">
        <ele>2221.2</ele>
        <time>2021-01-05T08:24:38Z</time>
      </trkpt>
      <trkpt lat="45.48676" lon="6.91155">
        <ele>2221.2</ele>
        <time>2021-01-05T08:24:40Z</time>
      </trkpt>
      <trkpt lat="45.48673" lon="6.91154">
        <ele>2221.2</ele>
        <time>2021-01-05T08:24:42Z</time>
      </trkpt>
      <trkpt lat="45.48671" lon="6.91153">
        <ele>2221.2</ele>
        <time>2021-01-05T08:24:44Z</time>
      </trkpt>
      <trkpt lat="45.48669" lon="6.91152">
        <ele>2221.2</ele>
        <time>2021-01-05T08:24:46Z</time>
      </trkpt>
      <trkpt lat="45.48667" lon="6.91151">
        <ele>2221.6</ele>
        <time>2021-01-05T08:24:48Z</time>
      </trkpt>
      <trkpt lat="45.48665" lon="6.9115">
        <ele>2221.6</ele>
        <time>2021-01-05T08:24:50Z</time>
      </trkpt>
      <trkpt lat="45.48663" lon="6.91149">
        <ele>2221.6</ele>
        <time>2021-01-05T08:24:52Z</time>
      </trkpt>
      <trkpt lat="45.48661" lon="6.91148">
        <ele>2221.6</ele>
        <time>2021-01-05T08:24:54Z</time>
      </trkpt>
      <trkpt lat="45.4866" lon="6.91147">
        <ele>2221.6</ele>
        <time>2021-01-05T08:24:56Z</time>
      </trkpt>
      <trkpt lat="45.48658" lon="6.91146">
        <ele>2222</ele>
        <time>2021-01-05T08:24:58Z</time>
      </trkpt>
      <trkpt lat="45.48656" lon="6.91145">
        <ele>2222</ele>
        <time>2021-01-05T08:25:00Z</time>
      </trkpt>
      <trkpt lat="45.48654" lon="6.91144">
        <ele>2222</ele>
        <time>2021-01-05T08:25:02Z</time>
      </trkpt>
      <trkpt lat="45.48652" lon="6.91143">
        <ele>2222</ele>
        <time>2021-01-05T08:25:04Z</time>
      </trkpt>
      <trkpt lat="45.48649" lon="6.91142">
        <ele>2222</ele>
        <time>2021-01-05T08:25:06Z</time>
      </trkpt>
      <trkpt lat="45.48647" lon="6.91142">
        <ele>2220.6</ele>
        <time>2021-01-05T08:25:08Z</time>
      </trkpt>
      <trkpt lat="45.48645" lon="6.9114">
        <ele>2220.6</ele>
        <time>2021-01-05T08:25:10Z</time>
      </trkpt>
      <trkpt lat="45.48644" lon="6.91139">
        <ele>2220.6</ele>
        <time>2021-01-05T08:25:12Z</time>
      </trkpt>
      <trkpt lat="45.48642" lon="6.91138">
        <ele>2220.6</ele>
        <time>2021-01-05T08:25:14Z</time>
      </trkpt>
      <trkpt lat="45.48639" lon="6.91137">
        <ele>2220.6</ele>
        <time>2021-01-05T08:25:16Z</time>
      </trkpt>
      <trkpt lat="45.48637" lon="6.91136">
        <ele>2219.4</ele>
        <time>2021-01-05T08:25:18Z</time>
      </trkpt>
      <trkpt lat="45.48635" lon="6.91136">
        <ele>2219.4</ele>
        <time>2021-01-05T08:25:20Z</time>
      </trkpt>
      <trkpt lat="45.48633" lon="6.91135">
        <ele>2219.4</ele>
        <time>2021-01-05T08:25:22Z</time>
      </trkpt>
      <trkpt lat="45.4863" lon="6.91135">
        <ele>2219.4</ele>
        <time>2021-01-05T08:25:24Z</time>
      </trkpt>
      <trkpt lat="45.48628" lon="6.91134">
        <ele>2219.4</ele>
        <time>2021-01-05T08:25:27Z</time>
      </trkpt>
      <trkpt lat="45.48626" lon="6.91132">
        <ele>2219.4</ele>
        <time>2021-01-05T08:25:29Z</time>
      </trkpt>
      <trkpt lat="45.48624" lon="6.91132">
        <ele>2219.4</ele>
        <time>2021-01-05T08:25:31Z</time>
      </trkpt>
      <trkpt lat="45.48622" lon="6.91131">
        <ele>2219.4</ele>
        <time>2021-01-05T08:25:33Z</time>
      </trkpt>
      <trkpt lat="45.4862" lon="6.9113">
        <ele>2219.4</ele>
        <time>2021-01-05T08:25:35Z</time>
      </trkpt>
      <trkpt lat="45.48618" lon="6.9113">
        <ele>2219.4</ele>
        <time>2021-01-05T08:25:37Z</time>
      </trkpt>
      <trkpt lat="45.48616" lon="6.91129">
        <ele>2219.4</ele>
        <time>2021-01-05T08:25:39Z</time>
      </trkpt>
      <trkpt lat="45.48614" lon="6.91128">
        <ele>2219.4</ele>
        <time>2021-01-05T08:25:41Z</time>
      </trkpt>
      <trkpt lat="45.48611" lon="6.91127">
        <ele>2219.4</ele>
        <time>2021-01-05T08:25:44Z</time>
      </trkpt>
      <trkpt lat="45.48608" lon="6.91126">
        <ele>2219.4</ele>
        <time>2021-01-05T08:25:47Z</time>
      </trkpt>
      <trkpt lat="45.48606" lon="6.91126">
        <ele>2219.4</ele>
        <time>2021-01-05T08:25:50Z</time>
      </trkpt>
      <trkpt lat="45.48603" lon="6.91126">
        <ele>2219.4</ele>
        <time>2021-01-05T08:25:53Z</time>
      </trkpt>
      <trkpt lat="45.48601" lon="6.91126">
        <ele>2219.4</ele>
        <time>2021-01-05T08:25:55Z</time>
      </trkpt>
      <trkpt lat="45.48599" lon="6.91127">
        <ele>2219.4</ele>
        <time>2021-01-05T08:25:57Z</time>
      </trkpt>
      <trkpt lat="45.48596" lon="6.91127">
        <ele>2219.4</ele>
        <time>2021-01-05T08:25:59Z</time>
      </trkpt>
      <trkpt lat="45.48595" lon="6.91127">
        <ele>2219.4</ele>
        <time>2021-01-05T08:26:01Z</time>
      </trkpt>
      <trkpt lat="45.48592" lon="6.91126">
        <ele>2219.4</ele>
        <time>2021-01-05T08:26:03Z</time>
      </trkpt>
      <trkpt lat="45.4859" lon="6.91125">
        <ele>2219.4</ele>
        <time>2021-01-05T08:26:06Z</time>
      </trkpt>
      <trkpt lat="45.48587" lon="6.91124">
        <ele>2219.4</ele>
        <time>2021-01-05T08:26:09Z</time>
      </trkpt>
      <trkpt lat="45.48584" lon="6.91123">
        <ele>2219.4</ele>
        <time>2021-01-05T08:26:12Z</time>
      </trkpt>
      <trkpt lat="45.48582" lon="6.91122">
        <ele>2219.4</ele>
        <time>2021-01-05T08:26:14Z</time>
      </trkpt>
      <trkpt lat="45.4858" lon="6.91122">
        <ele>2219.4</ele>
        <time>2021-01-05T08:26:16Z</time>
      </trkpt>
      <trkpt lat="45.48578" lon="6.91122">
        <ele>2221.8</ele>
        <time>2021-01-05T08:26:18Z</time>
      </trkpt>
      <trkpt lat="45.48576" lon="6.91121">
        <ele>2221.8</ele>
        <time>2021-01-05T08:26:20Z</time>
      </trkpt>
      <trkpt lat="45.48574" lon="6.9112">
        <ele>2221.8</ele>
        <time>2021-01-05T08:26:22Z</time>
      </trkpt>
      <trkpt lat="45.48572" lon="6.9112">
        <ele>2221.8</ele>
        <time>2021-01-05T08:26:24Z</time>
      </trkpt>
      <trkpt lat="45.4857" lon="6.9112">
        <ele>2221.8</ele>
        <time>2021-01-05T08:26:26Z</time>
      </trkpt>
      <trkpt lat="45.48568" lon="6.9112">
        <ele>2221.8</ele>
        <time>2021-01-05T08:26:29Z</time>
      </trkpt>
      <trkpt lat="45.48566" lon="6.9112">
        <ele>2221.8</ele>
        <time>2021-01-05T08:26:31Z</time>
      </trkpt>
      <trkpt lat="45.48564" lon="6.91121">
        <ele>2221.8</ele>
        <time>2021-01-05T08:26:33Z</time>
      </trkpt>
      <trkpt lat="45.48562" lon="6.91122">
        <ele>2221.8</ele>
        <time>2021-01-05T08:26:36Z</time>
      </trkpt>
      <trkpt lat="45.4856" lon="6.91122">
        <ele>2225</ele>
        <time>2021-01-05T08:26:38Z</time>
      </trkpt>
      <trkpt lat="45.48558" lon="6.91123">
        <ele>2225</ele>
        <time>2021-01-05T08:26:40Z</time>
      </trkpt>
      <trkpt lat="45.48556" lon="6.91122">
        <ele>2225</ele>
        <time>2021-01-05T08:26:42Z</time>
      </trkpt>
      <trkpt lat="45.48554" lon="6.91122">
        <ele>2225</ele>
        <time>2021-01-05T08:26:44Z</time>
      </trkpt>
      <trkpt lat="45.48552" lon="6.91122">
        <ele>2225</ele>
        <time>2021-01-05T08:26:46Z</time>
      </trkpt>
      <trkpt lat="45.4855" lon="6.91122">
        <ele>2227</ele>
        <time>2021-01-05T08:26:48Z</time>
      </trkpt>
      <trkpt lat="45.48548" lon="6.91121">
        <ele>2227</ele>
        <time>2021-01-05T08:26:51Z</time>
      </trkpt>
      <trkpt lat="45.48545" lon="6.9112">
        <ele>2227</ele>
        <time>2021-01-05T08:26:54Z</time>
      </trkpt>
      <trkpt lat="45.48543" lon="6.91119">
        <ele>2227</ele>
        <time>2021-01-05T08:26:56Z</time>
      </trkpt>
      <trkpt lat="45.48541" lon="6.91119">
        <ele>2229</ele>
        <time>2021-01-05T08:26:58Z</time>
      </trkpt>
      <trkpt lat="45.48539" lon="6.9112">
        <ele>2229</ele>
        <time>2021-01-05T08:27:01Z</time>
      </trkpt>
      <trkpt lat="45.48537" lon="6.91121">
        <ele>2229</ele>
        <time>2021-01-05T08:27:03Z</time>
      </trkpt>
      <trkpt lat="45.48535" lon="6.91122">
        <ele>2229</ele>
        <time>2021-01-05T08:27:05Z</time>
      </trkpt>
      <trkpt lat="45.48532" lon="6.91124">
        <ele>2230.6</ele>
        <time>2021-01-05T08:27:08Z</time>
      </trkpt>
      <trkpt lat="45.48531" lon="6.91124">
        <ele>2230.6</ele>
        <time>2021-01-05T08:27:10Z</time>
      </trkpt>
      <trkpt lat="45.48529" lon="6.91125">
        <ele>2230.6</ele>
        <time>2021-01-05T08:27:13Z</time>
      </trkpt>
      <trkpt lat="45.48526" lon="6.91126">
        <ele>2230.6</ele>
        <time>2021-01-05T08:27:16Z</time>
      </trkpt>
      <trkpt lat="45.48524" lon="6.91128">
        <ele>2232.6</ele>
        <time>2021-01-05T08:27:18Z</time>
      </trkpt>
      <trkpt lat="45.48523" lon="6.91129">
        <ele>2232.6</ele>
        <time>2021-01-05T08:27:20Z</time>
      </trkpt>
      <trkpt lat="45.48521" lon="6.91131">
        <ele>2232.6</ele>
        <time>2021-01-05T08:27:22Z</time>
      </trkpt>
      <trkpt lat="45.48518" lon="6.91132">
        <ele>2232.6</ele>
        <time>2021-01-05T08:27:25Z</time>
      </trkpt>
      <trkpt lat="45.48515" lon="6.91134">
        <ele>2234.4</ele>
        <time>2021-01-05T08:27:28Z</time>
      </trkpt>
      <trkpt lat="45.48513" lon="6.91135">
        <ele>2234.4</ele>
        <time>2021-01-05T08:27:30Z</time>
      </trkpt>
      <trkpt lat="45.48511" lon="6.91137">
        <ele>2234.4</ele>
        <time>2021-01-05T08:27:33Z</time>
      </trkpt>
      <trkpt lat="45.48509" lon="6.91139">
        <ele>2234.4</ele>
        <time>2021-01-05T08:27:35Z</time>
      </trkpt>
      <trkpt lat="45.48506" lon="6.9114">
        <ele>2236.4</ele>
        <time>2021-01-05T08:27:38Z</time>
      </trkpt>
      <trkpt lat="45.48503" lon="6.91142">
        <ele>2236.4</ele>
        <time>2021-01-05T08:27:41Z</time>
      </trkpt>
      <trkpt lat="45.48501" lon="6.91143">
        <ele>2236.4</ele>
        <time>2021-01-05T08:27:43Z</time>
      </trkpt>
      <trkpt lat="45.48499" lon="6.91144">
        <ele>2236.4</ele>
        <time>2021-01-05T08:27:46Z</time>
      </trkpt>
      <trkpt lat="45.48496" lon="6.91144">
        <ele>2236.4</ele>
        <time>2021-01-05T08:27:49Z</time>
      </trkpt>
      <trkpt lat="45.48494" lon="6.91145">
        <ele>2236.4</ele>
        <time>2021-01-05T08:27:51Z</time>
      </trkpt>
      <trkpt lat="45.48492" lon="6.91145">
        <ele>2236.4</ele>
        <time>2021-01-05T08:27:53Z</time>
      </trkpt>
      <trkpt lat="45.4849" lon="6.91146">
        <ele>2236.4</ele>
        <time>2021-01-05T08:27:55Z</time>
      </trkpt>
      <trkpt lat="45.48488" lon="6.91147">
        <ele>2240.2</ele>
        <time>2021-01-05T08:27:58Z</time>
      </trkpt>
      <trkpt lat="45.48486" lon="6.91148">
        <ele>2240.2</ele>
        <time>2021-01-05T08:28:01Z</time>
      </trkpt>
      <trkpt lat="45.48484" lon="6.91148">
        <ele>2240.2</ele>
        <time>2021-01-05T08:28:03Z</time>
      </trkpt>
      <trkpt lat="45.48483" lon="6.91148">
        <ele>2240.2</ele>
        <time>2021-01-05T08:28:05Z</time>
      </trkpt>
      <trkpt lat="45.4848" lon="6.91148">
        <ele>2242.4</ele>
        <time>2021-01-05T08:28:08Z</time>
      </trkpt>
      <trkpt lat="45.48478" lon="6.91149">
        <ele>2242.4</ele>
        <time>2021-01-05T08:28:10Z</time>
      </trkpt>
      <trkpt lat="45.48476" lon="6.91149">
        <ele>2242.4</ele>
        <time>2021-01-05T08:28:13Z</time>
      </trkpt>
      <trkpt lat="45.48475" lon="6.9115">
        <ele>2242.4</ele>
        <time>2021-01-05T08:28:17Z</time>
      </trkpt>
      <trkpt lat="45.48473" lon="6.91151">
        <ele>2242.4</ele>
        <time>2021-01-05T08:28:20Z</time>
      </trkpt>
      <trkpt lat="45.4847" lon="6.91152">
        <ele>2242.4</ele>
        <time>2021-01-05T08:28:22Z</time>
      </trkpt>
      <trkpt lat="45.48468" lon="6.91152">
        <ele>2242.4</ele>
        <time>2021-01-05T08:28:25Z</time>
      </trkpt>
      <trkpt lat="45.48466" lon="6.91152">
        <ele>2248</ele>
        <time>2021-01-05T08:28:28Z</time>
      </trkpt>
      <trkpt lat="45.48464" lon="6.91151">
        <ele>2248</ele>
        <time>2021-01-05T08:28:31Z</time>
      </trkpt>
      <trkpt lat="45.48461" lon="6.9115">
        <ele>2248</ele>
        <time>2021-01-05T08:28:34Z</time>
      </trkpt>
      <trkpt lat="45.4846" lon="6.91147">
        <ele>2248</ele>
        <time>2021-01-05T08:28:37Z</time>
      </trkpt>
      <trkpt lat="45.48458" lon="6.91145">
        <ele>2248</ele>
        <time>2021-01-05T08:28:39Z</time>
      </trkpt>
      <trkpt lat="45.48457" lon="6.91143">
        <ele>2248</ele>
        <time>2021-01-05T08:28:42Z</time>
      </trkpt>
      <trkpt lat="45.48455" lon="6.91141">
        <ele>2248</ele>
        <time>2021-01-05T08:28:44Z</time>
      </trkpt>
      <trkpt lat="45.48454" lon="6.91138">
        <ele>2248</ele>
        <time>2021-01-05T08:28:47Z</time>
      </trkpt>
      <trkpt lat="45.48453" lon="6.91134">
        <ele>2248</ele>
        <time>2021-01-05T08:28:49Z</time>
      </trkpt>
      <trkpt lat="45.48452" lon="6.91132">
        <ele>2248</ele>
        <time>2021-01-05T08:28:52Z</time>
      </trkpt>
      <trkpt lat="45.48451" lon="6.91134">
        <ele>2248</ele>
        <time>2021-01-05T08:28:56Z</time>
      </trkpt>
      <trkpt lat="45.4845" lon="6.91136">
        <ele>2255.2</ele>
        <time>2021-01-05T08:28:58Z</time>
      </trkpt>
      <trkpt lat="45.48448" lon="6.91139">
        <ele>2255.2</ele>
        <time>2021-01-05T08:29:01Z</time>
      </trkpt>
      <trkpt lat="45.48447" lon="6.91141">
        <ele>2255.2</ele>
        <time>2021-01-05T08:29:04Z</time>
      </trkpt>
      <trkpt lat="45.48445" lon="6.91143">
        <ele>2255.2</ele>
        <time>2021-01-05T08:29:06Z</time>
      </trkpt>
      <trkpt lat="45.48444" lon="6.91146">
        <ele>2255.2</ele>
        <time>2021-01-05T08:29:09Z</time>
      </trkpt>
      <trkpt lat="45.48443" lon="6.91148">
        <ele>2255.2</ele>
        <time>2021-01-05T08:29:11Z</time>
      </trkpt>
      <trkpt lat="45.48441" lon="6.9115">
        <ele>2255.2</ele>
        <time>2021-01-05T08:29:13Z</time>
      </trkpt>
      <trkpt lat="45.48439" lon="6.91152">
        <ele>2255.2</ele>
        <time>2021-01-05T08:29:16Z</time>
      </trkpt>
      <trkpt lat="45.48437" lon="6.91154">
        <ele>2255.2</ele>
        <time>2021-01-05T08:29:19Z</time>
      </trkpt>
      <trkpt lat="45.48435" lon="6.91156">
        <ele>2255.2</ele>
        <time>2021-01-05T08:29:22Z</time>
      </trkpt>
      <trkpt lat="45.48433" lon="6.91159">
        <ele>2255.2</ele>
        <time>2021-01-05T08:29:25Z</time>
      </trkpt>
      <trkpt lat="45.48431" lon="6.91162">
        <ele>2264.4</ele>
        <time>2021-01-05T08:29:28Z</time>
      </trkpt>
      <trkpt lat="45.48429" lon="6.91164">
        <ele>2264.4</ele>
        <time>2021-01-05T08:29:31Z</time>
      </trkpt>
      <trkpt lat="45.48428" lon="6.91167">
        <ele>2264.4</ele>
        <time>2021-01-05T08:29:34Z</time>
      </trkpt>
      <trkpt lat="45.48426" lon="6.91168">
        <ele>2264.4</ele>
        <time>2021-01-05T08:29:36Z</time>
      </trkpt>
      <trkpt lat="45.48424" lon="6.91171">
        <ele>2264.4</ele>
        <time>2021-01-05T08:29:39Z</time>
      </trkpt>
      <trkpt lat="45.48422" lon="6.91172">
        <ele>2264.4</ele>
        <time>2021-01-05T08:29:41Z</time>
      </trkpt>
      <trkpt lat="45.4842" lon="6.91172">
        <ele>2264.4</ele>
        <time>2021-01-05T08:29:44Z</time>
      </trkpt>
      <trkpt lat="45.48418" lon="6.91171">
        <ele>2264.4</ele>
        <time>2021-01-05T08:29:47Z</time>
      </trkpt>
      <trkpt lat="45.48416" lon="6.91168">
        <ele>2264.4</ele>
        <time>2021-01-05T08:29:50Z</time>
      </trkpt>
      <trkpt lat="45.48414" lon="6.91165">
        <ele>2264.4</ele>
        <time>2021-01-05T08:29:53Z</time>
      </trkpt>
      <trkpt lat="45.48413" lon="6.91162">
        <ele>2264.4</ele>
        <time>2021-01-05T08:29:55Z</time>
      </trkpt>
      <trkpt lat="45.48412" lon="6.9116">
        <ele>2264.4</ele>
        <time>2021-01-05T08:29:57Z</time>
      </trkpt>
      <trkpt lat="45.4841" lon="6.91158">
        <ele>2264.4</ele>
        <time>2021-01-05T08:30:00Z</time>
      </trkpt>
      <trkpt lat="45.48409" lon="6.91154">
        <ele>2264.4</ele>
        <time>2021-01-05T08:30:03Z</time>
      </trkpt>
      <trkpt lat="45.48407" lon="6.91152">
        <ele>2264.4</ele>
        <time>2021-01-05T08:30:05Z</time>
      </trkpt>
      <trkpt lat="45.48407" lon="6.91149">
        <ele>2277.8</ele>
        <time>2021-01-05T08:30:08Z</time>
      </trkpt>
      <trkpt lat="45.48405" lon="6.91146">
        <ele>2277.8</ele>
        <time>2021-01-05T08:30:10Z</time>
      </trkpt>
      <trkpt lat="45.48404" lon="6.91144">
        <ele>2277.8</ele>
        <time>2021-01-05T08:30:12Z</time>
      </trkpt>
      <trkpt lat="45.48403" lon="6.91141">
        <ele>2277.8</ele>
        <time>2021-01-05T08:30:15Z</time>
      </trkpt>
      <trkpt lat="45.48402" lon="6.91138">
        <ele>2279</ele>
        <time>2021-01-05T08:30:18Z</time>
      </trkpt>
      <trkpt lat="45.48401" lon="6.91134">
        <ele>2279</ele>
        <time>2021-01-05T08:30:21Z</time>
      </trkpt>
      <trkpt lat="45.48399" lon="6.91132">
        <ele>2279</ele>
        <time>2021-01-05T08:30:23Z</time>
      </trkpt>
      <trkpt lat="45.48398" lon="6.91129">
        <ele>2279</ele>
        <time>2021-01-05T08:30:26Z</time>
      </trkpt>
      <trkpt lat="45.48397" lon="6.91126">
        <ele>2281.2</ele>
        <time>2021-01-05T08:30:28Z</time>
      </trkpt>
      <trkpt lat="45.48396" lon="6.91124">
        <ele>2281.2</ele>
        <time>2021-01-05T08:30:30Z</time>
      </trkpt>
      <trkpt lat="45.48395" lon="6.91122">
        <ele>2281.2</ele>
        <time>2021-01-05T08:30:33Z</time>
      </trkpt>
      <trkpt lat="45.48393" lon="6.91118">
        <ele>2281.2</ele>
        <time>2021-01-05T08:30:36Z</time>
      </trkpt>
      <trkpt lat="45.48392" lon="6.91115">
        <ele>2281.2</ele>
        <time>2021-01-05T08:30:39Z</time>
      </trkpt>
      <trkpt lat="45.48389" lon="6.91117">
        <ele>2281.2</ele>
        <time>2021-01-05T08:30:43Z</time>
      </trkpt>
      <trkpt lat="45.48387" lon="6.91118">
        <ele>2281.2</ele>
        <time>2021-01-05T08:30:45Z</time>
      </trkpt>
      <trkpt lat="45.48385" lon="6.91119">
        <ele>2281.2</ele>
        <time>2021-01-05T08:30:47Z</time>
      </trkpt>
      <trkpt lat="45.48383" lon="6.91117">
        <ele>2281.2</ele>
        <time>2021-01-05T08:30:50Z</time>
      </trkpt>
      <trkpt lat="45.48382" lon="6.91115">
        <ele>2281.2</ele>
        <time>2021-01-05T08:30:52Z</time>
      </trkpt>
      <trkpt lat="45.48381" lon="6.91112">
        <ele>2281.2</ele>
        <time>2021-01-05T08:30:54Z</time>
      </trkpt>
      <trkpt lat="45.4838" lon="6.91109">
        <ele>2281.2</ele>
        <time>2021-01-05T08:30:57Z</time>
      </trkpt>
      <trkpt lat="45.4838" lon="6.91106">
        <ele>2281.2</ele>
        <time>2021-01-05T08:30:59Z</time>
      </trkpt>
      <trkpt lat="45.48379" lon="6.91104">
        <ele>2281.2</ele>
        <time>2021-01-05T08:31:01Z</time>
      </trkpt>
      <trkpt lat="45.48378" lon="6.91101">
        <ele>2281.2</ele>
        <time>2021-01-05T08:31:03Z</time>
      </trkpt>
      <trkpt lat="45.48377" lon="6.91098">
        <ele>2281.2</ele>
        <time>2021-01-05T08:31:06Z</time>
      </trkpt>
      <trkpt lat="45.48374" lon="6.91098">
        <ele>2281.2</ele>
        <time>2021-01-05T08:31:09Z</time>
      </trkpt>
      <trkpt lat="45.48372" lon="6.911">
        <ele>2281.2</ele>
        <time>2021-01-05T08:31:12Z</time>
      </trkpt>
      <trkpt lat="45.48369" lon="6.911">
        <ele>2281.2</ele>
        <time>2021-01-05T08:31:14Z</time>
      </trkpt>
      <trkpt lat="45.48367" lon="6.91101">
        <ele>2281.2</ele>
        <time>2021-01-05T08:31:16Z</time>
      </trkpt>
      <trkpt lat="45.48365" lon="6.91104">
        <ele>2293.6</ele>
        <time>2021-01-05T08:31:18Z</time>
      </trkpt>
      <trkpt lat="45.48363" lon="6.91105">
        <ele>2293.6</ele>
        <time>2021-01-05T08:31:21Z</time>
      </trkpt>
      <trkpt lat="45.48361" lon="6.91107">
        <ele>2293.6</ele>
        <time>2021-01-05T08:31:24Z</time>
      </trkpt>
      <trkpt lat="45.48359" lon="6.91109">
        <ele>2293.6</ele>
        <time>2021-01-05T08:31:27Z</time>
      </trkpt>
      <trkpt lat="45.48356" lon="6.9111">
        <ele>2293.6</ele>
        <time>2021-01-05T08:31:29Z</time>
      </trkpt>
      <trkpt lat="45.48354" lon="6.91108">
        <ele>2293.6</ele>
        <time>2021-01-05T08:31:32Z</time>
      </trkpt>
      <trkpt lat="45.48353" lon="6.91104">
        <ele>2293.6</ele>
        <time>2021-01-05T08:31:34Z</time>
      </trkpt>
      <trkpt lat="45.48353" lon="6.911">
        <ele>2293.6</ele>
        <time>2021-01-05T08:31:36Z</time>
      </trkpt>
      <trkpt lat="45.48352" lon="6.91096">
        <ele>2301.2</ele>
        <time>2021-01-05T08:31:38Z</time>
      </trkpt>
      <trkpt lat="45.48352" lon="6.91092">
        <ele>2301.2</ele>
        <time>2021-01-05T08:31:40Z</time>
      </trkpt>
      <trkpt lat="45.48352" lon="6.91088">
        <ele>2301.2</ele>
        <time>2021-01-05T08:31:42Z</time>
      </trkpt>
      <trkpt lat="45.48352" lon="6.91084">
        <ele>2301.2</ele>
        <time>2021-01-05T08:31:44Z</time>
      </trkpt>
      <trkpt lat="45.48351" lon="6.91081">
        <ele>2301.2</ele>
        <time>2021-01-05T08:31:46Z</time>
      </trkpt>
      <trkpt lat="45.4835" lon="6.91077">
        <ele>2307.6</ele>
        <time>2021-01-05T08:31:48Z</time>
      </trkpt>
      <trkpt lat="45.4835" lon="6.91073">
        <ele>2307.6</ele>
        <time>2021-01-05T08:31:50Z</time>
      </trkpt>
      <trkpt lat="45.4835" lon="6.9107">
        <ele>2307.6</ele>
        <time>2021-01-05T08:31:52Z</time>
      </trkpt>
      <trkpt lat="45.48351" lon="6.91065">
        <ele>2307.6</ele>
        <time>2021-01-05T08:31:54Z</time>
      </trkpt>
      <trkpt lat="45.48351" lon="6.91062">
        <ele>2307.6</ele>
        <time>2021-01-05T08:31:56Z</time>
      </trkpt>
      <trkpt lat="45.48351" lon="6.91059">
        <ele>2315.6</ele>
        <time>2021-01-05T08:31:58Z</time>
      </trkpt>
      <trkpt lat="45.4835" lon="6.91056">
        <ele>2315.6</ele>
        <time>2021-01-05T08:32:00Z</time>
      </trkpt>
      <trkpt lat="45.48351" lon="6.91052">
        <ele>2315.6</ele>
        <time>2021-01-05T08:32:02Z</time>
      </trkpt>
      <trkpt lat="45.48351" lon="6.91048">
        <ele>2315.6</ele>
        <time>2021-01-05T08:32:05Z</time>
      </trkpt>
      <trkpt lat="45.48351" lon="6.91045">
        <ele>2315.6</ele>
        <time>2021-01-05T08:32:07Z</time>
      </trkpt>
      <trkpt lat="45.48351" lon="6.91042">
        <ele>2315.6</ele>
        <time>2021-01-05T08:32:09Z</time>
      </trkpt>
      <trkpt lat="45.48352" lon="6.91039">
        <ele>2315.6</ele>
        <time>2021-01-05T08:32:11Z</time>
      </trkpt>
      <trkpt lat="45.48352" lon="6.91036">
        <ele>2315.6</ele>
        <time>2021-01-05T08:32:14Z</time>
      </trkpt>
      <trkpt lat="45.48352" lon="6.91033">
        <ele>2315.6</ele>
        <time>2021-01-05T08:32:16Z</time>
      </trkpt>
      <trkpt lat="45.48353" lon="6.9103">
        <ele>2329.8</ele>
        <time>2021-01-05T08:32:18Z</time>
      </trkpt>
      <trkpt lat="45.48353" lon="6.91027">
        <ele>2329.8</ele>
        <time>2021-01-05T08:32:20Z</time>
      </trkpt>
      <trkpt lat="45.48353" lon="6.91023">
        <ele>2329.8</ele>
        <time>2021-01-05T08:32:23Z</time>
      </trkpt>
      <trkpt lat="45.48353" lon="6.9102">
        <ele>2329.8</ele>
        <time>2021-01-05T08:32:25Z</time>
      </trkpt>
      <trkpt lat="45.48354" lon="6.91017">
        <ele>2329.8</ele>
        <time>2021-01-05T08:32:27Z</time>
      </trkpt>
      <trkpt lat="45.48354" lon="6.91013">
        <ele>2329.8</ele>
        <time>2021-01-05T08:32:29Z</time>
      </trkpt>
      <trkpt lat="45.48355" lon="6.91009">
        <ele>2329.8</ele>
        <time>2021-01-05T08:32:31Z</time>
      </trkpt>
      <trkpt lat="45.48356" lon="6.91006">
        <ele>2329.8</ele>
        <time>2021-01-05T08:32:33Z</time>
      </trkpt>
      <trkpt lat="45.48357" lon="6.91002">
        <ele>2329.8</ele>
        <time>2021-01-05T08:32:35Z</time>
      </trkpt>
      <trkpt lat="45.48357" lon="6.91">
        <ele>2329.8</ele>
        <time>2021-01-05T08:32:37Z</time>
      </trkpt>
      <trkpt lat="45.48358" lon="6.90996">
        <ele>2329.8</ele>
        <time>2021-01-05T08:32:39Z</time>
      </trkpt>
      <trkpt lat="45.48359" lon="6.90993">
        <ele>2329.8</ele>
        <time>2021-01-05T08:32:41Z</time>
      </trkpt>
      <trkpt lat="45.48359" lon="6.90989">
        <ele>2329.8</ele>
        <time>2021-01-05T08:32:43Z</time>
      </trkpt>
      <trkpt lat="45.4836" lon="6.90986">
        <ele>2329.8</ele>
        <time>2021-01-05T08:32:45Z</time>
      </trkpt>
      <trkpt lat="45.48361" lon="6.90982">
        <ele>2329.8</ele>
        <time>2021-01-05T08:32:47Z</time>
      </trkpt>
      <trkpt lat="45.48362" lon="6.90979">
        <ele>2329.8</ele>
        <time>2021-01-05T08:32:49Z</time>
      </trkpt>
      <trkpt lat="45.48362" lon="6.90976">
        <ele>2329.8</ele>
        <time>2021-01-05T08:32:51Z</time>
      </trkpt>
      <trkpt lat="45.48363" lon="6.90973">
        <ele>2329.8</ele>
        <time>2021-01-05T08:32:53Z</time>
      </trkpt>
      <trkpt lat="45.48364" lon="6.9097">
        <ele>2329.8</ele>
        <time>2021-01-05T08:32:55Z</time>
      </trkpt>
      <trkpt lat="45.48365" lon="6.90966">
        <ele>2329.8</ele>
        <time>2021-01-05T08:32:57Z</time>
      </trkpt>
      <trkpt lat="45.48366" lon="6.90963">
        <ele>2329.8</ele>
        <time>2021-01-05T08:32:59Z</time>
      </trkpt>
      <trkpt lat="45.48366" lon="6.90959">
        <ele>2329.8</ele>
        <time>2021-01-05T08:33:01Z</time>
      </trkpt>
      <trkpt lat="45.48367" lon="6.90956">
        <ele>2329.8</ele>
        <time>2021-01-05T08:33:03Z</time>
      </trkpt>
      <trkpt lat="45.48368" lon="6.90952">
        <ele>2329.8</ele>
        <time>2021-01-05T08:33:05Z</time>
      </trkpt>
      <trkpt lat="45.48369" lon="6.90949">
        <ele>2329.8</ele>
        <time>2021-01-05T08:33:07Z</time>
      </trkpt>
      <trkpt lat="45.4837" lon="6.90945">
        <ele>2329.8</ele>
        <time>2021-01-05T08:33:09Z</time>
      </trkpt>
      <trkpt lat="45.48371" lon="6.90942">
        <ele>2329.8</ele>
        <time>2021-01-05T08:33:11Z</time>
      </trkpt>
      <trkpt lat="45.48372" lon="6.90938">
        <ele>2329.8</ele>
        <time>2021-01-05T08:33:13Z</time>
      </trkpt>
      <trkpt lat="45.48372" lon="6.90935">
        <ele>2329.8</ele>
        <time>2021-01-05T08:33:15Z</time>
      </trkpt>
      <trkpt lat="45.48373" lon="6.90932">
        <ele>2329.8</ele>
        <time>2021-01-05T08:33:17Z</time>
      </trkpt>
      <trkpt lat="45.48373" lon="6.90929">
        <ele>2329.8</ele>
        <time>2021-01-05T08:33:19Z</time>
      </trkpt>
      <trkpt lat="45.48373" lon="6.90925">
        <ele>2329.8</ele>
        <time>2021-01-05T08:33:21Z</time>
      </trkpt>
      <trkpt lat="45.48373" lon="6.90922">
        <ele>2329.8</ele>
        <time>2021-01-05T08:33:23Z</time>
      </trkpt>
      <trkpt lat="45.48374" lon="6.90917">
        <ele>2329.8</ele>
        <time>2021-01-05T08:33:25Z</time>
      </trkpt>
      <trkpt lat="45.48375" lon="6.90913">
        <ele>2329.8</ele>
        <time>2021-01-05T08:33:27Z</time>
      </trkpt>
      <trkpt lat="45.48375" lon="6.9091">
        <ele>2329.8</ele>
        <time>2021-01-05T08:33:29Z</time>
      </trkpt>
      <trkpt lat="45.48375" lon="6.90906">
        <ele>2329.8</ele>
        <time>2021-01-05T08:33:31Z</time>
      </trkpt>
      <trkpt lat="45.48376" lon="6.909">
        <ele>2329.8</ele>
        <time>2021-01-05T08:33:33Z</time>
      </trkpt>
      <trkpt lat="45.48376" lon="6.90898">
        <ele>2329.8</ele>
        <time>2021-01-05T08:33:34Z</time>
      </trkpt>
      <trkpt lat="45.48377" lon="6.90894">
        <ele>2329.8</ele>
        <time>2021-01-05T08:33:36Z</time>
      </trkpt>
      <trkpt lat="45.48377" lon="6.9089">
        <ele>2364.8</ele>
        <time>2021-01-05T08:33:38Z</time>
      </trkpt>
      <trkpt lat="45.48378" lon="6.90886">
        <ele>2364.8</ele>
        <time>2021-01-05T08:33:40Z</time>
      </trkpt>
      <trkpt lat="45.48378" lon="6.90882">
        <ele>2364.8</ele>
        <time>2021-01-05T08:33:42Z</time>
      </trkpt>
      <trkpt lat="45.48377" lon="6.90879">
        <ele>2364.8</ele>
        <time>2021-01-05T08:33:44Z</time>
      </trkpt>
      <trkpt lat="45.48377" lon="6.90873">
        <ele>2364.8</ele>
        <time>2021-01-05T08:33:46Z</time>
      </trkpt>
      <trkpt lat="45.48378" lon="6.90871">
        <ele>2364.8</ele>
        <time>2021-01-05T08:33:47Z</time>
      </trkpt>
      <trkpt lat="45.48377" lon="6.90867">
        <ele>2364.8</ele>
        <time>2021-01-05T08:33:49Z</time>
      </trkpt>
      <trkpt lat="45.48377" lon="6.90864">
        <ele>2364.8</ele>
        <time>2021-01-05T08:33:51Z</time>
      </trkpt>
      <trkpt lat="45.48377" lon="6.9086">
        <ele>2364.8</ele>
        <time>2021-01-05T08:33:53Z</time>
      </trkpt>
      <trkpt lat="45.48377" lon="6.90855">
        <ele>2364.8</ele>
        <time>2021-01-05T08:33:55Z</time>
      </trkpt>
      <trkpt lat="45.48376" lon="6.90852">
        <ele>2364.8</ele>
        <time>2021-01-05T08:33:57Z</time>
      </trkpt>
      <trkpt lat="45.48376" lon="6.90848">
        <ele>2364.8</ele>
        <time>2021-01-05T08:33:59Z</time>
      </trkpt>
      <trkpt lat="45.48375" lon="6.90845">
        <ele>2364.8</ele>
        <time>2021-01-05T08:34:01Z</time>
      </trkpt>
      <trkpt lat="45.48375" lon="6.90842">
        <ele>2364.8</ele>
        <time>2021-01-05T08:34:03Z</time>
      </trkpt>
      <trkpt lat="45.48374" lon="6.90839">
        <ele>2364.8</ele>
        <time>2021-01-05T08:34:05Z</time>
      </trkpt>
      <trkpt lat="45.48373" lon="6.90834">
        <ele>2364.8</ele>
        <time>2021-01-05T08:34:07Z</time>
      </trkpt>
      <trkpt lat="45.48373" lon="6.90831">
        <ele>2373.6</ele>
        <time>2021-01-05T08:34:08Z</time>
      </trkpt>
      <trkpt lat="45.48373" lon="6.90828">
        <ele>2373.6</ele>
        <time>2021-01-05T08:34:10Z</time>
      </trkpt>
      <trkpt lat="45.48372" lon="6.90825">
        <ele>2373.6</ele>
        <time>2021-01-05T08:34:12Z</time>
      </trkpt>
      <trkpt lat="45.48372" lon="6.90821">
        <ele>2373.6</ele>
        <time>2021-01-05T08:34:14Z</time>
      </trkpt>
      <trkpt lat="45.48372" lon="6.90815">
        <ele>2373.6</ele>
        <time>2021-01-05T08:34:16Z</time>
      </trkpt>
      <trkpt lat="45.48371" lon="6.90812">
        <ele>2373.6</ele>
        <time>2021-01-05T08:34:17Z</time>
      </trkpt>
      <trkpt lat="45.4837" lon="6.90809">
        <ele>2373.6</ele>
        <time>2021-01-05T08:34:19Z</time>
      </trkpt>
      <trkpt lat="45.48369" lon="6.90805">
        <ele>2373.6</ele>
        <time>2021-01-05T08:34:22Z</time>
      </trkpt>
      <trkpt lat="45.48368" lon="6.90801">
        <ele>2373.6</ele>
        <time>2021-01-05T08:34:24Z</time>
      </trkpt>
      <trkpt lat="45.48367" lon="6.90797">
        <ele>2373.6</ele>
        <time>2021-01-05T08:34:26Z</time>
      </trkpt>
      <trkpt lat="45.48366" lon="6.90793">
        <ele>2379.6</ele>
        <time>2021-01-05T08:34:28Z</time>
      </trkpt>
      <trkpt lat="45.48365" lon="6.90789">
        <ele>2379.6</ele>
        <time>2021-01-05T08:34:30Z</time>
      </trkpt>
      <trkpt lat="45.48364" lon="6.90786">
        <ele>2379.6</ele>
        <time>2021-01-05T08:34:32Z</time>
      </trkpt>
      <trkpt lat="45.48362" lon="6.90783">
        <ele>2379.6</ele>
        <time>2021-01-05T08:34:34Z</time>
      </trkpt>
      <trkpt lat="45.48361" lon="6.90779">
        <ele>2379.6</ele>
        <time>2021-01-05T08:34:36Z</time>
      </trkpt>
      <trkpt lat="45.4836" lon="6.90776">
        <ele>2379.6</ele>
        <time>2021-01-05T08:34:37Z</time>
      </trkpt>
      <trkpt lat="45.48359" lon="6.90772">
        <ele>2379.6</ele>
        <time>2021-01-05T08:34:39Z</time>
      </trkpt>
      <trkpt lat="45.48358" lon="6.90769">
        <ele>2379.6</ele>
        <time>2021-01-05T08:34:41Z</time>
      </trkpt>
      <trkpt lat="45.48356" lon="6.90766">
        <ele>2379.6</ele>
        <time>2021-01-05T08:34:43Z</time>
      </trkpt>
      <trkpt lat="45.48356" lon="6.90763">
        <ele>2379.6</ele>
        <time>2021-01-05T08:34:44Z</time>
      </trkpt>
      <trkpt lat="45.48354" lon="6.9076">
        <ele>2379.6</ele>
        <time>2021-01-05T08:34:46Z</time>
      </trkpt>
      <trkpt lat="45.48353" lon="6.90757">
        <ele>2386.8</ele>
        <time>2021-01-05T08:34:48Z</time>
      </trkpt>
      <trkpt lat="45.48351" lon="6.90753">
        <ele>2386.8</ele>
        <time>2021-01-05T08:34:50Z</time>
      </trkpt>
      <trkpt lat="45.48349" lon="6.9075">
        <ele>2386.8</ele>
        <time>2021-01-05T08:34:53Z</time>
      </trkpt>
      <trkpt lat="45.48348" lon="6.90747">
        <ele>2386.8</ele>
        <time>2021-01-05T08:34:55Z</time>
      </trkpt>
      <trkpt lat="45.48347" lon="6.90744">
        <ele>2386.8</ele>
        <time>2021-01-05T08:34:57Z</time>
      </trkpt>
      <trkpt lat="45.48345" lon="6.90742">
        <ele>2386.8</ele>
        <time>2021-01-05T08:34:59Z</time>
      </trkpt>
      <trkpt lat="45.48344" lon="6.90739">
        <ele>2386.8</ele>
        <time>2021-01-05T08:35:01Z</time>
      </trkpt>
      <trkpt lat="45.48342" lon="6.90736">
        <ele>2386.8</ele>
        <time>2021-01-05T08:35:02Z</time>
      </trkpt>
      <trkpt lat="45.4834" lon="6.90734">
        <ele>2386.8</ele>
        <time>2021-01-05T08:35:04Z</time>
      </trkpt>
      <trkpt lat="45.48339" lon="6.9073">
        <ele>2386.8</ele>
        <time>2021-01-05T08:35:06Z</time>
      </trkpt>
      <trkpt lat="45.48338" lon="6.90728">
        <ele>2392.6</ele>
        <time>2021-01-05T08:35:08Z</time>
      </trkpt>
      <trkpt lat="45.48336" lon="6.90726">
        <ele>2392.6</ele>
        <time>2021-01-05T08:35:10Z</time>
      </trkpt>
      <trkpt lat="45.48334" lon="6.90722">
        <ele>2392.6</ele>
        <time>2021-01-05T08:35:13Z</time>
      </trkpt>
      <trkpt lat="45.48332" lon="6.90719">
        <ele>2392.6</ele>
        <time>2021-01-05T08:35:15Z</time>
      </trkpt>
      <trkpt lat="45.48331" lon="6.90717">
        <ele>2392.6</ele>
        <time>2021-01-05T08:35:17Z</time>
      </trkpt>
      <trkpt lat="45.4833" lon="6.90714">
        <ele>2392.6</ele>
        <time>2021-01-05T08:35:19Z</time>
      </trkpt>
      <trkpt lat="45.48329" lon="6.90712">
        <ele>2392.6</ele>
        <time>2021-01-05T08:35:20Z</time>
      </trkpt>
      <trkpt lat="45.48328" lon="6.90709">
        <ele>2392.6</ele>
        <time>2021-01-05T08:35:22Z</time>
      </trkpt>
      <trkpt lat="45.48326" lon="6.90707">
        <ele>2392.6</ele>
        <time>2021-01-05T08:35:24Z</time>
      </trkpt>
      <trkpt lat="45.48325" lon="6.90704">
        <ele>2392.6</ele>
        <time>2021-01-05T08:35:26Z</time>
      </trkpt>
      <trkpt lat="45.48324" lon="6.90702">
        <ele>2397.4</ele>
        <time>2021-01-05T08:35:28Z</time>
      </trkpt>
      <trkpt lat="45.48322" lon="6.907">
        <ele>2397.4</ele>
        <time>2021-01-05T08:35:30Z</time>
      </trkpt>
      <trkpt lat="45.4832" lon="6.90697">
        <ele>2397.4</ele>
        <time>2021-01-05T08:35:32Z</time>
      </trkpt>
      <trkpt lat="45.48318" lon="6.90695">
        <ele>2397.4</ele>
        <time>2021-01-05T08:35:34Z</time>
      </trkpt>
      <trkpt lat="45.48316" lon="6.90692">
        <ele>2397.4</ele>
        <time>2021-01-05T08:35:36Z</time>
      </trkpt>
      <trkpt lat="45.48316" lon="6.90689">
        <ele>2397.4</ele>
        <time>2021-01-05T08:35:39Z</time>
      </trkpt>
      <trkpt lat="45.48314" lon="6.90687">
        <ele>2397.4</ele>
        <time>2021-01-05T08:35:41Z</time>
      </trkpt>
      <trkpt lat="45.48312" lon="6.90685">
        <ele>2397.4</ele>
        <time>2021-01-05T08:35:43Z</time>
      </trkpt>
      <trkpt lat="45.48311" lon="6.90682">
        <ele>2397.4</ele>
        <time>2021-01-05T08:35:45Z</time>
      </trkpt>
      <trkpt lat="45.48309" lon="6.90679">
        <ele>2402</ele>
        <time>2021-01-05T08:35:48Z</time>
      </trkpt>
      <trkpt lat="45.48307" lon="6.90676">
        <ele>2402</ele>
        <time>2021-01-05T08:35:51Z</time>
      </trkpt>
      <trkpt lat="45.48306" lon="6.90674">
        <ele>2402</ele>
        <time>2021-01-05T08:35:53Z</time>
      </trkpt>
      <trkpt lat="45.48304" lon="6.90671">
        <ele>2402</ele>
        <time>2021-01-05T08:35:55Z</time>
      </trkpt>
      <trkpt lat="45.48303" lon="6.90669">
        <ele>2402</ele>
        <time>2021-01-05T08:35:57Z</time>
      </trkpt>
      <trkpt lat="45.48301" lon="6.90668">
        <ele>2402</ele>
        <time>2021-01-05T08:35:59Z</time>
      </trkpt>
      <trkpt lat="45.48298" lon="6.90664">
        <ele>2402</ele>
        <time>2021-01-05T08:36:01Z</time>
      </trkpt>
      <trkpt lat="45.48297" lon="6.90662">
        <ele>2402</ele>
        <time>2021-01-05T08:36:04Z</time>
      </trkpt>
      <trkpt lat="45.48295" lon="6.9066">
        <ele>2402</ele>
        <time>2021-01-05T08:36:07Z</time>
      </trkpt>
      <trkpt lat="45.48293" lon="6.90657">
        <ele>2402</ele>
        <time>2021-01-05T08:36:09Z</time>
      </trkpt>
      <trkpt lat="45.48291" lon="6.90654">
        <ele>2402</ele>
        <time>2021-01-05T08:36:12Z</time>
      </trkpt>
      <trkpt lat="45.48289" lon="6.90651">
        <ele>2402</ele>
        <time>2021-01-05T08:36:14Z</time>
      </trkpt>
      <trkpt lat="45.48287" lon="6.90649">
        <ele>2402</ele>
        <time>2021-01-05T08:36:17Z</time>
      </trkpt>
      <trkpt lat="45.48286" lon="6.90647">
        <ele>2402</ele>
        <time>2021-01-05T08:36:19Z</time>
      </trkpt>
      <trkpt lat="45.48284" lon="6.90644">
        <ele>2402</ele>
        <time>2021-01-05T08:36:21Z</time>
      </trkpt>
      <trkpt lat="45.48283" lon="6.90642">
        <ele>2402</ele>
        <time>2021-01-05T08:36:24Z</time>
      </trkpt>
      <trkpt lat="45.48282" lon="6.9064">
        <ele>2402</ele>
        <time>2021-01-05T08:36:26Z</time>
      </trkpt>
      <trkpt lat="45.4828" lon="6.90638">
        <ele>2419</ele>
        <time>2021-01-05T08:36:28Z</time>
      </trkpt>
      <trkpt lat="45.48278" lon="6.90636">
        <ele>2419</ele>
        <time>2021-01-05T08:36:30Z</time>
      </trkpt>
      <trkpt lat="45.48276" lon="6.90632">
        <ele>2419</ele>
        <time>2021-01-05T08:36:33Z</time>
      </trkpt>
      <trkpt lat="45.48275" lon="6.90629">
        <ele>2419</ele>
        <time>2021-01-05T08:36:35Z</time>
      </trkpt>
      <trkpt lat="45.48273" lon="6.90627">
        <ele>2422.6</ele>
        <time>2021-01-05T08:36:38Z</time>
      </trkpt>
      <trkpt lat="45.48271" lon="6.90625">
        <ele>2422.6</ele>
        <time>2021-01-05T08:36:41Z</time>
      </trkpt>
      <trkpt lat="45.48269" lon="6.90623">
        <ele>2422.6</ele>
        <time>2021-01-05T08:36:44Z</time>
      </trkpt>
      <trkpt lat="45.48268" lon="6.9062">
        <ele>2422.6</ele>
        <time>2021-01-05T08:36:46Z</time>
      </trkpt>
      <trkpt lat="45.48266" lon="6.90619">
        <ele>2422.6</ele>
        <time>2021-01-05T08:36:49Z</time>
      </trkpt>
      <trkpt lat="45.48264" lon="6.90616">
        <ele>2422.6</ele>
        <time>2021-01-05T08:36:52Z</time>
      </trkpt>
      <trkpt lat="45.48262" lon="6.90614">
        <ele>2422.6</ele>
        <time>2021-01-05T08:36:55Z</time>
      </trkpt>
      <trkpt lat="45.4826" lon="6.90612">
        <ele>2422.6</ele>
        <time>2021-01-05T08:36:57Z</time>
      </trkpt>
      <trkpt lat="45.48259" lon="6.90611">
        <ele>2427</ele>
        <time>2021-01-05T08:36:58Z</time>
      </trkpt>
      <trkpt lat="45.48258" lon="6.90608">
        <ele>2427</ele>
        <time>2021-01-05T08:37:01Z</time>
      </trkpt>
      <trkpt lat="45.48256" lon="6.90606">
        <ele>2427</ele>
        <time>2021-01-05T08:37:03Z</time>
      </trkpt>
      <trkpt lat="45.48254" lon="6.90604">
        <ele>2427</ele>
        <time>2021-01-05T08:37:05Z</time>
      </trkpt>
      <trkpt lat="45.48253" lon="6.90603">
        <ele>2427</ele>
        <time>2021-01-05T08:37:07Z</time>
      </trkpt>
      <trkpt lat="45.48251" lon="6.90602">
        <ele>2427</ele>
        <time>2021-01-05T08:37:09Z</time>
      </trkpt>
      <trkpt lat="45.48249" lon="6.90599">
        <ele>2427</ele>
        <time>2021-01-05T08:37:12Z</time>
      </trkpt>
      <trkpt lat="45.48248" lon="6.90597">
        <ele>2427</ele>
        <time>2021-01-05T08:37:14Z</time>
      </trkpt>
      <trkpt lat="45.48246" lon="6.90594">
        <ele>2427</ele>
        <time>2021-01-05T08:37:16Z</time>
      </trkpt>
      <trkpt lat="45.48244" lon="6.90592">
        <ele>2432.8</ele>
        <time>2021-01-05T08:37:18Z</time>
      </trkpt>
      <trkpt lat="45.48243" lon="6.90589">
        <ele>2432.8</ele>
        <time>2021-01-05T08:37:20Z</time>
      </trkpt>
      <trkpt lat="45.48243" lon="6.90585">
        <ele>2432.8</ele>
        <time>2021-01-05T08:37:22Z</time>
      </trkpt>
      <trkpt lat="45.48243" lon="6.90582">
        <ele>2432.8</ele>
        <time>2021-01-05T08:37:23Z</time>
      </trkpt>
      <trkpt lat="45.48244" lon="6.90578">
        <ele>2432.8</ele>
        <time>2021-01-05T08:37:25Z</time>
      </trkpt>
      <trkpt lat="45.48246" lon="6.90574">
        <ele>2432.8</ele>
        <time>2021-01-05T08:37:27Z</time>
      </trkpt>
      <trkpt lat="45.48247" lon="6.9057">
        <ele>2432.8</ele>
        <time>2021-01-05T08:37:28Z</time>
      </trkpt>
      <trkpt lat="45.48248" lon="6.90568">
        <ele>2432.8</ele>
        <time>2021-01-05T08:37:29Z</time>
      </trkpt>
      <trkpt lat="45.4825" lon="6.90565">
        <ele>2432.8</ele>
        <time>2021-01-05T08:37:31Z</time>
      </trkpt>
      <trkpt lat="45.48251" lon="6.90561">
        <ele>2432.8</ele>
        <time>2021-01-05T08:37:33Z</time>
      </trkpt>
      <trkpt lat="45.48253" lon="6.90557">
        <ele>2432.8</ele>
        <time>2021-01-05T08:37:35Z</time>
      </trkpt>
      <trkpt lat="45.48254" lon="6.90555">
        <ele>2432.8</ele>
        <time>2021-01-05T08:37:36Z</time>
      </trkpt>
      <trkpt lat="45.48256" lon="6.90553">
        <ele>2432.8</ele>
        <time>2021-01-05T08:37:38Z</time>
      </trkpt>
      <trkpt lat="45.48258" lon="6.90548">
        <ele>2432.8</ele>
        <time>2021-01-05T08:37:40Z</time>
      </trkpt>
      <trkpt lat="45.4826" lon="6.90545">
        <ele>2432.8</ele>
        <time>2021-01-05T08:37:42Z</time>
      </trkpt>
      <trkpt lat="45.48262" lon="6.90542">
        <ele>2432.8</ele>
        <time>2021-01-05T08:37:44Z</time>
      </trkpt>
      <trkpt lat="45.48263" lon="6.90539">
        <ele>2432.8</ele>
        <time>2021-01-05T08:37:46Z</time>
      </trkpt>
      <trkpt lat="45.48266" lon="6.90536">
        <ele>2435.4</ele>
        <time>2021-01-05T08:37:48Z</time>
      </trkpt>
      <trkpt lat="45.48268" lon="6.90534">
        <ele>2435.4</ele>
        <time>2021-01-05T08:37:50Z</time>
      </trkpt>
      <trkpt lat="45.48271" lon="6.90533">
        <ele>2435.4</ele>
        <time>2021-01-05T08:37:52Z</time>
      </trkpt>
      <trkpt lat="45.48274" lon="6.90532">
        <ele>2435.4</ele>
        <time>2021-01-05T08:37:54Z</time>
      </trkpt>
      <trkpt lat="45.48276" lon="6.90531">
        <ele>2435.4</ele>
        <time>2021-01-05T08:37:56Z</time>
      </trkpt>
      <trkpt lat="45.48279" lon="6.9053">
        <ele>2436.4</ele>
        <time>2021-01-05T08:37:58Z</time>
      </trkpt>
      <trkpt lat="45.48282" lon="6.90529">
        <ele>2436.4</ele>
        <time>2021-01-05T08:38:00Z</time>
      </trkpt>
      <trkpt lat="45.48284" lon="6.90528">
        <ele>2436.4</ele>
        <time>2021-01-05T08:38:02Z</time>
      </trkpt>
      <trkpt lat="45.48284" lon="6.90524">
        <ele>2436.4</ele>
        <time>2021-01-05T08:38:05Z</time>
      </trkpt>
      <trkpt lat="45.48285" lon="6.90522">
        <ele>2436.4</ele>
        <time>2021-01-05T08:38:07Z</time>
      </trkpt>
      <trkpt lat="45.48286" lon="6.90518">
        <ele>2436.4</ele>
        <time>2021-01-05T08:38:10Z</time>
      </trkpt>
      <trkpt lat="45.48287" lon="6.90515">
        <ele>2436.4</ele>
        <time>2021-01-05T08:38:12Z</time>
      </trkpt>
      <trkpt lat="45.48287" lon="6.90512">
        <ele>2436.4</ele>
        <time>2021-01-05T08:38:14Z</time>
      </trkpt>
      <trkpt lat="45.48288" lon="6.90509">
        <ele>2436.4</ele>
        <time>2021-01-05T08:38:16Z</time>
      </trkpt>
      <trkpt lat="45.48289" lon="6.90506">
        <ele>2441.2</ele>
        <time>2021-01-05T08:38:18Z</time>
      </trkpt>
      <trkpt lat="45.4829" lon="6.90503">
        <ele>2441.2</ele>
        <time>2021-01-05T08:38:20Z</time>
      </trkpt>
      <trkpt lat="45.48291" lon="6.905">
        <ele>2441.2</ele>
        <time>2021-01-05T08:38:22Z</time>
      </trkpt>
      <trkpt lat="45.48292" lon="6.90496">
        <ele>2441.2</ele>
        <time>2021-01-05T08:38:24Z</time>
      </trkpt>
      <trkpt lat="45.48292" lon="6.90493">
        <ele>2441.2</ele>
        <time>2021-01-05T08:38:26Z</time>
      </trkpt>
      <trkpt lat="45.48294" lon="6.9049">
        <ele>2445.4</ele>
        <time>2021-01-05T08:38:28Z</time>
      </trkpt>
      <trkpt lat="45.48295" lon="6.90487">
        <ele>2445.4</ele>
        <time>2021-01-05T08:38:30Z</time>
      </trkpt>
      <trkpt lat="45.48296" lon="6.90486">
        <ele>2445.4</ele>
        <time>2021-01-05T08:38:32Z</time>
      </trkpt>
      <trkpt lat="45.48299" lon="6.90487">
        <ele>2445.4</ele>
        <time>2021-01-05T08:38:34Z</time>
      </trkpt>
      <trkpt lat="45.483" lon="6.90488">
        <ele>2445.4</ele>
        <time>2021-01-05T08:38:35Z</time>
      </trkpt>
      <trkpt lat="45.48303" lon="6.9049">
        <ele>2445.4</ele>
        <time>2021-01-05T08:38:37Z</time>
      </trkpt>
      <trkpt lat="45.48306" lon="6.90491">
        <ele>2445.4</ele>
        <time>2021-01-05T08:38:39Z</time>
      </trkpt>
      <trkpt lat="45.48308" lon="6.90492">
        <ele>2445.4</ele>
        <time>2021-01-05T08:38:41Z</time>
      </trkpt>
      <trkpt lat="45.4831" lon="6.90493">
        <ele>2445.4</ele>
        <time>2021-01-05T08:38:43Z</time>
      </trkpt>
      <trkpt lat="45.48312" lon="6.90494">
        <ele>2445.4</ele>
        <time>2021-01-05T08:38:45Z</time>
      </trkpt>
      <trkpt lat="45.48315" lon="6.90495">
        <ele>2445.4</ele>
        <time>2021-01-05T08:38:47Z</time>
      </trkpt>
      <trkpt lat="45.48316" lon="6.90495">
        <ele>2445.4</ele>
        <time>2021-01-05T08:38:49Z</time>
      </trkpt>
      <trkpt lat="45.48318" lon="6.90496">
        <ele>2445.4</ele>
        <time>2021-01-05T08:38:51Z</time>
      </trkpt>
      <trkpt lat="45.48321" lon="6.90496">
        <ele>2445.4</ele>
        <time>2021-01-05T08:38:53Z</time>
      </trkpt>
      <trkpt lat="45.48323" lon="6.90496">
        <ele>2445.4</ele>
        <time>2021-01-05T08:38:55Z</time>
      </trkpt>
      <trkpt lat="45.48326" lon="6.90497">
        <ele>2445.4</ele>
        <time>2021-01-05T08:38:57Z</time>
      </trkpt>
      <trkpt lat="45.48328" lon="6.90496">
        <ele>2445.4</ele>
        <time>2021-01-05T08:38:59Z</time>
      </trkpt>
      <trkpt lat="45.48329" lon="6.90495">
        <ele>2445.4</ele>
        <time>2021-01-05T08:39:01Z</time>
      </trkpt>
      <trkpt lat="45.4833" lon="6.90491">
        <ele>2445.4</ele>
        <time>2021-01-05T08:39:04Z</time>
      </trkpt>
      <trkpt lat="45.4833" lon="6.90488">
        <ele>2445.4</ele>
        <time>2021-01-05T08:39:06Z</time>
      </trkpt>
      <trkpt lat="45.48331" lon="6.90484">
        <ele>2450.4</ele>
        <time>2021-01-05T08:39:08Z</time>
      </trkpt>
      <trkpt lat="45.48332" lon="6.9048">
        <ele>2450.4</ele>
        <time>2021-01-05T08:39:10Z</time>
      </trkpt>
      <trkpt lat="45.48332" lon="6.90478">
        <ele>2450.4</ele>
        <time>2021-01-05T08:39:12Z</time>
      </trkpt>
      <trkpt lat="45.48332" lon="6.90474">
        <ele>2450.4</ele>
        <time>2021-01-05T08:39:14Z</time>
      </trkpt>
      <trkpt lat="45.48332" lon="6.90472">
        <ele>2450.4</ele>
        <time>2021-01-05T08:39:16Z</time>
      </trkpt>
      <trkpt lat="45.48333" lon="6.90469">
        <ele>2454.4</ele>
        <time>2021-01-05T08:39:18Z</time>
      </trkpt>
      <trkpt lat="45.48333" lon="6.90465">
        <ele>2454.4</ele>
        <time>2021-01-05T08:39:21Z</time>
      </trkpt>
      <trkpt lat="45.48334" lon="6.90462">
        <ele>2454.4</ele>
        <time>2021-01-05T08:39:23Z</time>
      </trkpt>
      <trkpt lat="45.48334" lon="6.90458">
        <ele>2454.4</ele>
        <time>2021-01-05T08:39:25Z</time>
      </trkpt>
      <trkpt lat="45.48335" lon="6.90455">
        <ele>2458.2</ele>
        <time>2021-01-05T08:39:28Z</time>
      </trkpt>
      <trkpt lat="45.48336" lon="6.90451">
        <ele>2458.2</ele>
        <time>2021-01-05T08:39:30Z</time>
      </trkpt>
      <trkpt lat="45.48337" lon="6.90447">
        <ele>2458.2</ele>
        <time>2021-01-05T08:39:33Z</time>
      </trkpt>
      <trkpt lat="45.48337" lon="6.90444">
        <ele>2458.2</ele>
        <time>2021-01-05T08:39:36Z</time>
      </trkpt>
      <trkpt lat="45.48339" lon="6.90442">
        <ele>2458.2</ele>
        <time>2021-01-05T08:39:39Z</time>
      </trkpt>
      <trkpt lat="45.48341" lon="6.90442">
        <ele>2458.2</ele>
        <time>2021-01-05T08:39:41Z</time>
      </trkpt>
      <trkpt lat="45.48343" lon="6.90442">
        <ele>2458.2</ele>
        <time>2021-01-05T08:39:42Z</time>
      </trkpt>
      <trkpt lat="45.48347" lon="6.90443">
        <ele>2458.2</ele>
        <time>2021-01-05T08:39:44Z</time>
      </trkpt>
      <trkpt lat="45.48349" lon="6.90442">
        <ele>2458.2</ele>
        <time>2021-01-05T08:39:46Z</time>
      </trkpt>
      <trkpt lat="45.48352" lon="6.90442">
        <ele>2465.2</ele>
        <time>2021-01-05T08:39:48Z</time>
      </trkpt>
      <trkpt lat="45.48354" lon="6.90442">
        <ele>2465.2</ele>
        <time>2021-01-05T08:39:50Z</time>
      </trkpt>
      <trkpt lat="45.48356" lon="6.90441">
        <ele>2465.2</ele>
        <time>2021-01-05T08:39:52Z</time>
      </trkpt>
      <trkpt lat="45.4836" lon="6.9044">
        <ele>2465.2</ele>
        <time>2021-01-05T08:39:55Z</time>
      </trkpt>
      <trkpt lat="45.48362" lon="6.9044">
        <ele>2465.2</ele>
        <time>2021-01-05T08:39:57Z</time>
      </trkpt>
      <trkpt lat="45.48364" lon="6.90438">
        <ele>2465.2</ele>
        <time>2021-01-05T08:39:59Z</time>
      </trkpt>
      <trkpt lat="45.48365" lon="6.90435">
        <ele>2465.2</ele>
        <time>2021-01-05T08:40:01Z</time>
      </trkpt>
      <trkpt lat="45.48367" lon="6.90432">
        <ele>2465.2</ele>
        <time>2021-01-05T08:40:03Z</time>
      </trkpt>
      <trkpt lat="45.48368" lon="6.9043">
        <ele>2465.2</ele>
        <time>2021-01-05T08:40:05Z</time>
      </trkpt>
      <trkpt lat="45.4837" lon="6.90427">
        <ele>2465.2</ele>
        <time>2021-01-05T08:40:07Z</time>
      </trkpt>
      <trkpt lat="45.48372" lon="6.90426">
        <ele>2472.8</ele>
        <time>2021-01-05T08:40:08Z</time>
      </trkpt>
      <trkpt lat="45.48373" lon="6.90423">
        <ele>2472.8</ele>
        <time>2021-01-05T08:40:10Z</time>
      </trkpt>
      <trkpt lat="45.48376" lon="6.9042">
        <ele>2472.8</ele>
        <time>2021-01-05T08:40:12Z</time>
      </trkpt>
      <trkpt lat="45.48378" lon="6.90418">
        <ele>2472.8</ele>
        <time>2021-01-05T08:40:14Z</time>
      </trkpt>
      <trkpt lat="45.48379" lon="6.90415">
        <ele>2472.8</ele>
        <time>2021-01-05T08:40:16Z</time>
      </trkpt>
      <trkpt lat="45.4838" lon="6.90412">
        <ele>2477.8</ele>
        <time>2021-01-05T08:40:18Z</time>
      </trkpt>
      <trkpt lat="45.48381" lon="6.90408">
        <ele>2477.8</ele>
        <time>2021-01-05T08:40:20Z</time>
      </trkpt>
      <trkpt lat="45.48383" lon="6.90405">
        <ele>2477.8</ele>
        <time>2021-01-05T08:40:22Z</time>
      </trkpt>
      <trkpt lat="45.48386" lon="6.90402">
        <ele>2477.8</ele>
        <time>2021-01-05T08:40:24Z</time>
      </trkpt>
      <trkpt lat="45.48388" lon="6.90398">
        <ele>2477.8</ele>
        <time>2021-01-05T08:40:26Z</time>
      </trkpt>
      <trkpt lat="45.48389" lon="6.90396">
        <ele>2480.4</ele>
        <time>2021-01-05T08:40:28Z</time>
      </trkpt>
      <trkpt lat="45.48391" lon="6.90392">
        <ele>2480.4</ele>
        <time>2021-01-05T08:40:30Z</time>
      </trkpt>
      <trkpt lat="45.48393" lon="6.90388">
        <ele>2480.4</ele>
        <time>2021-01-05T08:40:32Z</time>
      </trkpt>
      <trkpt lat="45.48396" lon="6.90384">
        <ele>2480.4</ele>
        <time>2021-01-05T08:40:34Z</time>
      </trkpt>
      <trkpt lat="45.48397" lon="6.90383">
        <ele>2480.4</ele>
        <time>2021-01-05T08:40:35Z</time>
      </trkpt>
      <trkpt lat="45.484" lon="6.9038">
        <ele>2480.4</ele>
        <time>2021-01-05T08:40:37Z</time>
      </trkpt>
      <trkpt lat="45.48402" lon="6.90377">
        <ele>2480.4</ele>
        <time>2021-01-05T08:40:39Z</time>
      </trkpt>
      <trkpt lat="45.48404" lon="6.90374">
        <ele>2480.4</ele>
        <time>2021-01-05T08:40:41Z</time>
      </trkpt>
      <trkpt lat="45.48407" lon="6.90371">
        <ele>2480.4</ele>
        <time>2021-01-05T08:40:43Z</time>
      </trkpt>
      <trkpt lat="45.48409" lon="6.90368">
        <ele>2480.4</ele>
        <time>2021-01-05T08:40:45Z</time>
      </trkpt>
      <trkpt lat="45.48411" lon="6.90365">
        <ele>2480.4</ele>
        <time>2021-01-05T08:40:47Z</time>
      </trkpt>
      <trkpt lat="45.48413" lon="6.90363">
        <ele>2480.4</ele>
        <time>2021-01-05T08:40:49Z</time>
      </trkpt>
      <trkpt lat="45.48415" lon="6.9036">
        <ele>2480.4</ele>
        <time>2021-01-05T08:40:51Z</time>
      </trkpt>
      <trkpt lat="45.48417" lon="6.90358">
        <ele>2480.4</ele>
        <time>2021-01-05T08:40:52Z</time>
      </trkpt>
      <trkpt lat="45.4842" lon="6.90356">
        <ele>2480.4</ele>
        <time>2021-01-05T08:40:54Z</time>
      </trkpt>
      <trkpt lat="45.48423" lon="6.90354">
        <ele>2480.4</ele>
        <time>2021-01-05T08:40:56Z</time>
      </trkpt>
      <trkpt lat="45.48424" lon="6.90352">
        <ele>2478.2</ele>
        <time>2021-01-05T08:40:58Z</time>
      </trkpt>
      <trkpt lat="45.48426" lon="6.90349">
        <ele>2478.2</ele>
        <time>2021-01-05T08:41:01Z</time>
      </trkpt>
      <trkpt lat="45.48428" lon="6.90347">
        <ele>2478.2</ele>
        <time>2021-01-05T08:41:03Z</time>
      </trkpt>
      <trkpt lat="45.48429" lon="6.90344">
        <ele>2478.2</ele>
        <time>2021-01-05T08:41:05Z</time>
      </trkpt>
      <trkpt lat="45.48431" lon="6.90342">
        <ele>2478.2</ele>
        <time>2021-01-05T08:41:07Z</time>
      </trkpt>
      <trkpt lat="45.48432" lon="6.90338">
        <ele>2478.2</ele>
        <time>2021-01-05T08:41:10Z</time>
      </trkpt>
      <trkpt lat="45.48434" lon="6.90336">
        <ele>2478.2</ele>
        <time>2021-01-05T08:41:12Z</time>
      </trkpt>
      <trkpt lat="45.48435" lon="6.90334">
        <ele>2478.2</ele>
        <time>2021-01-05T08:41:14Z</time>
      </trkpt>
      <trkpt lat="45.48436" lon="6.90331">
        <ele>2478.2</ele>
        <time>2021-01-05T08:41:16Z</time>
      </trkpt>
      <trkpt lat="45.48437" lon="6.90328">
        <ele>2478.2</ele>
        <time>2021-01-05T08:41:19Z</time>
      </trkpt>
      <trkpt lat="45.48438" lon="6.90325">
        <ele>2478.2</ele>
        <time>2021-01-05T08:41:21Z</time>
      </trkpt>
      <trkpt lat="45.4844" lon="6.90322">
        <ele>2478.2</ele>
        <time>2021-01-05T08:41:23Z</time>
      </trkpt>
      <trkpt lat="45.48442" lon="6.90319">
        <ele>2478.2</ele>
        <time>2021-01-05T08:41:25Z</time>
      </trkpt>
      <trkpt lat="45.48443" lon="6.90317">
        <ele>2478.2</ele>
        <time>2021-01-05T08:41:27Z</time>
      </trkpt>
      <trkpt lat="45.48444" lon="6.90314">
        <ele>2478.2</ele>
        <time>2021-01-05T08:41:29Z</time>
      </trkpt>
      <trkpt lat="45.48444" lon="6.90311">
        <ele>2478.2</ele>
        <time>2021-01-05T08:41:31Z</time>
      </trkpt>
      <trkpt lat="45.48446" lon="6.90308">
        <ele>2478.2</ele>
        <time>2021-01-05T08:41:33Z</time>
      </trkpt>
      <trkpt lat="45.48448" lon="6.90305">
        <ele>2478.2</ele>
        <time>2021-01-05T08:41:35Z</time>
      </trkpt>
      <trkpt lat="45.48449" lon="6.90303">
        <ele>2478.2</ele>
        <time>2021-01-05T08:41:36Z</time>
      </trkpt>
      <trkpt lat="45.48451" lon="6.90299">
        <ele>2489.4</ele>
        <time>2021-01-05T08:41:38Z</time>
      </trkpt>
      <trkpt lat="45.48453" lon="6.90296">
        <ele>2489.4</ele>
        <time>2021-01-05T08:41:40Z</time>
      </trkpt>
      <trkpt lat="45.48455" lon="6.90292">
        <ele>2489.4</ele>
        <time>2021-01-05T08:41:42Z</time>
      </trkpt>
      <trkpt lat="45.48456" lon="6.90288">
        <ele>2489.4</ele>
        <time>2021-01-05T08:41:44Z</time>
      </trkpt>
      <trkpt lat="45.48457" lon="6.90284">
        <ele>2489.4</ele>
        <time>2021-01-05T08:41:46Z</time>
      </trkpt>
      <trkpt lat="45.48459" lon="6.90281">
        <ele>2491.2</ele>
        <time>2021-01-05T08:41:48Z</time>
      </trkpt>
      <trkpt lat="45.48461" lon="6.90277">
        <ele>2491.2</ele>
        <time>2021-01-05T08:41:50Z</time>
      </trkpt>
      <trkpt lat="45.48463" lon="6.90274">
        <ele>2491.2</ele>
        <time>2021-01-05T08:41:52Z</time>
      </trkpt>
      <trkpt lat="45.48465" lon="6.90271">
        <ele>2491.2</ele>
        <time>2021-01-05T08:41:54Z</time>
      </trkpt>
      <trkpt lat="45.48467" lon="6.90268">
        <ele>2491.2</ele>
        <time>2021-01-05T08:41:56Z</time>
      </trkpt>
      <trkpt lat="45.48467" lon="6.90265">
        <ele>2491.2</ele>
        <time>2021-01-05T08:41:57Z</time>
      </trkpt>
      <trkpt lat="45.48469" lon="6.90262">
        <ele>2491.2</ele>
        <time>2021-01-05T08:41:59Z</time>
      </trkpt>
      <trkpt lat="45.48471" lon="6.90259">
        <ele>2491.2</ele>
        <time>2021-01-05T08:42:01Z</time>
      </trkpt>
      <trkpt lat="45.48473" lon="6.90256">
        <ele>2491.2</ele>
        <time>2021-01-05T08:42:03Z</time>
      </trkpt>
      <trkpt lat="45.48474" lon="6.90253">
        <ele>2491.2</ele>
        <time>2021-01-05T08:42:05Z</time>
      </trkpt>
      <trkpt lat="45.48476" lon="6.90251">
        <ele>2491.2</ele>
        <time>2021-01-05T08:42:07Z</time>
      </trkpt>
      <trkpt lat="45.48479" lon="6.90248">
        <ele>2491.2</ele>
        <time>2021-01-05T08:42:09Z</time>
      </trkpt>
      <trkpt lat="45.4848" lon="6.90246">
        <ele>2491.2</ele>
        <time>2021-01-05T08:42:10Z</time>
      </trkpt>
      <trkpt lat="45.48483" lon="6.90244">
        <ele>2491.2</ele>
        <time>2021-01-05T08:42:12Z</time>
      </trkpt>
      <trkpt lat="45.48485" lon="6.90242">
        <ele>2491.2</ele>
        <time>2021-01-05T08:42:14Z</time>
      </trkpt>
      <trkpt lat="45.48487" lon="6.90239">
        <ele>2491.2</ele>
        <time>2021-01-05T08:42:16Z</time>
      </trkpt>
      <trkpt lat="45.48489" lon="6.90237">
        <ele>2497.6</ele>
        <time>2021-01-05T08:42:18Z</time>
      </trkpt>
      <trkpt lat="45.4849" lon="6.90234">
        <ele>2497.6</ele>
        <time>2021-01-05T08:42:20Z</time>
      </trkpt>
      <trkpt lat="45.48492" lon="6.90231">
        <ele>2497.6</ele>
        <time>2021-01-05T08:42:22Z</time>
      </trkpt>
      <trkpt lat="45.48493" lon="6.90228">
        <ele>2497.6</ele>
        <time>2021-01-05T08:42:24Z</time>
      </trkpt>
      <trkpt lat="45.48495" lon="6.90226">
        <ele>2497.6</ele>
        <time>2021-01-05T08:42:26Z</time>
      </trkpt>
      <trkpt lat="45.48497" lon="6.90224">
        <ele>2499.4</ele>
        <time>2021-01-05T08:42:28Z</time>
      </trkpt>
      <trkpt lat="45.48499" lon="6.90221">
        <ele>2499.4</ele>
        <time>2021-01-05T08:42:30Z</time>
      </trkpt>
      <trkpt lat="45.485" lon="6.90219">
        <ele>2499.4</ele>
        <time>2021-01-05T08:42:31Z</time>
      </trkpt>
      <trkpt lat="45.48502" lon="6.90216">
        <ele>2499.4</ele>
        <time>2021-01-05T08:42:34Z</time>
      </trkpt>
      <trkpt lat="45.48503" lon="6.90214">
        <ele>2499.4</ele>
        <time>2021-01-05T08:42:36Z</time>
      </trkpt>
      <trkpt lat="45.48505" lon="6.90212">
        <ele>2499.4</ele>
        <time>2021-01-05T08:42:37Z</time>
      </trkpt>
      <trkpt lat="45.48507" lon="6.90211">
        <ele>2502.2</ele>
        <time>2021-01-05T08:42:38Z</time>
      </trkpt>
      <trkpt lat="45.48509" lon="6.90209">
        <ele>2502.2</ele>
        <time>2021-01-05T08:42:40Z</time>
      </trkpt>
      <trkpt lat="45.4851" lon="6.90207">
        <ele>2502.2</ele>
        <time>2021-01-05T08:42:42Z</time>
      </trkpt>
      <trkpt lat="45.48513" lon="6.90205">
        <ele>2502.2</ele>
        <time>2021-01-05T08:42:44Z</time>
      </trkpt>
      <trkpt lat="45.48515" lon="6.90203">
        <ele>2502.2</ele>
        <time>2021-01-05T08:42:46Z</time>
      </trkpt>
      <trkpt lat="45.48517" lon="6.90202">
        <ele>2502.2</ele>
        <time>2021-01-05T08:42:47Z</time>
      </trkpt>
      <trkpt lat="45.4852" lon="6.902">
        <ele>2502.2</ele>
        <time>2021-01-05T08:42:49Z</time>
      </trkpt>
      <trkpt lat="45.48522" lon="6.90199">
        <ele>2502.2</ele>
        <time>2021-01-05T08:42:51Z</time>
      </trkpt>
      <trkpt lat="45.48524" lon="6.90199">
        <ele>2502.2</ele>
        <time>2021-01-05T08:42:52Z</time>
      </trkpt>
      <trkpt lat="45.48526" lon="6.90198">
        <ele>2502.2</ele>
        <time>2021-01-05T08:42:54Z</time>
      </trkpt>
      <trkpt lat="45.48529" lon="6.90198">
        <ele>2502.2</ele>
        <time>2021-01-05T08:42:56Z</time>
      </trkpt>
      <trkpt lat="45.48531" lon="6.90198">
        <ele>2502.2</ele>
        <time>2021-01-05T08:42:57Z</time>
      </trkpt>
      <trkpt lat="45.48534" lon="6.90197">
        <ele>2502.2</ele>
        <time>2021-01-05T08:42:59Z</time>
      </trkpt>
      <trkpt lat="45.48536" lon="6.90196">
        <ele>2502.2</ele>
        <time>2021-01-05T08:43:01Z</time>
      </trkpt>
      <trkpt lat="45.48539" lon="6.90195">
        <ele>2502.2</ele>
        <time>2021-01-05T08:43:03Z</time>
      </trkpt>
      <trkpt lat="45.48542" lon="6.90195">
        <ele>2502.2</ele>
        <time>2021-01-05T08:43:05Z</time>
      </trkpt>
      <trkpt lat="45.48544" lon="6.90195">
        <ele>2502.2</ele>
        <time>2021-01-05T08:43:07Z</time>
      </trkpt>
      <trkpt lat="45.48547" lon="6.90196">
        <ele>2502.2</ele>
        <time>2021-01-05T08:43:09Z</time>
      </trkpt>
      <trkpt lat="45.48549" lon="6.90196">
        <ele>2502.2</ele>
        <time>2021-01-05T08:43:12Z</time>
      </trkpt>
      <trkpt lat="45.48552" lon="6.90195">
        <ele>2502.2</ele>
        <time>2021-01-05T08:43:14Z</time>
      </trkpt>
      <trkpt lat="45.48555" lon="6.90194">
        <ele>2502.2</ele>
        <time>2021-01-05T08:43:16Z</time>
      </trkpt>
      <trkpt lat="45.48558" lon="6.90194">
        <ele>2502.6</ele>
        <time>2021-01-05T08:43:18Z</time>
      </trkpt>
      <trkpt lat="45.4856" lon="6.90194">
        <ele>2502.6</ele>
        <time>2021-01-05T08:43:20Z</time>
      </trkpt>
      <trkpt lat="45.48563" lon="6.90194">
        <ele>2502.6</ele>
        <time>2021-01-05T08:43:22Z</time>
      </trkpt>
      <trkpt lat="45.48564" lon="6.90193">
        <ele>2502.6</ele>
        <time>2021-01-05T08:43:24Z</time>
      </trkpt>
      <trkpt lat="45.48567" lon="6.90192">
        <ele>2502.6</ele>
        <time>2021-01-05T08:43:26Z</time>
      </trkpt>
      <trkpt lat="45.4857" lon="6.9019">
        <ele>2503</ele>
        <time>2021-01-05T08:43:28Z</time>
      </trkpt>
      <trkpt lat="45.48571" lon="6.90193">
        <ele>2503</ele>
        <time>2021-01-05T08:43:32Z</time>
      </trkpt>
      <trkpt lat="45.48574" lon="6.90193">
        <ele>2503</ele>
        <time>2021-01-05T08:43:35Z</time>
      </trkpt>
      <trkpt lat="45.48576" lon="6.90193">
        <ele>2503</ele>
        <time>2021-01-05T08:43:37Z</time>
      </trkpt>
      <trkpt lat="45.48578" lon="6.90192">
        <ele>2503</ele>
        <time>2021-01-05T08:43:39Z</time>
      </trkpt>
      <trkpt lat="45.4858" lon="6.90192">
        <ele>2503</ele>
        <time>2021-01-05T08:43:41Z</time>
      </trkpt>
      <trkpt lat="45.48583" lon="6.9019">
        <ele>2503</ele>
        <time>2021-01-05T08:43:43Z</time>
      </trkpt>
      <trkpt lat="45.48585" lon="6.90187">
        <ele>2503</ele>
        <time>2021-01-05T08:43:45Z</time>
      </trkpt>
      <trkpt lat="45.48587" lon="6.90184">
        <ele>2503</ele>
        <time>2021-01-05T08:43:47Z</time>
      </trkpt>
      <trkpt lat="45.48589" lon="6.90182">
        <ele>2503</ele>
        <time>2021-01-05T08:43:49Z</time>
      </trkpt>
      <trkpt lat="45.48591" lon="6.9018">
        <ele>2503</ele>
        <time>2021-01-05T08:43:51Z</time>
      </trkpt>
      <trkpt lat="45.48593" lon="6.90178">
        <ele>2503</ele>
        <time>2021-01-05T08:43:53Z</time>
      </trkpt>
      <trkpt lat="45.48595" lon="6.90175">
        <ele>2503</ele>
        <time>2021-01-05T08:43:55Z</time>
      </trkpt>
      <trkpt lat="45.48596" lon="6.90172">
        <ele>2503</ele>
        <time>2021-01-05T08:43:57Z</time>
      </trkpt>
      <trkpt lat="45.48597" lon="6.90169">
        <ele>2503</ele>
        <time>2021-01-05T08:43:59Z</time>
      </trkpt>
      <trkpt lat="45.48598" lon="6.90165">
        <ele>2503</ele>
        <time>2021-01-05T08:44:01Z</time>
      </trkpt>
      <trkpt lat="45.486" lon="6.90162">
        <ele>2503</ele>
        <time>2021-01-05T08:44:03Z</time>
      </trkpt>
      <trkpt lat="45.48601" lon="6.90157">
        <ele>2503</ele>
        <time>2021-01-05T08:44:05Z</time>
      </trkpt>
      <trkpt lat="45.48603" lon="6.90153">
        <ele>2503</ele>
        <time>2021-01-05T08:44:07Z</time>
      </trkpt>
      <trkpt lat="45.48604" lon="6.9015">
        <ele>2503</ele>
        <time>2021-01-05T08:44:09Z</time>
      </trkpt>
      <trkpt lat="45.48604" lon="6.90146">
        <ele>2503</ele>
        <time>2021-01-05T08:44:11Z</time>
      </trkpt>
      <trkpt lat="45.48605" lon="6.90142">
        <ele>2503</ele>
        <time>2021-01-05T08:44:13Z</time>
      </trkpt>
      <trkpt lat="45.48606" lon="6.9014">
        <ele>2503</ele>
        <time>2021-01-05T08:44:15Z</time>
      </trkpt>
      <trkpt lat="45.48609" lon="6.90138">
        <ele>2503</ele>
        <time>2021-01-05T08:44:17Z</time>
      </trkpt>
      <trkpt lat="45.4861" lon="6.90137">
        <ele>2503</ele>
        <time>2021-01-05T08:44:19Z</time>
      </trkpt>
      <trkpt lat="45.48611" lon="6.90134">
        <ele>2503</ele>
        <time>2021-01-05T08:44:22Z</time>
      </trkpt>
      <trkpt lat="45.48612" lon="6.90131">
        <ele>2503</ele>
        <time>2021-01-05T08:44:24Z</time>
      </trkpt>
      <trkpt lat="45.48612" lon="6.90128">
        <ele>2503</ele>
        <time>2021-01-05T08:44:27Z</time>
      </trkpt>
      <trkpt lat="45.48612" lon="6.90125">
        <ele>2503</ele>
        <time>2021-01-05T08:44:30Z</time>
      </trkpt>
      <trkpt lat="45.48612" lon="6.90121">
        <ele>2503</ele>
        <time>2021-01-05T08:44:32Z</time>
      </trkpt>
      <trkpt lat="45.48612" lon="6.90118">
        <ele>2503</ele>
        <time>2021-01-05T08:44:35Z</time>
      </trkpt>
      <trkpt lat="45.48611" lon="6.90115">
        <ele>2503</ele>
        <time>2021-01-05T08:44:37Z</time>
      </trkpt>
      <trkpt lat="45.48611" lon="6.90112">
        <ele>2503</ele>
        <time>2021-01-05T08:44:39Z</time>
      </trkpt>
      <trkpt lat="45.4861" lon="6.9011">
        <ele>2503</ele>
        <time>2021-01-05T08:44:41Z</time>
      </trkpt>
      <trkpt lat="45.48611" lon="6.90106">
        <ele>2503</ele>
        <time>2021-01-05T08:44:44Z</time>
      </trkpt>
      <trkpt lat="45.48612" lon="6.90103">
        <ele>2503</ele>
        <time>2021-01-05T08:44:46Z</time>
      </trkpt>
      <trkpt lat="45.48612" lon="6.901">
        <ele>2514</ele>
        <time>2021-01-05T08:44:48Z</time>
      </trkpt>
      <trkpt lat="45.48612" lon="6.90096">
        <ele>2514</ele>
        <time>2021-01-05T08:44:51Z</time>
      </trkpt>
      <trkpt lat="45.48611" lon="6.90093">
        <ele>2514</ele>
        <time>2021-01-05T08:44:54Z</time>
      </trkpt>
      <trkpt lat="45.48609" lon="6.90091">
        <ele>2514</ele>
        <time>2021-01-05T08:44:57Z</time>
      </trkpt>
      <trkpt lat="45.48607" lon="6.9009">
        <ele>2514</ele>
        <time>2021-01-05T08:44:59Z</time>
      </trkpt>
      <trkpt lat="45.48604" lon="6.90089">
        <ele>2514</ele>
        <time>2021-01-05T08:45:02Z</time>
      </trkpt>
      <trkpt lat="45.48602" lon="6.90089">
        <ele>2514</ele>
        <time>2021-01-05T08:45:05Z</time>
      </trkpt>
      <trkpt lat="45.486" lon="6.90089">
        <ele>2514</ele>
        <time>2021-01-05T08:45:07Z</time>
      </trkpt>
      <trkpt lat="45.48598" lon="6.90089">
        <ele>2514</ele>
        <time>2021-01-05T08:45:10Z</time>
      </trkpt>
      <trkpt lat="45.48596" lon="6.90089">
        <ele>2514</ele>
        <time>2021-01-05T08:45:12Z</time>
      </trkpt>
      <trkpt lat="45.48594" lon="6.90089">
        <ele>2514</ele>
        <time>2021-01-05T08:45:15Z</time>
      </trkpt>
      <trkpt lat="45.48592" lon="6.90088">
        <ele>2520.8</ele>
        <time>2021-01-05T08:45:18Z</time>
      </trkpt>
      <trkpt lat="45.4859" lon="6.90088">
        <ele>2520.8</ele>
        <time>2021-01-05T08:45:20Z</time>
      </trkpt>
      <trkpt lat="45.48588" lon="6.90088">
        <ele>2520.8</ele>
        <time>2021-01-05T08:45:23Z</time>
      </trkpt>
      <trkpt lat="45.48586" lon="6.90086">
        <ele>2520.8</ele>
        <time>2021-01-05T08:45:26Z</time>
      </trkpt>
      <trkpt lat="45.48585" lon="6.90083">
        <ele>2522.6</ele>
        <time>2021-01-05T08:45:28Z</time>
      </trkpt>
      <trkpt lat="45.48586" lon="6.9008">
        <ele>2522.6</ele>
        <time>2021-01-05T08:45:30Z</time>
      </trkpt>
      <trkpt lat="45.48586" lon="6.90077">
        <ele>2522.6</ele>
        <time>2021-01-05T08:45:32Z</time>
      </trkpt>
      <trkpt lat="45.48587" lon="6.90073">
        <ele>2522.6</ele>
        <time>2021-01-05T08:45:34Z</time>
      </trkpt>
      <trkpt lat="45.48588" lon="6.9007">
        <ele>2522.6</ele>
        <time>2021-01-05T08:45:36Z</time>
      </trkpt>
      <trkpt lat="45.48588" lon="6.90068">
        <ele>2524.2</ele>
        <time>2021-01-05T08:45:38Z</time>
      </trkpt>
      <trkpt lat="45.48588" lon="6.90065">
        <ele>2524.2</ele>
        <time>2021-01-05T08:45:40Z</time>
      </trkpt>
      <trkpt lat="45.48589" lon="6.90062">
        <ele>2524.2</ele>
        <time>2021-01-05T08:45:43Z</time>
      </trkpt>
      <trkpt lat="45.48589" lon="6.90059">
        <ele>2524.2</ele>
        <time>2021-01-05T08:45:45Z</time>
      </trkpt>
      <trkpt lat="45.4859" lon="6.90056">
        <ele>2524.2</ele>
        <time>2021-01-05T08:45:47Z</time>
      </trkpt>
      <trkpt lat="45.48589" lon="6.90054">
        <ele>2524.2</ele>
        <time>2021-01-05T08:45:51Z</time>
      </trkpt>
      <trkpt lat="45.48587" lon="6.90054">
        <ele>2524.2</ele>
        <time>2021-01-05T08:45:53Z</time>
      </trkpt>
      <trkpt lat="45.48584" lon="6.90052">
        <ele>2524.2</ele>
        <time>2021-01-05T08:45:56Z</time>
      </trkpt>
      <trkpt lat="45.48582" lon="6.90051">
        <ele>2524.2</ele>
        <time>2021-01-05T08:45:59Z</time>
      </trkpt>
      <trkpt lat="45.4858" lon="6.9005">
        <ele>2524.2</ele>
        <time>2021-01-05T08:46:01Z</time>
      </trkpt>
      <trkpt lat="45.48577" lon="6.90049">
        <ele>2524.2</ele>
        <time>2021-01-05T08:46:04Z</time>
      </trkpt>
      <trkpt lat="45.48575" lon="6.90048">
        <ele>2524.2</ele>
        <time>2021-01-05T08:46:07Z</time>
      </trkpt>
      <trkpt lat="45.48572" lon="6.90047">
        <ele>2524.2</ele>
        <time>2021-01-05T08:46:10Z</time>
      </trkpt>
      <trkpt lat="45.4857" lon="6.90046">
        <ele>2524.2</ele>
        <time>2021-01-05T08:46:13Z</time>
      </trkpt>
      <trkpt lat="45.48567" lon="6.90046">
        <ele>2524.2</ele>
        <time>2021-01-05T08:46:16Z</time>
      </trkpt>
      <trkpt lat="45.48564" lon="6.90046">
        <ele>2524.2</ele>
        <time>2021-01-05T08:46:19Z</time>
      </trkpt>
      <trkpt lat="45.48562" lon="6.90046">
        <ele>2524.2</ele>
        <time>2021-01-05T08:46:22Z</time>
      </trkpt>
      <trkpt lat="45.4856" lon="6.90046">
        <ele>2524.2</ele>
        <time>2021-01-05T08:46:25Z</time>
      </trkpt>
      <trkpt lat="45.48558" lon="6.90044">
        <ele>2534.2</ele>
        <time>2021-01-05T08:46:28Z</time>
      </trkpt>
      <trkpt lat="45.48558" lon="6.90041">
        <ele>2534.2</ele>
        <time>2021-01-05T08:46:30Z</time>
      </trkpt>
      <trkpt lat="45.48558" lon="6.90038">
        <ele>2534.2</ele>
        <time>2021-01-05T08:46:32Z</time>
      </trkpt>
      <trkpt lat="45.48558" lon="6.90034">
        <ele>2534.2</ele>
        <time>2021-01-05T08:46:34Z</time>
      </trkpt>
      <trkpt lat="45.48556" lon="6.90032">
        <ele>2534.2</ele>
        <time>2021-01-05T08:46:37Z</time>
      </trkpt>
      <trkpt lat="45.48555" lon="6.90029">
        <ele>2534.2</ele>
        <time>2021-01-05T08:46:40Z</time>
      </trkpt>
      <trkpt lat="45.48553" lon="6.90025">
        <ele>2534.2</ele>
        <time>2021-01-05T08:46:42Z</time>
      </trkpt>
      <trkpt lat="45.48552" lon="6.90022">
        <ele>2534.2</ele>
        <time>2021-01-05T08:46:44Z</time>
      </trkpt>
      <trkpt lat="45.48551" lon="6.90019">
        <ele>2534.2</ele>
        <time>2021-01-05T08:46:46Z</time>
      </trkpt>
      <trkpt lat="45.4855" lon="6.90016">
        <ele>2541</ele>
        <time>2021-01-05T08:46:48Z</time>
      </trkpt>
      <trkpt lat="45.48548" lon="6.90015">
        <ele>2541</ele>
        <time>2021-01-05T08:46:50Z</time>
      </trkpt>
      <trkpt lat="45.48547" lon="6.90013">
        <ele>2541</ele>
        <time>2021-01-05T08:46:52Z</time>
      </trkpt>
      <trkpt lat="45.48545" lon="6.90013">
        <ele>2541</ele>
        <time>2021-01-05T08:46:54Z</time>
      </trkpt>
      <trkpt lat="45.48545" lon="6.90009">
        <ele>2541</ele>
        <time>2021-01-05T08:46:57Z</time>
      </trkpt>
      <trkpt lat="45.48546" lon="6.90006">
        <ele>2541</ele>
        <time>2021-01-05T08:46:59Z</time>
      </trkpt>
      <trkpt lat="45.48547" lon="6.90003">
        <ele>2541</ele>
        <time>2021-01-05T08:47:01Z</time>
      </trkpt>
      <trkpt lat="45.48547" lon="6.9">
        <ele>2541</ele>
        <time>2021-01-05T08:47:03Z</time>
      </trkpt>
      <trkpt lat="45.48548" lon="6.89996">
        <ele>2541</ele>
        <time>2021-01-05T08:47:05Z</time>
      </trkpt>
      <trkpt lat="45.48548" lon="6.89993">
        <ele>2550.2</ele>
        <time>2021-01-05T08:47:08Z</time>
      </trkpt>
      <trkpt lat="45.48547" lon="6.8999">
        <ele>2550.2</ele>
        <time>2021-01-05T08:47:11Z</time>
      </trkpt>
      <trkpt lat="45.48544" lon="6.89989">
        <ele>2550.2</ele>
        <time>2021-01-05T08:47:14Z</time>
      </trkpt>
      <trkpt lat="45.48542" lon="6.89988">
        <ele>2550.2</ele>
        <time>2021-01-05T08:47:16Z</time>
      </trkpt>
      <trkpt lat="45.4854" lon="6.89987">
        <ele>2552.6</ele>
        <time>2021-01-05T08:47:18Z</time>
      </trkpt>
      <trkpt lat="45.48539" lon="6.89985">
        <ele>2552.6</ele>
        <time>2021-01-05T08:47:20Z</time>
      </trkpt>
      <trkpt lat="45.48537" lon="6.89982">
        <ele>2552.6</ele>
        <time>2021-01-05T08:47:22Z</time>
      </trkpt>
      <trkpt lat="45.48535" lon="6.8998">
        <ele>2552.6</ele>
        <time>2021-01-05T08:47:24Z</time>
      </trkpt>
      <trkpt lat="45.48534" lon="6.89978">
        <ele>2552.6</ele>
        <time>2021-01-05T08:47:26Z</time>
      </trkpt>
      <trkpt lat="45.48533" lon="6.89974">
        <ele>2556.4</ele>
        <time>2021-01-05T08:47:28Z</time>
      </trkpt>
      <trkpt lat="45.48533" lon="6.89971">
        <ele>2556.4</ele>
        <time>2021-01-05T08:47:30Z</time>
      </trkpt>
      <trkpt lat="45.48534" lon="6.89968">
        <ele>2556.4</ele>
        <time>2021-01-05T08:47:32Z</time>
      </trkpt>
      <trkpt lat="45.48532" lon="6.89966">
        <ele>2556.4</ele>
        <time>2021-01-05T08:47:35Z</time>
      </trkpt>
      <trkpt lat="45.4853" lon="6.89965">
        <ele>2556.4</ele>
        <time>2021-01-05T08:47:37Z</time>
      </trkpt>
      <trkpt lat="45.48528" lon="6.89963">
        <ele>2556.4</ele>
        <time>2021-01-05T08:47:40Z</time>
      </trkpt>
      <trkpt lat="45.48526" lon="6.89962">
        <ele>2556.4</ele>
        <time>2021-01-05T08:47:43Z</time>
      </trkpt>
      <trkpt lat="45.48524" lon="6.8996">
        <ele>2556.4</ele>
        <time>2021-01-05T08:47:46Z</time>
      </trkpt>
      <trkpt lat="45.48526" lon="6.89958">
        <ele>2556.4</ele>
        <time>2021-01-05T08:47:49Z</time>
      </trkpt>
      <trkpt lat="45.48528" lon="6.89956">
        <ele>2556.4</ele>
        <time>2021-01-05T08:47:52Z</time>
      </trkpt>
      <trkpt lat="45.48529" lon="6.89953">
        <ele>2556.4</ele>
        <time>2021-01-05T08:47:55Z</time>
      </trkpt>
      <trkpt lat="45.48527" lon="6.89952">
        <ele>2556.4</ele>
        <time>2021-01-05T08:48:01Z</time>
      </trkpt>
      <trkpt lat="45.48525" lon="6.89952">
        <ele>2556.4</ele>
        <time>2021-01-05T08:48:04Z</time>
      </trkpt>
      <trkpt lat="45.48523" lon="6.89951">
        <ele>2556.4</ele>
        <time>2021-01-05T08:48:06Z</time>
      </trkpt>
      <trkpt lat="45.48524" lon="6.89948">
        <ele>2556.4</ele>
        <time>2021-01-05T08:48:09Z</time>
      </trkpt>
      <trkpt lat="45.48525" lon="6.89946">
        <ele>2556.4</ele>
        <time>2021-01-05T08:48:11Z</time>
      </trkpt>
      <trkpt lat="45.48526" lon="6.89942">
        <ele>2556.4</ele>
        <time>2021-01-05T08:48:13Z</time>
      </trkpt>
      <trkpt lat="45.48527" lon="6.89939">
        <ele>2556.4</ele>
        <time>2021-01-05T08:48:15Z</time>
      </trkpt>
      <trkpt lat="45.48528" lon="6.89935">
        <ele>2556.4</ele>
        <time>2021-01-05T08:48:17Z</time>
      </trkpt>
      <trkpt lat="45.48529" lon="6.89932">
        <ele>2556.4</ele>
        <time>2021-01-05T08:48:19Z</time>
      </trkpt>
      <trkpt lat="45.48529" lon="6.89929">
        <ele>2556.4</ele>
        <time>2021-01-05T08:48:21Z</time>
      </trkpt>
      <trkpt lat="45.48529" lon="6.89926">
        <ele>2556.4</ele>
        <time>2021-01-05T08:48:23Z</time>
      </trkpt>
      <trkpt lat="45.48529" lon="6.89923">
        <ele>2556.4</ele>
        <time>2021-01-05T08:48:25Z</time>
      </trkpt>
      <trkpt lat="45.4853" lon="6.89919">
        <ele>2556.4</ele>
        <time>2021-01-05T08:48:27Z</time>
      </trkpt>
      <trkpt lat="45.48531" lon="6.89916">
        <ele>2556.4</ele>
        <time>2021-01-05T08:48:29Z</time>
      </trkpt>
      <trkpt lat="45.48531" lon="6.89912">
        <ele>2556.4</ele>
        <time>2021-01-05T08:48:31Z</time>
      </trkpt>
      <trkpt lat="45.48532" lon="6.89908">
        <ele>2556.4</ele>
        <time>2021-01-05T08:48:33Z</time>
      </trkpt>
      <trkpt lat="45.48534" lon="6.89905">
        <ele>2556.4</ele>
        <time>2021-01-05T08:48:35Z</time>
      </trkpt>
      <trkpt lat="45.48534" lon="6.89901">
        <ele>2556.4</ele>
        <time>2021-01-05T08:48:37Z</time>
      </trkpt>
      <trkpt lat="45.48534" lon="6.89897">
        <ele>2556.4</ele>
        <time>2021-01-05T08:48:39Z</time>
      </trkpt>
      <trkpt lat="45.48535" lon="6.89893">
        <ele>2556.4</ele>
        <time>2021-01-05T08:48:41Z</time>
      </trkpt>
      <trkpt lat="45.48535" lon="6.8989">
        <ele>2556.4</ele>
        <time>2021-01-05T08:48:43Z</time>
      </trkpt>
      <trkpt lat="45.48535" lon="6.89885">
        <ele>2556.4</ele>
        <time>2021-01-05T08:48:45Z</time>
      </trkpt>
      <trkpt lat="45.48535" lon="6.89882">
        <ele>2556.4</ele>
        <time>2021-01-05T08:48:47Z</time>
      </trkpt>
      <trkpt lat="45.48535" lon="6.89878">
        <ele>2556.4</ele>
        <time>2021-01-05T08:48:49Z</time>
      </trkpt>
      <trkpt lat="45.48535" lon="6.89874">
        <ele>2556.4</ele>
        <time>2021-01-05T08:48:51Z</time>
      </trkpt>
      <trkpt lat="45.48536" lon="6.8987">
        <ele>2556.4</ele>
        <time>2021-01-05T08:48:53Z</time>
      </trkpt>
      <trkpt lat="45.48536" lon="6.89866">
        <ele>2556.4</ele>
        <time>2021-01-05T08:48:55Z</time>
      </trkpt>
      <trkpt lat="45.48536" lon="6.89862">
        <ele>2556.4</ele>
        <time>2021-01-05T08:48:57Z</time>
      </trkpt>
      <trkpt lat="45.48535" lon="6.89858">
        <ele>2556.4</ele>
        <time>2021-01-05T08:48:59Z</time>
      </trkpt>
      <trkpt lat="45.48535" lon="6.89853">
        <ele>2556.4</ele>
        <time>2021-01-05T08:49:01Z</time>
      </trkpt>
      <trkpt lat="45.48535" lon="6.89849">
        <ele>2556.4</ele>
        <time>2021-01-05T08:49:03Z</time>
      </trkpt>
      <trkpt lat="45.48534" lon="6.89845">
        <ele>2556.4</ele>
        <time>2021-01-05T08:49:05Z</time>
      </trkpt>
      <trkpt lat="45.48534" lon="6.8984">
        <ele>2556.4</ele>
        <time>2021-01-05T08:49:07Z</time>
      </trkpt>
      <trkpt lat="45.48534" lon="6.89837">
        <ele>2572</ele>
        <time>2021-01-05T08:49:08Z</time>
      </trkpt>
      <trkpt lat="45.48534" lon="6.89833">
        <ele>2572</ele>
        <time>2021-01-05T08:49:10Z</time>
      </trkpt>
      <trkpt lat="45.48534" lon="6.89829">
        <ele>2572</ele>
        <time>2021-01-05T08:49:12Z</time>
      </trkpt>
      <trkpt lat="45.48534" lon="6.89824">
        <ele>2572</ele>
        <time>2021-01-05T08:49:14Z</time>
      </trkpt>
      <trkpt lat="45.48534" lon="6.8982">
        <ele>2572</ele>
        <time>2021-01-05T08:49:16Z</time>
      </trkpt>
      <trkpt lat="45.48534" lon="6.89815">
        <ele>2572.2</ele>
        <time>2021-01-05T08:49:18Z</time>
      </trkpt>
      <trkpt lat="45.48534" lon="6.89811">
        <ele>2572.2</ele>
        <time>2021-01-05T08:49:20Z</time>
      </trkpt>
      <trkpt lat="45.48534" lon="6.89806">
        <ele>2572.2</ele>
        <time>2021-01-05T08:49:22Z</time>
      </trkpt>
      <trkpt lat="45.48534" lon="6.89804">
        <ele>2572.2</ele>
        <time>2021-01-05T08:49:23Z</time>
      </trkpt>
      <trkpt lat="45.48534" lon="6.89801">
        <ele>2572.2</ele>
        <time>2021-01-05T08:49:24Z</time>
      </trkpt>
      <trkpt lat="45.48534" lon="6.89796">
        <ele>2572.2</ele>
        <time>2021-01-05T08:49:26Z</time>
      </trkpt>
      <trkpt lat="45.48534" lon="6.89791">
        <ele>2572</ele>
        <time>2021-01-05T08:49:28Z</time>
      </trkpt>
      <trkpt lat="45.48534" lon="6.89788">
        <ele>2572</ele>
        <time>2021-01-05T08:49:29Z</time>
      </trkpt>
      <trkpt lat="45.48533" lon="6.89785">
        <ele>2572</ele>
        <time>2021-01-05T08:49:30Z</time>
      </trkpt>
      <trkpt lat="45.48533" lon="6.8978">
        <ele>2572</ele>
        <time>2021-01-05T08:49:32Z</time>
      </trkpt>
      <trkpt lat="45.48532" lon="6.89775">
        <ele>2572</ele>
        <time>2021-01-05T08:49:34Z</time>
      </trkpt>
      <trkpt lat="45.48532" lon="6.89771">
        <ele>2572</ele>
        <time>2021-01-05T08:49:36Z</time>
      </trkpt>
      <trkpt lat="45.48531" lon="6.89767">
        <ele>2569.6</ele>
        <time>2021-01-05T08:49:38Z</time>
      </trkpt>
      <trkpt lat="45.48531" lon="6.89762">
        <ele>2569.6</ele>
        <time>2021-01-05T08:49:40Z</time>
      </trkpt>
      <trkpt lat="45.48529" lon="6.89758">
        <ele>2569.6</ele>
        <time>2021-01-05T08:49:42Z</time>
      </trkpt>
      <trkpt lat="45.48529" lon="6.89755">
        <ele>2569.6</ele>
        <time>2021-01-05T08:49:43Z</time>
      </trkpt>
      <trkpt lat="45.48528" lon="6.89751">
        <ele>2569.6</ele>
        <time>2021-01-05T08:49:45Z</time>
      </trkpt>
      <trkpt lat="45.48527" lon="6.89747">
        <ele>2569.6</ele>
        <time>2021-01-05T08:49:47Z</time>
      </trkpt>
      <trkpt lat="45.48526" lon="6.89743">
        <ele>2569.6</ele>
        <time>2021-01-05T08:49:49Z</time>
      </trkpt>
      <trkpt lat="45.48525" lon="6.8974">
        <ele>2569.6</ele>
        <time>2021-01-05T08:49:51Z</time>
      </trkpt>
      <trkpt lat="45.48523" lon="6.89736">
        <ele>2569.6</ele>
        <time>2021-01-05T08:49:53Z</time>
      </trkpt>
      <trkpt lat="45.48522" lon="6.89732">
        <ele>2569.6</ele>
        <time>2021-01-05T08:49:55Z</time>
      </trkpt>
      <trkpt lat="45.48521" lon="6.89731">
        <ele>2569.6</ele>
        <time>2021-01-05T08:49:56Z</time>
      </trkpt>
      <trkpt lat="45.48519" lon="6.89727">
        <ele>2568</ele>
        <time>2021-01-05T08:49:58Z</time>
      </trkpt>
      <trkpt lat="45.48517" lon="6.89723">
        <ele>2568</ele>
        <time>2021-01-05T08:50:00Z</time>
      </trkpt>
      <trkpt lat="45.48516" lon="6.89719">
        <ele>2568</ele>
        <time>2021-01-05T08:50:02Z</time>
      </trkpt>
      <trkpt lat="45.48513" lon="6.89716">
        <ele>2568</ele>
        <time>2021-01-05T08:50:04Z</time>
      </trkpt>
      <trkpt lat="45.48511" lon="6.89713">
        <ele>2568</ele>
        <time>2021-01-05T08:50:06Z</time>
      </trkpt>
      <trkpt lat="45.48509" lon="6.89711">
        <ele>2568</ele>
        <time>2021-01-05T08:50:08Z</time>
      </trkpt>
      <trkpt lat="45.48507" lon="6.89708">
        <ele>2568</ele>
        <time>2021-01-05T08:50:10Z</time>
      </trkpt>
      <trkpt lat="45.48505" lon="6.89707">
        <ele>2568</ele>
        <time>2021-01-05T08:50:11Z</time>
      </trkpt>
      <trkpt lat="45.48503" lon="6.89704">
        <ele>2568</ele>
        <time>2021-01-05T08:50:13Z</time>
      </trkpt>
      <trkpt lat="45.48501" lon="6.89702">
        <ele>2568</ele>
        <time>2021-01-05T08:50:15Z</time>
      </trkpt>
      <trkpt lat="45.48498" lon="6.897">
        <ele>2568</ele>
        <time>2021-01-05T08:50:17Z</time>
      </trkpt>
      <trkpt lat="45.48495" lon="6.89697">
        <ele>2568</ele>
        <time>2021-01-05T08:50:19Z</time>
      </trkpt>
      <trkpt lat="45.48492" lon="6.89695">
        <ele>2568</ele>
        <time>2021-01-05T08:50:21Z</time>
      </trkpt>
      <trkpt lat="45.48491" lon="6.89693">
        <ele>2568</ele>
        <time>2021-01-05T08:50:22Z</time>
      </trkpt>
      <trkpt lat="45.48489" lon="6.89692">
        <ele>2568</ele>
        <time>2021-01-05T08:50:23Z</time>
      </trkpt>
      <trkpt lat="45.48487" lon="6.8969">
        <ele>2568</ele>
        <time>2021-01-05T08:50:25Z</time>
      </trkpt>
      <trkpt lat="45.48485" lon="6.89688">
        <ele>2568</ele>
        <time>2021-01-05T08:50:26Z</time>
      </trkpt>
      <trkpt lat="45.48483" lon="6.89686">
        <ele>2568.2</ele>
        <time>2021-01-05T08:50:28Z</time>
      </trkpt>
      <trkpt lat="45.48481" lon="6.89683">
        <ele>2568.2</ele>
        <time>2021-01-05T08:50:30Z</time>
      </trkpt>
      <trkpt lat="45.48478" lon="6.8968">
        <ele>2568.2</ele>
        <time>2021-01-05T08:50:32Z</time>
      </trkpt>
      <trkpt lat="45.48476" lon="6.89678">
        <ele>2568.2</ele>
        <time>2021-01-05T08:50:34Z</time>
      </trkpt>
      <trkpt lat="45.48475" lon="6.89675">
        <ele>2568.2</ele>
        <time>2021-01-05T08:50:36Z</time>
      </trkpt>
      <trkpt lat="45.48472" lon="6.89672">
        <ele>2568.8</ele>
        <time>2021-01-05T08:50:38Z</time>
      </trkpt>
      <trkpt lat="45.4847" lon="6.8967">
        <ele>2568.8</ele>
        <time>2021-01-05T08:50:40Z</time>
      </trkpt>
      <trkpt lat="45.48468" lon="6.89668">
        <ele>2568.8</ele>
        <time>2021-01-05T08:50:42Z</time>
      </trkpt>
      <trkpt lat="45.48466" lon="6.89666">
        <ele>2568.8</ele>
        <time>2021-01-05T08:50:44Z</time>
      </trkpt>
      <trkpt lat="45.48464" lon="6.89663">
        <ele>2568.8</ele>
        <time>2021-01-05T08:50:47Z</time>
      </trkpt>
      <trkpt lat="45.48462" lon="6.89661">
        <ele>2568.8</ele>
        <time>2021-01-05T08:50:50Z</time>
      </trkpt>
      <trkpt lat="45.48461" lon="6.89658">
        <ele>2568.8</ele>
        <time>2021-01-05T08:50:52Z</time>
      </trkpt>
      <trkpt lat="45.4846" lon="6.89656">
        <ele>2568.8</ele>
        <time>2021-01-05T08:50:55Z</time>
      </trkpt>
      <trkpt lat="45.48459" lon="6.89653">
        <ele>2568.8</ele>
        <time>2021-01-05T08:50:57Z</time>
      </trkpt>
      <trkpt lat="45.48457" lon="6.8965">
        <ele>2568.8</ele>
        <time>2021-01-05T08:51:00Z</time>
      </trkpt>
      <trkpt lat="45.48455" lon="6.89647">
        <ele>2568.8</ele>
        <time>2021-01-05T08:51:03Z</time>
      </trkpt>
      <trkpt lat="45.48454" lon="6.89645">
        <ele>2568.8</ele>
        <time>2021-01-05T08:51:05Z</time>
      </trkpt>
      <trkpt lat="45.48452" lon="6.89643">
        <ele>2568.8</ele>
        <time>2021-01-05T08:51:07Z</time>
      </trkpt>
      <trkpt lat="45.48451" lon="6.89641">
        <ele>2568.8</ele>
        <time>2021-01-05T08:51:09Z</time>
      </trkpt>
      <trkpt lat="45.4845" lon="6.89639">
        <ele>2568.8</ele>
        <time>2021-01-05T08:51:11Z</time>
      </trkpt>
      <trkpt lat="45.48448" lon="6.89636">
        <ele>2568.8</ele>
        <time>2021-01-05T08:51:14Z</time>
      </trkpt>
      <trkpt lat="45.48447" lon="6.89634">
        <ele>2568.8</ele>
        <time>2021-01-05T08:51:16Z</time>
      </trkpt>
      <trkpt lat="45.48446" lon="6.8963">
        <ele>2568.8</ele>
        <time>2021-01-05T08:51:19Z</time>
      </trkpt>
      <trkpt lat="45.48447" lon="6.89628">
        <ele>2568.8</ele>
        <time>2021-01-05T08:51:21Z</time>
      </trkpt>
      <trkpt lat="45.48447" lon="6.89625">
        <ele>2568.8</ele>
        <time>2021-01-05T08:51:23Z</time>
      </trkpt>
      <trkpt lat="45.48447" lon="6.89621">
        <ele>2568.8</ele>
        <time>2021-01-05T08:51:26Z</time>
      </trkpt>
      <trkpt lat="45.48446" lon="6.89618">
        <ele>2568.8</ele>
        <time>2021-01-05T08:51:29Z</time>
      </trkpt>
      <trkpt lat="45.48445" lon="6.89615">
        <ele>2568.8</ele>
        <time>2021-01-05T08:51:32Z</time>
      </trkpt>
      <trkpt lat="45.48444" lon="6.89613">
        <ele>2568.8</ele>
        <time>2021-01-05T08:51:35Z</time>
      </trkpt>
      <trkpt lat="45.48443" lon="6.89611">
        <ele>2586.2</ele>
        <time>2021-01-05T08:51:38Z</time>
      </trkpt>
      <trkpt lat="45.48443" lon="6.89608">
        <ele>2586.2</ele>
        <time>2021-01-05T08:51:41Z</time>
      </trkpt>
      <trkpt lat="45.48442" lon="6.89605">
        <ele>2586.2</ele>
        <time>2021-01-05T08:51:44Z</time>
      </trkpt>
      <trkpt lat="45.48442" lon="6.89602">
        <ele>2586.2</ele>
        <time>2021-01-05T08:51:47Z</time>
      </trkpt>
      <trkpt lat="45.48441" lon="6.89598">
        <ele>2586.2</ele>
        <time>2021-01-05T08:51:50Z</time>
      </trkpt>
      <trkpt lat="45.48441" lon="6.89595">
        <ele>2586.2</ele>
        <time>2021-01-05T08:51:52Z</time>
      </trkpt>
      <trkpt lat="45.48441" lon="6.89592">
        <ele>2586.2</ele>
        <time>2021-01-05T08:51:55Z</time>
      </trkpt>
      <trkpt lat="45.4844" lon="6.8959">
        <ele>2592.4</ele>
        <time>2021-01-05T08:51:58Z</time>
      </trkpt>
      <trkpt lat="45.48438" lon="6.89588">
        <ele>2592.4</ele>
        <time>2021-01-05T08:52:01Z</time>
      </trkpt>
      <trkpt lat="45.48436" lon="6.89586">
        <ele>2592.4</ele>
        <time>2021-01-05T08:52:04Z</time>
      </trkpt>
      <trkpt lat="45.48436" lon="6.89583">
        <ele>2592.4</ele>
        <time>2021-01-05T08:52:06Z</time>
      </trkpt>
      <trkpt lat="45.48436" lon="6.8958">
        <ele>2595</ele>
        <time>2021-01-05T08:52:08Z</time>
      </trkpt>
      <trkpt lat="45.48437" lon="6.89577">
        <ele>2595</ele>
        <time>2021-01-05T08:52:10Z</time>
      </trkpt>
      <trkpt lat="45.48438" lon="6.89575">
        <ele>2595</ele>
        <time>2021-01-05T08:52:12Z</time>
      </trkpt>
      <trkpt lat="45.48439" lon="6.89572">
        <ele>2595</ele>
        <time>2021-01-05T08:52:15Z</time>
      </trkpt>
      <trkpt lat="45.48439" lon="6.89569">
        <ele>2598.2</ele>
        <time>2021-01-05T08:52:18Z</time>
      </trkpt>
      <trkpt lat="45.48437" lon="6.89566">
        <ele>2598.2</ele>
        <time>2021-01-05T08:52:21Z</time>
      </trkpt>
      <trkpt lat="45.48436" lon="6.89564">
        <ele>2598.2</ele>
        <time>2021-01-05T08:52:23Z</time>
      </trkpt>
      <trkpt lat="45.48436" lon="6.89561">
        <ele>2598.2</ele>
        <time>2021-01-05T08:52:26Z</time>
      </trkpt>
      <trkpt lat="45.48437" lon="6.89559">
        <ele>2601</ele>
        <time>2021-01-05T08:52:28Z</time>
      </trkpt>
      <trkpt lat="45.48438" lon="6.89555">
        <ele>2601</ele>
        <time>2021-01-05T08:52:31Z</time>
      </trkpt>
      <trkpt lat="45.48439" lon="6.89552">
        <ele>2601</ele>
        <time>2021-01-05T08:52:34Z</time>
      </trkpt>
      <trkpt lat="45.4844" lon="6.8955">
        <ele>2601</ele>
        <time>2021-01-05T08:52:36Z</time>
      </trkpt>
      <trkpt lat="45.48439" lon="6.89547">
        <ele>2601</ele>
        <time>2021-01-05T08:52:40Z</time>
      </trkpt>
      <trkpt lat="45.48437" lon="6.89545">
        <ele>2601</ele>
        <time>2021-01-05T08:52:43Z</time>
      </trkpt>
      <trkpt lat="45.48436" lon="6.89542">
        <ele>2601</ele>
        <time>2021-01-05T08:52:46Z</time>
      </trkpt>
      <trkpt lat="45.48436" lon="6.89538">
        <ele>2601</ele>
        <time>2021-01-05T08:52:49Z</time>
      </trkpt>
      <trkpt lat="45.48436" lon="6.89535">
        <ele>2601</ele>
        <time>2021-01-05T08:52:51Z</time>
      </trkpt>
      <trkpt lat="45.48437" lon="6.89532">
        <ele>2601</ele>
        <time>2021-01-05T08:52:54Z</time>
      </trkpt>
      <trkpt lat="45.48438" lon="6.8953">
        <ele>2601</ele>
        <time>2021-01-05T08:52:56Z</time>
      </trkpt>
      <trkpt lat="45.48439" lon="6.89526">
        <ele>2601</ele>
        <time>2021-01-05T08:52:59Z</time>
      </trkpt>
      <trkpt lat="45.48439" lon="6.89523">
        <ele>2601</ele>
        <time>2021-01-05T08:53:02Z</time>
      </trkpt>
      <trkpt lat="45.48438" lon="6.89521">
        <ele>2601</ele>
        <time>2021-01-05T08:53:06Z</time>
      </trkpt>
      <trkpt lat="45.48436" lon="6.89519">
        <ele>2611.4</ele>
        <time>2021-01-05T08:53:08Z</time>
      </trkpt>
      <trkpt lat="45.48436" lon="6.89515">
        <ele>2611.4</ele>
        <time>2021-01-05T08:53:13Z</time>
      </trkpt>
      <trkpt lat="45.48437" lon="6.89512">
        <ele>2611.4</ele>
        <time>2021-01-05T08:53:16Z</time>
      </trkpt>
      <trkpt lat="45.48439" lon="6.8951">
        <ele>2614.2</ele>
        <time>2021-01-05T08:53:18Z</time>
      </trkpt>
      <trkpt lat="45.4844" lon="6.89508">
        <ele>2614.2</ele>
        <time>2021-01-05T08:53:20Z</time>
      </trkpt>
      <trkpt lat="45.48441" lon="6.89504">
        <ele>2614.2</ele>
        <time>2021-01-05T08:53:23Z</time>
      </trkpt>
      <trkpt lat="45.48441" lon="6.89501">
        <ele>2614.2</ele>
        <time>2021-01-05T08:53:26Z</time>
      </trkpt>
      <trkpt lat="45.48441" lon="6.89498">
        <ele>2616.4</ele>
        <time>2021-01-05T08:53:28Z</time>
      </trkpt>
      <trkpt lat="45.48441" lon="6.89494">
        <ele>2616.4</ele>
        <time>2021-01-05T08:53:31Z</time>
      </trkpt>
      <trkpt lat="45.48441" lon="6.89491">
        <ele>2616.4</ele>
        <time>2021-01-05T08:53:34Z</time>
      </trkpt>
      <trkpt lat="45.48442" lon="6.89488">
        <ele>2616.4</ele>
        <time>2021-01-05T08:53:37Z</time>
      </trkpt>
      <trkpt lat="45.48443" lon="6.89485">
        <ele>2616.4</ele>
        <time>2021-01-05T08:53:40Z</time>
      </trkpt>
      <trkpt lat="45.48443" lon="6.89482">
        <ele>2616.4</ele>
        <time>2021-01-05T08:53:42Z</time>
      </trkpt>
      <trkpt lat="45.48444" lon="6.8948">
        <ele>2616.4</ele>
        <time>2021-01-05T08:53:44Z</time>
      </trkpt>
      <trkpt lat="45.48445" lon="6.89476">
        <ele>2616.4</ele>
        <time>2021-01-05T08:53:47Z</time>
      </trkpt>
      <trkpt lat="45.48446" lon="6.89473">
        <ele>2616.4</ele>
        <time>2021-01-05T08:53:49Z</time>
      </trkpt>
      <trkpt lat="45.48447" lon="6.8947">
        <ele>2616.4</ele>
        <time>2021-01-05T08:53:51Z</time>
      </trkpt>
      <trkpt lat="45.48448" lon="6.89468">
        <ele>2616.4</ele>
        <time>2021-01-05T08:53:53Z</time>
      </trkpt>
      <trkpt lat="45.4845" lon="6.89464">
        <ele>2616.4</ele>
        <time>2021-01-05T08:53:56Z</time>
      </trkpt>
      <trkpt lat="45.48451" lon="6.89462">
        <ele>2624.4</ele>
        <time>2021-01-05T08:53:58Z</time>
      </trkpt>
      <trkpt lat="45.48453" lon="6.89459">
        <ele>2624.4</ele>
        <time>2021-01-05T08:54:00Z</time>
      </trkpt>
      <trkpt lat="45.48455" lon="6.89456">
        <ele>2624.4</ele>
        <time>2021-01-05T08:54:02Z</time>
      </trkpt>
      <trkpt lat="45.48457" lon="6.89453">
        <ele>2624.4</ele>
        <time>2021-01-05T08:54:04Z</time>
      </trkpt>
      <trkpt lat="45.48458" lon="6.89451">
        <ele>2624.4</ele>
        <time>2021-01-05T08:54:06Z</time>
      </trkpt>
      <trkpt lat="45.48459" lon="6.89449">
        <ele>2626.6</ele>
        <time>2021-01-05T08:54:08Z</time>
      </trkpt>
      <trkpt lat="45.48461" lon="6.89445">
        <ele>2626.6</ele>
        <time>2021-01-05T08:54:11Z</time>
      </trkpt>
      <trkpt lat="45.48463" lon="6.89443">
        <ele>2626.6</ele>
        <time>2021-01-05T08:54:13Z</time>
      </trkpt>
      <trkpt lat="45.48464" lon="6.89441">
        <ele>2626.6</ele>
        <time>2021-01-05T08:54:15Z</time>
      </trkpt>
      <trkpt lat="45.48466" lon="6.89439">
        <ele>2626.6</ele>
        <time>2021-01-05T08:54:17Z</time>
      </trkpt>
      <trkpt lat="45.48467" lon="6.89436">
        <ele>2626.6</ele>
        <time>2021-01-05T08:54:19Z</time>
      </trkpt>
      <trkpt lat="45.48469" lon="6.89433">
        <ele>2626.6</ele>
        <time>2021-01-05T08:54:21Z</time>
      </trkpt>
      <trkpt lat="45.48471" lon="6.89431">
        <ele>2626.6</ele>
        <time>2021-01-05T08:54:23Z</time>
      </trkpt>
      <trkpt lat="45.48473" lon="6.89428">
        <ele>2626.6</ele>
        <time>2021-01-05T08:54:25Z</time>
      </trkpt>
      <trkpt lat="45.48474" lon="6.89426">
        <ele>2626.6</ele>
        <time>2021-01-05T08:54:27Z</time>
      </trkpt>
      <trkpt lat="45.48475" lon="6.89422">
        <ele>2626.6</ele>
        <time>2021-01-05T08:54:29Z</time>
      </trkpt>
      <trkpt lat="45.48476" lon="6.89419">
        <ele>2626.6</ele>
        <time>2021-01-05T08:54:31Z</time>
      </trkpt>
      <trkpt lat="45.48476" lon="6.89414">
        <ele>2626.6</ele>
        <time>2021-01-05T08:54:33Z</time>
      </trkpt>
      <trkpt lat="45.48477" lon="6.89411">
        <ele>2626.6</ele>
        <time>2021-01-05T08:54:35Z</time>
      </trkpt>
      <trkpt lat="45.48476" lon="6.89407">
        <ele>2626.6</ele>
        <time>2021-01-05T08:54:37Z</time>
      </trkpt>
      <trkpt lat="45.48476" lon="6.89404">
        <ele>2626.6</ele>
        <time>2021-01-05T08:54:39Z</time>
      </trkpt>
      <trkpt lat="45.48476" lon="6.89399">
        <ele>2626.6</ele>
        <time>2021-01-05T08:54:41Z</time>
      </trkpt>
      <trkpt lat="45.48476" lon="6.89395">
        <ele>2626.6</ele>
        <time>2021-01-05T08:54:43Z</time>
      </trkpt>
      <trkpt lat="45.48475" lon="6.89391">
        <ele>2626.6</ele>
        <time>2021-01-05T08:54:45Z</time>
      </trkpt>
      <trkpt lat="45.48474" lon="6.89388">
        <ele>2626.6</ele>
        <time>2021-01-05T08:54:47Z</time>
      </trkpt>
      <trkpt lat="45.48473" lon="6.89385">
        <ele>2626.6</ele>
        <time>2021-01-05T08:54:49Z</time>
      </trkpt>
      <trkpt lat="45.48473" lon="6.89383">
        <ele>2626.6</ele>
        <time>2021-01-05T08:54:51Z</time>
      </trkpt>
      <trkpt lat="45.48472" lon="6.8938">
        <ele>2626.6</ele>
        <time>2021-01-05T08:54:53Z</time>
      </trkpt>
      <trkpt lat="45.48471" lon="6.89378">
        <ele>2626.6</ele>
        <time>2021-01-05T08:54:55Z</time>
      </trkpt>
      <trkpt lat="45.48469" lon="6.89374">
        <ele>2635.2</ele>
        <time>2021-01-05T08:54:58Z</time>
      </trkpt>
      <trkpt lat="45.48468" lon="6.8937">
        <ele>2635.2</ele>
        <time>2021-01-05T08:55:01Z</time>
      </trkpt>
      <trkpt lat="45.48468" lon="6.89368">
        <ele>2635.2</ele>
        <time>2021-01-05T08:55:03Z</time>
      </trkpt>
      <trkpt lat="45.48467" lon="6.89365">
        <ele>2635.2</ele>
        <time>2021-01-05T08:55:05Z</time>
      </trkpt>
      <trkpt lat="45.48465" lon="6.89362">
        <ele>2638.4</ele>
        <time>2021-01-05T08:55:08Z</time>
      </trkpt>
      <trkpt lat="45.48465" lon="6.89359">
        <ele>2638.4</ele>
        <time>2021-01-05T08:55:10Z</time>
      </trkpt>
      <trkpt lat="45.48464" lon="6.89356">
        <ele>2638.4</ele>
        <time>2021-01-05T08:55:12Z</time>
      </trkpt>
      <trkpt lat="45.48464" lon="6.89354">
        <ele>2638.4</ele>
        <time>2021-01-05T08:55:14Z</time>
      </trkpt>
      <trkpt lat="45.48463" lon="6.89351">
        <ele>2638.4</ele>
        <time>2021-01-05T08:55:16Z</time>
      </trkpt>
      <trkpt lat="45.48462" lon="6.89348">
        <ele>2641</ele>
        <time>2021-01-05T08:55:18Z</time>
      </trkpt>
      <trkpt lat="45.48461" lon="6.89345">
        <ele>2641</ele>
        <time>2021-01-05T08:55:20Z</time>
      </trkpt>
      <trkpt lat="45.48461" lon="6.89342">
        <ele>2641</ele>
        <time>2021-01-05T08:55:22Z</time>
      </trkpt>
      <trkpt lat="45.48461" lon="6.89339">
        <ele>2641</ele>
        <time>2021-01-05T08:55:24Z</time>
      </trkpt>
      <trkpt lat="45.4846" lon="6.89336">
        <ele>2641</ele>
        <time>2021-01-05T08:55:26Z</time>
      </trkpt>
      <trkpt lat="45.4846" lon="6.89332">
        <ele>2643.4</ele>
        <time>2021-01-05T08:55:28Z</time>
      </trkpt>
      <trkpt lat="45.4846" lon="6.89329">
        <ele>2643.4</ele>
        <time>2021-01-05T08:55:30Z</time>
      </trkpt>
      <trkpt lat="45.48461" lon="6.89326">
        <ele>2643.4</ele>
        <time>2021-01-05T08:55:32Z</time>
      </trkpt>
      <trkpt lat="45.48461" lon="6.89322">
        <ele>2643.4</ele>
        <time>2021-01-05T08:55:35Z</time>
      </trkpt>
      <trkpt lat="45.48462" lon="6.89318">
        <ele>2643.4</ele>
        <time>2021-01-05T08:55:37Z</time>
      </trkpt>
      <trkpt lat="45.48462" lon="6.89316">
        <ele>2643.4</ele>
        <time>2021-01-05T08:55:39Z</time>
      </trkpt>
      <trkpt lat="45.48463" lon="6.89312">
        <ele>2643.4</ele>
        <time>2021-01-05T08:55:41Z</time>
      </trkpt>
      <trkpt lat="45.48464" lon="6.89309">
        <ele>2643.4</ele>
        <time>2021-01-05T08:55:44Z</time>
      </trkpt>
      <trkpt lat="45.48465" lon="6.89306">
        <ele>2643.4</ele>
        <time>2021-01-05T08:55:46Z</time>
      </trkpt>
      <trkpt lat="45.48465" lon="6.89304">
        <ele>2648.2</ele>
        <time>2021-01-05T08:55:48Z</time>
      </trkpt>
      <trkpt lat="45.48466" lon="6.893">
        <ele>2648.2</ele>
        <time>2021-01-05T08:55:51Z</time>
      </trkpt>
      <trkpt lat="45.48466" lon="6.89297">
        <ele>2648.2</ele>
        <time>2021-01-05T08:55:54Z</time>
      </trkpt>
      <trkpt lat="45.48466" lon="6.89293">
        <ele>2648.2</ele>
        <time>2021-01-05T08:55:57Z</time>
      </trkpt>
      <trkpt lat="45.48465" lon="6.89291">
        <ele>2648.2</ele>
        <time>2021-01-05T08:56:00Z</time>
      </trkpt>
      <trkpt lat="45.48465" lon="6.89289">
        <ele>2648.2</ele>
        <time>2021-01-05T08:56:02Z</time>
      </trkpt>
      <trkpt lat="45.48464" lon="6.89285">
        <ele>2648.2</ele>
        <time>2021-01-05T08:56:05Z</time>
      </trkpt>
      <trkpt lat="45.48463" lon="6.89282">
        <ele>2648.2</ele>
        <time>2021-01-05T08:56:07Z</time>
      </trkpt>
      <trkpt lat="45.48463" lon="6.89279">
        <ele>2648.2</ele>
        <time>2021-01-05T08:56:09Z</time>
      </trkpt>
      <trkpt lat="45.48463" lon="6.89276">
        <ele>2648.2</ele>
        <time>2021-01-05T08:56:11Z</time>
      </trkpt>
      <trkpt lat="45.48461" lon="6.89274">
        <ele>2648.2</ele>
        <time>2021-01-05T08:56:13Z</time>
      </trkpt>
      <trkpt lat="45.48461" lon="6.8927">
        <ele>2648.2</ele>
        <time>2021-01-05T08:56:15Z</time>
      </trkpt>
      <trkpt lat="45.4846" lon="6.89266">
        <ele>2648.2</ele>
        <time>2021-01-05T08:56:17Z</time>
      </trkpt>
      <trkpt lat="45.48459" lon="6.89264">
        <ele>2648.2</ele>
        <time>2021-01-05T08:56:19Z</time>
      </trkpt>
      <trkpt lat="45.48458" lon="6.89261">
        <ele>2648.2</ele>
        <time>2021-01-05T08:56:21Z</time>
      </trkpt>
      <trkpt lat="45.48457" lon="6.89258">
        <ele>2648.2</ele>
        <time>2021-01-05T08:56:23Z</time>
      </trkpt>
      <trkpt lat="45.48456" lon="6.89255">
        <ele>2648.2</ele>
        <time>2021-01-05T08:56:25Z</time>
      </trkpt>
      <trkpt lat="45.48455" lon="6.89252">
        <ele>2648.2</ele>
        <time>2021-01-05T08:56:27Z</time>
      </trkpt>
      <trkpt lat="45.48454" lon="6.89248">
        <ele>2648.2</ele>
        <time>2021-01-05T08:56:29Z</time>
      </trkpt>
      <trkpt lat="45.48453" lon="6.89246">
        <ele>2648.2</ele>
        <time>2021-01-05T08:56:31Z</time>
      </trkpt>
      <trkpt lat="45.48452" lon="6.89243">
        <ele>2648.2</ele>
        <time>2021-01-05T08:56:33Z</time>
      </trkpt>
      <trkpt lat="45.4845" lon="6.8924">
        <ele>2648.2</ele>
        <time>2021-01-05T08:56:35Z</time>
      </trkpt>
      <trkpt lat="45.48449" lon="6.89236">
        <ele>2648.2</ele>
        <time>2021-01-05T08:56:37Z</time>
      </trkpt>
      <trkpt lat="45.48448" lon="6.89233">
        <ele>2648.2</ele>
        <time>2021-01-05T08:56:39Z</time>
      </trkpt>
      <trkpt lat="45.48447" lon="6.8923">
        <ele>2648.2</ele>
        <time>2021-01-05T08:56:41Z</time>
      </trkpt>
      <trkpt lat="45.48446" lon="6.89227">
        <ele>2648.2</ele>
        <time>2021-01-05T08:56:43Z</time>
      </trkpt>
      <trkpt lat="45.48445" lon="6.89224">
        <ele>2648.2</ele>
        <time>2021-01-05T08:56:45Z</time>
      </trkpt>
      <trkpt lat="45.48444" lon="6.8922">
        <ele>2648.2</ele>
        <time>2021-01-05T08:56:47Z</time>
      </trkpt>
      <trkpt lat="45.48443" lon="6.89217">
        <ele>2648.2</ele>
        <time>2021-01-05T08:56:49Z</time>
      </trkpt>
      <trkpt lat="45.48442" lon="6.89214">
        <ele>2648.2</ele>
        <time>2021-01-05T08:56:51Z</time>
      </trkpt>
      <trkpt lat="45.48441" lon="6.89211">
        <ele>2648.2</ele>
        <time>2021-01-05T08:56:53Z</time>
      </trkpt>
      <trkpt lat="45.48439" lon="6.89208">
        <ele>2648.2</ele>
        <time>2021-01-05T08:56:55Z</time>
      </trkpt>
      <trkpt lat="45.48439" lon="6.89204">
        <ele>2648.2</ele>
        <time>2021-01-05T08:56:57Z</time>
      </trkpt>
      <trkpt lat="45.48438" lon="6.89201">
        <ele>2648.2</ele>
        <time>2021-01-05T08:56:59Z</time>
      </trkpt>
      <trkpt lat="45.48437" lon="6.89198">
        <ele>2648.2</ele>
        <time>2021-01-05T08:57:01Z</time>
      </trkpt>
      <trkpt lat="45.48437" lon="6.89194">
        <ele>2648.2</ele>
        <time>2021-01-05T08:57:03Z</time>
      </trkpt>
      <trkpt lat="45.48436" lon="6.89191">
        <ele>2648.2</ele>
        <time>2021-01-05T08:57:05Z</time>
      </trkpt>
      <trkpt lat="45.48434" lon="6.89188">
        <ele>2648.2</ele>
        <time>2021-01-05T08:57:07Z</time>
      </trkpt>
      <trkpt lat="45.48433" lon="6.89185">
        <ele>2648.2</ele>
        <time>2021-01-05T08:57:09Z</time>
      </trkpt>
      <trkpt lat="45.48432" lon="6.89182">
        <ele>2648.2</ele>
        <time>2021-01-05T08:57:11Z</time>
      </trkpt>
      <trkpt lat="45.48431" lon="6.89179">
        <ele>2648.2</ele>
        <time>2021-01-05T08:57:13Z</time>
      </trkpt>
      <trkpt lat="45.4843" lon="6.89176">
        <ele>2648.2</ele>
        <time>2021-01-05T08:57:15Z</time>
      </trkpt>
      <trkpt lat="45.48429" lon="6.89172">
        <ele>2648.2</ele>
        <time>2021-01-05T08:57:17Z</time>
      </trkpt>
      <trkpt lat="45.48428" lon="6.89169">
        <ele>2648.2</ele>
        <time>2021-01-05T08:57:19Z</time>
      </trkpt>
      <trkpt lat="45.48427" lon="6.89165">
        <ele>2648.2</ele>
        <time>2021-01-05T08:57:21Z</time>
      </trkpt>
      <trkpt lat="45.48427" lon="6.89162">
        <ele>2648.2</ele>
        <time>2021-01-05T08:57:23Z</time>
      </trkpt>
      <trkpt lat="45.48426" lon="6.89158">
        <ele>2648.2</ele>
        <time>2021-01-05T08:57:25Z</time>
      </trkpt>
      <trkpt lat="45.48425" lon="6.89154">
        <ele>2648.2</ele>
        <time>2021-01-05T08:57:27Z</time>
      </trkpt>
      <trkpt lat="45.48424" lon="6.8915">
        <ele>2648.2</ele>
        <time>2021-01-05T08:57:29Z</time>
      </trkpt>
      <trkpt lat="45.48423" lon="6.89147">
        <ele>2648.2</ele>
        <time>2021-01-05T08:57:31Z</time>
      </trkpt>
      <trkpt lat="45.48423" lon="6.89143">
        <ele>2648.2</ele>
        <time>2021-01-05T08:57:33Z</time>
      </trkpt>
      <trkpt lat="45.48422" lon="6.89139">
        <ele>2648.2</ele>
        <time>2021-01-05T08:57:35Z</time>
      </trkpt>
      <trkpt lat="45.48421" lon="6.89134">
        <ele>2648.2</ele>
        <time>2021-01-05T08:57:37Z</time>
      </trkpt>
      <trkpt lat="45.48421" lon="6.89131">
        <ele>2648.2</ele>
        <time>2021-01-05T08:57:39Z</time>
      </trkpt>
      <trkpt lat="45.48421" lon="6.89126">
        <ele>2648.2</ele>
        <time>2021-01-05T08:57:41Z</time>
      </trkpt>
      <trkpt lat="45.48421" lon="6.89123">
        <ele>2648.2</ele>
        <time>2021-01-05T08:57:43Z</time>
      </trkpt>
      <trkpt lat="45.48421" lon="6.8912">
        <ele>2648.2</ele>
        <time>2021-01-05T08:57:45Z</time>
      </trkpt>
      <trkpt lat="45.48423" lon="6.89117">
        <ele>2648.2</ele>
        <time>2021-01-05T08:57:47Z</time>
      </trkpt>
      <trkpt lat="45.48423" lon="6.89114">
        <ele>2648.2</ele>
        <time>2021-01-05T08:57:49Z</time>
      </trkpt>
      <trkpt lat="45.48423" lon="6.89111">
        <ele>2648.2</ele>
        <time>2021-01-05T08:57:51Z</time>
      </trkpt>
      <trkpt lat="45.48424" lon="6.89107">
        <ele>2648.2</ele>
        <time>2021-01-05T08:57:53Z</time>
      </trkpt>
      <trkpt lat="45.48424" lon="6.89104">
        <ele>2648.2</ele>
        <time>2021-01-05T08:57:55Z</time>
      </trkpt>
      <trkpt lat="45.48423" lon="6.89102">
        <ele>2648.2</ele>
        <time>2021-01-05T08:57:57Z</time>
      </trkpt>
      <trkpt lat="45.48423" lon="6.89098">
        <ele>2648.2</ele>
        <time>2021-01-05T08:57:59Z</time>
      </trkpt>
      <trkpt lat="45.48423" lon="6.89096">
        <ele>2648.2</ele>
        <time>2021-01-05T08:58:01Z</time>
      </trkpt>
      <trkpt lat="45.48423" lon="6.89092">
        <ele>2648.2</ele>
        <time>2021-01-05T08:58:03Z</time>
      </trkpt>
      <trkpt lat="45.48422" lon="6.89089">
        <ele>2648.2</ele>
        <time>2021-01-05T08:58:06Z</time>
      </trkpt>
      <trkpt lat="45.48422" lon="6.89086">
        <ele>2669.6</ele>
        <time>2021-01-05T08:58:08Z</time>
      </trkpt>
      <trkpt lat="45.48421" lon="6.89082">
        <ele>2669.6</ele>
        <time>2021-01-05T08:58:10Z</time>
      </trkpt>
      <trkpt lat="45.48421" lon="6.89079">
        <ele>2669.6</ele>
        <time>2021-01-05T08:58:12Z</time>
      </trkpt>
      <trkpt lat="45.48421" lon="6.89076">
        <ele>2669.6</ele>
        <time>2021-01-05T08:58:14Z</time>
      </trkpt>
      <trkpt lat="45.4842" lon="6.89072">
        <ele>2669.6</ele>
        <time>2021-01-05T08:58:16Z</time>
      </trkpt>
      <trkpt lat="45.4842" lon="6.89069">
        <ele>2671</ele>
        <time>2021-01-05T08:58:18Z</time>
      </trkpt>
      <trkpt lat="45.4842" lon="6.89066">
        <ele>2671</ele>
        <time>2021-01-05T08:58:19Z</time>
      </trkpt>
      <trkpt lat="45.4842" lon="6.89063">
        <ele>2671</ele>
        <time>2021-01-05T08:58:21Z</time>
      </trkpt>
      <trkpt lat="45.4842" lon="6.8906">
        <ele>2671</ele>
        <time>2021-01-05T08:58:23Z</time>
      </trkpt>
      <trkpt lat="45.4842" lon="6.89056">
        <ele>2671</ele>
        <time>2021-01-05T08:58:26Z</time>
      </trkpt>
      <trkpt lat="45.48421" lon="6.89053">
        <ele>2672.2</ele>
        <time>2021-01-05T08:58:28Z</time>
      </trkpt>
      <trkpt lat="45.48421" lon="6.8905">
        <ele>2672.2</ele>
        <time>2021-01-05T08:58:31Z</time>
      </trkpt>
      <trkpt lat="45.48421" lon="6.89046">
        <ele>2672.2</ele>
        <time>2021-01-05T08:58:33Z</time>
      </trkpt>
      <trkpt lat="45.48422" lon="6.89043">
        <ele>2672.2</ele>
        <time>2021-01-05T08:58:36Z</time>
      </trkpt>
      <trkpt lat="45.48422" lon="6.89041">
        <ele>2674.2</ele>
        <time>2021-01-05T08:58:38Z</time>
      </trkpt>
      <trkpt lat="45.48423" lon="6.89037">
        <ele>2674.2</ele>
        <time>2021-01-05T08:58:41Z</time>
      </trkpt>
      <trkpt lat="45.48423" lon="6.89034">
        <ele>2674.2</ele>
        <time>2021-01-05T08:58:44Z</time>
      </trkpt>
      <trkpt lat="45.48424" lon="6.89031">
        <ele>2674.2</ele>
        <time>2021-01-05T08:58:47Z</time>
      </trkpt>
      <trkpt lat="45.48425" lon="6.89029">
        <ele>2674.2</ele>
        <time>2021-01-05T08:58:49Z</time>
      </trkpt>
      <trkpt lat="45.48426" lon="6.89025">
        <ele>2674.2</ele>
        <time>2021-01-05T08:58:52Z</time>
      </trkpt>
      <trkpt lat="45.48426" lon="6.89022">
        <ele>2674.2</ele>
        <time>2021-01-05T08:58:55Z</time>
      </trkpt>
      <trkpt lat="45.48427" lon="6.89018">
        <ele>2674.2</ele>
        <time>2021-01-05T08:58:57Z</time>
      </trkpt>
      <trkpt lat="45.48428" lon="6.89016">
        <ele>2674.2</ele>
        <time>2021-01-05T08:59:01Z</time>
      </trkpt>
      <trkpt lat="45.48426" lon="6.89014">
        <ele>2681.4</ele>
        <time>2021-01-05T08:59:08Z</time>
      </trkpt>
      <trkpt lat="45.48425" lon="6.89012">
        <ele>2681.4</ele>
        <time>2021-01-05T08:59:11Z</time>
      </trkpt>
      <trkpt lat="45.48425" lon="6.89009">
        <ele>2681.4</ele>
        <time>2021-01-05T08:59:14Z</time>
      </trkpt>
      <trkpt lat="45.48427" lon="6.89006">
        <ele>2681.4</ele>
        <time>2021-01-05T08:59:17Z</time>
      </trkpt>
      <trkpt lat="45.48428" lon="6.89005">
        <ele>2681.4</ele>
        <time>2021-01-05T08:59:20Z</time>
      </trkpt>
      <trkpt lat="45.4843" lon="6.89002">
        <ele>2681.4</ele>
        <time>2021-01-05T08:59:25Z</time>
      </trkpt>
      <trkpt lat="45.48431" lon="6.88999">
        <ele>2686</ele>
        <time>2021-01-05T08:59:28Z</time>
      </trkpt>
      <trkpt lat="45.48432" lon="6.88995">
        <ele>2686</ele>
        <time>2021-01-05T08:59:32Z</time>
      </trkpt>
      <trkpt lat="45.48432" lon="6.88992">
        <ele>2686</ele>
        <time>2021-01-05T08:59:35Z</time>
      </trkpt>
      <trkpt lat="45.48433" lon="6.88989">
        <ele>2687.8</ele>
        <time>2021-01-05T08:59:38Z</time>
      </trkpt>
      <trkpt lat="45.48433" lon="6.88986">
        <ele>2687.8</ele>
        <time>2021-01-05T08:59:41Z</time>
      </trkpt>
      <trkpt lat="45.48433" lon="6.88983">
        <ele>2687.8</ele>
        <time>2021-01-05T08:59:44Z</time>
      </trkpt>
      <trkpt lat="45.48433" lon="6.8898">
        <ele>2687.8</ele>
        <time>2021-01-05T08:59:46Z</time>
      </trkpt>
      <trkpt lat="45.48434" lon="6.88977">
        <ele>2689.8</ele>
        <time>2021-01-05T08:59:48Z</time>
      </trkpt>
      <trkpt lat="45.48435" lon="6.88975">
        <ele>2689.8</ele>
        <time>2021-01-05T08:59:51Z</time>
      </trkpt>
      <trkpt lat="45.48435" lon="6.88972">
        <ele>2689.8</ele>
        <time>2021-01-05T08:59:54Z</time>
      </trkpt>
      <trkpt lat="45.48436" lon="6.88968">
        <ele>2689.8</ele>
        <time>2021-01-05T08:59:57Z</time>
      </trkpt>
      <trkpt lat="45.48436" lon="6.88965">
        <ele>2689.8</ele>
        <time>2021-01-05T09:00:00Z</time>
      </trkpt>
      <trkpt lat="45.48437" lon="6.88962">
        <ele>2689.8</ele>
        <time>2021-01-05T09:00:03Z</time>
      </trkpt>
      <trkpt lat="45.48437" lon="6.88959">
        <ele>2689.8</ele>
        <time>2021-01-05T09:00:06Z</time>
      </trkpt>
      <trkpt lat="45.48437" lon="6.88956">
        <ele>2689.8</ele>
        <time>2021-01-05T09:00:09Z</time>
      </trkpt>
      <trkpt lat="45.48438" lon="6.88953">
        <ele>2689.8</ele>
        <time>2021-01-05T09:00:12Z</time>
      </trkpt>
      <trkpt lat="45.48439" lon="6.8895">
        <ele>2689.8</ele>
        <time>2021-01-05T09:00:15Z</time>
      </trkpt>
      <trkpt lat="45.48439" lon="6.88947">
        <ele>2697</ele>
        <time>2021-01-05T09:00:18Z</time>
      </trkpt>
      <trkpt lat="45.48439" lon="6.88943">
        <ele>2697</ele>
        <time>2021-01-05T09:00:20Z</time>
      </trkpt>
      <trkpt lat="45.48439" lon="6.88939">
        <ele>2697</ele>
        <time>2021-01-05T09:00:23Z</time>
      </trkpt>
      <trkpt lat="45.4844" lon="6.88937">
        <ele>2697</ele>
        <time>2021-01-05T09:00:25Z</time>
      </trkpt>
      <trkpt lat="45.48441" lon="6.88934">
        <ele>2699.2</ele>
        <time>2021-01-05T09:00:28Z</time>
      </trkpt>
      <trkpt lat="45.48441" lon="6.88932">
        <ele>2699.2</ele>
        <time>2021-01-05T09:00:33Z</time>
      </trkpt>
      <trkpt lat="45.48439" lon="6.88929">
        <ele>2699.2</ele>
        <time>2021-01-05T09:00:36Z</time>
      </trkpt>
      <trkpt lat="45.48439" lon="6.88926">
        <ele>2699.2</ele>
        <time>2021-01-05T09:00:39Z</time>
      </trkpt>
      <trkpt lat="45.48438" lon="6.88923">
        <ele>2699.2</ele>
        <time>2021-01-05T09:00:41Z</time>
      </trkpt>
      <trkpt lat="45.48438" lon="6.8892">
        <ele>2699.2</ele>
        <time>2021-01-05T09:00:44Z</time>
      </trkpt>
      <trkpt lat="45.48437" lon="6.88916">
        <ele>2699.2</ele>
        <time>2021-01-05T09:00:47Z</time>
      </trkpt>
      <trkpt lat="45.48437" lon="6.88914">
        <ele>2699.2</ele>
        <time>2021-01-05T09:00:49Z</time>
      </trkpt>
      <trkpt lat="45.48436" lon="6.8891">
        <ele>2699.2</ele>
        <time>2021-01-05T09:00:52Z</time>
      </trkpt>
      <trkpt lat="45.48435" lon="6.88907">
        <ele>2699.2</ele>
        <time>2021-01-05T09:00:54Z</time>
      </trkpt>
      <trkpt lat="45.48434" lon="6.88904">
        <ele>2699.2</ele>
        <time>2021-01-05T09:00:56Z</time>
      </trkpt>
      <trkpt lat="45.48433" lon="6.889">
        <ele>2706</ele>
        <time>2021-01-05T09:00:58Z</time>
      </trkpt>
      <trkpt lat="45.48432" lon="6.88898">
        <ele>2706</ele>
        <time>2021-01-05T09:01:00Z</time>
      </trkpt>
      <trkpt lat="45.48431" lon="6.88894">
        <ele>2706</ele>
        <time>2021-01-05T09:01:02Z</time>
      </trkpt>
      <trkpt lat="45.4843" lon="6.88892">
        <ele>2706</ele>
        <time>2021-01-05T09:01:04Z</time>
      </trkpt>
      <trkpt lat="45.48429" lon="6.88889">
        <ele>2706</ele>
        <time>2021-01-05T09:01:06Z</time>
      </trkpt>
      <trkpt lat="45.48428" lon="6.88886">
        <ele>2707.4</ele>
        <time>2021-01-05T09:01:08Z</time>
      </trkpt>
      <trkpt lat="45.48427" lon="6.88883">
        <ele>2707.4</ele>
        <time>2021-01-05T09:01:10Z</time>
      </trkpt>
      <trkpt lat="45.48425" lon="6.88883">
        <ele>2707.4</ele>
        <time>2021-01-05T09:01:21Z</time>
      </trkpt>
      <trkpt lat="45.48423" lon="6.88882">
        <ele>2707.4</ele>
        <time>2021-01-05T09:01:26Z</time>
      </trkpt>
      <trkpt lat="45.48421" lon="6.88878">
        <ele>2707.4</ele>
        <time>2021-01-05T09:01:30Z</time>
      </trkpt>
      <trkpt lat="45.48421" lon="6.88874">
        <ele>2707.4</ele>
        <time>2021-01-05T09:01:32Z</time>
      </trkpt>
      <trkpt lat="45.4842" lon="6.8887">
        <ele>2707.4</ele>
        <time>2021-01-05T09:01:34Z</time>
      </trkpt>
      <trkpt lat="45.4842" lon="6.88866">
        <ele>2707.4</ele>
        <time>2021-01-05T09:01:36Z</time>
      </trkpt>
      <trkpt lat="45.48419" lon="6.88862">
        <ele>2706.8</ele>
        <time>2021-01-05T09:01:38Z</time>
      </trkpt>
      <trkpt lat="45.48418" lon="6.88859">
        <ele>2706.8</ele>
        <time>2021-01-05T09:01:40Z</time>
      </trkpt>
      <trkpt lat="45.48418" lon="6.88856">
        <ele>2706.8</ele>
        <time>2021-01-05T09:01:47Z</time>
      </trkpt>
      <trkpt lat="45.48418" lon="6.88854">
        <ele>2706.8</ele>
        <time>2021-01-05T09:03:15Z</time>
      </trkpt>
      <trkpt lat="45.48417" lon="6.8885">
        <ele>2706.8</ele>
        <time>2021-01-05T09:03:16Z</time>
      </trkpt>
      <trkpt lat="45.48417" lon="6.88847">
        <ele>2706.8</ele>
        <time>2021-01-05T09:03:17Z</time>
      </trkpt>
      <trkpt lat="45.48416" lon="6.88842">
        <ele>2704.2</ele>
        <time>2021-01-05T09:03:18Z</time>
      </trkpt>
      <trkpt lat="45.48413" lon="6.8884">
        <ele>2704.2</ele>
        <time>2021-01-05T09:03:19Z</time>
      </trkpt>
      <trkpt lat="45.4841" lon="6.88838">
        <ele>2704.2</ele>
        <time>2021-01-05T09:03:20Z</time>
      </trkpt>
      <trkpt lat="45.48406" lon="6.88836">
        <ele>2704.2</ele>
        <time>2021-01-05T09:03:21Z</time>
      </trkpt>
      <trkpt lat="45.48403" lon="6.88834">
        <ele>2704.2</ele>
        <time>2021-01-05T09:03:22Z</time>
      </trkpt>
      <trkpt lat="45.484" lon="6.8883">
        <ele>2704.2</ele>
        <time>2021-01-05T09:03:23Z</time>
      </trkpt>
      <trkpt lat="45.48398" lon="6.88825">
        <ele>2704.2</ele>
        <time>2021-01-05T09:03:24Z</time>
      </trkpt>
      <trkpt lat="45.48397" lon="6.88818">
        <ele>2704.2</ele>
        <time>2021-01-05T09:03:25Z</time>
      </trkpt>
      <trkpt lat="45.48398" lon="6.88813">
        <ele>2704.2</ele>
        <time>2021-01-05T09:03:26Z</time>
      </trkpt>
      <trkpt lat="45.48399" lon="6.8881">
        <ele>2704.2</ele>
        <time>2021-01-05T09:03:27Z</time>
      </trkpt>
      <trkpt lat="45.48397" lon="6.88806">
        <ele>2704.2</ele>
        <time>2021-01-05T09:05:06Z</time>
      </trkpt>
      <trkpt lat="45.48394" lon="6.88801">
        <ele>2704.2</ele>
        <time>2021-01-05T09:05:07Z</time>
      </trkpt>
      <trkpt lat="45.48393" lon="6.88795">
        <ele>2687.8</ele>
        <time>2021-01-05T09:05:08Z</time>
      </trkpt>
      <trkpt lat="45.4839" lon="6.88791">
        <ele>2687.8</ele>
        <time>2021-01-05T09:05:09Z</time>
      </trkpt>
      <trkpt lat="45.48388" lon="6.88786">
        <ele>2687.8</ele>
        <time>2021-01-05T09:05:10Z</time>
      </trkpt>
      <trkpt lat="45.48386" lon="6.8878">
        <ele>2687.8</ele>
        <time>2021-01-05T09:05:11Z</time>
      </trkpt>
      <trkpt lat="45.48383" lon="6.88775">
        <ele>2687.8</ele>
        <time>2021-01-05T09:05:12Z</time>
      </trkpt>
      <trkpt lat="45.48379" lon="6.8877">
        <ele>2687.8</ele>
        <time>2021-01-05T09:05:13Z</time>
      </trkpt>
      <trkpt lat="45.48377" lon="6.88765">
        <ele>2687.8</ele>
        <time>2021-01-05T09:05:14Z</time>
      </trkpt>
      <trkpt lat="45.48376" lon="6.88759">
        <ele>2687.8</ele>
        <time>2021-01-05T09:05:15Z</time>
      </trkpt>
      <trkpt lat="45.48373" lon="6.88757">
        <ele>2687.8</ele>
        <time>2021-01-05T09:05:16Z</time>
      </trkpt>
      <trkpt lat="45.48369" lon="6.88754">
        <ele>2687.8</ele>
        <time>2021-01-05T09:05:17Z</time>
      </trkpt>
      <trkpt lat="45.48364" lon="6.88754">
        <ele>2673.2</ele>
        <time>2021-01-05T09:05:18Z</time>
      </trkpt>
      <trkpt lat="45.4836" lon="6.88755">
        <ele>2673.2</ele>
        <time>2021-01-05T09:05:19Z</time>
      </trkpt>
      <trkpt lat="45.48356" lon="6.88752">
        <ele>2673.2</ele>
        <time>2021-01-05T09:05:20Z</time>
      </trkpt>
      <trkpt lat="45.48355" lon="6.88748">
        <ele>2673.2</ele>
        <time>2021-01-05T09:05:21Z</time>
      </trkpt>
      <trkpt lat="45.48354" lon="6.88742">
        <ele>2673.2</ele>
        <time>2021-01-05T09:05:22Z</time>
      </trkpt>
      <trkpt lat="45.48351" lon="6.88737">
        <ele>2673.2</ele>
        <time>2021-01-05T09:05:23Z</time>
      </trkpt>
      <trkpt lat="45.48347" lon="6.88732">
        <ele>2673.2</ele>
        <time>2021-01-05T09:05:24Z</time>
      </trkpt>
      <trkpt lat="45.48344" lon="6.88725">
        <ele>2673.2</ele>
        <time>2021-01-05T09:05:25Z</time>
      </trkpt>
      <trkpt lat="45.4834" lon="6.8872">
        <ele>2673.2</ele>
        <time>2021-01-05T09:05:26Z</time>
      </trkpt>
      <trkpt lat="45.48335" lon="6.88716">
        <ele>2673.2</ele>
        <time>2021-01-05T09:05:27Z</time>
      </trkpt>
      <trkpt lat="45.48332" lon="6.88708">
        <ele>2653.6</ele>
        <time>2021-01-05T09:05:28Z</time>
      </trkpt>
      <trkpt lat="45.48329" lon="6.887">
        <ele>2653.6</ele>
        <time>2021-01-05T09:05:29Z</time>
      </trkpt>
      <trkpt lat="45.48326" lon="6.88693">
        <ele>2653.6</ele>
        <time>2021-01-05T09:05:30Z</time>
      </trkpt>
      <trkpt lat="45.48323" lon="6.88686">
        <ele>2653.6</ele>
        <time>2021-01-05T09:05:31Z</time>
      </trkpt>
      <trkpt lat="45.4832" lon="6.88678">
        <ele>2653.6</ele>
        <time>2021-01-05T09:05:32Z</time>
      </trkpt>
      <trkpt lat="45.48316" lon="6.88671">
        <ele>2653.6</ele>
        <time>2021-01-05T09:05:33Z</time>
      </trkpt>
      <trkpt lat="45.48309" lon="6.88665">
        <ele>2653.6</ele>
        <time>2021-01-05T09:05:34Z</time>
      </trkpt>
      <trkpt lat="45.48302" lon="6.88661">
        <ele>2653.6</ele>
        <time>2021-01-05T09:05:35Z</time>
      </trkpt>
      <trkpt lat="45.48294" lon="6.88657">
        <ele>2653.6</ele>
        <time>2021-01-05T09:05:36Z</time>
      </trkpt>
      <trkpt lat="45.48287" lon="6.88653">
        <ele>2653.6</ele>
        <time>2021-01-05T09:05:37Z</time>
      </trkpt>
      <trkpt lat="45.48279" lon="6.8865">
        <ele>2624.4</ele>
        <time>2021-01-05T09:05:38Z</time>
      </trkpt>
      <trkpt lat="45.48272" lon="6.88648">
        <ele>2624.4</ele>
        <time>2021-01-05T09:05:39Z</time>
      </trkpt>
      <trkpt lat="45.48266" lon="6.88645">
        <ele>2624.4</ele>
        <time>2021-01-05T09:05:40Z</time>
      </trkpt>
      <trkpt lat="45.48261" lon="6.88641">
        <ele>2624.4</ele>
        <time>2021-01-05T09:05:41Z</time>
      </trkpt>
      <trkpt lat="45.48258" lon="6.88636">
        <ele>2624.4</ele>
        <time>2021-01-05T09:05:42Z</time>
      </trkpt>
      <trkpt lat="45.48254" lon="6.8863">
        <ele>2624.4</ele>
        <time>2021-01-05T09:05:43Z</time>
      </trkpt>
      <trkpt lat="45.48251" lon="6.88623">
        <ele>2624.4</ele>
        <time>2021-01-05T09:05:44Z</time>
      </trkpt>
      <trkpt lat="45.48249" lon="6.88616">
        <ele>2624.4</ele>
        <time>2021-01-05T09:05:45Z</time>
      </trkpt>
      <trkpt lat="45.48247" lon="6.88609">
        <ele>2624.4</ele>
        <time>2021-01-05T09:05:46Z</time>
      </trkpt>
      <trkpt lat="45.48244" lon="6.88602">
        <ele>2624.4</ele>
        <time>2021-01-05T09:05:47Z</time>
      </trkpt>
      <trkpt lat="45.48241" lon="6.88596">
        <ele>2604</ele>
        <time>2021-01-05T09:05:48Z</time>
      </trkpt>
      <trkpt lat="45.48238" lon="6.88591">
        <ele>2604</ele>
        <time>2021-01-05T09:05:49Z</time>
      </trkpt>
      <trkpt lat="45.48233" lon="6.88587">
        <ele>2604</ele>
        <time>2021-01-05T09:05:50Z</time>
      </trkpt>
      <trkpt lat="45.48228" lon="6.88586">
        <ele>2604</ele>
        <time>2021-01-05T09:05:51Z</time>
      </trkpt>
      <trkpt lat="45.48222" lon="6.88584">
        <ele>2604</ele>
        <time>2021-01-05T09:05:52Z</time>
      </trkpt>
      <trkpt lat="45.48217" lon="6.88582">
        <ele>2604</ele>
        <time>2021-01-05T09:05:53Z</time>
      </trkpt>
      <trkpt lat="45.48211" lon="6.88581">
        <ele>2604</ele>
        <time>2021-01-05T09:05:54Z</time>
      </trkpt>
      <trkpt lat="45.48205" lon="6.88581">
        <ele>2604</ele>
        <time>2021-01-05T09:05:55Z</time>
      </trkpt>
      <trkpt lat="45.48198" lon="6.8858">
        <ele>2604</ele>
        <time>2021-01-05T09:05:56Z</time>
      </trkpt>
      <trkpt lat="45.48193" lon="6.88581">
        <ele>2604</ele>
        <time>2021-01-05T09:05:57Z</time>
      </trkpt>
      <trkpt lat="45.48187" lon="6.88583">
        <ele>2586.6</ele>
        <time>2021-01-05T09:05:58Z</time>
      </trkpt>
      <trkpt lat="45.48182" lon="6.88588">
        <ele>2586.6</ele>
        <time>2021-01-05T09:05:59Z</time>
      </trkpt>
      <trkpt lat="45.48178" lon="6.88593">
        <ele>2586.6</ele>
        <time>2021-01-05T09:06:00Z</time>
      </trkpt>
      <trkpt lat="45.48173" lon="6.88597">
        <ele>2586.6</ele>
        <time>2021-01-05T09:06:01Z</time>
      </trkpt>
      <trkpt lat="45.48169" lon="6.88597">
        <ele>2586.6</ele>
        <time>2021-01-05T09:06:02Z</time>
      </trkpt>
      <trkpt lat="45.48166" lon="6.88594">
        <ele>2586.6</ele>
        <time>2021-01-05T09:06:03Z</time>
      </trkpt>
      <trkpt lat="45.48163" lon="6.88591">
        <ele>2586.6</ele>
        <time>2021-01-05T09:06:04Z</time>
      </trkpt>
      <trkpt lat="45.4816" lon="6.8859">
        <ele>2586.6</ele>
        <time>2021-01-05T09:06:05Z</time>
      </trkpt>
      <trkpt lat="45.48157" lon="6.88592">
        <ele>2586.6</ele>
        <time>2021-01-05T09:06:06Z</time>
      </trkpt>
      <trkpt lat="45.48156" lon="6.88595">
        <ele>2586.6</ele>
        <time>2021-01-05T09:06:07Z</time>
      </trkpt>
      <trkpt lat="45.48155" lon="6.88598">
        <ele>2565.6</ele>
        <time>2021-01-05T09:06:08Z</time>
      </trkpt>
      <trkpt lat="45.48154" lon="6.886">
        <ele>2565.6</ele>
        <time>2021-01-05T09:06:09Z</time>
      </trkpt>
      <trkpt lat="45.48152" lon="6.88604">
        <ele>2565.6</ele>
        <time>2021-01-05T09:06:11Z</time>
      </trkpt>
      <trkpt lat="45.48147" lon="6.88604">
        <ele>2565.6</ele>
        <time>2021-01-05T09:06:31Z</time>
      </trkpt>
      <trkpt lat="45.4814" lon="6.88606">
        <ele>2565.6</ele>
        <time>2021-01-05T09:06:32Z</time>
      </trkpt>
      <trkpt lat="45.48133" lon="6.88608">
        <ele>2565.6</ele>
        <time>2021-01-05T09:06:33Z</time>
      </trkpt>
      <trkpt lat="45.48125" lon="6.88611">
        <ele>2565.6</ele>
        <time>2021-01-05T09:06:34Z</time>
      </trkpt>
      <trkpt lat="45.48117" lon="6.88615">
        <ele>2565.6</ele>
        <time>2021-01-05T09:06:35Z</time>
      </trkpt>
      <trkpt lat="45.48107" lon="6.88619">
        <ele>2565.6</ele>
        <time>2021-01-05T09:06:36Z</time>
      </trkpt>
      <trkpt lat="45.48096" lon="6.88623">
        <ele>2565.6</ele>
        <time>2021-01-05T09:06:37Z</time>
      </trkpt>
      <trkpt lat="45.48085" lon="6.88627">
        <ele>2552.4</ele>
        <time>2021-01-05T09:06:38Z</time>
      </trkpt>
      <trkpt lat="45.48072" lon="6.88632">
        <ele>2552.4</ele>
        <time>2021-01-05T09:06:39Z</time>
      </trkpt>
      <trkpt lat="45.48059" lon="6.88635">
        <ele>2552.4</ele>
        <time>2021-01-05T09:06:40Z</time>
      </trkpt>
      <trkpt lat="45.48046" lon="6.88638">
        <ele>2552.4</ele>
        <time>2021-01-05T09:06:41Z</time>
      </trkpt>
      <trkpt lat="45.48036" lon="6.88642">
        <ele>2552.4</ele>
        <time>2021-01-05T09:06:42Z</time>
      </trkpt>
      <trkpt lat="45.48027" lon="6.88649">
        <ele>2552.4</ele>
        <time>2021-01-05T09:06:43Z</time>
      </trkpt>
      <trkpt lat="45.4802" lon="6.88654">
        <ele>2552.4</ele>
        <time>2021-01-05T09:06:44Z</time>
      </trkpt>
      <trkpt lat="45.48013" lon="6.88659">
        <ele>2552.4</ele>
        <time>2021-01-05T09:06:45Z</time>
      </trkpt>
      <trkpt lat="45.48008" lon="6.88661">
        <ele>2552.4</ele>
        <time>2021-01-05T09:06:46Z</time>
      </trkpt>
      <trkpt lat="45.48004" lon="6.88664">
        <ele>2552.4</ele>
        <time>2021-01-05T09:06:47Z</time>
      </trkpt>
      <trkpt lat="45.48002" lon="6.88665">
        <ele>2528.6</ele>
        <time>2021-01-05T09:06:48Z</time>
      </trkpt>
      <trkpt lat="45.47999" lon="6.88667">
        <ele>2528.6</ele>
        <time>2021-01-05T09:06:50Z</time>
      </trkpt>
      <trkpt lat="45.47995" lon="6.8867">
        <ele>2528.6</ele>
        <time>2021-01-05T09:06:52Z</time>
      </trkpt>
      <trkpt lat="45.47993" lon="6.88671">
        <ele>2528.6</ele>
        <time>2021-01-05T09:06:53Z</time>
      </trkpt>
      <trkpt lat="45.47991" lon="6.88673">
        <ele>2528.6</ele>
        <time>2021-01-05T09:06:54Z</time>
      </trkpt>
      <trkpt lat="45.47988" lon="6.88675">
        <ele>2528.6</ele>
        <time>2021-01-05T09:06:56Z</time>
      </trkpt>
      <trkpt lat="45.47987" lon="6.88677">
        <ele>2528.6</ele>
        <time>2021-01-05T09:06:57Z</time>
      </trkpt>
      <trkpt lat="45.47984" lon="6.8868">
        <ele>2528.6</ele>
        <time>2021-01-05T09:06:59Z</time>
      </trkpt>
      <trkpt lat="45.47982" lon="6.88682">
        <ele>2528.6</ele>
        <time>2021-01-05T09:07:00Z</time>
      </trkpt>
      <trkpt lat="45.47981" lon="6.88683">
        <ele>2528.6</ele>
        <time>2021-01-05T09:07:01Z</time>
      </trkpt>
      <trkpt lat="45.47978" lon="6.88685">
        <ele>2528.6</ele>
        <time>2021-01-05T09:07:03Z</time>
      </trkpt>
      <trkpt lat="45.47975" lon="6.88687">
        <ele>2528.6</ele>
        <time>2021-01-05T09:07:05Z</time>
      </trkpt>
      <trkpt lat="45.47972" lon="6.8869">
        <ele>2528.6</ele>
        <time>2021-01-05T09:07:07Z</time>
      </trkpt>
      <trkpt lat="45.4797" lon="6.88691">
        <ele>2528.6</ele>
        <time>2021-01-05T09:07:09Z</time>
      </trkpt>
      <trkpt lat="45.47968" lon="6.88692">
        <ele>2528.6</ele>
        <time>2021-01-05T09:07:11Z</time>
      </trkpt>
      <trkpt lat="45.47966" lon="6.88692">
        <ele>2528.6</ele>
        <time>2021-01-05T09:07:12Z</time>
      </trkpt>
      <trkpt lat="45.47963" lon="6.88694">
        <ele>2528.6</ele>
        <time>2021-01-05T09:07:13Z</time>
      </trkpt>
      <trkpt lat="45.47961" lon="6.88695">
        <ele>2528.6</ele>
        <time>2021-01-05T09:07:14Z</time>
      </trkpt>
      <trkpt lat="45.47958" lon="6.88697">
        <ele>2528.6</ele>
        <time>2021-01-05T09:07:15Z</time>
      </trkpt>
      <trkpt lat="45.47956" lon="6.88699">
        <ele>2528.6</ele>
        <time>2021-01-05T09:07:16Z</time>
      </trkpt>
      <trkpt lat="45.47953" lon="6.88701">
        <ele>2528.6</ele>
        <time>2021-01-05T09:07:17Z</time>
      </trkpt>
      <trkpt lat="45.4795" lon="6.88703">
        <ele>2522.6</ele>
        <time>2021-01-05T09:07:18Z</time>
      </trkpt>
      <trkpt lat="45.47948" lon="6.88706">
        <ele>2522.6</ele>
        <time>2021-01-05T09:07:19Z</time>
      </trkpt>
      <trkpt lat="45.47945" lon="6.88708">
        <ele>2522.6</ele>
        <time>2021-01-05T09:07:20Z</time>
      </trkpt>
      <trkpt lat="45.47942" lon="6.88711">
        <ele>2522.6</ele>
        <time>2021-01-05T09:07:21Z</time>
      </trkpt>
      <trkpt lat="45.47939" lon="6.88715">
        <ele>2522.6</ele>
        <time>2021-01-05T09:07:22Z</time>
      </trkpt>
      <trkpt lat="45.47935" lon="6.8872">
        <ele>2522.6</ele>
        <time>2021-01-05T09:07:23Z</time>
      </trkpt>
      <trkpt lat="45.4793" lon="6.88725">
        <ele>2522.6</ele>
        <time>2021-01-05T09:07:24Z</time>
      </trkpt>
      <trkpt lat="45.47925" lon="6.88731">
        <ele>2522.6</ele>
        <time>2021-01-05T09:07:25Z</time>
      </trkpt>
      <trkpt lat="45.47921" lon="6.88736">
        <ele>2522.6</ele>
        <time>2021-01-05T09:07:26Z</time>
      </trkpt>
      <trkpt lat="45.47916" lon="6.88742">
        <ele>2522.6</ele>
        <time>2021-01-05T09:07:27Z</time>
      </trkpt>
      <trkpt lat="45.47912" lon="6.88747">
        <ele>2518.2</ele>
        <time>2021-01-05T09:07:28Z</time>
      </trkpt>
      <trkpt lat="45.47907" lon="6.88753">
        <ele>2518.2</ele>
        <time>2021-01-05T09:07:29Z</time>
      </trkpt>
      <trkpt lat="45.47902" lon="6.88759">
        <ele>2518.2</ele>
        <time>2021-01-05T09:07:30Z</time>
      </trkpt>
      <trkpt lat="45.47897" lon="6.88766">
        <ele>2518.2</ele>
        <time>2021-01-05T09:07:31Z</time>
      </trkpt>
      <trkpt lat="45.47892" lon="6.88772">
        <ele>2518.2</ele>
        <time>2021-01-05T09:07:32Z</time>
      </trkpt>
      <trkpt lat="45.47887" lon="6.88778">
        <ele>2518.2</ele>
        <time>2021-01-05T09:07:33Z</time>
      </trkpt>
      <trkpt lat="45.47883" lon="6.88784">
        <ele>2518.2</ele>
        <time>2021-01-05T09:07:34Z</time>
      </trkpt>
      <trkpt lat="45.47879" lon="6.88788">
        <ele>2518.2</ele>
        <time>2021-01-05T09:07:35Z</time>
      </trkpt>
      <trkpt lat="45.47876" lon="6.88793">
        <ele>2518.2</ele>
        <time>2021-01-05T09:07:36Z</time>
      </trkpt>
      <trkpt lat="45.47873" lon="6.88797">
        <ele>2518.2</ele>
        <time>2021-01-05T09:07:37Z</time>
      </trkpt>
      <trkpt lat="45.47869" lon="6.88801">
        <ele>2510.6</ele>
        <time>2021-01-05T09:07:38Z</time>
      </trkpt>
      <trkpt lat="45.47866" lon="6.88805">
        <ele>2510.6</ele>
        <time>2021-01-05T09:07:39Z</time>
      </trkpt>
      <trkpt lat="45.47863" lon="6.88808">
        <ele>2510.6</ele>
        <time>2021-01-05T09:07:40Z</time>
      </trkpt>
      <trkpt lat="45.47859" lon="6.88811">
        <ele>2510.6</ele>
        <time>2021-01-05T09:07:41Z</time>
      </trkpt>
      <trkpt lat="45.47855" lon="6.88814">
        <ele>2510.6</ele>
        <time>2021-01-05T09:07:42Z</time>
      </trkpt>
      <trkpt lat="45.47851" lon="6.88817">
        <ele>2510.6</ele>
        <time>2021-01-05T09:07:43Z</time>
      </trkpt>
      <trkpt lat="45.47848" lon="6.88819">
        <ele>2510.6</ele>
        <time>2021-01-05T09:07:44Z</time>
      </trkpt>
      <trkpt lat="45.47845" lon="6.88821">
        <ele>2510.6</ele>
        <time>2021-01-05T09:07:45Z</time>
      </trkpt>
      <trkpt lat="45.47842" lon="6.88824">
        <ele>2510.6</ele>
        <time>2021-01-05T09:07:46Z</time>
      </trkpt>
      <trkpt lat="45.47839" lon="6.88826">
        <ele>2510.6</ele>
        <time>2021-01-05T09:07:47Z</time>
      </trkpt>
      <trkpt lat="45.47835" lon="6.88828">
        <ele>2505.6</ele>
        <time>2021-01-05T09:07:48Z</time>
      </trkpt>
      <trkpt lat="45.47832" lon="6.8883">
        <ele>2505.6</ele>
        <time>2021-01-05T09:07:49Z</time>
      </trkpt>
      <trkpt lat="45.47829" lon="6.88832">
        <ele>2505.6</ele>
        <time>2021-01-05T09:07:50Z</time>
      </trkpt>
      <trkpt lat="45.47827" lon="6.88834">
        <ele>2505.6</ele>
        <time>2021-01-05T09:07:51Z</time>
      </trkpt>
      <trkpt lat="45.47824" lon="6.88836">
        <ele>2505.6</ele>
        <time>2021-01-05T09:07:52Z</time>
      </trkpt>
      <trkpt lat="45.47822" lon="6.88837">
        <ele>2505.6</ele>
        <time>2021-01-05T09:07:53Z</time>
      </trkpt>
      <trkpt lat="45.4782" lon="6.88838">
        <ele>2505.6</ele>
        <time>2021-01-05T09:07:54Z</time>
      </trkpt>
      <trkpt lat="45.47818" lon="6.88839">
        <ele>2505.6</ele>
        <time>2021-01-05T09:07:55Z</time>
      </trkpt>
      <trkpt lat="45.47816" lon="6.8884">
        <ele>2505.6</ele>
        <time>2021-01-05T09:07:56Z</time>
      </trkpt>
      <trkpt lat="45.47813" lon="6.88841">
        <ele>2505.6</ele>
        <time>2021-01-05T09:07:57Z</time>
      </trkpt>
      <trkpt lat="45.47811" lon="6.88842">
        <ele>2504.4</ele>
        <time>2021-01-05T09:07:58Z</time>
      </trkpt>
      <trkpt lat="45.47808" lon="6.88842">
        <ele>2504.4</ele>
        <time>2021-01-05T09:07:59Z</time>
      </trkpt>
      <trkpt lat="45.47806" lon="6.88842">
        <ele>2504.4</ele>
        <time>2021-01-05T09:08:00Z</time>
      </trkpt>
      <trkpt lat="45.47802" lon="6.88843">
        <ele>2504.4</ele>
        <time>2021-01-05T09:08:01Z</time>
      </trkpt>
      <trkpt lat="45.47798" lon="6.88844">
        <ele>2504.4</ele>
        <time>2021-01-05T09:08:02Z</time>
      </trkpt>
      <trkpt lat="45.47794" lon="6.88845">
        <ele>2504.4</ele>
        <time>2021-01-05T09:08:03Z</time>
      </trkpt>
      <trkpt lat="45.47789" lon="6.88846">
        <ele>2504.4</ele>
        <time>2021-01-05T09:08:04Z</time>
      </trkpt>
      <trkpt lat="45.47784" lon="6.88846">
        <ele>2504.4</ele>
        <time>2021-01-05T09:08:05Z</time>
      </trkpt>
      <trkpt lat="45.47778" lon="6.8885">
        <ele>2504.4</ele>
        <time>2021-01-05T09:08:06Z</time>
      </trkpt>
      <trkpt lat="45.47772" lon="6.88854">
        <ele>2504.4</ele>
        <time>2021-01-05T09:08:07Z</time>
      </trkpt>
      <trkpt lat="45.47766" lon="6.88856">
        <ele>2501</ele>
        <time>2021-01-05T09:08:08Z</time>
      </trkpt>
      <trkpt lat="45.4776" lon="6.88856">
        <ele>2501</ele>
        <time>2021-01-05T09:08:09Z</time>
      </trkpt>
      <trkpt lat="45.47753" lon="6.88855">
        <ele>2501</ele>
        <time>2021-01-05T09:08:10Z</time>
      </trkpt>
      <trkpt lat="45.47746" lon="6.88857">
        <ele>2501</ele>
        <time>2021-01-05T09:08:11Z</time>
      </trkpt>
      <trkpt lat="45.47738" lon="6.88859">
        <ele>2501</ele>
        <time>2021-01-05T09:08:12Z</time>
      </trkpt>
      <trkpt lat="45.47729" lon="6.8886">
        <ele>2501</ele>
        <time>2021-01-05T09:08:13Z</time>
      </trkpt>
      <trkpt lat="45.4772" lon="6.8886">
        <ele>2501</ele>
        <time>2021-01-05T09:08:14Z</time>
      </trkpt>
      <trkpt lat="45.47711" lon="6.88861">
        <ele>2501</ele>
        <time>2021-01-05T09:08:15Z</time>
      </trkpt>
      <trkpt lat="45.47702" lon="6.88861">
        <ele>2501</ele>
        <time>2021-01-05T09:08:16Z</time>
      </trkpt>
      <trkpt lat="45.47692" lon="6.8886">
        <ele>2501</ele>
        <time>2021-01-05T09:08:17Z</time>
      </trkpt>
      <trkpt lat="45.47684" lon="6.88859">
        <ele>2477</ele>
        <time>2021-01-05T09:08:18Z</time>
      </trkpt>
      <trkpt lat="45.47677" lon="6.88858">
        <ele>2477</ele>
        <time>2021-01-05T09:08:19Z</time>
      </trkpt>
      <trkpt lat="45.4767" lon="6.88858">
        <ele>2477</ele>
        <time>2021-01-05T09:08:20Z</time>
      </trkpt>
      <trkpt lat="45.47664" lon="6.88857">
        <ele>2477</ele>
        <time>2021-01-05T09:08:21Z</time>
      </trkpt>
      <trkpt lat="45.47659" lon="6.88855">
        <ele>2477</ele>
        <time>2021-01-05T09:08:22Z</time>
      </trkpt>
      <trkpt lat="45.47653" lon="6.88853">
        <ele>2477</ele>
        <time>2021-01-05T09:08:23Z</time>
      </trkpt>
      <trkpt lat="45.47649" lon="6.88849">
        <ele>2477</ele>
        <time>2021-01-05T09:08:24Z</time>
      </trkpt>
      <trkpt lat="45.47644" lon="6.88847">
        <ele>2477</ele>
        <time>2021-01-05T09:08:25Z</time>
      </trkpt>
      <trkpt lat="45.47638" lon="6.88845">
        <ele>2477</ele>
        <time>2021-01-05T09:08:26Z</time>
      </trkpt>
      <trkpt lat="45.47633" lon="6.88845">
        <ele>2477</ele>
        <time>2021-01-05T09:08:27Z</time>
      </trkpt>
      <trkpt lat="45.47628" lon="6.88845">
        <ele>2458.8</ele>
        <time>2021-01-05T09:08:28Z</time>
      </trkpt>
      <trkpt lat="45.47621" lon="6.88846">
        <ele>2458.8</ele>
        <time>2021-01-05T09:08:29Z</time>
      </trkpt>
      <trkpt lat="45.47614" lon="6.88846">
        <ele>2458.8</ele>
        <time>2021-01-05T09:08:30Z</time>
      </trkpt>
      <trkpt lat="45.47607" lon="6.88846">
        <ele>2458.8</ele>
        <time>2021-01-05T09:08:31Z</time>
      </trkpt>
      <trkpt lat="45.47599" lon="6.88846">
        <ele>2458.8</ele>
        <time>2021-01-05T09:08:32Z</time>
      </trkpt>
      <trkpt lat="45.47591" lon="6.88846">
        <ele>2458.8</ele>
        <time>2021-01-05T09:08:33Z</time>
      </trkpt>
      <trkpt lat="45.47583" lon="6.88845">
        <ele>2458.8</ele>
        <time>2021-01-05T09:08:34Z</time>
      </trkpt>
      <trkpt lat="45.47575" lon="6.88845">
        <ele>2458.8</ele>
        <time>2021-01-05T09:08:35Z</time>
      </trkpt>
      <trkpt lat="45.47566" lon="6.88843">
        <ele>2458.8</ele>
        <time>2021-01-05T09:08:36Z</time>
      </trkpt>
      <trkpt lat="45.47556" lon="6.8884">
        <ele>2458.8</ele>
        <time>2021-01-05T09:08:37Z</time>
      </trkpt>
      <trkpt lat="45.47546" lon="6.88836">
        <ele>2443.4</ele>
        <time>2021-01-05T09:08:38Z</time>
      </trkpt>
      <trkpt lat="45.47535" lon="6.88832">
        <ele>2443.4</ele>
        <time>2021-01-05T09:08:39Z</time>
      </trkpt>
      <trkpt lat="45.47524" lon="6.8883">
        <ele>2443.4</ele>
        <time>2021-01-05T09:08:40Z</time>
      </trkpt>
      <trkpt lat="45.47511" lon="6.88828">
        <ele>2443.4</ele>
        <time>2021-01-05T09:08:41Z</time>
      </trkpt>
      <trkpt lat="45.475" lon="6.88826">
        <ele>2443.4</ele>
        <time>2021-01-05T09:08:42Z</time>
      </trkpt>
      <trkpt lat="45.47488" lon="6.88824">
        <ele>2443.4</ele>
        <time>2021-01-05T09:08:43Z</time>
      </trkpt>
      <trkpt lat="45.47476" lon="6.88822">
        <ele>2443.4</ele>
        <time>2021-01-05T09:08:44Z</time>
      </trkpt>
      <trkpt lat="45.47465" lon="6.88821">
        <ele>2443.4</ele>
        <time>2021-01-05T09:08:45Z</time>
      </trkpt>
      <trkpt lat="45.47453" lon="6.8882">
        <ele>2443.4</ele>
        <time>2021-01-05T09:08:46Z</time>
      </trkpt>
      <trkpt lat="45.47442" lon="6.8882">
        <ele>2443.4</ele>
        <time>2021-01-05T09:08:47Z</time>
      </trkpt>
      <trkpt lat="45.47432" lon="6.8882">
        <ele>2421.8</ele>
        <time>2021-01-05T09:08:48Z</time>
      </trkpt>
      <trkpt lat="45.47422" lon="6.8882">
        <ele>2421.8</ele>
        <time>2021-01-05T09:08:49Z</time>
      </trkpt>
      <trkpt lat="45.47412" lon="6.8882">
        <ele>2421.8</ele>
        <time>2021-01-05T09:08:50Z</time>
      </trkpt>
      <trkpt lat="45.47403" lon="6.88818">
        <ele>2421.8</ele>
        <time>2021-01-05T09:08:51Z</time>
      </trkpt>
      <trkpt lat="45.47395" lon="6.88817">
        <ele>2421.8</ele>
        <time>2021-01-05T09:08:52Z</time>
      </trkpt>
      <trkpt lat="45.47387" lon="6.88815">
        <ele>2421.8</ele>
        <time>2021-01-05T09:08:53Z</time>
      </trkpt>
      <trkpt lat="45.4738" lon="6.88812">
        <ele>2421.8</ele>
        <time>2021-01-05T09:08:54Z</time>
      </trkpt>
      <trkpt lat="45.47373" lon="6.8881">
        <ele>2421.8</ele>
        <time>2021-01-05T09:08:55Z</time>
      </trkpt>
      <trkpt lat="45.47368" lon="6.88807">
        <ele>2421.8</ele>
        <time>2021-01-05T09:08:56Z</time>
      </trkpt>
      <trkpt lat="45.47364" lon="6.88805">
        <ele>2421.8</ele>
        <time>2021-01-05T09:08:57Z</time>
      </trkpt>
      <trkpt lat="45.4736" lon="6.88803">
        <ele>2408.4</ele>
        <time>2021-01-05T09:08:58Z</time>
      </trkpt>
      <trkpt lat="45.47357" lon="6.888">
        <ele>2408.4</ele>
        <time>2021-01-05T09:08:59Z</time>
      </trkpt>
      <trkpt lat="45.47353" lon="6.88798">
        <ele>2408.4</ele>
        <time>2021-01-05T09:09:00Z</time>
      </trkpt>
      <trkpt lat="45.47349" lon="6.88796">
        <ele>2408.4</ele>
        <time>2021-01-05T09:09:01Z</time>
      </trkpt>
      <trkpt lat="45.47345" lon="6.88795">
        <ele>2408.4</ele>
        <time>2021-01-05T09:09:02Z</time>
      </trkpt>
      <trkpt lat="45.47341" lon="6.88794">
        <ele>2408.4</ele>
        <time>2021-01-05T09:09:03Z</time>
      </trkpt>
      <trkpt lat="45.47339" lon="6.88793">
        <ele>2408.4</ele>
        <time>2021-01-05T09:09:04Z</time>
      </trkpt>
      <trkpt lat="45.47335" lon="6.88792">
        <ele>2408.4</ele>
        <time>2021-01-05T09:09:05Z</time>
      </trkpt>
      <trkpt lat="45.47332" lon="6.88792">
        <ele>2408.4</ele>
        <time>2021-01-05T09:09:06Z</time>
      </trkpt>
      <trkpt lat="45.47329" lon="6.88792">
        <ele>2408.4</ele>
        <time>2021-01-05T09:09:07Z</time>
      </trkpt>
      <trkpt lat="45.47326" lon="6.88793">
        <ele>2404.8</ele>
        <time>2021-01-05T09:09:08Z</time>
      </trkpt>
      <trkpt lat="45.47324" lon="6.88793">
        <ele>2404.8</ele>
        <time>2021-01-05T09:09:09Z</time>
      </trkpt>
      <trkpt lat="45.47321" lon="6.88793">
        <ele>2404.8</ele>
        <time>2021-01-05T09:09:10Z</time>
      </trkpt>
      <trkpt lat="45.47317" lon="6.88794">
        <ele>2404.8</ele>
        <time>2021-01-05T09:09:11Z</time>
      </trkpt>
      <trkpt lat="45.47315" lon="6.88794">
        <ele>2404.8</ele>
        <time>2021-01-05T09:09:12Z</time>
      </trkpt>
      <trkpt lat="45.47312" lon="6.88795">
        <ele>2404.8</ele>
        <time>2021-01-05T09:09:13Z</time>
      </trkpt>
      <trkpt lat="45.4731" lon="6.88795">
        <ele>2404.8</ele>
        <time>2021-01-05T09:09:14Z</time>
      </trkpt>
      <trkpt lat="45.47307" lon="6.88795">
        <ele>2404.8</ele>
        <time>2021-01-05T09:09:15Z</time>
      </trkpt>
      <trkpt lat="45.47305" lon="6.88795">
        <ele>2404.8</ele>
        <time>2021-01-05T09:09:16Z</time>
      </trkpt>
      <trkpt lat="45.47303" lon="6.88795">
        <ele>2404.8</ele>
        <time>2021-01-05T09:09:17Z</time>
      </trkpt>
      <trkpt lat="45.47301" lon="6.88795">
        <ele>2402.4</ele>
        <time>2021-01-05T09:09:18Z</time>
      </trkpt>
      <trkpt lat="45.47299" lon="6.88794">
        <ele>2402.4</ele>
        <time>2021-01-05T09:09:19Z</time>
      </trkpt>
      <trkpt lat="45.47296" lon="6.88794">
        <ele>2402.4</ele>
        <time>2021-01-05T09:09:20Z</time>
      </trkpt>
      <trkpt lat="45.47294" lon="6.88794">
        <ele>2402.4</ele>
        <time>2021-01-05T09:09:21Z</time>
      </trkpt>
      <trkpt lat="45.47291" lon="6.88794">
        <ele>2402.4</ele>
        <time>2021-01-05T09:09:22Z</time>
      </trkpt>
      <trkpt lat="45.47289" lon="6.88794">
        <ele>2402.4</ele>
        <time>2021-01-05T09:09:23Z</time>
      </trkpt>
      <trkpt lat="45.47286" lon="6.88794">
        <ele>2402.4</ele>
        <time>2021-01-05T09:09:24Z</time>
      </trkpt>
      <trkpt lat="45.47284" lon="6.88793">
        <ele>2402.4</ele>
        <time>2021-01-05T09:09:25Z</time>
      </trkpt>
      <trkpt lat="45.47281" lon="6.88793">
        <ele>2402.4</ele>
        <time>2021-01-05T09:09:26Z</time>
      </trkpt>
      <trkpt lat="45.47277" lon="6.88793">
        <ele>2402.4</ele>
        <time>2021-01-05T09:09:27Z</time>
      </trkpt>
      <trkpt lat="45.47274" lon="6.88792">
        <ele>2403.2</ele>
        <time>2021-01-05T09:09:28Z</time>
      </trkpt>
      <trkpt lat="45.47271" lon="6.88792">
        <ele>2403.2</ele>
        <time>2021-01-05T09:09:29Z</time>
      </trkpt>
      <trkpt lat="45.47268" lon="6.8879">
        <ele>2403.2</ele>
        <time>2021-01-05T09:09:30Z</time>
      </trkpt>
      <trkpt lat="45.47265" lon="6.88789">
        <ele>2403.2</ele>
        <time>2021-01-05T09:09:31Z</time>
      </trkpt>
      <trkpt lat="45.47261" lon="6.88788">
        <ele>2403.2</ele>
        <time>2021-01-05T09:09:32Z</time>
      </trkpt>
      <trkpt lat="45.47258" lon="6.88787">
        <ele>2403.2</ele>
        <time>2021-01-05T09:09:33Z</time>
      </trkpt>
      <trkpt lat="45.47255" lon="6.88786">
        <ele>2403.2</ele>
        <time>2021-01-05T09:09:34Z</time>
      </trkpt>
      <trkpt lat="45.47251" lon="6.88784">
        <ele>2403.2</ele>
        <time>2021-01-05T09:09:35Z</time>
      </trkpt>
      <trkpt lat="45.47248" lon="6.88783">
        <ele>2403.2</ele>
        <time>2021-01-05T09:09:36Z</time>
      </trkpt>
      <trkpt lat="45.47244" lon="6.88782">
        <ele>2403.2</ele>
        <time>2021-01-05T09:09:37Z</time>
      </trkpt>
      <trkpt lat="45.4724" lon="6.8878">
        <ele>2399.2</ele>
        <time>2021-01-05T09:09:38Z</time>
      </trkpt>
      <trkpt lat="45.47236" lon="6.88778">
        <ele>2399.2</ele>
        <time>2021-01-05T09:09:39Z</time>
      </trkpt>
      <trkpt lat="45.47232" lon="6.88777">
        <ele>2399.2</ele>
        <time>2021-01-05T09:09:40Z</time>
      </trkpt>
      <trkpt lat="45.47227" lon="6.88776">
        <ele>2399.2</ele>
        <time>2021-01-05T09:09:41Z</time>
      </trkpt>
      <trkpt lat="45.47222" lon="6.88775">
        <ele>2399.2</ele>
        <time>2021-01-05T09:09:42Z</time>
      </trkpt>
      <trkpt lat="45.47216" lon="6.88775">
        <ele>2399.2</ele>
        <time>2021-01-05T09:09:43Z</time>
      </trkpt>
      <trkpt lat="45.47212" lon="6.88774">
        <ele>2399.2</ele>
        <time>2021-01-05T09:09:44Z</time>
      </trkpt>
      <trkpt lat="45.47206" lon="6.88774">
        <ele>2399.2</ele>
        <time>2021-01-05T09:09:45Z</time>
      </trkpt>
      <trkpt lat="45.47202" lon="6.88775">
        <ele>2399.2</ele>
        <time>2021-01-05T09:09:46Z</time>
      </trkpt>
      <trkpt lat="45.47198" lon="6.88776">
        <ele>2399.2</ele>
        <time>2021-01-05T09:09:47Z</time>
      </trkpt>
      <trkpt lat="45.47194" lon="6.88778">
        <ele>2396.4</ele>
        <time>2021-01-05T09:09:48Z</time>
      </trkpt>
      <trkpt lat="45.47191" lon="6.8878">
        <ele>2396.4</ele>
        <time>2021-01-05T09:09:49Z</time>
      </trkpt>
      <trkpt lat="45.47188" lon="6.88782">
        <ele>2396.4</ele>
        <time>2021-01-05T09:09:50Z</time>
      </trkpt>
      <trkpt lat="45.47184" lon="6.88785">
        <ele>2396.4</ele>
        <time>2021-01-05T09:09:51Z</time>
      </trkpt>
      <trkpt lat="45.4718" lon="6.88789">
        <ele>2396.4</ele>
        <time>2021-01-05T09:09:52Z</time>
      </trkpt>
      <trkpt lat="45.47177" lon="6.88792">
        <ele>2396.4</ele>
        <time>2021-01-05T09:09:53Z</time>
      </trkpt>
      <trkpt lat="45.47174" lon="6.88795">
        <ele>2396.4</ele>
        <time>2021-01-05T09:09:54Z</time>
      </trkpt>
      <trkpt lat="45.4717" lon="6.88799">
        <ele>2396.4</ele>
        <time>2021-01-05T09:09:55Z</time>
      </trkpt>
      <trkpt lat="45.47166" lon="6.88802">
        <ele>2396.4</ele>
        <time>2021-01-05T09:09:56Z</time>
      </trkpt>
      <trkpt lat="45.47162" lon="6.88805">
        <ele>2396.4</ele>
        <time>2021-01-05T09:09:57Z</time>
      </trkpt>
      <trkpt lat="45.47159" lon="6.88808">
        <ele>2393.2</ele>
        <time>2021-01-05T09:09:58Z</time>
      </trkpt>
      <trkpt lat="45.47155" lon="6.8881">
        <ele>2393.2</ele>
        <time>2021-01-05T09:09:59Z</time>
      </trkpt>
      <trkpt lat="45.47151" lon="6.88813">
        <ele>2393.2</ele>
        <time>2021-01-05T09:10:00Z</time>
      </trkpt>
      <trkpt lat="45.47147" lon="6.88815">
        <ele>2393.2</ele>
        <time>2021-01-05T09:10:01Z</time>
      </trkpt>
      <trkpt lat="45.47142" lon="6.88816">
        <ele>2393.2</ele>
        <time>2021-01-05T09:10:02Z</time>
      </trkpt>
      <trkpt lat="45.47138" lon="6.88817">
        <ele>2393.2</ele>
        <time>2021-01-05T09:10:03Z</time>
      </trkpt>
      <trkpt lat="45.47134" lon="6.88817">
        <ele>2393.2</ele>
        <time>2021-01-05T09:10:04Z</time>
      </trkpt>
      <trkpt lat="45.4713" lon="6.88816">
        <ele>2393.2</ele>
        <time>2021-01-05T09:10:05Z</time>
      </trkpt>
      <trkpt lat="45.47125" lon="6.88814">
        <ele>2393.2</ele>
        <time>2021-01-05T09:10:06Z</time>
      </trkpt>
      <trkpt lat="45.47121" lon="6.88812">
        <ele>2393.2</ele>
        <time>2021-01-05T09:10:07Z</time>
      </trkpt>
      <trkpt lat="45.47117" lon="6.8881">
        <ele>2389.4</ele>
        <time>2021-01-05T09:10:08Z</time>
      </trkpt>
      <trkpt lat="45.47113" lon="6.88807">
        <ele>2389.4</ele>
        <time>2021-01-05T09:10:09Z</time>
      </trkpt>
      <trkpt lat="45.4711" lon="6.88805">
        <ele>2389.4</ele>
        <time>2021-01-05T09:10:10Z</time>
      </trkpt>
      <trkpt lat="45.47105" lon="6.88803">
        <ele>2389.4</ele>
        <time>2021-01-05T09:10:11Z</time>
      </trkpt>
      <trkpt lat="45.47101" lon="6.88801">
        <ele>2389.4</ele>
        <time>2021-01-05T09:10:12Z</time>
      </trkpt>
      <trkpt lat="45.47097" lon="6.88801">
        <ele>2389.4</ele>
        <time>2021-01-05T09:10:13Z</time>
      </trkpt>
      <trkpt lat="45.47093" lon="6.88801">
        <ele>2389.4</ele>
        <time>2021-01-05T09:10:14Z</time>
      </trkpt>
      <trkpt lat="45.47089" lon="6.88802">
        <ele>2389.4</ele>
        <time>2021-01-05T09:10:15Z</time>
      </trkpt>
      <trkpt lat="45.47085" lon="6.88804">
        <ele>2389.4</ele>
        <time>2021-01-05T09:10:16Z</time>
      </trkpt>
      <trkpt lat="45.47081" lon="6.88806">
        <ele>2389.4</ele>
        <time>2021-01-05T09:10:17Z</time>
      </trkpt>
      <trkpt lat="45.47078" lon="6.88809">
        <ele>2385.6</ele>
        <time>2021-01-05T09:10:18Z</time>
      </trkpt>
      <trkpt lat="45.47075" lon="6.88812">
        <ele>2385.6</ele>
        <time>2021-01-05T09:10:19Z</time>
      </trkpt>
      <trkpt lat="45.47072" lon="6.88814">
        <ele>2385.6</ele>
        <time>2021-01-05T09:10:20Z</time>
      </trkpt>
      <trkpt lat="45.47069" lon="6.88815">
        <ele>2385.6</ele>
        <time>2021-01-05T09:10:21Z</time>
      </trkpt>
      <trkpt lat="45.47067" lon="6.88817">
        <ele>2385.6</ele>
        <time>2021-01-05T09:10:22Z</time>
      </trkpt>
      <trkpt lat="45.47063" lon="6.8882">
        <ele>2385.6</ele>
        <time>2021-01-05T09:10:23Z</time>
      </trkpt>
      <trkpt lat="45.47061" lon="6.88822">
        <ele>2385.6</ele>
        <time>2021-01-05T09:10:24Z</time>
      </trkpt>
      <trkpt lat="45.47059" lon="6.88825">
        <ele>2385.6</ele>
        <time>2021-01-05T09:10:25Z</time>
      </trkpt>
      <trkpt lat="45.47055" lon="6.88829">
        <ele>2385.6</ele>
        <time>2021-01-05T09:10:26Z</time>
      </trkpt>
      <trkpt lat="45.47053" lon="6.88832">
        <ele>2385.6</ele>
        <time>2021-01-05T09:10:27Z</time>
      </trkpt>
      <trkpt lat="45.4705" lon="6.88835">
        <ele>2382.6</ele>
        <time>2021-01-05T09:10:28Z</time>
      </trkpt>
      <trkpt lat="45.47048" lon="6.88839">
        <ele>2382.6</ele>
        <time>2021-01-05T09:10:29Z</time>
      </trkpt>
      <trkpt lat="45.47045" lon="6.88842">
        <ele>2382.6</ele>
        <time>2021-01-05T09:10:30Z</time>
      </trkpt>
      <trkpt lat="45.47043" lon="6.88845">
        <ele>2382.6</ele>
        <time>2021-01-05T09:10:31Z</time>
      </trkpt>
      <trkpt lat="45.47041" lon="6.88848">
        <ele>2382.6</ele>
        <time>2021-01-05T09:10:32Z</time>
      </trkpt>
      <trkpt lat="45.47039" lon="6.8885">
        <ele>2382.6</ele>
        <time>2021-01-05T09:10:33Z</time>
      </trkpt>
      <trkpt lat="45.47037" lon="6.88853">
        <ele>2382.6</ele>
        <time>2021-01-05T09:10:34Z</time>
      </trkpt>
      <trkpt lat="45.47035" lon="6.88855">
        <ele>2382.6</ele>
        <time>2021-01-05T09:10:35Z</time>
      </trkpt>
      <trkpt lat="45.47032" lon="6.88857">
        <ele>2382.6</ele>
        <time>2021-01-05T09:10:36Z</time>
      </trkpt>
      <trkpt lat="45.47029" lon="6.8886">
        <ele>2382.6</ele>
        <time>2021-01-05T09:10:37Z</time>
      </trkpt>
      <trkpt lat="45.47026" lon="6.88862">
        <ele>2380.6</ele>
        <time>2021-01-05T09:10:38Z</time>
      </trkpt>
      <trkpt lat="45.47023" lon="6.88864">
        <ele>2380.6</ele>
        <time>2021-01-05T09:10:39Z</time>
      </trkpt>
      <trkpt lat="45.4702" lon="6.88867">
        <ele>2380.6</ele>
        <time>2021-01-05T09:10:40Z</time>
      </trkpt>
      <trkpt lat="45.47016" lon="6.88869">
        <ele>2380.6</ele>
        <time>2021-01-05T09:10:41Z</time>
      </trkpt>
      <trkpt lat="45.47013" lon="6.88871">
        <ele>2380.6</ele>
        <time>2021-01-05T09:10:42Z</time>
      </trkpt>
      <trkpt lat="45.47009" lon="6.88874">
        <ele>2380.6</ele>
        <time>2021-01-05T09:10:43Z</time>
      </trkpt>
      <trkpt lat="45.47005" lon="6.88876">
        <ele>2380.6</ele>
        <time>2021-01-05T09:10:44Z</time>
      </trkpt>
      <trkpt lat="45.47002" lon="6.88878">
        <ele>2380.6</ele>
        <time>2021-01-05T09:10:45Z</time>
      </trkpt>
      <trkpt lat="45.46999" lon="6.8888">
        <ele>2380.6</ele>
        <time>2021-01-05T09:10:46Z</time>
      </trkpt>
      <trkpt lat="45.46995" lon="6.88882">
        <ele>2380.6</ele>
        <time>2021-01-05T09:10:47Z</time>
      </trkpt>
      <trkpt lat="45.46992" lon="6.88884">
        <ele>2377</ele>
        <time>2021-01-05T09:10:48Z</time>
      </trkpt>
      <trkpt lat="45.46989" lon="6.88885">
        <ele>2377</ele>
        <time>2021-01-05T09:10:49Z</time>
      </trkpt>
      <trkpt lat="45.46986" lon="6.88886">
        <ele>2377</ele>
        <time>2021-01-05T09:10:50Z</time>
      </trkpt>
      <trkpt lat="45.46983" lon="6.88888">
        <ele>2377</ele>
        <time>2021-01-05T09:10:51Z</time>
      </trkpt>
      <trkpt lat="45.4698" lon="6.88889">
        <ele>2377</ele>
        <time>2021-01-05T09:10:52Z</time>
      </trkpt>
      <trkpt lat="45.46975" lon="6.8889">
        <ele>2377</ele>
        <time>2021-01-05T09:10:53Z</time>
      </trkpt>
      <trkpt lat="45.46972" lon="6.88891">
        <ele>2377</ele>
        <time>2021-01-05T09:10:54Z</time>
      </trkpt>
      <trkpt lat="45.46969" lon="6.8889">
        <ele>2377</ele>
        <time>2021-01-05T09:10:55Z</time>
      </trkpt>
      <trkpt lat="45.46966" lon="6.8889">
        <ele>2377</ele>
        <time>2021-01-05T09:10:56Z</time>
      </trkpt>
      <trkpt lat="45.46963" lon="6.88889">
        <ele>2377</ele>
        <time>2021-01-05T09:10:57Z</time>
      </trkpt>
      <trkpt lat="45.46959" lon="6.88889">
        <ele>2373.2</ele>
        <time>2021-01-05T09:10:58Z</time>
      </trkpt>
      <trkpt lat="45.46956" lon="6.88888">
        <ele>2373.2</ele>
        <time>2021-01-05T09:10:59Z</time>
      </trkpt>
      <trkpt lat="45.46952" lon="6.88886">
        <ele>2373.2</ele>
        <time>2021-01-05T09:11:00Z</time>
      </trkpt>
      <trkpt lat="45.46948" lon="6.88884">
        <ele>2373.2</ele>
        <time>2021-01-05T09:11:01Z</time>
      </trkpt>
      <trkpt lat="45.46944" lon="6.88883">
        <ele>2373.2</ele>
        <time>2021-01-05T09:11:02Z</time>
      </trkpt>
      <trkpt lat="45.46941" lon="6.88882">
        <ele>2373.2</ele>
        <time>2021-01-05T09:11:03Z</time>
      </trkpt>
      <trkpt lat="45.46938" lon="6.8888">
        <ele>2373.2</ele>
        <time>2021-01-05T09:11:04Z</time>
      </trkpt>
      <trkpt lat="45.46934" lon="6.8888">
        <ele>2373.2</ele>
        <time>2021-01-05T09:11:05Z</time>
      </trkpt>
      <trkpt lat="45.46931" lon="6.88878">
        <ele>2373.2</ele>
        <time>2021-01-05T09:11:06Z</time>
      </trkpt>
      <trkpt lat="45.46928" lon="6.88877">
        <ele>2373.2</ele>
        <time>2021-01-05T09:11:07Z</time>
      </trkpt>
      <trkpt lat="45.46924" lon="6.88875">
        <ele>2369.4</ele>
        <time>2021-01-05T09:11:08Z</time>
      </trkpt>
      <trkpt lat="45.46922" lon="6.88874">
        <ele>2369.4</ele>
        <time>2021-01-05T09:11:09Z</time>
      </trkpt>
      <trkpt lat="45.46919" lon="6.88873">
        <ele>2369.4</ele>
        <time>2021-01-05T09:11:10Z</time>
      </trkpt>
      <trkpt lat="45.46916" lon="6.88872">
        <ele>2369.4</ele>
        <time>2021-01-05T09:11:11Z</time>
      </trkpt>
      <trkpt lat="45.46914" lon="6.8887">
        <ele>2369.4</ele>
        <time>2021-01-05T09:11:12Z</time>
      </trkpt>
      <trkpt lat="45.4691" lon="6.88869">
        <ele>2369.4</ele>
        <time>2021-01-05T09:11:13Z</time>
      </trkpt>
      <trkpt lat="45.46907" lon="6.88867">
        <ele>2369.4</ele>
        <time>2021-01-05T09:11:14Z</time>
      </trkpt>
      <trkpt lat="45.46904" lon="6.88866">
        <ele>2369.4</ele>
        <time>2021-01-05T09:11:15Z</time>
      </trkpt>
      <trkpt lat="45.469" lon="6.88865">
        <ele>2369.4</ele>
        <time>2021-01-05T09:11:16Z</time>
      </trkpt>
      <trkpt lat="45.46896" lon="6.88864">
        <ele>2369.4</ele>
        <time>2021-01-05T09:11:17Z</time>
      </trkpt>
      <trkpt lat="45.46892" lon="6.88862">
        <ele>2366.6</ele>
        <time>2021-01-05T09:11:18Z</time>
      </trkpt>
      <trkpt lat="45.46888" lon="6.88861">
        <ele>2366.6</ele>
        <time>2021-01-05T09:11:19Z</time>
      </trkpt>
      <trkpt lat="45.46884" lon="6.8886">
        <ele>2366.6</ele>
        <time>2021-01-05T09:11:20Z</time>
      </trkpt>
      <trkpt lat="45.4688" lon="6.8886">
        <ele>2366.6</ele>
        <time>2021-01-05T09:11:21Z</time>
      </trkpt>
      <trkpt lat="45.46876" lon="6.88859">
        <ele>2366.6</ele>
        <time>2021-01-05T09:11:22Z</time>
      </trkpt>
      <trkpt lat="45.46872" lon="6.88859">
        <ele>2366.6</ele>
        <time>2021-01-05T09:11:23Z</time>
      </trkpt>
      <trkpt lat="45.46868" lon="6.88859">
        <ele>2366.6</ele>
        <time>2021-01-05T09:11:24Z</time>
      </trkpt>
      <trkpt lat="45.46864" lon="6.88858">
        <ele>2366.6</ele>
        <time>2021-01-05T09:11:25Z</time>
      </trkpt>
      <trkpt lat="45.4686" lon="6.88858">
        <ele>2366.6</ele>
        <time>2021-01-05T09:11:26Z</time>
      </trkpt>
      <trkpt lat="45.46856" lon="6.88858">
        <ele>2366.6</ele>
        <time>2021-01-05T09:11:27Z</time>
      </trkpt>
      <trkpt lat="45.46851" lon="6.88858">
        <ele>2364</ele>
        <time>2021-01-05T09:11:28Z</time>
      </trkpt>
      <trkpt lat="45.46847" lon="6.88857">
        <ele>2364</ele>
        <time>2021-01-05T09:11:29Z</time>
      </trkpt>
      <trkpt lat="45.46843" lon="6.88856">
        <ele>2364</ele>
        <time>2021-01-05T09:11:30Z</time>
      </trkpt>
      <trkpt lat="45.46839" lon="6.88856">
        <ele>2364</ele>
        <time>2021-01-05T09:11:31Z</time>
      </trkpt>
      <trkpt lat="45.46835" lon="6.88855">
        <ele>2364</ele>
        <time>2021-01-05T09:11:32Z</time>
      </trkpt>
      <trkpt lat="45.46831" lon="6.88854">
        <ele>2364</ele>
        <time>2021-01-05T09:11:33Z</time>
      </trkpt>
      <trkpt lat="45.46827" lon="6.88854">
        <ele>2364</ele>
        <time>2021-01-05T09:11:34Z</time>
      </trkpt>
      <trkpt lat="45.46823" lon="6.88853">
        <ele>2364</ele>
        <time>2021-01-05T09:11:35Z</time>
      </trkpt>
      <trkpt lat="45.4682" lon="6.88852">
        <ele>2364</ele>
        <time>2021-01-05T09:11:36Z</time>
      </trkpt>
      <trkpt lat="45.46817" lon="6.88851">
        <ele>2364</ele>
        <time>2021-01-05T09:11:37Z</time>
      </trkpt>
      <trkpt lat="45.46814" lon="6.8885">
        <ele>2363.8</ele>
        <time>2021-01-05T09:11:38Z</time>
      </trkpt>
      <trkpt lat="45.46811" lon="6.8885">
        <ele>2363.8</ele>
        <time>2021-01-05T09:11:39Z</time>
      </trkpt>
      <trkpt lat="45.46808" lon="6.88849">
        <ele>2363.8</ele>
        <time>2021-01-05T09:11:40Z</time>
      </trkpt>
      <trkpt lat="45.46805" lon="6.88848">
        <ele>2363.8</ele>
        <time>2021-01-05T09:11:41Z</time>
      </trkpt>
      <trkpt lat="45.46802" lon="6.88848">
        <ele>2363.8</ele>
        <time>2021-01-05T09:11:42Z</time>
      </trkpt>
      <trkpt lat="45.46799" lon="6.88847">
        <ele>2363.8</ele>
        <time>2021-01-05T09:11:43Z</time>
      </trkpt>
      <trkpt lat="45.46796" lon="6.88846">
        <ele>2363.8</ele>
        <time>2021-01-05T09:11:44Z</time>
      </trkpt>
      <trkpt lat="45.46792" lon="6.88845">
        <ele>2363.8</ele>
        <time>2021-01-05T09:11:45Z</time>
      </trkpt>
      <trkpt lat="45.46788" lon="6.88844">
        <ele>2363.8</ele>
        <time>2021-01-05T09:11:46Z</time>
      </trkpt>
      <trkpt lat="45.46785" lon="6.88843">
        <ele>2363.8</ele>
        <time>2021-01-05T09:11:47Z</time>
      </trkpt>
      <trkpt lat="45.46781" lon="6.88841">
        <ele>2362.6</ele>
        <time>2021-01-05T09:11:48Z</time>
      </trkpt>
      <trkpt lat="45.46777" lon="6.8884">
        <ele>2362.6</ele>
        <time>2021-01-05T09:11:49Z</time>
      </trkpt>
      <trkpt lat="45.46773" lon="6.88839">
        <ele>2362.6</ele>
        <time>2021-01-05T09:11:50Z</time>
      </trkpt>
      <trkpt lat="45.46769" lon="6.88838">
        <ele>2362.6</ele>
        <time>2021-01-05T09:11:51Z</time>
      </trkpt>
      <trkpt lat="45.46766" lon="6.88836">
        <ele>2362.6</ele>
        <time>2021-01-05T09:11:52Z</time>
      </trkpt>
      <trkpt lat="45.46763" lon="6.88834">
        <ele>2362.6</ele>
        <time>2021-01-05T09:11:53Z</time>
      </trkpt>
      <trkpt lat="45.46761" lon="6.88832">
        <ele>2362.6</ele>
        <time>2021-01-05T09:11:54Z</time>
      </trkpt>
      <trkpt lat="45.46759" lon="6.8883">
        <ele>2362.6</ele>
        <time>2021-01-05T09:11:55Z</time>
      </trkpt>
      <trkpt lat="45.46757" lon="6.88827">
        <ele>2362.6</ele>
        <time>2021-01-05T09:11:56Z</time>
      </trkpt>
      <trkpt lat="45.46756" lon="6.88824">
        <ele>2362.6</ele>
        <time>2021-01-05T09:11:57Z</time>
      </trkpt>
      <trkpt lat="45.46755" lon="6.88821">
        <ele>2360.8</ele>
        <time>2021-01-05T09:11:58Z</time>
      </trkpt>
      <trkpt lat="45.46753" lon="6.88818">
        <ele>2360.8</ele>
        <time>2021-01-05T09:11:59Z</time>
      </trkpt>
      <trkpt lat="45.46752" lon="6.88814">
        <ele>2360.8</ele>
        <time>2021-01-05T09:12:00Z</time>
      </trkpt>
      <trkpt lat="45.4675" lon="6.8881">
        <ele>2360.8</ele>
        <time>2021-01-05T09:12:01Z</time>
      </trkpt>
      <trkpt lat="45.46749" lon="6.88806">
        <ele>2360.8</ele>
        <time>2021-01-05T09:12:02Z</time>
      </trkpt>
      <trkpt lat="45.46748" lon="6.88802">
        <ele>2360.8</ele>
        <time>2021-01-05T09:12:03Z</time>
      </trkpt>
      <trkpt lat="45.46747" lon="6.88799">
        <ele>2360.8</ele>
        <time>2021-01-05T09:12:04Z</time>
      </trkpt>
      <trkpt lat="45.46745" lon="6.88796">
        <ele>2360.8</ele>
        <time>2021-01-05T09:12:05Z</time>
      </trkpt>
      <trkpt lat="45.46743" lon="6.88792">
        <ele>2360.8</ele>
        <time>2021-01-05T09:12:06Z</time>
      </trkpt>
      <trkpt lat="45.46741" lon="6.88788">
        <ele>2360.8</ele>
        <time>2021-01-05T09:12:07Z</time>
      </trkpt>
      <trkpt lat="45.46739" lon="6.88785">
        <ele>2360.8</ele>
        <time>2021-01-05T09:12:08Z</time>
      </trkpt>
      <trkpt lat="45.46738" lon="6.88782">
        <ele>2360.8</ele>
        <time>2021-01-05T09:12:09Z</time>
      </trkpt>
      <trkpt lat="45.46735" lon="6.88779">
        <ele>2360.8</ele>
        <time>2021-01-05T09:12:11Z</time>
      </trkpt>
      <trkpt lat="45.46734" lon="6.88777">
        <ele>2360.8</ele>
        <time>2021-01-05T09:12:12Z</time>
      </trkpt>
      <trkpt lat="45.46731" lon="6.88774">
        <ele>2360.8</ele>
        <time>2021-01-05T09:12:14Z</time>
      </trkpt>
      <trkpt lat="45.46729" lon="6.88773">
        <ele>2360.8</ele>
        <time>2021-01-05T09:12:15Z</time>
      </trkpt>
      <trkpt lat="45.46727" lon="6.88772">
        <ele>2360.8</ele>
        <time>2021-01-05T09:12:16Z</time>
      </trkpt>
      <trkpt lat="45.46723" lon="6.8877">
        <ele>2362.6</ele>
        <time>2021-01-05T09:12:18Z</time>
      </trkpt>
      <trkpt lat="45.46721" lon="6.88769">
        <ele>2362.6</ele>
        <time>2021-01-05T09:12:19Z</time>
      </trkpt>
      <trkpt lat="45.46718" lon="6.88768">
        <ele>2362.6</ele>
        <time>2021-01-05T09:12:21Z</time>
      </trkpt>
      <trkpt lat="45.46716" lon="6.88768">
        <ele>2362.6</ele>
        <time>2021-01-05T09:12:29Z</time>
      </trkpt>
      <trkpt lat="45.46713" lon="6.88767">
        <ele>2362.6</ele>
        <time>2021-01-05T09:13:31Z</time>
      </trkpt>
      <trkpt lat="45.4671" lon="6.88766">
        <ele>2362.6</ele>
        <time>2021-01-05T09:13:32Z</time>
      </trkpt>
      <trkpt lat="45.46708" lon="6.88765">
        <ele>2362.6</ele>
        <time>2021-01-05T09:13:33Z</time>
      </trkpt>
      <trkpt lat="45.46705" lon="6.88764">
        <ele>2362.6</ele>
        <time>2021-01-05T09:13:34Z</time>
      </trkpt>
      <trkpt lat="45.46703" lon="6.88763">
        <ele>2362.6</ele>
        <time>2021-01-05T09:13:35Z</time>
      </trkpt>
      <trkpt lat="45.46701" lon="6.88762">
        <ele>2362.6</ele>
        <time>2021-01-05T09:13:36Z</time>
      </trkpt>
      <trkpt lat="45.46698" lon="6.88761">
        <ele>2362.6</ele>
        <time>2021-01-05T09:13:37Z</time>
      </trkpt>
      <trkpt lat="45.46695" lon="6.88759">
        <ele>2364</ele>
        <time>2021-01-05T09:13:38Z</time>
      </trkpt>
      <trkpt lat="45.46692" lon="6.88758">
        <ele>2364</ele>
        <time>2021-01-05T09:13:39Z</time>
      </trkpt>
      <trkpt lat="45.4669" lon="6.88756">
        <ele>2364</ele>
        <time>2021-01-05T09:13:40Z</time>
      </trkpt>
      <trkpt lat="45.46688" lon="6.88755">
        <ele>2364</ele>
        <time>2021-01-05T09:13:41Z</time>
      </trkpt>
      <trkpt lat="45.46686" lon="6.88754">
        <ele>2364</ele>
        <time>2021-01-05T09:13:42Z</time>
      </trkpt>
      <trkpt lat="45.46684" lon="6.88751">
        <ele>2364</ele>
        <time>2021-01-05T09:13:44Z</time>
      </trkpt>
      <trkpt lat="45.46682" lon="6.8875">
        <ele>2364</ele>
        <time>2021-01-05T09:13:45Z</time>
      </trkpt>
      <trkpt lat="45.4668" lon="6.88747">
        <ele>2364</ele>
        <time>2021-01-05T09:13:47Z</time>
      </trkpt>
      <trkpt lat="45.46678" lon="6.88745">
        <ele>2364.6</ele>
        <time>2021-01-05T09:13:48Z</time>
      </trkpt>
      <trkpt lat="45.46676" lon="6.88744">
        <ele>2364.6</ele>
        <time>2021-01-05T09:13:49Z</time>
      </trkpt>
      <trkpt lat="45.46674" lon="6.88742">
        <ele>2364.6</ele>
        <time>2021-01-05T09:13:50Z</time>
      </trkpt>
      <trkpt lat="45.46672" lon="6.88741">
        <ele>2364.6</ele>
        <time>2021-01-05T09:13:51Z</time>
      </trkpt>
      <trkpt lat="45.46669" lon="6.88738">
        <ele>2364.6</ele>
        <time>2021-01-05T09:13:53Z</time>
      </trkpt>
      <trkpt lat="45.46667" lon="6.88735">
        <ele>2364.6</ele>
        <time>2021-01-05T09:13:55Z</time>
      </trkpt>
      <trkpt lat="45.46666" lon="6.88734">
        <ele>2364.6</ele>
        <time>2021-01-05T09:13:56Z</time>
      </trkpt>
      <trkpt lat="45.46664" lon="6.88732">
        <ele>2364.6</ele>
        <time>2021-01-05T09:13:57Z</time>
      </trkpt>
      <trkpt lat="45.46661" lon="6.88728">
        <ele>2364.6</ele>
        <time>2021-01-05T09:13:59Z</time>
      </trkpt>
      <trkpt lat="45.4666" lon="6.88726">
        <ele>2364.6</ele>
        <time>2021-01-05T09:14:00Z</time>
      </trkpt>
      <trkpt lat="45.46658" lon="6.88723">
        <ele>2364.6</ele>
        <time>2021-01-05T09:14:02Z</time>
      </trkpt>
      <trkpt lat="45.46656" lon="6.88722">
        <ele>2364.6</ele>
        <time>2021-01-05T09:14:03Z</time>
      </trkpt>
      <trkpt lat="45.46655" lon="6.88719">
        <ele>2364.6</ele>
        <time>2021-01-05T09:14:04Z</time>
      </trkpt>
      <trkpt lat="45.46653" lon="6.88717">
        <ele>2364.6</ele>
        <time>2021-01-05T09:14:05Z</time>
      </trkpt>
      <trkpt lat="45.46651" lon="6.88714">
        <ele>2364.6</ele>
        <time>2021-01-05T09:14:07Z</time>
      </trkpt>
      <trkpt lat="45.4665" lon="6.88713">
        <ele>2366.6</ele>
        <time>2021-01-05T09:14:08Z</time>
      </trkpt>
      <trkpt lat="45.46647" lon="6.88709">
        <ele>2366.6</ele>
        <time>2021-01-05T09:14:10Z</time>
      </trkpt>
      <trkpt lat="45.46646" lon="6.88707">
        <ele>2366.6</ele>
        <time>2021-01-05T09:14:11Z</time>
      </trkpt>
      <trkpt lat="45.46644" lon="6.88704">
        <ele>2366.6</ele>
        <time>2021-01-05T09:14:13Z</time>
      </trkpt>
      <trkpt lat="45.46642" lon="6.88702">
        <ele>2366.6</ele>
        <time>2021-01-05T09:14:14Z</time>
      </trkpt>
      <trkpt lat="45.4664" lon="6.887">
        <ele>2366.6</ele>
        <time>2021-01-05T09:14:15Z</time>
      </trkpt>
      <trkpt lat="45.46639" lon="6.88698">
        <ele>2366.6</ele>
        <time>2021-01-05T09:14:16Z</time>
      </trkpt>
      <trkpt lat="45.46637" lon="6.88696">
        <ele>2366.6</ele>
        <time>2021-01-05T09:14:17Z</time>
      </trkpt>
      <trkpt lat="45.46636" lon="6.88694">
        <ele>2367.2</ele>
        <time>2021-01-05T09:14:18Z</time>
      </trkpt>
      <trkpt lat="45.46634" lon="6.88692">
        <ele>2367.2</ele>
        <time>2021-01-05T09:14:19Z</time>
      </trkpt>
      <trkpt lat="45.46632" lon="6.8869">
        <ele>2367.2</ele>
        <time>2021-01-05T09:14:20Z</time>
      </trkpt>
      <trkpt lat="45.46631" lon="6.88689">
        <ele>2367.2</ele>
        <time>2021-01-05T09:14:21Z</time>
      </trkpt>
      <trkpt lat="45.46628" lon="6.88686">
        <ele>2367.2</ele>
        <time>2021-01-05T09:14:23Z</time>
      </trkpt>
      <trkpt lat="45.46626" lon="6.88682">
        <ele>2367.2</ele>
        <time>2021-01-05T09:14:25Z</time>
      </trkpt>
      <trkpt lat="45.46624" lon="6.88681">
        <ele>2367.2</ele>
        <time>2021-01-05T09:14:26Z</time>
      </trkpt>
      <trkpt lat="45.46622" lon="6.88679">
        <ele>2367.4</ele>
        <time>2021-01-05T09:14:28Z</time>
      </trkpt>
      <trkpt lat="45.4662" lon="6.88676">
        <ele>2367.4</ele>
        <time>2021-01-05T09:14:30Z</time>
      </trkpt>
      <trkpt lat="45.46617" lon="6.88673">
        <ele>2367.4</ele>
        <time>2021-01-05T09:14:32Z</time>
      </trkpt>
      <trkpt lat="45.46616" lon="6.88671">
        <ele>2367.4</ele>
        <time>2021-01-05T09:14:33Z</time>
      </trkpt>
      <trkpt lat="45.46614" lon="6.88669">
        <ele>2367.4</ele>
        <time>2021-01-05T09:14:34Z</time>
      </trkpt>
      <trkpt lat="45.46612" lon="6.88666">
        <ele>2367.4</ele>
        <time>2021-01-05T09:14:36Z</time>
      </trkpt>
      <trkpt lat="45.46611" lon="6.88665">
        <ele>2367.4</ele>
        <time>2021-01-05T09:14:37Z</time>
      </trkpt>
      <trkpt lat="45.46609" lon="6.88662">
        <ele>2369.4</ele>
        <time>2021-01-05T09:14:38Z</time>
      </trkpt>
      <trkpt lat="45.46608" lon="6.8866">
        <ele>2369.4</ele>
        <time>2021-01-05T09:14:39Z</time>
      </trkpt>
      <trkpt lat="45.46606" lon="6.88658">
        <ele>2369.4</ele>
        <time>2021-01-05T09:14:40Z</time>
      </trkpt>
      <trkpt lat="45.46604" lon="6.88654">
        <ele>2369.4</ele>
        <time>2021-01-05T09:14:42Z</time>
      </trkpt>
      <trkpt lat="45.46602" lon="6.88651">
        <ele>2369.4</ele>
        <time>2021-01-05T09:14:44Z</time>
      </trkpt>
      <trkpt lat="45.46601" lon="6.8865">
        <ele>2369.4</ele>
        <time>2021-01-05T09:14:45Z</time>
      </trkpt>
      <trkpt lat="45.46598" lon="6.88647">
        <ele>2369.4</ele>
        <time>2021-01-05T09:14:47Z</time>
      </trkpt>
      <trkpt lat="45.46596" lon="6.88644">
        <ele>2369.4</ele>
        <time>2021-01-05T09:14:49Z</time>
      </trkpt>
      <trkpt lat="45.46595" lon="6.88643">
        <ele>2369.4</ele>
        <time>2021-01-05T09:14:50Z</time>
      </trkpt>
      <trkpt lat="45.46592" lon="6.8864">
        <ele>2369.4</ele>
        <time>2021-01-05T09:14:52Z</time>
      </trkpt>
      <trkpt lat="45.46591" lon="6.88638">
        <ele>2369.4</ele>
        <time>2021-01-05T09:14:53Z</time>
      </trkpt>
      <trkpt lat="45.46589" lon="6.88636">
        <ele>2369.4</ele>
        <time>2021-01-05T09:14:54Z</time>
      </trkpt>
      <trkpt lat="45.46587" lon="6.88634">
        <ele>2369.4</ele>
        <time>2021-01-05T09:14:56Z</time>
      </trkpt>
      <trkpt lat="45.46584" lon="6.88632">
        <ele>2372.8</ele>
        <time>2021-01-05T09:14:58Z</time>
      </trkpt>
      <trkpt lat="45.46583" lon="6.8863">
        <ele>2372.8</ele>
        <time>2021-01-05T09:14:59Z</time>
      </trkpt>
      <trkpt lat="45.4658" lon="6.88626">
        <ele>2372.8</ele>
        <time>2021-01-05T09:15:01Z</time>
      </trkpt>
      <trkpt lat="45.46578" lon="6.88624">
        <ele>2372.8</ele>
        <time>2021-01-05T09:15:03Z</time>
      </trkpt>
      <trkpt lat="45.46576" lon="6.8862">
        <ele>2372.8</ele>
        <time>2021-01-05T09:15:05Z</time>
      </trkpt>
      <trkpt lat="45.46574" lon="6.88618">
        <ele>2372.8</ele>
        <time>2021-01-05T09:15:06Z</time>
      </trkpt>
      <trkpt lat="45.46572" lon="6.88616">
        <ele>2374</ele>
        <time>2021-01-05T09:15:08Z</time>
      </trkpt>
      <trkpt lat="45.46569" lon="6.88612">
        <ele>2374</ele>
        <time>2021-01-05T09:15:10Z</time>
      </trkpt>
      <trkpt lat="45.46568" lon="6.8861">
        <ele>2374</ele>
        <time>2021-01-05T09:15:11Z</time>
      </trkpt>
      <trkpt lat="45.46566" lon="6.88608">
        <ele>2374</ele>
        <time>2021-01-05T09:15:12Z</time>
      </trkpt>
      <trkpt lat="45.46564" lon="6.88606">
        <ele>2374</ele>
        <time>2021-01-05T09:15:13Z</time>
      </trkpt>
      <trkpt lat="45.46562" lon="6.88603">
        <ele>2374</ele>
        <time>2021-01-05T09:15:15Z</time>
      </trkpt>
      <trkpt lat="45.46559" lon="6.88599">
        <ele>2374</ele>
        <time>2021-01-05T09:15:17Z</time>
      </trkpt>
      <trkpt lat="45.46557" lon="6.88598">
        <ele>2375</ele>
        <time>2021-01-05T09:15:18Z</time>
      </trkpt>
      <trkpt lat="45.46555" lon="6.88595">
        <ele>2375</ele>
        <time>2021-01-05T09:15:20Z</time>
      </trkpt>
      <trkpt lat="45.46552" lon="6.88592">
        <ele>2375</ele>
        <time>2021-01-05T09:15:22Z</time>
      </trkpt>
      <trkpt lat="45.4655" lon="6.88591">
        <ele>2375</ele>
        <time>2021-01-05T09:15:23Z</time>
      </trkpt>
      <trkpt lat="45.46549" lon="6.88589">
        <ele>2375</ele>
        <time>2021-01-05T09:15:24Z</time>
      </trkpt>
      <trkpt lat="45.46547" lon="6.88588">
        <ele>2375</ele>
        <time>2021-01-05T09:15:25Z</time>
      </trkpt>
      <trkpt lat="45.46544" lon="6.88585">
        <ele>2375</ele>
        <time>2021-01-05T09:15:27Z</time>
      </trkpt>
      <trkpt lat="45.46542" lon="6.88584">
        <ele>2376</ele>
        <time>2021-01-05T09:15:28Z</time>
      </trkpt>
      <trkpt lat="45.4654" lon="6.88582">
        <ele>2376</ele>
        <time>2021-01-05T09:15:29Z</time>
      </trkpt>
      <trkpt lat="45.46538" lon="6.8858">
        <ele>2376</ele>
        <time>2021-01-05T09:15:30Z</time>
      </trkpt>
      <trkpt lat="45.46535" lon="6.88578">
        <ele>2376</ele>
        <time>2021-01-05T09:15:32Z</time>
      </trkpt>
      <trkpt lat="45.46533" lon="6.88576">
        <ele>2376</ele>
        <time>2021-01-05T09:15:33Z</time>
      </trkpt>
      <trkpt lat="45.46531" lon="6.88575">
        <ele>2376</ele>
        <time>2021-01-05T09:15:34Z</time>
      </trkpt>
      <trkpt lat="45.46529" lon="6.88574">
        <ele>2376</ele>
        <time>2021-01-05T09:15:35Z</time>
      </trkpt>
      <trkpt lat="45.46527" lon="6.88573">
        <ele>2376</ele>
        <time>2021-01-05T09:15:36Z</time>
      </trkpt>
      <trkpt lat="45.46524" lon="6.88571">
        <ele>2376.6</ele>
        <time>2021-01-05T09:15:38Z</time>
      </trkpt>
      <trkpt lat="45.4652" lon="6.88569">
        <ele>2376.6</ele>
        <time>2021-01-05T09:15:40Z</time>
      </trkpt>
      <trkpt lat="45.46517" lon="6.88568">
        <ele>2376.6</ele>
        <time>2021-01-05T09:15:42Z</time>
      </trkpt>
      <trkpt lat="45.46514" lon="6.88566">
        <ele>2376.6</ele>
        <time>2021-01-05T09:15:44Z</time>
      </trkpt>
      <trkpt lat="45.46512" lon="6.88565">
        <ele>2376.6</ele>
        <time>2021-01-05T09:15:45Z</time>
      </trkpt>
      <trkpt lat="45.4651" lon="6.88564">
        <ele>2376.6</ele>
        <time>2021-01-05T09:15:46Z</time>
      </trkpt>
      <trkpt lat="45.46508" lon="6.88563">
        <ele>2376.6</ele>
        <time>2021-01-05T09:15:48Z</time>
      </trkpt>
      <trkpt lat="45.46505" lon="6.88561">
        <ele>2376.6</ele>
        <time>2021-01-05T09:15:50Z</time>
      </trkpt>
      <trkpt lat="45.46501" lon="6.8856">
        <ele>2376.6</ele>
        <time>2021-01-05T09:15:52Z</time>
      </trkpt>
      <trkpt lat="45.46499" lon="6.88559">
        <ele>2376.6</ele>
        <time>2021-01-05T09:15:54Z</time>
      </trkpt>
      <trkpt lat="45.46496" lon="6.88557">
        <ele>2376.6</ele>
        <time>2021-01-05T09:15:56Z</time>
      </trkpt>
      <trkpt lat="45.46493" lon="6.88556">
        <ele>2378.2</ele>
        <time>2021-01-05T09:15:58Z</time>
      </trkpt>
      <trkpt lat="45.46491" lon="6.88555">
        <ele>2378.2</ele>
        <time>2021-01-05T09:16:00Z</time>
      </trkpt>
      <trkpt lat="45.46489" lon="6.88555">
        <ele>2378.2</ele>
        <time>2021-01-05T09:16:01Z</time>
      </trkpt>
      <trkpt lat="45.46486" lon="6.88554">
        <ele>2378.2</ele>
        <time>2021-01-05T09:16:03Z</time>
      </trkpt>
      <trkpt lat="45.46484" lon="6.88553">
        <ele>2378.2</ele>
        <time>2021-01-05T09:16:05Z</time>
      </trkpt>
      <trkpt lat="45.46481" lon="6.88552">
        <ele>2378.2</ele>
        <time>2021-01-05T09:16:07Z</time>
      </trkpt>
      <trkpt lat="45.46478" lon="6.88551">
        <ele>2378.2</ele>
        <time>2021-01-05T09:16:09Z</time>
      </trkpt>
      <trkpt lat="45.46476" lon="6.88551">
        <ele>2378.2</ele>
        <time>2021-01-05T09:16:11Z</time>
      </trkpt>
      <trkpt lat="45.46473" lon="6.8855">
        <ele>2378.2</ele>
        <time>2021-01-05T09:16:13Z</time>
      </trkpt>
      <trkpt lat="45.46471" lon="6.8855">
        <ele>2378.2</ele>
        <time>2021-01-05T09:16:15Z</time>
      </trkpt>
      <trkpt lat="45.46468" lon="6.88549">
        <ele>2378.2</ele>
        <time>2021-01-05T09:16:17Z</time>
      </trkpt>
      <trkpt lat="45.46467" lon="6.88549">
        <ele>2382.2</ele>
        <time>2021-01-05T09:16:18Z</time>
      </trkpt>
      <trkpt lat="45.46464" lon="6.88548">
        <ele>2382.2</ele>
        <time>2021-01-05T09:16:20Z</time>
      </trkpt>
      <trkpt lat="45.46461" lon="6.88548">
        <ele>2382.2</ele>
        <time>2021-01-05T09:16:22Z</time>
      </trkpt>
      <trkpt lat="45.46459" lon="6.88547">
        <ele>2382.2</ele>
        <time>2021-01-05T09:16:24Z</time>
      </trkpt>
      <trkpt lat="45.46457" lon="6.88546">
        <ele>2382.2</ele>
        <time>2021-01-05T09:16:26Z</time>
      </trkpt>
      <trkpt lat="45.46454" lon="6.88546">
        <ele>2384.4</ele>
        <time>2021-01-05T09:16:28Z</time>
      </trkpt>
      <trkpt lat="45.46452" lon="6.88546">
        <ele>2384.4</ele>
        <time>2021-01-05T09:16:30Z</time>
      </trkpt>
      <trkpt lat="45.4645" lon="6.88545">
        <ele>2384.4</ele>
        <time>2021-01-05T09:16:32Z</time>
      </trkpt>
      <trkpt lat="45.46448" lon="6.88545">
        <ele>2384.4</ele>
        <time>2021-01-05T09:16:34Z</time>
      </trkpt>
      <trkpt lat="45.46446" lon="6.88544">
        <ele>2384.4</ele>
        <time>2021-01-05T09:16:36Z</time>
      </trkpt>
      <trkpt lat="45.46443" lon="6.88544">
        <ele>2387</ele>
        <time>2021-01-05T09:16:38Z</time>
      </trkpt>
      <trkpt lat="45.46441" lon="6.88543">
        <ele>2387</ele>
        <time>2021-01-05T09:16:41Z</time>
      </trkpt>
      <trkpt lat="45.46439" lon="6.88543">
        <ele>2387</ele>
        <time>2021-01-05T09:16:43Z</time>
      </trkpt>
      <trkpt lat="45.46437" lon="6.88542">
        <ele>2387</ele>
        <time>2021-01-05T09:16:45Z</time>
      </trkpt>
      <trkpt lat="45.46435" lon="6.88541">
        <ele>2387</ele>
        <time>2021-01-05T09:16:47Z</time>
      </trkpt>
      <trkpt lat="45.46433" lon="6.8854">
        <ele>2387</ele>
        <time>2021-01-05T09:16:49Z</time>
      </trkpt>
      <trkpt lat="45.4643" lon="6.88539">
        <ele>2387</ele>
        <time>2021-01-05T09:16:52Z</time>
      </trkpt>
      <trkpt lat="45.46428" lon="6.88538">
        <ele>2387</ele>
        <time>2021-01-05T09:16:55Z</time>
      </trkpt>
      <trkpt lat="45.46425" lon="6.88537">
        <ele>2393</ele>
        <time>2021-01-05T09:16:58Z</time>
      </trkpt>
      <trkpt lat="45.46423" lon="6.88535">
        <ele>2393</ele>
        <time>2021-01-05T09:17:00Z</time>
      </trkpt>
      <trkpt lat="45.46422" lon="6.88531">
        <ele>2393</ele>
        <time>2021-01-05T09:17:03Z</time>
      </trkpt>
      <trkpt lat="45.4642" lon="6.88529">
        <ele>2393</ele>
        <time>2021-01-05T09:17:05Z</time>
      </trkpt>
      <trkpt lat="45.46419" lon="6.88527">
        <ele>2396.2</ele>
        <time>2021-01-05T09:17:08Z</time>
      </trkpt>
      <trkpt lat="45.46417" lon="6.88526">
        <ele>2396.2</ele>
        <time>2021-01-05T09:17:11Z</time>
      </trkpt>
      <trkpt lat="45.46415" lon="6.88528">
        <ele>2396.2</ele>
        <time>2021-01-05T09:17:13Z</time>
      </trkpt>
      <trkpt lat="45.46413" lon="6.88529">
        <ele>2396.2</ele>
        <time>2021-01-05T09:17:16Z</time>
      </trkpt>
      <trkpt lat="45.4641" lon="6.8853">
        <ele>2396.2</ele>
        <time>2021-01-05T09:17:19Z</time>
      </trkpt>
      <trkpt lat="45.46408" lon="6.88531">
        <ele>2396.2</ele>
        <time>2021-01-05T09:17:21Z</time>
      </trkpt>
      <trkpt lat="45.46406" lon="6.88533">
        <ele>2396.2</ele>
        <time>2021-01-05T09:17:23Z</time>
      </trkpt>
      <trkpt lat="45.46405" lon="6.88534">
        <ele>2396.2</ele>
        <time>2021-01-05T09:17:25Z</time>
      </trkpt>
      <trkpt lat="45.46402" lon="6.88534">
        <ele>2396.2</ele>
        <time>2021-01-05T09:17:27Z</time>
      </trkpt>
      <trkpt lat="45.464" lon="6.88535">
        <ele>2396.2</ele>
        <time>2021-01-05T09:17:30Z</time>
      </trkpt>
      <trkpt lat="45.46397" lon="6.88536">
        <ele>2396.2</ele>
        <time>2021-01-05T09:17:33Z</time>
      </trkpt>
      <trkpt lat="45.46396" lon="6.88536">
        <ele>2396.2</ele>
        <time>2021-01-05T09:17:35Z</time>
      </trkpt>
      <trkpt lat="45.46394" lon="6.88534">
        <ele>2396.2</ele>
        <time>2021-01-05T09:17:37Z</time>
      </trkpt>
      <trkpt lat="45.46393" lon="6.88531">
        <ele>2396.2</ele>
        <time>2021-01-05T09:17:40Z</time>
      </trkpt>
      <trkpt lat="45.46392" lon="6.88528">
        <ele>2396.2</ele>
        <time>2021-01-05T09:17:42Z</time>
      </trkpt>
      <trkpt lat="45.46391" lon="6.88524">
        <ele>2396.2</ele>
        <time>2021-01-05T09:17:45Z</time>
      </trkpt>
      <trkpt lat="45.4639" lon="6.88522">
        <ele>2396.2</ele>
        <time>2021-01-05T09:17:47Z</time>
      </trkpt>
      <trkpt lat="45.46389" lon="6.88517">
        <ele>2396.2</ele>
        <time>2021-01-05T09:17:50Z</time>
      </trkpt>
      <trkpt lat="45.46388" lon="6.88516">
        <ele>2396.2</ele>
        <time>2021-01-05T09:17:53Z</time>
      </trkpt>
      <trkpt lat="45.46385" lon="6.88516">
        <ele>2396.2</ele>
        <time>2021-01-05T09:17:56Z</time>
      </trkpt>
      <trkpt lat="45.46382" lon="6.88516">
        <ele>2396.2</ele>
        <time>2021-01-05T09:17:59Z</time>
      </trkpt>
      <trkpt lat="45.4638" lon="6.88517">
        <ele>2396.2</ele>
        <time>2021-01-05T09:18:01Z</time>
      </trkpt>
      <trkpt lat="45.46378" lon="6.88517">
        <ele>2396.2</ele>
        <time>2021-01-05T09:18:04Z</time>
      </trkpt>
      <trkpt lat="45.46375" lon="6.88518">
        <ele>2396.2</ele>
        <time>2021-01-05T09:18:07Z</time>
      </trkpt>
      <trkpt lat="45.46373" lon="6.88519">
        <ele>2396.2</ele>
        <time>2021-01-05T09:18:09Z</time>
      </trkpt>
      <trkpt lat="45.46371" lon="6.88519">
        <ele>2396.2</ele>
        <time>2021-01-05T09:18:12Z</time>
      </trkpt>
      <trkpt lat="45.46369" lon="6.88517">
        <ele>2396.2</ele>
        <time>2021-01-05T09:18:14Z</time>
      </trkpt>
      <trkpt lat="45.46367" lon="6.88516">
        <ele>2396.2</ele>
        <time>2021-01-05T09:18:16Z</time>
      </trkpt>
      <trkpt lat="45.46366" lon="6.88514">
        <ele>2416.8</ele>
        <time>2021-01-05T09:18:18Z</time>
      </trkpt>
      <trkpt lat="45.46364" lon="6.8851">
        <ele>2416.8</ele>
        <time>2021-01-05T09:18:21Z</time>
      </trkpt>
      <trkpt lat="45.46363" lon="6.88508">
        <ele>2416.8</ele>
        <time>2021-01-05T09:18:24Z</time>
      </trkpt>
      <trkpt lat="45.46361" lon="6.88504">
        <ele>2416.8</ele>
        <time>2021-01-05T09:18:27Z</time>
      </trkpt>
      <trkpt lat="45.46359" lon="6.88502">
        <ele>2416.8</ele>
        <time>2021-01-05T09:18:30Z</time>
      </trkpt>
      <trkpt lat="45.46358" lon="6.88499">
        <ele>2416.8</ele>
        <time>2021-01-05T09:18:32Z</time>
      </trkpt>
      <trkpt lat="45.46356" lon="6.88496">
        <ele>2416.8</ele>
        <time>2021-01-05T09:18:35Z</time>
      </trkpt>
      <trkpt lat="45.46356" lon="6.88493">
        <ele>2416.8</ele>
        <time>2021-01-05T09:18:37Z</time>
      </trkpt>
      <trkpt lat="45.46355" lon="6.88491">
        <ele>2416.8</ele>
        <time>2021-01-05T09:18:39Z</time>
      </trkpt>
      <trkpt lat="45.46354" lon="6.88488">
        <ele>2416.8</ele>
        <time>2021-01-05T09:18:41Z</time>
      </trkpt>
      <trkpt lat="45.46353" lon="6.88485">
        <ele>2416.8</ele>
        <time>2021-01-05T09:18:43Z</time>
      </trkpt>
      <trkpt lat="45.46352" lon="6.88483">
        <ele>2416.8</ele>
        <time>2021-01-05T09:18:45Z</time>
      </trkpt>
      <trkpt lat="45.46352" lon="6.8848">
        <ele>2426</ele>
        <time>2021-01-05T09:18:48Z</time>
      </trkpt>
      <trkpt lat="45.46351" lon="6.88477">
        <ele>2426</ele>
        <time>2021-01-05T09:18:50Z</time>
      </trkpt>
      <trkpt lat="45.4635" lon="6.88475">
        <ele>2426</ele>
        <time>2021-01-05T09:18:52Z</time>
      </trkpt>
      <trkpt lat="45.46349" lon="6.88472">
        <ele>2426</ele>
        <time>2021-01-05T09:18:54Z</time>
      </trkpt>
      <trkpt lat="45.46348" lon="6.88469">
        <ele>2426</ele>
        <time>2021-01-05T09:18:57Z</time>
      </trkpt>
      <trkpt lat="45.46347" lon="6.88467">
        <ele>2426</ele>
        <time>2021-01-05T09:18:59Z</time>
      </trkpt>
      <trkpt lat="45.46346" lon="6.88464">
        <ele>2426</ele>
        <time>2021-01-05T09:19:02Z</time>
      </trkpt>
      <trkpt lat="45.46344" lon="6.88462">
        <ele>2426</ele>
        <time>2021-01-05T09:19:04Z</time>
      </trkpt>
      <trkpt lat="45.46343" lon="6.88458">
        <ele>2426</ele>
        <time>2021-01-05T09:19:07Z</time>
      </trkpt>
      <trkpt lat="45.46341" lon="6.88456">
        <ele>2426</ele>
        <time>2021-01-05T09:19:09Z</time>
      </trkpt>
      <trkpt lat="45.4634" lon="6.88453">
        <ele>2426</ele>
        <time>2021-01-05T09:19:11Z</time>
      </trkpt>
      <trkpt lat="45.46339" lon="6.88451">
        <ele>2426</ele>
        <time>2021-01-05T09:19:13Z</time>
      </trkpt>
      <trkpt lat="45.46337" lon="6.88448">
        <ele>2426</ele>
        <time>2021-01-05T09:19:16Z</time>
      </trkpt>
      <trkpt lat="45.46335" lon="6.88445">
        <ele>2426</ele>
        <time>2021-01-05T09:19:19Z</time>
      </trkpt>
      <trkpt lat="45.46333" lon="6.88442">
        <ele>2426</ele>
        <time>2021-01-05T09:19:21Z</time>
      </trkpt>
      <trkpt lat="45.46332" lon="6.8844">
        <ele>2426</ele>
        <time>2021-01-05T09:19:23Z</time>
      </trkpt>
      <trkpt lat="45.4633" lon="6.88439">
        <ele>2426</ele>
        <time>2021-01-05T09:19:25Z</time>
      </trkpt>
      <trkpt lat="45.46328" lon="6.88436">
        <ele>2426</ele>
        <time>2021-01-05T09:19:27Z</time>
      </trkpt>
      <trkpt lat="45.46327" lon="6.88434">
        <ele>2426</ele>
        <time>2021-01-05T09:19:29Z</time>
      </trkpt>
      <trkpt lat="45.46325" lon="6.88432">
        <ele>2426</ele>
        <time>2021-01-05T09:19:31Z</time>
      </trkpt>
      <trkpt lat="45.46323" lon="6.88429">
        <ele>2426</ele>
        <time>2021-01-05T09:19:34Z</time>
      </trkpt>
      <trkpt lat="45.46321" lon="6.88426">
        <ele>2426</ele>
        <time>2021-01-05T09:19:36Z</time>
      </trkpt>
      <trkpt lat="45.46319" lon="6.88423">
        <ele>2426</ele>
        <time>2021-01-05T09:19:39Z</time>
      </trkpt>
      <trkpt lat="45.46317" lon="6.8842">
        <ele>2426</ele>
        <time>2021-01-05T09:19:42Z</time>
      </trkpt>
      <trkpt lat="45.46316" lon="6.88418">
        <ele>2426</ele>
        <time>2021-01-05T09:19:44Z</time>
      </trkpt>
      <trkpt lat="45.46314" lon="6.88416">
        <ele>2426</ele>
        <time>2021-01-05T09:19:46Z</time>
      </trkpt>
      <trkpt lat="45.46312" lon="6.88414">
        <ele>2443.4</ele>
        <time>2021-01-05T09:19:48Z</time>
      </trkpt>
      <trkpt lat="45.46311" lon="6.88412">
        <ele>2443.4</ele>
        <time>2021-01-05T09:19:50Z</time>
      </trkpt>
      <trkpt lat="45.46309" lon="6.8841">
        <ele>2443.4</ele>
        <time>2021-01-05T09:19:52Z</time>
      </trkpt>
      <trkpt lat="45.46308" lon="6.88408">
        <ele>2443.4</ele>
        <time>2021-01-05T09:19:54Z</time>
      </trkpt>
      <trkpt lat="45.46307" lon="6.88406">
        <ele>2443.4</ele>
        <time>2021-01-05T09:19:56Z</time>
      </trkpt>
      <trkpt lat="45.46305" lon="6.88404">
        <ele>2445.8</ele>
        <time>2021-01-05T09:19:58Z</time>
      </trkpt>
      <trkpt lat="45.46303" lon="6.88402">
        <ele>2445.8</ele>
        <time>2021-01-05T09:20:01Z</time>
      </trkpt>
      <trkpt lat="45.46302" lon="6.88399">
        <ele>2445.8</ele>
        <time>2021-01-05T09:20:04Z</time>
      </trkpt>
      <trkpt lat="45.463" lon="6.88396">
        <ele>2445.8</ele>
        <time>2021-01-05T09:20:07Z</time>
      </trkpt>
      <trkpt lat="45.46298" lon="6.88393">
        <ele>2445.8</ele>
        <time>2021-01-05T09:20:10Z</time>
      </trkpt>
      <trkpt lat="45.46298" lon="6.8839">
        <ele>2445.8</ele>
        <time>2021-01-05T09:20:12Z</time>
      </trkpt>
      <trkpt lat="45.46296" lon="6.88388">
        <ele>2445.8</ele>
        <time>2021-01-05T09:20:15Z</time>
      </trkpt>
      <trkpt lat="45.46294" lon="6.88386">
        <ele>2445.8</ele>
        <time>2021-01-05T09:20:17Z</time>
      </trkpt>
      <trkpt lat="45.46293" lon="6.88384">
        <ele>2445.8</ele>
        <time>2021-01-05T09:20:19Z</time>
      </trkpt>
      <trkpt lat="45.46291" lon="6.8838">
        <ele>2445.8</ele>
        <time>2021-01-05T09:20:22Z</time>
      </trkpt>
      <trkpt lat="45.4629" lon="6.88377">
        <ele>2445.8</ele>
        <time>2021-01-05T09:20:25Z</time>
      </trkpt>
      <trkpt lat="45.46289" lon="6.88375">
        <ele>2445.8</ele>
        <time>2021-01-05T09:20:27Z</time>
      </trkpt>
      <trkpt lat="45.46288" lon="6.88373">
        <ele>2445.8</ele>
        <time>2021-01-05T09:20:29Z</time>
      </trkpt>
      <trkpt lat="45.46286" lon="6.8837">
        <ele>2445.8</ele>
        <time>2021-01-05T09:20:31Z</time>
      </trkpt>
      <trkpt lat="45.46284" lon="6.88368">
        <ele>2445.8</ele>
        <time>2021-01-05T09:20:33Z</time>
      </trkpt>
      <trkpt lat="45.46283" lon="6.88366">
        <ele>2445.8</ele>
        <time>2021-01-05T09:20:35Z</time>
      </trkpt>
      <trkpt lat="45.46282" lon="6.88364">
        <ele>2445.8</ele>
        <time>2021-01-05T09:20:37Z</time>
      </trkpt>
      <trkpt lat="45.46281" lon="6.88361">
        <ele>2445.8</ele>
        <time>2021-01-05T09:20:39Z</time>
      </trkpt>
      <trkpt lat="45.4628" lon="6.88358">
        <ele>2445.8</ele>
        <time>2021-01-05T09:20:41Z</time>
      </trkpt>
      <trkpt lat="45.46278" lon="6.88356">
        <ele>2445.8</ele>
        <time>2021-01-05T09:20:43Z</time>
      </trkpt>
      <trkpt lat="45.46277" lon="6.88353">
        <ele>2445.8</ele>
        <time>2021-01-05T09:20:45Z</time>
      </trkpt>
      <trkpt lat="45.46276" lon="6.8835">
        <ele>2459.8</ele>
        <time>2021-01-05T09:20:48Z</time>
      </trkpt>
      <trkpt lat="45.46275" lon="6.88347">
        <ele>2459.8</ele>
        <time>2021-01-05T09:20:50Z</time>
      </trkpt>
      <trkpt lat="45.46274" lon="6.88344">
        <ele>2459.8</ele>
        <time>2021-01-05T09:20:52Z</time>
      </trkpt>
      <trkpt lat="45.46273" lon="6.88342">
        <ele>2459.8</ele>
        <time>2021-01-05T09:20:54Z</time>
      </trkpt>
      <trkpt lat="45.46271" lon="6.88338">
        <ele>2459.8</ele>
        <time>2021-01-05T09:20:57Z</time>
      </trkpt>
      <trkpt lat="45.4627" lon="6.88335">
        <ele>2459.8</ele>
        <time>2021-01-05T09:20:59Z</time>
      </trkpt>
      <trkpt lat="45.46268" lon="6.88332">
        <ele>2459.8</ele>
        <time>2021-01-05T09:21:01Z</time>
      </trkpt>
      <trkpt lat="45.46267" lon="6.88329">
        <ele>2459.8</ele>
        <time>2021-01-05T09:21:03Z</time>
      </trkpt>
      <trkpt lat="45.46266" lon="6.88326">
        <ele>2459.8</ele>
        <time>2021-01-05T09:21:05Z</time>
      </trkpt>
      <trkpt lat="45.46265" lon="6.88324">
        <ele>2459.8</ele>
        <time>2021-01-05T09:21:07Z</time>
      </trkpt>
      <trkpt lat="45.46263" lon="6.8832">
        <ele>2459.8</ele>
        <time>2021-01-05T09:21:10Z</time>
      </trkpt>
      <trkpt lat="45.46262" lon="6.88318">
        <ele>2459.8</ele>
        <time>2021-01-05T09:21:13Z</time>
      </trkpt>
      <trkpt lat="45.46261" lon="6.88315">
        <ele>2459.8</ele>
        <time>2021-01-05T09:21:16Z</time>
      </trkpt>
      <trkpt lat="45.4626" lon="6.88312">
        <ele>2468.4</ele>
        <time>2021-01-05T09:21:18Z</time>
      </trkpt>
      <trkpt lat="45.46259" lon="6.88309">
        <ele>2468.4</ele>
        <time>2021-01-05T09:21:20Z</time>
      </trkpt>
      <trkpt lat="45.46258" lon="6.88305">
        <ele>2468.4</ele>
        <time>2021-01-05T09:21:22Z</time>
      </trkpt>
      <trkpt lat="45.46257" lon="6.88303">
        <ele>2468.4</ele>
        <time>2021-01-05T09:21:24Z</time>
      </trkpt>
      <trkpt lat="45.46256" lon="6.883">
        <ele>2468.4</ele>
        <time>2021-01-05T09:21:26Z</time>
      </trkpt>
      <trkpt lat="45.46255" lon="6.88296">
        <ele>2468.4</ele>
        <time>2021-01-05T09:21:29Z</time>
      </trkpt>
      <trkpt lat="45.46254" lon="6.88293">
        <ele>2468.4</ele>
        <time>2021-01-05T09:21:32Z</time>
      </trkpt>
      <trkpt lat="45.46253" lon="6.8829">
        <ele>2468.4</ele>
        <time>2021-01-05T09:21:35Z</time>
      </trkpt>
      <trkpt lat="45.46252" lon="6.88286">
        <ele>2474.6</ele>
        <time>2021-01-05T09:21:38Z</time>
      </trkpt>
      <trkpt lat="45.46251" lon="6.88283">
        <ele>2474.6</ele>
        <time>2021-01-05T09:21:40Z</time>
      </trkpt>
      <trkpt lat="45.4625" lon="6.8828">
        <ele>2474.6</ele>
        <time>2021-01-05T09:21:43Z</time>
      </trkpt>
      <trkpt lat="45.46249" lon="6.88277">
        <ele>2474.6</ele>
        <time>2021-01-05T09:21:46Z</time>
      </trkpt>
      <trkpt lat="45.46249" lon="6.88274">
        <ele>2474.6</ele>
        <time>2021-01-05T09:21:49Z</time>
      </trkpt>
      <trkpt lat="45.46248" lon="6.88271">
        <ele>2474.6</ele>
        <time>2021-01-05T09:21:52Z</time>
      </trkpt>
      <trkpt lat="45.46248" lon="6.88268">
        <ele>2474.6</ele>
        <time>2021-01-05T09:21:55Z</time>
      </trkpt>
      <trkpt lat="45.46249" lon="6.88265">
        <ele>2480.2</ele>
        <time>2021-01-05T09:21:58Z</time>
      </trkpt>
      <trkpt lat="45.46247" lon="6.88263">
        <ele>2480.2</ele>
        <time>2021-01-05T09:22:01Z</time>
      </trkpt>
      <trkpt lat="45.46244" lon="6.88261">
        <ele>2480.2</ele>
        <time>2021-01-05T09:22:03Z</time>
      </trkpt>
      <trkpt lat="45.46243" lon="6.8826">
        <ele>2480.2</ele>
        <time>2021-01-05T09:22:05Z</time>
      </trkpt>
      <trkpt lat="45.46241" lon="6.8826">
        <ele>2480.2</ele>
        <time>2021-01-05T09:22:06Z</time>
      </trkpt>
      <trkpt lat="45.46239" lon="6.88258">
        <ele>2482.6</ele>
        <time>2021-01-05T09:22:08Z</time>
      </trkpt>
      <trkpt lat="45.46237" lon="6.88257">
        <ele>2482.6</ele>
        <time>2021-01-05T09:22:10Z</time>
      </trkpt>
      <trkpt lat="45.46235" lon="6.88254">
        <ele>2482.6</ele>
        <time>2021-01-05T09:22:13Z</time>
      </trkpt>
      <trkpt lat="45.46233" lon="6.88253">
        <ele>2482.6</ele>
        <time>2021-01-05T09:22:15Z</time>
      </trkpt>
      <trkpt lat="45.46231" lon="6.88251">
        <ele>2484.8</ele>
        <time>2021-01-05T09:22:18Z</time>
      </trkpt>
      <trkpt lat="45.46229" lon="6.88248">
        <ele>2484.8</ele>
        <time>2021-01-05T09:22:21Z</time>
      </trkpt>
      <trkpt lat="45.46228" lon="6.88246">
        <ele>2484.8</ele>
        <time>2021-01-05T09:22:23Z</time>
      </trkpt>
      <trkpt lat="45.46227" lon="6.88244">
        <ele>2484.8</ele>
        <time>2021-01-05T09:22:25Z</time>
      </trkpt>
      <trkpt lat="45.46227" lon="6.88241">
        <ele>2484.8</ele>
        <time>2021-01-05T09:22:27Z</time>
      </trkpt>
      <trkpt lat="45.46227" lon="6.88239">
        <ele>2484.8</ele>
        <time>2021-01-05T09:22:29Z</time>
      </trkpt>
      <trkpt lat="45.46227" lon="6.88236">
        <ele>2484.8</ele>
        <time>2021-01-05T09:22:31Z</time>
      </trkpt>
      <trkpt lat="45.46228" lon="6.88233">
        <ele>2484.8</ele>
        <time>2021-01-05T09:22:33Z</time>
      </trkpt>
      <trkpt lat="45.46228" lon="6.8823">
        <ele>2484.8</ele>
        <time>2021-01-05T09:22:35Z</time>
      </trkpt>
      <trkpt lat="45.46228" lon="6.88227">
        <ele>2484.8</ele>
        <time>2021-01-05T09:22:37Z</time>
      </trkpt>
      <trkpt lat="45.46228" lon="6.88225">
        <ele>2484.8</ele>
        <time>2021-01-05T09:22:39Z</time>
      </trkpt>
      <trkpt lat="45.46227" lon="6.88221">
        <ele>2484.8</ele>
        <time>2021-01-05T09:22:42Z</time>
      </trkpt>
      <trkpt lat="45.46228" lon="6.88218">
        <ele>2484.8</ele>
        <time>2021-01-05T09:22:44Z</time>
      </trkpt>
      <trkpt lat="45.46227" lon="6.88216">
        <ele>2484.8</ele>
        <time>2021-01-05T09:22:46Z</time>
      </trkpt>
      <trkpt lat="45.46226" lon="6.88214">
        <ele>2493.4</ele>
        <time>2021-01-05T09:22:48Z</time>
      </trkpt>
      <trkpt lat="45.46225" lon="6.8821">
        <ele>2493.4</ele>
        <time>2021-01-05T09:22:51Z</time>
      </trkpt>
      <trkpt lat="45.46224" lon="6.88206">
        <ele>2493.4</ele>
        <time>2021-01-05T09:22:54Z</time>
      </trkpt>
      <trkpt lat="45.46224" lon="6.88204">
        <ele>2493.4</ele>
        <time>2021-01-05T09:22:56Z</time>
      </trkpt>
      <trkpt lat="45.46224" lon="6.882">
        <ele>2493.4</ele>
        <time>2021-01-05T09:22:59Z</time>
      </trkpt>
      <trkpt lat="45.46223" lon="6.88196">
        <ele>2493.4</ele>
        <time>2021-01-05T09:23:02Z</time>
      </trkpt>
      <trkpt lat="45.46223" lon="6.88193">
        <ele>2493.4</ele>
        <time>2021-01-05T09:23:05Z</time>
      </trkpt>
      <trkpt lat="45.46222" lon="6.8819">
        <ele>2493.4</ele>
        <time>2021-01-05T09:23:07Z</time>
      </trkpt>
      <trkpt lat="45.46222" lon="6.88186">
        <ele>2493.4</ele>
        <time>2021-01-05T09:23:10Z</time>
      </trkpt>
      <trkpt lat="45.46222" lon="6.88182">
        <ele>2493.4</ele>
        <time>2021-01-05T09:23:13Z</time>
      </trkpt>
      <trkpt lat="45.46221" lon="6.8818">
        <ele>2493.4</ele>
        <time>2021-01-05T09:23:15Z</time>
      </trkpt>
      <trkpt lat="45.46221" lon="6.88177">
        <ele>2493.4</ele>
        <time>2021-01-05T09:23:17Z</time>
      </trkpt>
      <trkpt lat="45.46221" lon="6.88174">
        <ele>2493.4</ele>
        <time>2021-01-05T09:23:19Z</time>
      </trkpt>
      <trkpt lat="45.46221" lon="6.8817">
        <ele>2493.4</ele>
        <time>2021-01-05T09:23:21Z</time>
      </trkpt>
      <trkpt lat="45.4622" lon="6.88167">
        <ele>2493.4</ele>
        <time>2021-01-05T09:23:24Z</time>
      </trkpt>
      <trkpt lat="45.4622" lon="6.88164">
        <ele>2493.4</ele>
        <time>2021-01-05T09:23:27Z</time>
      </trkpt>
      <trkpt lat="45.46219" lon="6.8816">
        <ele>2493.4</ele>
        <time>2021-01-05T09:23:30Z</time>
      </trkpt>
      <trkpt lat="45.46219" lon="6.88157">
        <ele>2493.4</ele>
        <time>2021-01-05T09:23:33Z</time>
      </trkpt>
      <trkpt lat="45.46218" lon="6.88154">
        <ele>2493.4</ele>
        <time>2021-01-05T09:23:35Z</time>
      </trkpt>
      <trkpt lat="45.46217" lon="6.88151">
        <ele>2508.2</ele>
        <time>2021-01-05T09:23:38Z</time>
      </trkpt>
      <trkpt lat="45.46216" lon="6.88148">
        <ele>2508.2</ele>
        <time>2021-01-05T09:23:40Z</time>
      </trkpt>
      <trkpt lat="45.46215" lon="6.88146">
        <ele>2508.2</ele>
        <time>2021-01-05T09:23:42Z</time>
      </trkpt>
      <trkpt lat="45.46215" lon="6.88143">
        <ele>2508.2</ele>
        <time>2021-01-05T09:23:45Z</time>
      </trkpt>
      <trkpt lat="45.46214" lon="6.88141">
        <ele>2508.2</ele>
        <time>2021-01-05T09:23:47Z</time>
      </trkpt>
      <trkpt lat="45.46213" lon="6.88138">
        <ele>2508.2</ele>
        <time>2021-01-05T09:23:50Z</time>
      </trkpt>
      <trkpt lat="45.46212" lon="6.88134">
        <ele>2508.2</ele>
        <time>2021-01-05T09:23:53Z</time>
      </trkpt>
      <trkpt lat="45.46212" lon="6.88131">
        <ele>2508.2</ele>
        <time>2021-01-05T09:23:56Z</time>
      </trkpt>
      <trkpt lat="45.4621" lon="6.88129">
        <ele>2514.6</ele>
        <time>2021-01-05T09:23:58Z</time>
      </trkpt>
      <trkpt lat="45.46209" lon="6.88127">
        <ele>2514.6</ele>
        <time>2021-01-05T09:24:00Z</time>
      </trkpt>
      <trkpt lat="45.46208" lon="6.88124">
        <ele>2514.6</ele>
        <time>2021-01-05T09:24:02Z</time>
      </trkpt>
      <trkpt lat="45.46207" lon="6.8812">
        <ele>2514.6</ele>
        <time>2021-01-05T09:24:05Z</time>
      </trkpt>
      <trkpt lat="45.46207" lon="6.88118">
        <ele>2514.6</ele>
        <time>2021-01-05T09:24:07Z</time>
      </trkpt>
      <trkpt lat="45.46207" lon="6.88114">
        <ele>2514.6</ele>
        <time>2021-01-05T09:24:10Z</time>
      </trkpt>
      <trkpt lat="45.46207" lon="6.88111">
        <ele>2514.6</ele>
        <time>2021-01-05T09:24:13Z</time>
      </trkpt>
      <trkpt lat="45.46206" lon="6.88108">
        <ele>2514.6</ele>
        <time>2021-01-05T09:24:15Z</time>
      </trkpt>
      <trkpt lat="45.46206" lon="6.88105">
        <ele>2520</ele>
        <time>2021-01-05T09:24:18Z</time>
      </trkpt>
      <trkpt lat="45.46205" lon="6.88102">
        <ele>2520</ele>
        <time>2021-01-05T09:24:21Z</time>
      </trkpt>
      <trkpt lat="45.46205" lon="6.88099">
        <ele>2520</ele>
        <time>2021-01-05T09:24:23Z</time>
      </trkpt>
      <trkpt lat="45.46205" lon="6.88095">
        <ele>2520</ele>
        <time>2021-01-05T09:24:26Z</time>
      </trkpt>
      <trkpt lat="45.46205" lon="6.88092">
        <ele>2520</ele>
        <time>2021-01-05T09:24:29Z</time>
      </trkpt>
      <trkpt lat="45.46205" lon="6.88088">
        <ele>2520</ele>
        <time>2021-01-05T09:24:31Z</time>
      </trkpt>
      <trkpt lat="45.46205" lon="6.88085">
        <ele>2520</ele>
        <time>2021-01-05T09:24:34Z</time>
      </trkpt>
      <trkpt lat="45.46205" lon="6.88082">
        <ele>2520</ele>
        <time>2021-01-05T09:24:36Z</time>
      </trkpt>
      <trkpt lat="45.46205" lon="6.88078">
        <ele>2520</ele>
        <time>2021-01-05T09:24:39Z</time>
      </trkpt>
      <trkpt lat="45.46204" lon="6.88076">
        <ele>2520</ele>
        <time>2021-01-05T09:24:42Z</time>
      </trkpt>
      <trkpt lat="45.46204" lon="6.88072">
        <ele>2520</ele>
        <time>2021-01-05T09:24:45Z</time>
      </trkpt>
      <trkpt lat="45.46203" lon="6.88069">
        <ele>2520</ele>
        <time>2021-01-05T09:24:47Z</time>
      </trkpt>
      <trkpt lat="45.46203" lon="6.88066">
        <ele>2520</ele>
        <time>2021-01-05T09:24:49Z</time>
      </trkpt>
      <trkpt lat="45.46203" lon="6.88064">
        <ele>2520</ele>
        <time>2021-01-05T09:24:51Z</time>
      </trkpt>
      <trkpt lat="45.46203" lon="6.88061">
        <ele>2520</ele>
        <time>2021-01-05T09:24:53Z</time>
      </trkpt>
      <trkpt lat="45.46204" lon="6.88058">
        <ele>2520</ele>
        <time>2021-01-05T09:24:56Z</time>
      </trkpt>
      <trkpt lat="45.46204" lon="6.88054">
        <ele>2520</ele>
        <time>2021-01-05T09:24:59Z</time>
      </trkpt>
      <trkpt lat="45.46206" lon="6.88051">
        <ele>2520</ele>
        <time>2021-01-05T09:25:02Z</time>
      </trkpt>
      <trkpt lat="45.46207" lon="6.88048">
        <ele>2520</ele>
        <time>2021-01-05T09:25:04Z</time>
      </trkpt>
      <trkpt lat="45.46207" lon="6.88045">
        <ele>2520</ele>
        <time>2021-01-05T09:25:07Z</time>
      </trkpt>
      <trkpt lat="45.46206" lon="6.88042">
        <ele>2520</ele>
        <time>2021-01-05T09:25:10Z</time>
      </trkpt>
      <trkpt lat="45.46205" lon="6.88039">
        <ele>2520</ele>
        <time>2021-01-05T09:25:13Z</time>
      </trkpt>
      <trkpt lat="45.46206" lon="6.88036">
        <ele>2520</ele>
        <time>2021-01-05T09:25:15Z</time>
      </trkpt>
      <trkpt lat="45.46207" lon="6.88032">
        <ele>2536.6</ele>
        <time>2021-01-05T09:25:18Z</time>
      </trkpt>
      <trkpt lat="45.46209" lon="6.8803">
        <ele>2536.6</ele>
        <time>2021-01-05T09:25:20Z</time>
      </trkpt>
      <trkpt lat="45.46209" lon="6.88027">
        <ele>2536.6</ele>
        <time>2021-01-05T09:25:22Z</time>
      </trkpt>
      <trkpt lat="45.4621" lon="6.88025">
        <ele>2536.6</ele>
        <time>2021-01-05T09:25:24Z</time>
      </trkpt>
      <trkpt lat="45.4621" lon="6.88022">
        <ele>2536.6</ele>
        <time>2021-01-05T09:25:27Z</time>
      </trkpt>
      <trkpt lat="45.46209" lon="6.88019">
        <ele>2536.6</ele>
        <time>2021-01-05T09:25:30Z</time>
      </trkpt>
      <trkpt lat="45.46208" lon="6.88016">
        <ele>2536.6</ele>
        <time>2021-01-05T09:25:32Z</time>
      </trkpt>
      <trkpt lat="45.46209" lon="6.88013">
        <ele>2536.6</ele>
        <time>2021-01-05T09:25:34Z</time>
      </trkpt>
      <trkpt lat="45.4621" lon="6.88009">
        <ele>2536.6</ele>
        <time>2021-01-05T09:25:37Z</time>
      </trkpt>
      <trkpt lat="45.46211" lon="6.88006">
        <ele>2536.6</ele>
        <time>2021-01-05T09:25:39Z</time>
      </trkpt>
      <trkpt lat="45.46212" lon="6.88003">
        <ele>2536.6</ele>
        <time>2021-01-05T09:25:42Z</time>
      </trkpt>
      <trkpt lat="45.46212" lon="6.88">
        <ele>2536.6</ele>
        <time>2021-01-05T09:25:44Z</time>
      </trkpt>
      <trkpt lat="45.46212" lon="6.87997">
        <ele>2536.6</ele>
        <time>2021-01-05T09:25:47Z</time>
      </trkpt>
      <trkpt lat="45.46213" lon="6.87993">
        <ele>2536.6</ele>
        <time>2021-01-05T09:25:50Z</time>
      </trkpt>
      <trkpt lat="45.46213" lon="6.8799">
        <ele>2536.6</ele>
        <time>2021-01-05T09:25:52Z</time>
      </trkpt>
      <trkpt lat="45.46213" lon="6.87988">
        <ele>2536.6</ele>
        <time>2021-01-05T09:25:54Z</time>
      </trkpt>
      <trkpt lat="45.46213" lon="6.87985">
        <ele>2536.6</ele>
        <time>2021-01-05T09:25:56Z</time>
      </trkpt>
      <trkpt lat="45.46213" lon="6.87981">
        <ele>2549.2</ele>
        <time>2021-01-05T09:25:58Z</time>
      </trkpt>
      <trkpt lat="45.46214" lon="6.87978">
        <ele>2549.2</ele>
        <time>2021-01-05T09:26:00Z</time>
      </trkpt>
      <trkpt lat="45.46214" lon="6.87975">
        <ele>2549.2</ele>
        <time>2021-01-05T09:26:02Z</time>
      </trkpt>
      <trkpt lat="45.46214" lon="6.87972">
        <ele>2549.2</ele>
        <time>2021-01-05T09:26:04Z</time>
      </trkpt>
      <trkpt lat="45.46215" lon="6.87968">
        <ele>2549.2</ele>
        <time>2021-01-05T09:26:06Z</time>
      </trkpt>
      <trkpt lat="45.46215" lon="6.87965">
        <ele>2551.8</ele>
        <time>2021-01-05T09:26:08Z</time>
      </trkpt>
      <trkpt lat="45.46214" lon="6.87962">
        <ele>2551.8</ele>
        <time>2021-01-05T09:26:10Z</time>
      </trkpt>
      <trkpt lat="45.46215" lon="6.87959">
        <ele>2551.8</ele>
        <time>2021-01-05T09:26:12Z</time>
      </trkpt>
      <trkpt lat="45.46214" lon="6.87955">
        <ele>2551.8</ele>
        <time>2021-01-05T09:26:14Z</time>
      </trkpt>
      <trkpt lat="45.46214" lon="6.87952">
        <ele>2551.8</ele>
        <time>2021-01-05T09:26:16Z</time>
      </trkpt>
      <trkpt lat="45.46213" lon="6.87948">
        <ele>2554.2</ele>
        <time>2021-01-05T09:26:18Z</time>
      </trkpt>
      <trkpt lat="45.46213" lon="6.87945">
        <ele>2554.2</ele>
        <time>2021-01-05T09:26:20Z</time>
      </trkpt>
      <trkpt lat="45.46212" lon="6.87941">
        <ele>2554.2</ele>
        <time>2021-01-05T09:26:22Z</time>
      </trkpt>
      <trkpt lat="45.46212" lon="6.87937">
        <ele>2554.2</ele>
        <time>2021-01-05T09:26:25Z</time>
      </trkpt>
      <trkpt lat="45.46212" lon="6.87934">
        <ele>2554.2</ele>
        <time>2021-01-05T09:26:27Z</time>
      </trkpt>
      <trkpt lat="45.46212" lon="6.8793">
        <ele>2554.2</ele>
        <time>2021-01-05T09:26:29Z</time>
      </trkpt>
      <trkpt lat="45.46211" lon="6.87927">
        <ele>2554.2</ele>
        <time>2021-01-05T09:26:31Z</time>
      </trkpt>
      <trkpt lat="45.4621" lon="6.87924">
        <ele>2554.2</ele>
        <time>2021-01-05T09:26:33Z</time>
      </trkpt>
      <trkpt lat="45.46209" lon="6.8792">
        <ele>2554.2</ele>
        <time>2021-01-05T09:26:36Z</time>
      </trkpt>
      <trkpt lat="45.46209" lon="6.87917">
        <ele>2558</ele>
        <time>2021-01-05T09:26:38Z</time>
      </trkpt>
      <trkpt lat="45.46208" lon="6.87914">
        <ele>2558</ele>
        <time>2021-01-05T09:26:40Z</time>
      </trkpt>
      <trkpt lat="45.46207" lon="6.87912">
        <ele>2558</ele>
        <time>2021-01-05T09:26:43Z</time>
      </trkpt>
      <trkpt lat="45.46207" lon="6.87908">
        <ele>2558</ele>
        <time>2021-01-05T09:26:47Z</time>
      </trkpt>
      <trkpt lat="45.46206" lon="6.87905">
        <ele>2558</ele>
        <time>2021-01-05T09:26:49Z</time>
      </trkpt>
      <trkpt lat="45.46205" lon="6.87902">
        <ele>2558</ele>
        <time>2021-01-05T09:26:51Z</time>
      </trkpt>
      <trkpt lat="45.46204" lon="6.87899">
        <ele>2558</ele>
        <time>2021-01-05T09:26:53Z</time>
      </trkpt>
      <trkpt lat="45.46203" lon="6.87896">
        <ele>2558</ele>
        <time>2021-01-05T09:26:55Z</time>
      </trkpt>
      <trkpt lat="45.46202" lon="6.87894">
        <ele>2558</ele>
        <time>2021-01-05T09:26:57Z</time>
      </trkpt>
      <trkpt lat="45.46201" lon="6.87891">
        <ele>2558</ele>
        <time>2021-01-05T09:26:59Z</time>
      </trkpt>
      <trkpt lat="45.462" lon="6.87887">
        <ele>2558</ele>
        <time>2021-01-05T09:27:02Z</time>
      </trkpt>
      <trkpt lat="45.462" lon="6.87885">
        <ele>2558</ele>
        <time>2021-01-05T09:27:07Z</time>
      </trkpt>
      <trkpt lat="45.46199" lon="6.87882">
        <ele>2558</ele>
        <time>2021-01-05T09:27:09Z</time>
      </trkpt>
      <trkpt lat="45.46198" lon="6.87879">
        <ele>2558</ele>
        <time>2021-01-05T09:27:11Z</time>
      </trkpt>
      <trkpt lat="45.46197" lon="6.87876">
        <ele>2558</ele>
        <time>2021-01-05T09:27:13Z</time>
      </trkpt>
      <trkpt lat="45.46196" lon="6.87873">
        <ele>2558</ele>
        <time>2021-01-05T09:27:15Z</time>
      </trkpt>
      <trkpt lat="45.46195" lon="6.8787">
        <ele>2558</ele>
        <time>2021-01-05T09:27:17Z</time>
      </trkpt>
      <trkpt lat="45.46194" lon="6.87868">
        <ele>2558</ele>
        <time>2021-01-05T09:27:19Z</time>
      </trkpt>
      <trkpt lat="45.46193" lon="6.87865">
        <ele>2558</ele>
        <time>2021-01-05T09:27:21Z</time>
      </trkpt>
      <trkpt lat="45.46191" lon="6.87862">
        <ele>2558</ele>
        <time>2021-01-05T09:27:23Z</time>
      </trkpt>
      <trkpt lat="45.4619" lon="6.87858">
        <ele>2558</ele>
        <time>2021-01-05T09:27:25Z</time>
      </trkpt>
      <trkpt lat="45.46189" lon="6.87855">
        <ele>2558</ele>
        <time>2021-01-05T09:27:27Z</time>
      </trkpt>
      <trkpt lat="45.46189" lon="6.87852">
        <ele>2558</ele>
        <time>2021-01-05T09:27:29Z</time>
      </trkpt>
      <trkpt lat="45.46187" lon="6.87848">
        <ele>2558</ele>
        <time>2021-01-05T09:27:32Z</time>
      </trkpt>
      <trkpt lat="45.46187" lon="6.87846">
        <ele>2558</ele>
        <time>2021-01-05T09:27:34Z</time>
      </trkpt>
      <trkpt lat="45.46185" lon="6.87843">
        <ele>2558</ele>
        <time>2021-01-05T09:27:36Z</time>
      </trkpt>
      <trkpt lat="45.46185" lon="6.87839">
        <ele>2568.4</ele>
        <time>2021-01-05T09:27:38Z</time>
      </trkpt>
      <trkpt lat="45.46183" lon="6.87837">
        <ele>2568.4</ele>
        <time>2021-01-05T09:27:40Z</time>
      </trkpt>
      <trkpt lat="45.46183" lon="6.87834">
        <ele>2568.4</ele>
        <time>2021-01-05T09:27:42Z</time>
      </trkpt>
      <trkpt lat="45.46182" lon="6.87831">
        <ele>2568.4</ele>
        <time>2021-01-05T09:27:44Z</time>
      </trkpt>
      <trkpt lat="45.46182" lon="6.87828">
        <ele>2568.4</ele>
        <time>2021-01-05T09:27:46Z</time>
      </trkpt>
      <trkpt lat="45.46181" lon="6.87824">
        <ele>2568.4</ele>
        <time>2021-01-05T09:27:49Z</time>
      </trkpt>
      <trkpt lat="45.4618" lon="6.8782">
        <ele>2568.4</ele>
        <time>2021-01-05T09:27:52Z</time>
      </trkpt>
      <trkpt lat="45.4618" lon="6.87817">
        <ele>2568.4</ele>
        <time>2021-01-05T09:27:54Z</time>
      </trkpt>
      <trkpt lat="45.46179" lon="6.87814">
        <ele>2568.4</ele>
        <time>2021-01-05T09:27:57Z</time>
      </trkpt>
      <trkpt lat="45.46178" lon="6.8781">
        <ele>2568.4</ele>
        <time>2021-01-05T09:28:00Z</time>
      </trkpt>
      <trkpt lat="45.46177" lon="6.87808">
        <ele>2568.4</ele>
        <time>2021-01-05T09:28:02Z</time>
      </trkpt>
      <trkpt lat="45.46176" lon="6.87806">
        <ele>2568.4</ele>
        <time>2021-01-05T09:28:04Z</time>
      </trkpt>
      <trkpt lat="45.46175" lon="6.87803">
        <ele>2568.4</ele>
        <time>2021-01-05T09:28:06Z</time>
      </trkpt>
      <trkpt lat="45.46174" lon="6.87801">
        <ele>2573.4</ele>
        <time>2021-01-05T09:28:08Z</time>
      </trkpt>
      <trkpt lat="45.46172" lon="6.87798">
        <ele>2573.4</ele>
        <time>2021-01-05T09:28:10Z</time>
      </trkpt>
      <trkpt lat="45.46172" lon="6.87796">
        <ele>2573.4</ele>
        <time>2021-01-05T09:28:12Z</time>
      </trkpt>
      <trkpt lat="45.4617" lon="6.87793">
        <ele>2573.4</ele>
        <time>2021-01-05T09:28:15Z</time>
      </trkpt>
      <trkpt lat="45.46168" lon="6.87791">
        <ele>2573.4</ele>
        <time>2021-01-05T09:28:17Z</time>
      </trkpt>
      <trkpt lat="45.46167" lon="6.87788">
        <ele>2573.4</ele>
        <time>2021-01-05T09:28:19Z</time>
      </trkpt>
      <trkpt lat="45.46166" lon="6.87786">
        <ele>2573.4</ele>
        <time>2021-01-05T09:28:21Z</time>
      </trkpt>
      <trkpt lat="45.46164" lon="6.87783">
        <ele>2573.4</ele>
        <time>2021-01-05T09:28:24Z</time>
      </trkpt>
      <trkpt lat="45.46164" lon="6.87779">
        <ele>2573.4</ele>
        <time>2021-01-05T09:28:27Z</time>
      </trkpt>
      <trkpt lat="45.46163" lon="6.87776">
        <ele>2573.4</ele>
        <time>2021-01-05T09:28:29Z</time>
      </trkpt>
      <trkpt lat="45.46164" lon="6.87772">
        <ele>2573.4</ele>
        <time>2021-01-05T09:28:31Z</time>
      </trkpt>
      <trkpt lat="45.46164" lon="6.87769">
        <ele>2573.4</ele>
        <time>2021-01-05T09:28:33Z</time>
      </trkpt>
      <trkpt lat="45.46163" lon="6.87766">
        <ele>2573.4</ele>
        <time>2021-01-05T09:28:35Z</time>
      </trkpt>
      <trkpt lat="45.46162" lon="6.87764">
        <ele>2573.4</ele>
        <time>2021-01-05T09:28:37Z</time>
      </trkpt>
      <trkpt lat="45.46159" lon="6.87763">
        <ele>2573.4</ele>
        <time>2021-01-05T09:28:40Z</time>
      </trkpt>
      <trkpt lat="45.46158" lon="6.87761">
        <ele>2573.4</ele>
        <time>2021-01-05T09:28:43Z</time>
      </trkpt>
      <trkpt lat="45.46158" lon="6.87758">
        <ele>2573.4</ele>
        <time>2021-01-05T09:28:46Z</time>
      </trkpt>
      <trkpt lat="45.46158" lon="6.87754">
        <ele>2582.8</ele>
        <time>2021-01-05T09:28:48Z</time>
      </trkpt>
      <trkpt lat="45.46159" lon="6.87752">
        <ele>2582.8</ele>
        <time>2021-01-05T09:28:49Z</time>
      </trkpt>
      <trkpt lat="45.46159" lon="6.87749">
        <ele>2582.8</ele>
        <time>2021-01-05T09:28:52Z</time>
      </trkpt>
      <trkpt lat="45.46159" lon="6.87746">
        <ele>2582.8</ele>
        <time>2021-01-05T09:28:55Z</time>
      </trkpt>
      <trkpt lat="45.46154" lon="6.87746">
        <ele>2582.8</ele>
        <time>2021-01-05T09:30:27Z</time>
      </trkpt>
      <trkpt lat="45.46153" lon="6.87742">
        <ele>2582.8</ele>
        <time>2021-01-05T09:30:29Z</time>
      </trkpt>
      <trkpt lat="45.46154" lon="6.8774">
        <ele>2582.8</ele>
        <time>2021-01-05T09:30:30Z</time>
      </trkpt>
      <trkpt lat="45.46155" lon="6.87737">
        <ele>2582.8</ele>
        <time>2021-01-05T09:30:31Z</time>
      </trkpt>
      <trkpt lat="45.46154" lon="6.87735">
        <ele>2582.8</ele>
        <time>2021-01-05T09:30:32Z</time>
      </trkpt>
      <trkpt lat="45.46153" lon="6.87731">
        <ele>2582.8</ele>
        <time>2021-01-05T09:30:34Z</time>
      </trkpt>
      <trkpt lat="45.46153" lon="6.87726">
        <ele>2582.8</ele>
        <time>2021-01-05T09:30:36Z</time>
      </trkpt>
      <trkpt lat="45.46154" lon="6.87722">
        <ele>2591</ele>
        <time>2021-01-05T09:30:38Z</time>
      </trkpt>
      <trkpt lat="45.46155" lon="6.87719">
        <ele>2591</ele>
        <time>2021-01-05T09:30:40Z</time>
      </trkpt>
      <trkpt lat="45.46155" lon="6.87716">
        <ele>2591</ele>
        <time>2021-01-05T09:30:42Z</time>
      </trkpt>
      <trkpt lat="45.46155" lon="6.87712">
        <ele>2591</ele>
        <time>2021-01-05T09:30:44Z</time>
      </trkpt>
      <trkpt lat="45.46155" lon="6.87709">
        <ele>2591</ele>
        <time>2021-01-05T09:30:45Z</time>
      </trkpt>
      <trkpt lat="45.46154" lon="6.87706">
        <ele>2591</ele>
        <time>2021-01-05T09:30:47Z</time>
      </trkpt>
      <trkpt lat="45.46153" lon="6.87703">
        <ele>2591</ele>
        <time>2021-01-05T09:30:49Z</time>
      </trkpt>
      <trkpt lat="45.46153" lon="6.87699">
        <ele>2591</ele>
        <time>2021-01-05T09:30:53Z</time>
      </trkpt>
      <trkpt lat="45.46152" lon="6.87696">
        <ele>2591</ele>
        <time>2021-01-05T09:30:56Z</time>
      </trkpt>
      <trkpt lat="45.46153" lon="6.87694">
        <ele>2597.6</ele>
        <time>2021-01-05T09:30:58Z</time>
      </trkpt>
      <trkpt lat="45.46152" lon="6.87691">
        <ele>2597.6</ele>
        <time>2021-01-05T09:31:00Z</time>
      </trkpt>
      <trkpt lat="45.46152" lon="6.87688">
        <ele>2597.6</ele>
        <time>2021-01-05T09:31:02Z</time>
      </trkpt>
      <trkpt lat="45.46152" lon="6.87685">
        <ele>2597.6</ele>
        <time>2021-01-05T09:31:04Z</time>
      </trkpt>
      <trkpt lat="45.46151" lon="6.87682">
        <ele>2597.6</ele>
        <time>2021-01-05T09:31:06Z</time>
      </trkpt>
      <trkpt lat="45.4615" lon="6.87678">
        <ele>2597.6</ele>
        <time>2021-01-05T09:31:09Z</time>
      </trkpt>
      <trkpt lat="45.4615" lon="6.87675">
        <ele>2597.6</ele>
        <time>2021-01-05T09:31:12Z</time>
      </trkpt>
      <trkpt lat="45.4615" lon="6.87671">
        <ele>2597.6</ele>
        <time>2021-01-05T09:31:15Z</time>
      </trkpt>
      <trkpt lat="45.4615" lon="6.87668">
        <ele>2597.6</ele>
        <time>2021-01-05T09:31:17Z</time>
      </trkpt>
      <trkpt lat="45.46149" lon="6.87664">
        <ele>2597.6</ele>
        <time>2021-01-05T09:31:20Z</time>
      </trkpt>
      <trkpt lat="45.46149" lon="6.87661">
        <ele>2597.6</ele>
        <time>2021-01-05T09:31:23Z</time>
      </trkpt>
      <trkpt lat="45.46148" lon="6.87658">
        <ele>2597.6</ele>
        <time>2021-01-05T09:31:26Z</time>
      </trkpt>
      <trkpt lat="45.46146" lon="6.87657">
        <ele>2607.8</ele>
        <time>2021-01-05T09:31:28Z</time>
      </trkpt>
      <trkpt lat="45.46144" lon="6.87654">
        <ele>2607.8</ele>
        <time>2021-01-05T09:31:31Z</time>
      </trkpt>
      <trkpt lat="45.46142" lon="6.87651">
        <ele>2607.8</ele>
        <time>2021-01-05T09:31:34Z</time>
      </trkpt>
      <trkpt lat="45.4614" lon="6.87649">
        <ele>2607.8</ele>
        <time>2021-01-05T09:31:37Z</time>
      </trkpt>
      <trkpt lat="45.46139" lon="6.87646">
        <ele>2607.8</ele>
        <time>2021-01-05T09:31:40Z</time>
      </trkpt>
      <trkpt lat="45.46137" lon="6.87644">
        <ele>2607.8</ele>
        <time>2021-01-05T09:31:43Z</time>
      </trkpt>
      <trkpt lat="45.46136" lon="6.87642">
        <ele>2607.8</ele>
        <time>2021-01-05T09:31:45Z</time>
      </trkpt>
      <trkpt lat="45.46134" lon="6.87639">
        <ele>2614.2</ele>
        <time>2021-01-05T09:31:48Z</time>
      </trkpt>
      <trkpt lat="45.46133" lon="6.87637">
        <ele>2614.2</ele>
        <time>2021-01-05T09:31:50Z</time>
      </trkpt>
      <trkpt lat="45.46131" lon="6.87634">
        <ele>2614.2</ele>
        <time>2021-01-05T09:31:53Z</time>
      </trkpt>
      <trkpt lat="45.4613" lon="6.87633">
        <ele>2614.2</ele>
        <time>2021-01-05T09:31:55Z</time>
      </trkpt>
      <trkpt lat="45.46129" lon="6.8763">
        <ele>2614.2</ele>
        <time>2021-01-05T09:31:57Z</time>
      </trkpt>
      <trkpt lat="45.46128" lon="6.87628">
        <ele>2614.2</ele>
        <time>2021-01-05T09:32:00Z</time>
      </trkpt>
      <trkpt lat="45.46126" lon="6.87626">
        <ele>2614.2</ele>
        <time>2021-01-05T09:32:02Z</time>
      </trkpt>
      <trkpt lat="45.46125" lon="6.87623">
        <ele>2614.2</ele>
        <time>2021-01-05T09:32:05Z</time>
      </trkpt>
      <trkpt lat="45.46124" lon="6.8762">
        <ele>2620</ele>
        <time>2021-01-05T09:32:08Z</time>
      </trkpt>
      <trkpt lat="45.46123" lon="6.87618">
        <ele>2620</ele>
        <time>2021-01-05T09:32:10Z</time>
      </trkpt>
      <trkpt lat="45.46121" lon="6.87616">
        <ele>2620</ele>
        <time>2021-01-05T09:32:12Z</time>
      </trkpt>
      <trkpt lat="45.4612" lon="6.87614">
        <ele>2620</ele>
        <time>2021-01-05T09:32:14Z</time>
      </trkpt>
      <trkpt lat="45.46118" lon="6.87611">
        <ele>2620</ele>
        <time>2021-01-05T09:32:17Z</time>
      </trkpt>
      <trkpt lat="45.46117" lon="6.87609">
        <ele>2620</ele>
        <time>2021-01-05T09:32:20Z</time>
      </trkpt>
      <trkpt lat="45.46116" lon="6.87607">
        <ele>2620</ele>
        <time>2021-01-05T09:32:22Z</time>
      </trkpt>
      <trkpt lat="45.46116" lon="6.87604">
        <ele>2620</ele>
        <time>2021-01-05T09:32:24Z</time>
      </trkpt>
      <trkpt lat="45.46115" lon="6.876">
        <ele>2620</ele>
        <time>2021-01-05T09:32:27Z</time>
      </trkpt>
      <trkpt lat="45.46114" lon="6.87597">
        <ele>2620</ele>
        <time>2021-01-05T09:32:30Z</time>
      </trkpt>
      <trkpt lat="45.46113" lon="6.87594">
        <ele>2620</ele>
        <time>2021-01-05T09:32:32Z</time>
      </trkpt>
      <trkpt lat="45.46112" lon="6.87591">
        <ele>2620</ele>
        <time>2021-01-05T09:32:34Z</time>
      </trkpt>
      <trkpt lat="45.46111" lon="6.87588">
        <ele>2620</ele>
        <time>2021-01-05T09:32:36Z</time>
      </trkpt>
      <trkpt lat="45.4611" lon="6.87584">
        <ele>2620</ele>
        <time>2021-01-05T09:32:39Z</time>
      </trkpt>
      <trkpt lat="45.46109" lon="6.87582">
        <ele>2620</ele>
        <time>2021-01-05T09:32:42Z</time>
      </trkpt>
      <trkpt lat="45.46108" lon="6.8758">
        <ele>2620</ele>
        <time>2021-01-05T09:32:44Z</time>
      </trkpt>
      <trkpt lat="45.46105" lon="6.87579">
        <ele>2620</ele>
        <time>2021-01-05T09:32:47Z</time>
      </trkpt>
      <trkpt lat="45.46102" lon="6.87578">
        <ele>2620</ele>
        <time>2021-01-05T09:32:49Z</time>
      </trkpt>
      <trkpt lat="45.461" lon="6.87578">
        <ele>2620</ele>
        <time>2021-01-05T09:32:51Z</time>
      </trkpt>
      <trkpt lat="45.46099" lon="6.87578">
        <ele>2620</ele>
        <time>2021-01-05T09:32:52Z</time>
      </trkpt>
      <trkpt lat="45.46096" lon="6.87577">
        <ele>2620</ele>
        <time>2021-01-05T09:32:55Z</time>
      </trkpt>
      <trkpt lat="45.46093" lon="6.87576">
        <ele>2620</ele>
        <time>2021-01-05T09:32:57Z</time>
      </trkpt>
      <trkpt lat="45.46092" lon="6.87574">
        <ele>2620</ele>
        <time>2021-01-05T09:32:59Z</time>
      </trkpt>
      <trkpt lat="45.4609" lon="6.87571">
        <ele>2620</ele>
        <time>2021-01-05T09:33:01Z</time>
      </trkpt>
      <trkpt lat="45.46088" lon="6.87568">
        <ele>2620</ele>
        <time>2021-01-05T09:33:04Z</time>
      </trkpt>
      <trkpt lat="45.46087" lon="6.87564">
        <ele>2620</ele>
        <time>2021-01-05T09:33:07Z</time>
      </trkpt>
      <trkpt lat="45.46086" lon="6.87561">
        <ele>2620</ele>
        <time>2021-01-05T09:33:09Z</time>
      </trkpt>
      <trkpt lat="45.46084" lon="6.87558">
        <ele>2620</ele>
        <time>2021-01-05T09:33:11Z</time>
      </trkpt>
      <trkpt lat="45.46082" lon="6.87556">
        <ele>2620</ele>
        <time>2021-01-05T09:33:13Z</time>
      </trkpt>
      <trkpt lat="45.46081" lon="6.87554">
        <ele>2620</ele>
        <time>2021-01-05T09:33:14Z</time>
      </trkpt>
      <trkpt lat="45.46078" lon="6.87554">
        <ele>2620</ele>
        <time>2021-01-05T09:33:17Z</time>
      </trkpt>
      <trkpt lat="45.46075" lon="6.87553">
        <ele>2620</ele>
        <time>2021-01-05T09:33:20Z</time>
      </trkpt>
      <trkpt lat="45.46073" lon="6.87552">
        <ele>2620</ele>
        <time>2021-01-05T09:33:22Z</time>
      </trkpt>
      <trkpt lat="45.4607" lon="6.8755">
        <ele>2620</ele>
        <time>2021-01-05T09:33:25Z</time>
      </trkpt>
      <trkpt lat="45.46068" lon="6.87549">
        <ele>2620</ele>
        <time>2021-01-05T09:33:27Z</time>
      </trkpt>
      <trkpt lat="45.46066" lon="6.87547">
        <ele>2620</ele>
        <time>2021-01-05T09:33:29Z</time>
      </trkpt>
      <trkpt lat="45.46064" lon="6.87546">
        <ele>2620</ele>
        <time>2021-01-05T09:33:31Z</time>
      </trkpt>
      <trkpt lat="45.46062" lon="6.87544">
        <ele>2620</ele>
        <time>2021-01-05T09:33:33Z</time>
      </trkpt>
      <trkpt lat="45.4606" lon="6.87542">
        <ele>2620</ele>
        <time>2021-01-05T09:33:35Z</time>
      </trkpt>
      <trkpt lat="45.46058" lon="6.8754">
        <ele>2620</ele>
        <time>2021-01-05T09:33:37Z</time>
      </trkpt>
      <trkpt lat="45.46056" lon="6.87537">
        <ele>2620</ele>
        <time>2021-01-05T09:33:39Z</time>
      </trkpt>
      <trkpt lat="45.46053" lon="6.87535">
        <ele>2620</ele>
        <time>2021-01-05T09:33:41Z</time>
      </trkpt>
      <trkpt lat="45.46052" lon="6.87532">
        <ele>2620</ele>
        <time>2021-01-05T09:33:43Z</time>
      </trkpt>
      <trkpt lat="45.4605" lon="6.87529">
        <ele>2620</ele>
        <time>2021-01-05T09:33:45Z</time>
      </trkpt>
      <trkpt lat="45.46048" lon="6.87528">
        <ele>2620</ele>
        <time>2021-01-05T09:33:46Z</time>
      </trkpt>
      <trkpt lat="45.46047" lon="6.87526">
        <ele>2647.4</ele>
        <time>2021-01-05T09:33:48Z</time>
      </trkpt>
      <trkpt lat="45.46044" lon="6.87523">
        <ele>2647.4</ele>
        <time>2021-01-05T09:33:50Z</time>
      </trkpt>
      <trkpt lat="45.46042" lon="6.87521">
        <ele>2647.4</ele>
        <time>2021-01-05T09:33:52Z</time>
      </trkpt>
      <trkpt lat="45.46039" lon="6.87518">
        <ele>2647.4</ele>
        <time>2021-01-05T09:33:54Z</time>
      </trkpt>
      <trkpt lat="45.46036" lon="6.87515">
        <ele>2647.4</ele>
        <time>2021-01-05T09:33:56Z</time>
      </trkpt>
      <trkpt lat="45.46034" lon="6.87513">
        <ele>2648.6</ele>
        <time>2021-01-05T09:33:58Z</time>
      </trkpt>
      <trkpt lat="45.46032" lon="6.87511">
        <ele>2648.6</ele>
        <time>2021-01-05T09:34:00Z</time>
      </trkpt>
      <trkpt lat="45.46031" lon="6.87509">
        <ele>2648.6</ele>
        <time>2021-01-05T09:34:01Z</time>
      </trkpt>
      <trkpt lat="45.46028" lon="6.87505">
        <ele>2648.6</ele>
        <time>2021-01-05T09:34:03Z</time>
      </trkpt>
      <trkpt lat="45.46027" lon="6.87503">
        <ele>2648.6</ele>
        <time>2021-01-05T09:34:05Z</time>
      </trkpt>
      <trkpt lat="45.46024" lon="6.875">
        <ele>2648.6</ele>
        <time>2021-01-05T09:34:07Z</time>
      </trkpt>
      <trkpt lat="45.46022" lon="6.87496">
        <ele>2648.6</ele>
        <time>2021-01-05T09:34:09Z</time>
      </trkpt>
      <trkpt lat="45.4602" lon="6.87494">
        <ele>2648.6</ele>
        <time>2021-01-05T09:34:10Z</time>
      </trkpt>
      <trkpt lat="45.46019" lon="6.87492">
        <ele>2648.6</ele>
        <time>2021-01-05T09:34:12Z</time>
      </trkpt>
      <trkpt lat="45.46018" lon="6.87488">
        <ele>2648.6</ele>
        <time>2021-01-05T09:34:14Z</time>
      </trkpt>
      <trkpt lat="45.46016" lon="6.87486">
        <ele>2648.6</ele>
        <time>2021-01-05T09:34:15Z</time>
      </trkpt>
      <trkpt lat="45.46014" lon="6.87484">
        <ele>2648.6</ele>
        <time>2021-01-05T09:34:16Z</time>
      </trkpt>
      <trkpt lat="45.46012" lon="6.87482">
        <ele>2651.6</ele>
        <time>2021-01-05T09:34:18Z</time>
      </trkpt>
      <trkpt lat="45.46011" lon="6.87478">
        <ele>2651.6</ele>
        <time>2021-01-05T09:34:20Z</time>
      </trkpt>
      <trkpt lat="45.46008" lon="6.87475">
        <ele>2651.6</ele>
        <time>2021-01-05T09:34:22Z</time>
      </trkpt>
      <trkpt lat="45.46006" lon="6.87473">
        <ele>2651.6</ele>
        <time>2021-01-05T09:34:24Z</time>
      </trkpt>
      <trkpt lat="45.46003" lon="6.8747">
        <ele>2651.6</ele>
        <time>2021-01-05T09:34:26Z</time>
      </trkpt>
      <trkpt lat="45.46002" lon="6.87467">
        <ele>2651.6</ele>
        <time>2021-01-05T09:34:27Z</time>
      </trkpt>
      <trkpt lat="45.46001" lon="6.87464">
        <ele>2651.6</ele>
        <time>2021-01-05T09:34:29Z</time>
      </trkpt>
      <trkpt lat="45.45998" lon="6.87461">
        <ele>2651.6</ele>
        <time>2021-01-05T09:34:31Z</time>
      </trkpt>
      <trkpt lat="45.45996" lon="6.87459">
        <ele>2651.6</ele>
        <time>2021-01-05T09:34:33Z</time>
      </trkpt>
      <trkpt lat="45.45995" lon="6.87456">
        <ele>2651.6</ele>
        <time>2021-01-05T09:34:35Z</time>
      </trkpt>
      <trkpt lat="45.45993" lon="6.87454">
        <ele>2651.6</ele>
        <time>2021-01-05T09:34:36Z</time>
      </trkpt>
      <trkpt lat="45.45992" lon="6.8745">
        <ele>2654.6</ele>
        <time>2021-01-05T09:34:38Z</time>
      </trkpt>
      <trkpt lat="45.4599" lon="6.87446">
        <ele>2654.6</ele>
        <time>2021-01-05T09:34:40Z</time>
      </trkpt>
      <trkpt lat="45.45988" lon="6.87444">
        <ele>2654.6</ele>
        <time>2021-01-05T09:34:42Z</time>
      </trkpt>
      <trkpt lat="45.45987" lon="6.87442">
        <ele>2654.6</ele>
        <time>2021-01-05T09:34:43Z</time>
      </trkpt>
      <trkpt lat="45.45985" lon="6.87439">
        <ele>2654.6</ele>
        <time>2021-01-05T09:34:45Z</time>
      </trkpt>
      <trkpt lat="45.45983" lon="6.87435">
        <ele>2654.6</ele>
        <time>2021-01-05T09:34:47Z</time>
      </trkpt>
      <trkpt lat="45.45981" lon="6.87431">
        <ele>2654.6</ele>
        <time>2021-01-05T09:34:49Z</time>
      </trkpt>
      <trkpt lat="45.45979" lon="6.87428">
        <ele>2654.6</ele>
        <time>2021-01-05T09:34:51Z</time>
      </trkpt>
      <trkpt lat="45.45977" lon="6.87424">
        <ele>2654.6</ele>
        <time>2021-01-05T09:34:53Z</time>
      </trkpt>
      <trkpt lat="45.45975" lon="6.8742">
        <ele>2654.6</ele>
        <time>2021-01-05T09:34:55Z</time>
      </trkpt>
      <trkpt lat="45.45973" lon="6.87416">
        <ele>2654.6</ele>
        <time>2021-01-05T09:34:57Z</time>
      </trkpt>
      <trkpt lat="45.45971" lon="6.87412">
        <ele>2654.6</ele>
        <time>2021-01-05T09:34:59Z</time>
      </trkpt>
      <trkpt lat="45.45969" lon="6.87408">
        <ele>2654.6</ele>
        <time>2021-01-05T09:35:01Z</time>
      </trkpt>
      <trkpt lat="45.45967" lon="6.87405">
        <ele>2654.6</ele>
        <time>2021-01-05T09:35:03Z</time>
      </trkpt>
      <trkpt lat="45.45965" lon="6.87402">
        <ele>2654.6</ele>
        <time>2021-01-05T09:35:05Z</time>
      </trkpt>
      <trkpt lat="45.45964" lon="6.87398">
        <ele>2654.6</ele>
        <time>2021-01-05T09:35:07Z</time>
      </trkpt>
      <trkpt lat="45.45963" lon="6.87395">
        <ele>2658.4</ele>
        <time>2021-01-05T09:35:08Z</time>
      </trkpt>
      <trkpt lat="45.45962" lon="6.87392">
        <ele>2658.4</ele>
        <time>2021-01-05T09:35:10Z</time>
      </trkpt>
      <trkpt lat="45.45961" lon="6.8739">
        <ele>2658.4</ele>
        <time>2021-01-05T09:35:11Z</time>
      </trkpt>
      <trkpt lat="45.4596" lon="6.87387">
        <ele>2658.4</ele>
        <time>2021-01-05T09:35:13Z</time>
      </trkpt>
      <trkpt lat="45.45959" lon="6.87382">
        <ele>2658.4</ele>
        <time>2021-01-05T09:35:15Z</time>
      </trkpt>
      <trkpt lat="45.45958" lon="6.8738">
        <ele>2658.4</ele>
        <time>2021-01-05T09:35:16Z</time>
      </trkpt>
      <trkpt lat="45.45957" lon="6.87377">
        <ele>2658.4</ele>
        <time>2021-01-05T09:35:17Z</time>
      </trkpt>
      <trkpt lat="45.45955" lon="6.87374">
        <ele>2658.4</ele>
        <time>2021-01-05T09:35:19Z</time>
      </trkpt>
      <trkpt lat="45.45953" lon="6.87371">
        <ele>2658.4</ele>
        <time>2021-01-05T09:35:21Z</time>
      </trkpt>
      <trkpt lat="45.45951" lon="6.87368">
        <ele>2658.4</ele>
        <time>2021-01-05T09:35:23Z</time>
      </trkpt>
      <trkpt lat="45.45949" lon="6.87365">
        <ele>2658.4</ele>
        <time>2021-01-05T09:35:25Z</time>
      </trkpt>
      <trkpt lat="45.45948" lon="6.87362">
        <ele>2658.4</ele>
        <time>2021-01-05T09:35:27Z</time>
      </trkpt>
      <trkpt lat="45.45945" lon="6.87359">
        <ele>2658.4</ele>
        <time>2021-01-05T09:35:29Z</time>
      </trkpt>
      <trkpt lat="45.45943" lon="6.87356">
        <ele>2658.4</ele>
        <time>2021-01-05T09:35:31Z</time>
      </trkpt>
      <trkpt lat="45.45941" lon="6.87353">
        <ele>2658.4</ele>
        <time>2021-01-05T09:35:33Z</time>
      </trkpt>
      <trkpt lat="45.45939" lon="6.87351">
        <ele>2658.4</ele>
        <time>2021-01-05T09:35:35Z</time>
      </trkpt>
      <trkpt lat="45.45936" lon="6.87349">
        <ele>2658.4</ele>
        <time>2021-01-05T09:35:37Z</time>
      </trkpt>
      <trkpt lat="45.45934" lon="6.87346">
        <ele>2658.4</ele>
        <time>2021-01-05T09:35:39Z</time>
      </trkpt>
      <trkpt lat="45.45932" lon="6.87342">
        <ele>2658.4</ele>
        <time>2021-01-05T09:35:41Z</time>
      </trkpt>
      <trkpt lat="45.45931" lon="6.8734">
        <ele>2658.4</ele>
        <time>2021-01-05T09:35:43Z</time>
      </trkpt>
      <trkpt lat="45.45928" lon="6.87336">
        <ele>2658.4</ele>
        <time>2021-01-05T09:35:45Z</time>
      </trkpt>
      <trkpt lat="45.45927" lon="6.87334">
        <ele>2658.4</ele>
        <time>2021-01-05T09:35:47Z</time>
      </trkpt>
      <trkpt lat="45.45923" lon="6.87334">
        <ele>2658.4</ele>
        <time>2021-01-05T09:35:49Z</time>
      </trkpt>
      <trkpt lat="45.4592" lon="6.87333">
        <ele>2658.4</ele>
        <time>2021-01-05T09:35:51Z</time>
      </trkpt>
      <trkpt lat="45.45916" lon="6.87333">
        <ele>2658.4</ele>
        <time>2021-01-05T09:35:53Z</time>
      </trkpt>
      <trkpt lat="45.45914" lon="6.87333">
        <ele>2658.4</ele>
        <time>2021-01-05T09:35:55Z</time>
      </trkpt>
      <trkpt lat="45.45911" lon="6.87332">
        <ele>2658.4</ele>
        <time>2021-01-05T09:35:57Z</time>
      </trkpt>
      <trkpt lat="45.45909" lon="6.87331">
        <ele>2658.4</ele>
        <time>2021-01-05T09:35:59Z</time>
      </trkpt>
      <trkpt lat="45.45907" lon="6.87328">
        <ele>2658.4</ele>
        <time>2021-01-05T09:36:52Z</time>
      </trkpt>
      <trkpt lat="45.45906" lon="6.87331">
        <ele>2658.4</ele>
        <time>2021-01-05T09:36:53Z</time>
      </trkpt>
      <trkpt lat="45.45903" lon="6.87336">
        <ele>2658.4</ele>
        <time>2021-01-05T09:36:54Z</time>
      </trkpt>
      <trkpt lat="45.45899" lon="6.87342">
        <ele>2658.4</ele>
        <time>2021-01-05T09:36:55Z</time>
      </trkpt>
      <trkpt lat="45.45893" lon="6.87347">
        <ele>2658.4</ele>
        <time>2021-01-05T09:36:56Z</time>
      </trkpt>
      <trkpt lat="45.45887" lon="6.87352">
        <ele>2658.4</ele>
        <time>2021-01-05T09:36:57Z</time>
      </trkpt>
      <trkpt lat="45.45882" lon="6.8736">
        <ele>2661.8</ele>
        <time>2021-01-05T09:36:58Z</time>
      </trkpt>
      <trkpt lat="45.45878" lon="6.8737">
        <ele>2661.8</ele>
        <time>2021-01-05T09:36:59Z</time>
      </trkpt>
      <trkpt lat="45.45873" lon="6.8738">
        <ele>2661.8</ele>
        <time>2021-01-05T09:37:00Z</time>
      </trkpt>
      <trkpt lat="45.45865" lon="6.87388">
        <ele>2661.8</ele>
        <time>2021-01-05T09:37:01Z</time>
      </trkpt>
      <trkpt lat="45.45856" lon="6.87398">
        <ele>2661.8</ele>
        <time>2021-01-05T09:37:02Z</time>
      </trkpt>
      <trkpt lat="45.4585" lon="6.87408">
        <ele>2661.8</ele>
        <time>2021-01-05T09:37:03Z</time>
      </trkpt>
      <trkpt lat="45.4584" lon="6.87423">
        <ele>2661.8</ele>
        <time>2021-01-05T09:37:04Z</time>
      </trkpt>
      <trkpt lat="45.4583" lon="6.87434">
        <ele>2661.8</ele>
        <time>2021-01-05T09:37:05Z</time>
      </trkpt>
      <trkpt lat="45.45821" lon="6.87446">
        <ele>2661.8</ele>
        <time>2021-01-05T09:37:06Z</time>
      </trkpt>
      <trkpt lat="45.45814" lon="6.87456">
        <ele>2661.8</ele>
        <time>2021-01-05T09:37:07Z</time>
      </trkpt>
      <trkpt lat="45.45804" lon="6.87471">
        <ele>2638</ele>
        <time>2021-01-05T09:37:08Z</time>
      </trkpt>
      <trkpt lat="45.45796" lon="6.87481">
        <ele>2638</ele>
        <time>2021-01-05T09:37:09Z</time>
      </trkpt>
      <trkpt lat="45.45787" lon="6.87493">
        <ele>2638</ele>
        <time>2021-01-05T09:37:10Z</time>
      </trkpt>
      <trkpt lat="45.45779" lon="6.87505">
        <ele>2638</ele>
        <time>2021-01-05T09:37:11Z</time>
      </trkpt>
      <trkpt lat="45.4577" lon="6.87516">
        <ele>2638</ele>
        <time>2021-01-05T09:37:12Z</time>
      </trkpt>
      <trkpt lat="45.4576" lon="6.87526">
        <ele>2638</ele>
        <time>2021-01-05T09:37:13Z</time>
      </trkpt>
      <trkpt lat="45.45751" lon="6.87536">
        <ele>2638</ele>
        <time>2021-01-05T09:37:14Z</time>
      </trkpt>
      <trkpt lat="45.45742" lon="6.87547">
        <ele>2638</ele>
        <time>2021-01-05T09:37:15Z</time>
      </trkpt>
      <trkpt lat="45.45735" lon="6.87555">
        <ele>2638</ele>
        <time>2021-01-05T09:37:16Z</time>
      </trkpt>
      <trkpt lat="45.45723" lon="6.87567">
        <ele>2638</ele>
        <time>2021-01-05T09:37:17Z</time>
      </trkpt>
      <trkpt lat="45.45713" lon="6.87577">
        <ele>2608.8</ele>
        <time>2021-01-05T09:37:18Z</time>
      </trkpt>
      <trkpt lat="45.45704" lon="6.87588">
        <ele>2608.8</ele>
        <time>2021-01-05T09:37:19Z</time>
      </trkpt>
      <trkpt lat="45.45697" lon="6.87597">
        <ele>2608.8</ele>
        <time>2021-01-05T09:37:20Z</time>
      </trkpt>
      <trkpt lat="45.45687" lon="6.8761">
        <ele>2608.8</ele>
        <time>2021-01-05T09:37:21Z</time>
      </trkpt>
      <trkpt lat="45.45678" lon="6.87621">
        <ele>2608.8</ele>
        <time>2021-01-05T09:37:22Z</time>
      </trkpt>
      <trkpt lat="45.4567" lon="6.87631">
        <ele>2608.8</ele>
        <time>2021-01-05T09:37:23Z</time>
      </trkpt>
      <trkpt lat="45.45664" lon="6.87639">
        <ele>2608.8</ele>
        <time>2021-01-05T09:37:24Z</time>
      </trkpt>
      <trkpt lat="45.45655" lon="6.87652">
        <ele>2608.8</ele>
        <time>2021-01-05T09:37:25Z</time>
      </trkpt>
      <trkpt lat="45.45647" lon="6.87663">
        <ele>2608.8</ele>
        <time>2021-01-05T09:37:26Z</time>
      </trkpt>
      <trkpt lat="45.45639" lon="6.87673">
        <ele>2608.8</ele>
        <time>2021-01-05T09:37:27Z</time>
      </trkpt>
      <trkpt lat="45.45633" lon="6.87682">
        <ele>2580.2</ele>
        <time>2021-01-05T09:37:28Z</time>
      </trkpt>
      <trkpt lat="45.45624" lon="6.87695">
        <ele>2580.2</ele>
        <time>2021-01-05T09:37:29Z</time>
      </trkpt>
      <trkpt lat="45.45616" lon="6.87704">
        <ele>2580.2</ele>
        <time>2021-01-05T09:37:30Z</time>
      </trkpt>
      <trkpt lat="45.45607" lon="6.87712">
        <ele>2580.2</ele>
        <time>2021-01-05T09:37:31Z</time>
      </trkpt>
      <trkpt lat="45.45599" lon="6.87721">
        <ele>2580.2</ele>
        <time>2021-01-05T09:37:32Z</time>
      </trkpt>
      <trkpt lat="45.4559" lon="6.87732">
        <ele>2580.2</ele>
        <time>2021-01-05T09:37:33Z</time>
      </trkpt>
      <trkpt lat="45.45581" lon="6.87741">
        <ele>2580.2</ele>
        <time>2021-01-05T09:37:34Z</time>
      </trkpt>
      <trkpt lat="45.45572" lon="6.87751">
        <ele>2580.2</ele>
        <time>2021-01-05T09:37:35Z</time>
      </trkpt>
      <trkpt lat="45.45564" lon="6.87764">
        <ele>2580.2</ele>
        <time>2021-01-05T09:37:36Z</time>
      </trkpt>
      <trkpt lat="45.45554" lon="6.87774">
        <ele>2580.2</ele>
        <time>2021-01-05T09:37:37Z</time>
      </trkpt>
      <trkpt lat="45.45545" lon="6.87784">
        <ele>2554</ele>
        <time>2021-01-05T09:37:38Z</time>
      </trkpt>
      <trkpt lat="45.45537" lon="6.87796">
        <ele>2554</ele>
        <time>2021-01-05T09:37:39Z</time>
      </trkpt>
      <trkpt lat="45.4553" lon="6.87806">
        <ele>2554</ele>
        <time>2021-01-05T09:37:40Z</time>
      </trkpt>
      <trkpt lat="45.45522" lon="6.87815">
        <ele>2554</ele>
        <time>2021-01-05T09:37:41Z</time>
      </trkpt>
      <trkpt lat="45.45514" lon="6.87825">
        <ele>2554</ele>
        <time>2021-01-05T09:37:42Z</time>
      </trkpt>
      <trkpt lat="45.45506" lon="6.87834">
        <ele>2554</ele>
        <time>2021-01-05T09:37:43Z</time>
      </trkpt>
      <trkpt lat="45.45496" lon="6.87844">
        <ele>2554</ele>
        <time>2021-01-05T09:37:44Z</time>
      </trkpt>
      <trkpt lat="45.45489" lon="6.87853">
        <ele>2554</ele>
        <time>2021-01-05T09:37:45Z</time>
      </trkpt>
      <trkpt lat="45.45478" lon="6.87867">
        <ele>2554</ele>
        <time>2021-01-05T09:37:46Z</time>
      </trkpt>
      <trkpt lat="45.45468" lon="6.87879">
        <ele>2554</ele>
        <time>2021-01-05T09:37:47Z</time>
      </trkpt>
      <trkpt lat="45.45458" lon="6.87891">
        <ele>2519.4</ele>
        <time>2021-01-05T09:37:48Z</time>
      </trkpt>
      <trkpt lat="45.45448" lon="6.87906">
        <ele>2519.4</ele>
        <time>2021-01-05T09:37:49Z</time>
      </trkpt>
      <trkpt lat="45.45439" lon="6.8792">
        <ele>2519.4</ele>
        <time>2021-01-05T09:37:50Z</time>
      </trkpt>
      <trkpt lat="45.4543" lon="6.87933">
        <ele>2519.4</ele>
        <time>2021-01-05T09:37:51Z</time>
      </trkpt>
      <trkpt lat="45.45421" lon="6.87947">
        <ele>2519.4</ele>
        <time>2021-01-05T09:37:52Z</time>
      </trkpt>
      <trkpt lat="45.45412" lon="6.8796">
        <ele>2519.4</ele>
        <time>2021-01-05T09:37:53Z</time>
      </trkpt>
      <trkpt lat="45.45403" lon="6.87973">
        <ele>2519.4</ele>
        <time>2021-01-05T09:37:54Z</time>
      </trkpt>
      <trkpt lat="45.45395" lon="6.87984">
        <ele>2519.4</ele>
        <time>2021-01-05T09:37:55Z</time>
      </trkpt>
      <trkpt lat="45.45387" lon="6.87995">
        <ele>2519.4</ele>
        <time>2021-01-05T09:37:56Z</time>
      </trkpt>
      <trkpt lat="45.4538" lon="6.88005">
        <ele>2519.4</ele>
        <time>2021-01-05T09:37:57Z</time>
      </trkpt>
      <trkpt lat="45.45375" lon="6.88014">
        <ele>2484.8</ele>
        <time>2021-01-05T09:37:58Z</time>
      </trkpt>
      <trkpt lat="45.45365" lon="6.88027">
        <ele>2484.8</ele>
        <time>2021-01-05T09:37:59Z</time>
      </trkpt>
      <trkpt lat="45.45357" lon="6.88039">
        <ele>2484.8</ele>
        <time>2021-01-05T09:38:00Z</time>
      </trkpt>
      <trkpt lat="45.45347" lon="6.88052">
        <ele>2484.8</ele>
        <time>2021-01-05T09:38:01Z</time>
      </trkpt>
      <trkpt lat="45.45337" lon="6.88064">
        <ele>2484.8</ele>
        <time>2021-01-05T09:38:02Z</time>
      </trkpt>
      <trkpt lat="45.45327" lon="6.88077">
        <ele>2484.8</ele>
        <time>2021-01-05T09:38:03Z</time>
      </trkpt>
      <trkpt lat="45.45317" lon="6.8809">
        <ele>2484.8</ele>
        <time>2021-01-05T09:38:04Z</time>
      </trkpt>
      <trkpt lat="45.45308" lon="6.88102">
        <ele>2484.8</ele>
        <time>2021-01-05T09:38:05Z</time>
      </trkpt>
      <trkpt lat="45.453" lon="6.88115">
        <ele>2484.8</ele>
        <time>2021-01-05T09:38:06Z</time>
      </trkpt>
      <trkpt lat="45.45293" lon="6.88127">
        <ele>2484.8</ele>
        <time>2021-01-05T09:38:07Z</time>
      </trkpt>
      <trkpt lat="45.45287" lon="6.88139">
        <ele>2454.4</ele>
        <time>2021-01-05T09:38:08Z</time>
      </trkpt>
      <trkpt lat="45.45284" lon="6.88151">
        <ele>2454.4</ele>
        <time>2021-01-05T09:38:09Z</time>
      </trkpt>
      <trkpt lat="45.45281" lon="6.88163">
        <ele>2454.4</ele>
        <time>2021-01-05T09:38:10Z</time>
      </trkpt>
      <trkpt lat="45.45278" lon="6.88174">
        <ele>2454.4</ele>
        <time>2021-01-05T09:38:11Z</time>
      </trkpt>
      <trkpt lat="45.45275" lon="6.88186">
        <ele>2454.4</ele>
        <time>2021-01-05T09:38:12Z</time>
      </trkpt>
      <trkpt lat="45.45272" lon="6.88196">
        <ele>2454.4</ele>
        <time>2021-01-05T09:38:13Z</time>
      </trkpt>
      <trkpt lat="45.45269" lon="6.88207">
        <ele>2454.4</ele>
        <time>2021-01-05T09:38:14Z</time>
      </trkpt>
      <trkpt lat="45.45268" lon="6.88217">
        <ele>2454.4</ele>
        <time>2021-01-05T09:38:15Z</time>
      </trkpt>
      <trkpt lat="45.45267" lon="6.88227">
        <ele>2454.4</ele>
        <time>2021-01-05T09:38:16Z</time>
      </trkpt>
      <trkpt lat="45.45266" lon="6.88236">
        <ele>2454.4</ele>
        <time>2021-01-05T09:38:17Z</time>
      </trkpt>
      <trkpt lat="45.45265" lon="6.88244">
        <ele>2442.4</ele>
        <time>2021-01-05T09:38:18Z</time>
      </trkpt>
      <trkpt lat="45.45264" lon="6.88252">
        <ele>2442.4</ele>
        <time>2021-01-05T09:38:19Z</time>
      </trkpt>
      <trkpt lat="45.45261" lon="6.8826">
        <ele>2442.4</ele>
        <time>2021-01-05T09:38:20Z</time>
      </trkpt>
      <trkpt lat="45.45259" lon="6.88269">
        <ele>2442.4</ele>
        <time>2021-01-05T09:38:21Z</time>
      </trkpt>
      <trkpt lat="45.45256" lon="6.88277">
        <ele>2442.4</ele>
        <time>2021-01-05T09:38:22Z</time>
      </trkpt>
      <trkpt lat="45.45253" lon="6.88286">
        <ele>2442.4</ele>
        <time>2021-01-05T09:38:23Z</time>
      </trkpt>
      <trkpt lat="45.45251" lon="6.88295">
        <ele>2442.4</ele>
        <time>2021-01-05T09:38:24Z</time>
      </trkpt>
      <trkpt lat="45.45249" lon="6.88305">
        <ele>2442.4</ele>
        <time>2021-01-05T09:38:25Z</time>
      </trkpt>
      <trkpt lat="45.45246" lon="6.88315">
        <ele>2442.4</ele>
        <time>2021-01-05T09:38:26Z</time>
      </trkpt>
      <trkpt lat="45.45243" lon="6.88326">
        <ele>2442.4</ele>
        <time>2021-01-05T09:38:27Z</time>
      </trkpt>
      <trkpt lat="45.45238" lon="6.88336">
        <ele>2434.8</ele>
        <time>2021-01-05T09:38:28Z</time>
      </trkpt>
      <trkpt lat="45.45232" lon="6.88346">
        <ele>2434.8</ele>
        <time>2021-01-05T09:38:29Z</time>
      </trkpt>
      <trkpt lat="45.45224" lon="6.88356">
        <ele>2434.8</ele>
        <time>2021-01-05T09:38:30Z</time>
      </trkpt>
      <trkpt lat="45.45216" lon="6.88364">
        <ele>2434.8</ele>
        <time>2021-01-05T09:38:31Z</time>
      </trkpt>
      <trkpt lat="45.45208" lon="6.88373">
        <ele>2434.8</ele>
        <time>2021-01-05T09:38:32Z</time>
      </trkpt>
      <trkpt lat="45.45203" lon="6.88386">
        <ele>2434.8</ele>
        <time>2021-01-05T09:38:33Z</time>
      </trkpt>
      <trkpt lat="45.45199" lon="6.884">
        <ele>2434.8</ele>
        <time>2021-01-05T09:38:34Z</time>
      </trkpt>
      <trkpt lat="45.45195" lon="6.88417">
        <ele>2434.8</ele>
        <time>2021-01-05T09:38:35Z</time>
      </trkpt>
      <trkpt lat="45.45191" lon="6.88434">
        <ele>2434.8</ele>
        <time>2021-01-05T09:38:36Z</time>
      </trkpt>
      <trkpt lat="45.45186" lon="6.88448">
        <ele>2434.8</ele>
        <time>2021-01-05T09:38:37Z</time>
      </trkpt>
      <trkpt lat="45.45182" lon="6.88463">
        <ele>2416.6</ele>
        <time>2021-01-05T09:38:38Z</time>
      </trkpt>
      <trkpt lat="45.45183" lon="6.88478">
        <ele>2416.6</ele>
        <time>2021-01-05T09:38:39Z</time>
      </trkpt>
      <trkpt lat="45.45184" lon="6.88494">
        <ele>2416.6</ele>
        <time>2021-01-05T09:38:40Z</time>
      </trkpt>
      <trkpt lat="45.45182" lon="6.8851">
        <ele>2416.6</ele>
        <time>2021-01-05T09:38:41Z</time>
      </trkpt>
      <trkpt lat="45.45178" lon="6.88524">
        <ele>2416.6</ele>
        <time>2021-01-05T09:38:42Z</time>
      </trkpt>
      <trkpt lat="45.45173" lon="6.88536">
        <ele>2416.6</ele>
        <time>2021-01-05T09:38:43Z</time>
      </trkpt>
      <trkpt lat="45.45172" lon="6.88548">
        <ele>2416.6</ele>
        <time>2021-01-05T09:38:44Z</time>
      </trkpt>
      <trkpt lat="45.45176" lon="6.88561">
        <ele>2416.6</ele>
        <time>2021-01-05T09:38:45Z</time>
      </trkpt>
      <trkpt lat="45.45179" lon="6.88576">
        <ele>2416.6</ele>
        <time>2021-01-05T09:38:46Z</time>
      </trkpt>
      <trkpt lat="45.45178" lon="6.88592">
        <ele>2416.6</ele>
        <time>2021-01-05T09:38:47Z</time>
      </trkpt>
      <trkpt lat="45.45174" lon="6.88605">
        <ele>2382</ele>
        <time>2021-01-05T09:38:48Z</time>
      </trkpt>
      <trkpt lat="45.45167" lon="6.88618">
        <ele>2382</ele>
        <time>2021-01-05T09:38:49Z</time>
      </trkpt>
      <trkpt lat="45.45163" lon="6.88631">
        <ele>2382</ele>
        <time>2021-01-05T09:38:50Z</time>
      </trkpt>
      <trkpt lat="45.45161" lon="6.88647">
        <ele>2382</ele>
        <time>2021-01-05T09:38:51Z</time>
      </trkpt>
      <trkpt lat="45.45161" lon="6.88663">
        <ele>2382</ele>
        <time>2021-01-05T09:38:52Z</time>
      </trkpt>
      <trkpt lat="45.45158" lon="6.8868">
        <ele>2382</ele>
        <time>2021-01-05T09:38:53Z</time>
      </trkpt>
      <trkpt lat="45.45153" lon="6.88696">
        <ele>2382</ele>
        <time>2021-01-05T09:38:54Z</time>
      </trkpt>
      <trkpt lat="45.45148" lon="6.88715">
        <ele>2382</ele>
        <time>2021-01-05T09:38:55Z</time>
      </trkpt>
      <trkpt lat="45.45144" lon="6.88735">
        <ele>2382</ele>
        <time>2021-01-05T09:38:56Z</time>
      </trkpt>
      <trkpt lat="45.45144" lon="6.88756">
        <ele>2382</ele>
        <time>2021-01-05T09:38:57Z</time>
      </trkpt>
      <trkpt lat="45.45146" lon="6.88775">
        <ele>2344.6</ele>
        <time>2021-01-05T09:38:58Z</time>
      </trkpt>
      <trkpt lat="45.45151" lon="6.88794">
        <ele>2344.6</ele>
        <time>2021-01-05T09:38:59Z</time>
      </trkpt>
      <trkpt lat="45.45158" lon="6.88812">
        <ele>2344.6</ele>
        <time>2021-01-05T09:39:00Z</time>
      </trkpt>
      <trkpt lat="45.45163" lon="6.8883">
        <ele>2344.6</ele>
        <time>2021-01-05T09:39:01Z</time>
      </trkpt>
      <trkpt lat="45.45165" lon="6.88848">
        <ele>2344.6</ele>
        <time>2021-01-05T09:39:02Z</time>
      </trkpt>
      <trkpt lat="45.45167" lon="6.88866">
        <ele>2344.6</ele>
        <time>2021-01-05T09:39:03Z</time>
      </trkpt>
      <trkpt lat="45.45171" lon="6.88884">
        <ele>2344.6</ele>
        <time>2021-01-05T09:39:04Z</time>
      </trkpt>
      <trkpt lat="45.45176" lon="6.88902">
        <ele>2344.6</ele>
        <time>2021-01-05T09:39:05Z</time>
      </trkpt>
      <trkpt lat="45.4518" lon="6.88921">
        <ele>2344.6</ele>
        <time>2021-01-05T09:39:06Z</time>
      </trkpt>
      <trkpt lat="45.45184" lon="6.8894">
        <ele>2344.6</ele>
        <time>2021-01-05T09:39:07Z</time>
      </trkpt>
      <trkpt lat="45.45187" lon="6.8896">
        <ele>2316</ele>
        <time>2021-01-05T09:39:08Z</time>
      </trkpt>
      <trkpt lat="45.45189" lon="6.8898">
        <ele>2316</ele>
        <time>2021-01-05T09:39:09Z</time>
      </trkpt>
      <trkpt lat="45.45192" lon="6.89002">
        <ele>2316</ele>
        <time>2021-01-05T09:39:10Z</time>
      </trkpt>
      <trkpt lat="45.45194" lon="6.89024">
        <ele>2316</ele>
        <time>2021-01-05T09:39:11Z</time>
      </trkpt>
      <trkpt lat="45.45196" lon="6.89046">
        <ele>2316</ele>
        <time>2021-01-05T09:39:12Z</time>
      </trkpt>
      <trkpt lat="45.45198" lon="6.89068">
        <ele>2316</ele>
        <time>2021-01-05T09:39:13Z</time>
      </trkpt>
      <trkpt lat="45.452" lon="6.89089">
        <ele>2316</ele>
        <time>2021-01-05T09:39:14Z</time>
      </trkpt>
      <trkpt lat="45.45201" lon="6.8911">
        <ele>2316</ele>
        <time>2021-01-05T09:39:15Z</time>
      </trkpt>
      <trkpt lat="45.45203" lon="6.89131">
        <ele>2316</ele>
        <time>2021-01-05T09:39:16Z</time>
      </trkpt>
      <trkpt lat="45.45204" lon="6.89151">
        <ele>2316</ele>
        <time>2021-01-05T09:39:17Z</time>
      </trkpt>
      <trkpt lat="45.45206" lon="6.89171">
        <ele>2285.6</ele>
        <time>2021-01-05T09:39:18Z</time>
      </trkpt>
      <trkpt lat="45.45206" lon="6.8919">
        <ele>2285.6</ele>
        <time>2021-01-05T09:39:19Z</time>
      </trkpt>
      <trkpt lat="45.45206" lon="6.89208">
        <ele>2285.6</ele>
        <time>2021-01-05T09:39:20Z</time>
      </trkpt>
      <trkpt lat="45.45204" lon="6.89225">
        <ele>2285.6</ele>
        <time>2021-01-05T09:39:21Z</time>
      </trkpt>
      <trkpt lat="45.45204" lon="6.89239">
        <ele>2285.6</ele>
        <time>2021-01-05T09:39:22Z</time>
      </trkpt>
      <trkpt lat="45.45203" lon="6.89257">
        <ele>2285.6</ele>
        <time>2021-01-05T09:39:23Z</time>
      </trkpt>
      <trkpt lat="45.45203" lon="6.89273">
        <ele>2285.6</ele>
        <time>2021-01-05T09:39:24Z</time>
      </trkpt>
      <trkpt lat="45.45204" lon="6.89289">
        <ele>2285.6</ele>
        <time>2021-01-05T09:39:25Z</time>
      </trkpt>
      <trkpt lat="45.45208" lon="6.89305">
        <ele>2285.6</ele>
        <time>2021-01-05T09:39:26Z</time>
      </trkpt>
      <trkpt lat="45.45212" lon="6.89316">
        <ele>2285.6</ele>
        <time>2021-01-05T09:39:27Z</time>
      </trkpt>
      <trkpt lat="45.45216" lon="6.8933">
        <ele>2258.4</ele>
        <time>2021-01-05T09:39:28Z</time>
      </trkpt>
      <trkpt lat="45.45219" lon="6.89349">
        <ele>2258.4</ele>
        <time>2021-01-05T09:39:29Z</time>
      </trkpt>
      <trkpt lat="45.45215" lon="6.89364">
        <ele>2258.4</ele>
        <time>2021-01-05T09:39:30Z</time>
      </trkpt>
      <trkpt lat="45.45213" lon="6.89374">
        <ele>2258.4</ele>
        <time>2021-01-05T09:39:31Z</time>
      </trkpt>
      <trkpt lat="45.4521" lon="6.89387">
        <ele>2258.4</ele>
        <time>2021-01-05T09:39:32Z</time>
      </trkpt>
      <trkpt lat="45.45202" lon="6.894">
        <ele>2258.4</ele>
        <time>2021-01-05T09:39:33Z</time>
      </trkpt>
      <trkpt lat="45.45196" lon="6.89411">
        <ele>2258.4</ele>
        <time>2021-01-05T09:39:34Z</time>
      </trkpt>
      <trkpt lat="45.45194" lon="6.89422">
        <ele>2258.4</ele>
        <time>2021-01-05T09:39:35Z</time>
      </trkpt>
      <trkpt lat="45.4519" lon="6.89434">
        <ele>2258.4</ele>
        <time>2021-01-05T09:39:36Z</time>
      </trkpt>
      <trkpt lat="45.45184" lon="6.89448">
        <ele>2258.4</ele>
        <time>2021-01-05T09:39:37Z</time>
      </trkpt>
      <trkpt lat="45.45179" lon="6.89456">
        <ele>2224.4</ele>
        <time>2021-01-05T09:39:38Z</time>
      </trkpt>
      <trkpt lat="45.45172" lon="6.89464">
        <ele>2224.4</ele>
        <time>2021-01-05T09:39:39Z</time>
      </trkpt>
      <trkpt lat="45.45169" lon="6.89474">
        <ele>2224.4</ele>
        <time>2021-01-05T09:39:40Z</time>
      </trkpt>
      <trkpt lat="45.45169" lon="6.89486">
        <ele>2224.4</ele>
        <time>2021-01-05T09:39:41Z</time>
      </trkpt>
      <trkpt lat="45.45168" lon="6.89499">
        <ele>2224.4</ele>
        <time>2021-01-05T09:39:42Z</time>
      </trkpt>
      <trkpt lat="45.45166" lon="6.8951">
        <ele>2224.4</ele>
        <time>2021-01-05T09:39:43Z</time>
      </trkpt>
      <trkpt lat="45.45165" lon="6.89518">
        <ele>2224.4</ele>
        <time>2021-01-05T09:39:44Z</time>
      </trkpt>
      <trkpt lat="45.45169" lon="6.89528">
        <ele>2224.4</ele>
        <time>2021-01-05T09:39:45Z</time>
      </trkpt>
      <trkpt lat="45.45172" lon="6.89534">
        <ele>2224.4</ele>
        <time>2021-01-05T09:39:46Z</time>
      </trkpt>
      <trkpt lat="45.45176" lon="6.89541">
        <ele>2224.4</ele>
        <time>2021-01-05T09:39:47Z</time>
      </trkpt>
      <trkpt lat="45.45178" lon="6.8955">
        <ele>2193.6</ele>
        <time>2021-01-05T09:39:48Z</time>
      </trkpt>
      <trkpt lat="45.4518" lon="6.89561">
        <ele>2193.6</ele>
        <time>2021-01-05T09:39:49Z</time>
      </trkpt>
      <trkpt lat="45.45183" lon="6.89569">
        <ele>2193.6</ele>
        <time>2021-01-05T09:39:50Z</time>
      </trkpt>
      <trkpt lat="45.45187" lon="6.89573">
        <ele>2193.6</ele>
        <time>2021-01-05T09:39:51Z</time>
      </trkpt>
      <trkpt lat="45.45191" lon="6.89575">
        <ele>2193.6</ele>
        <time>2021-01-05T09:39:52Z</time>
      </trkpt>
      <trkpt lat="45.45196" lon="6.89581">
        <ele>2193.6</ele>
        <time>2021-01-05T09:39:53Z</time>
      </trkpt>
      <trkpt lat="45.452" lon="6.89588">
        <ele>2193.6</ele>
        <time>2021-01-05T09:39:54Z</time>
      </trkpt>
      <trkpt lat="45.452" lon="6.89595">
        <ele>2193.6</ele>
        <time>2021-01-05T09:39:55Z</time>
      </trkpt>
      <trkpt lat="45.45201" lon="6.89601">
        <ele>2193.6</ele>
        <time>2021-01-05T09:39:56Z</time>
      </trkpt>
      <trkpt lat="45.45203" lon="6.89609">
        <ele>2193.6</ele>
        <time>2021-01-05T09:39:57Z</time>
      </trkpt>
      <trkpt lat="45.45207" lon="6.89613">
        <ele>2167</ele>
        <time>2021-01-05T09:39:58Z</time>
      </trkpt>
      <trkpt lat="45.45212" lon="6.89617">
        <ele>2167</ele>
        <time>2021-01-05T09:39:59Z</time>
      </trkpt>
      <trkpt lat="45.45215" lon="6.89622">
        <ele>2167</ele>
        <time>2021-01-05T09:40:00Z</time>
      </trkpt>
      <trkpt lat="45.45218" lon="6.89628">
        <ele>2167</ele>
        <time>2021-01-05T09:40:01Z</time>
      </trkpt>
      <trkpt lat="45.45221" lon="6.89633">
        <ele>2167</ele>
        <time>2021-01-05T09:40:02Z</time>
      </trkpt>
      <trkpt lat="45.45224" lon="6.8964">
        <ele>2167</ele>
        <time>2021-01-05T09:40:03Z</time>
      </trkpt>
      <trkpt lat="45.45225" lon="6.89648">
        <ele>2167</ele>
        <time>2021-01-05T09:40:04Z</time>
      </trkpt>
      <trkpt lat="45.45223" lon="6.89655">
        <ele>2167</ele>
        <time>2021-01-05T09:40:05Z</time>
      </trkpt>
      <trkpt lat="45.45224" lon="6.89662">
        <ele>2167</ele>
        <time>2021-01-05T09:40:06Z</time>
      </trkpt>
      <trkpt lat="45.45225" lon="6.89672">
        <ele>2167</ele>
        <time>2021-01-05T09:40:07Z</time>
      </trkpt>
      <trkpt lat="45.45227" lon="6.89682">
        <ele>2143.4</ele>
        <time>2021-01-05T09:40:08Z</time>
      </trkpt>
      <trkpt lat="45.45231" lon="6.89692">
        <ele>2143.4</ele>
        <time>2021-01-05T09:40:09Z</time>
      </trkpt>
      <trkpt lat="45.4524" lon="6.89704">
        <ele>2143.4</ele>
        <time>2021-01-05T09:40:10Z</time>
      </trkpt>
      <trkpt lat="45.45246" lon="6.89716">
        <ele>2143.4</ele>
        <time>2021-01-05T09:40:11Z</time>
      </trkpt>
      <trkpt lat="45.45252" lon="6.89726">
        <ele>2143.4</ele>
        <time>2021-01-05T09:40:12Z</time>
      </trkpt>
      <trkpt lat="45.4526" lon="6.89737">
        <ele>2143.4</ele>
        <time>2021-01-05T09:40:13Z</time>
      </trkpt>
      <trkpt lat="45.45264" lon="6.89748">
        <ele>2143.4</ele>
        <time>2021-01-05T09:40:14Z</time>
      </trkpt>
      <trkpt lat="45.45268" lon="6.89757">
        <ele>2143.4</ele>
        <time>2021-01-05T09:40:15Z</time>
      </trkpt>
      <trkpt lat="45.45269" lon="6.89766">
        <ele>2143.4</ele>
        <time>2021-01-05T09:40:16Z</time>
      </trkpt>
      <trkpt lat="45.4527" lon="6.89775">
        <ele>2143.4</ele>
        <time>2021-01-05T09:40:17Z</time>
      </trkpt>
      <trkpt lat="45.4527" lon="6.89781">
        <ele>2121</ele>
        <time>2021-01-05T09:40:18Z</time>
      </trkpt>
      <trkpt lat="45.4527" lon="6.89789">
        <ele>2121</ele>
        <time>2021-01-05T09:40:19Z</time>
      </trkpt>
      <trkpt lat="45.4527" lon="6.89794">
        <ele>2121</ele>
        <time>2021-01-05T09:40:20Z</time>
      </trkpt>
      <trkpt lat="45.45269" lon="6.89799">
        <ele>2121</ele>
        <time>2021-01-05T09:40:21Z</time>
      </trkpt>
      <trkpt lat="45.45269" lon="6.89803">
        <ele>2121</ele>
        <time>2021-01-05T09:40:22Z</time>
      </trkpt>
      <trkpt lat="45.45269" lon="6.89809">
        <ele>2121</ele>
        <time>2021-01-05T09:40:23Z</time>
      </trkpt>
      <trkpt lat="45.45268" lon="6.89814">
        <ele>2121</ele>
        <time>2021-01-05T09:40:24Z</time>
      </trkpt>
      <trkpt lat="45.45268" lon="6.89819">
        <ele>2121</ele>
        <time>2021-01-05T09:40:25Z</time>
      </trkpt>
      <trkpt lat="45.45268" lon="6.89824">
        <ele>2121</ele>
        <time>2021-01-05T09:40:26Z</time>
      </trkpt>
      <trkpt lat="45.45268" lon="6.89828">
        <ele>2121</ele>
        <time>2021-01-05T09:40:27Z</time>
      </trkpt>
      <trkpt lat="45.45268" lon="6.89833">
        <ele>2121</ele>
        <time>2021-01-05T09:40:29Z</time>
      </trkpt>
      <trkpt lat="45.45268" lon="6.89837">
        <ele>2121</ele>
        <time>2021-01-05T09:40:31Z</time>
      </trkpt>
      <trkpt lat="45.45266" lon="6.8984">
        <ele>2121</ele>
        <time>2021-01-05T09:40:33Z</time>
      </trkpt>
      <trkpt lat="45.45268" lon="6.89839">
        <ele>2121</ele>
        <time>2021-01-05T09:40:40Z</time>
      </trkpt>
      <trkpt lat="45.45258" lon="6.89841">
        <ele>2121</ele>
        <time>2021-01-05T09:44:13Z</time>
      </trkpt>
      <trkpt lat="45.45258" lon="6.89845">
        <ele>2121</ele>
        <time>2021-01-05T09:44:15Z</time>
      </trkpt>
      <trkpt lat="45.45257" lon="6.89849">
        <ele>2121</ele>
        <time>2021-01-05T09:44:17Z</time>
      </trkpt>
      <trkpt lat="45.45256" lon="6.89853">
        <ele>2121</ele>
        <time>2021-01-05T09:44:19Z</time>
      </trkpt>
      <trkpt lat="45.45258" lon="6.89856">
        <ele>2121</ele>
        <time>2021-01-05T09:44:21Z</time>
      </trkpt>
      <trkpt lat="45.45257" lon="6.89861">
        <ele>2121</ele>
        <time>2021-01-05T09:44:23Z</time>
      </trkpt>
      <trkpt lat="45.45258" lon="6.89865">
        <ele>2121</ele>
        <time>2021-01-05T09:44:25Z</time>
      </trkpt>
      <trkpt lat="45.45257" lon="6.89868">
        <ele>2121</ele>
        <time>2021-01-05T09:44:26Z</time>
      </trkpt>
      <trkpt lat="45.45256" lon="6.8987">
        <ele>2121</ele>
        <time>2021-01-05T09:44:27Z</time>
      </trkpt>
      <trkpt lat="45.45254" lon="6.89874">
        <ele>2121</ele>
        <time>2021-01-05T09:44:29Z</time>
      </trkpt>
      <trkpt lat="45.45254" lon="6.89877">
        <ele>2121</ele>
        <time>2021-01-05T09:44:30Z</time>
      </trkpt>
      <trkpt lat="45.45252" lon="6.89881">
        <ele>2121</ele>
        <time>2021-01-05T09:44:32Z</time>
      </trkpt>
      <trkpt lat="45.45251" lon="6.89884">
        <ele>2121</ele>
        <time>2021-01-05T09:44:34Z</time>
      </trkpt>
      <trkpt lat="45.45252" lon="6.89888">
        <ele>2121</ele>
        <time>2021-01-05T09:44:37Z</time>
      </trkpt>
      <trkpt lat="45.45251" lon="6.89891">
        <ele>2121</ele>
        <time>2021-01-05T09:44:39Z</time>
      </trkpt>
      <trkpt lat="45.4525" lon="6.89894">
        <ele>2121</ele>
        <time>2021-01-05T09:44:41Z</time>
      </trkpt>
      <trkpt lat="45.4525" lon="6.89899">
        <ele>2121</ele>
        <time>2021-01-05T09:44:43Z</time>
      </trkpt>
      <trkpt lat="45.45248" lon="6.89901">
        <ele>2121</ele>
        <time>2021-01-05T09:44:44Z</time>
      </trkpt>
      <trkpt lat="45.45247" lon="6.89904">
        <ele>2121</ele>
        <time>2021-01-05T09:44:46Z</time>
      </trkpt>
      <trkpt lat="45.45246" lon="6.89908">
        <ele>2105.8</ele>
        <time>2021-01-05T09:44:48Z</time>
      </trkpt>
      <trkpt lat="45.45246" lon="6.89912">
        <ele>2105.8</ele>
        <time>2021-01-05T09:44:50Z</time>
      </trkpt>
      <trkpt lat="45.45245" lon="6.89916">
        <ele>2105.8</ele>
        <time>2021-01-05T09:44:52Z</time>
      </trkpt>
      <trkpt lat="45.45244" lon="6.89919">
        <ele>2105.8</ele>
        <time>2021-01-05T09:44:54Z</time>
      </trkpt>
      <trkpt lat="45.45244" lon="6.89923">
        <ele>2105.8</ele>
        <time>2021-01-05T09:44:56Z</time>
      </trkpt>
      <trkpt lat="45.45244" lon="6.89926">
        <ele>2107.6</ele>
        <time>2021-01-05T09:44:58Z</time>
      </trkpt>
      <trkpt lat="45.45242" lon="6.8993">
        <ele>2107.6</ele>
        <time>2021-01-05T09:45:00Z</time>
      </trkpt>
      <trkpt lat="45.45241" lon="6.89933">
        <ele>2107.6</ele>
        <time>2021-01-05T09:45:03Z</time>
      </trkpt>
      <trkpt lat="45.4524" lon="6.89936">
        <ele>2107.6</ele>
        <time>2021-01-05T09:45:05Z</time>
      </trkpt>
      <trkpt lat="45.45239" lon="6.89939">
        <ele>2110.4</ele>
        <time>2021-01-05T09:45:08Z</time>
      </trkpt>
      <trkpt lat="45.45237" lon="6.89941">
        <ele>2110.4</ele>
        <time>2021-01-05T09:45:10Z</time>
      </trkpt>
      <trkpt lat="45.45236" lon="6.89944">
        <ele>2110.4</ele>
        <time>2021-01-05T09:45:12Z</time>
      </trkpt>
      <trkpt lat="45.45236" lon="6.89947">
        <ele>2110.4</ele>
        <time>2021-01-05T09:45:15Z</time>
      </trkpt>
      <trkpt lat="45.45237" lon="6.8995">
        <ele>2113.4</ele>
        <time>2021-01-05T09:45:18Z</time>
      </trkpt>
      <trkpt lat="45.45238" lon="6.89952">
        <ele>2113.4</ele>
        <time>2021-01-05T09:45:20Z</time>
      </trkpt>
      <trkpt lat="45.4524" lon="6.89956">
        <ele>2113.4</ele>
        <time>2021-01-05T09:45:23Z</time>
      </trkpt>
      <trkpt lat="45.45239" lon="6.89959">
        <ele>2113.4</ele>
        <time>2021-01-05T09:45:25Z</time>
      </trkpt>
      <trkpt lat="45.45238" lon="6.89961">
        <ele>2113.4</ele>
        <time>2021-01-05T09:45:27Z</time>
      </trkpt>
      <trkpt lat="45.45234" lon="6.89965">
        <ele>2113.4</ele>
        <time>2021-01-05T09:45:29Z</time>
      </trkpt>
      <trkpt lat="45.45234" lon="6.89968">
        <ele>2113.4</ele>
        <time>2021-01-05T09:45:31Z</time>
      </trkpt>
      <trkpt lat="45.45232" lon="6.89972">
        <ele>2113.4</ele>
        <time>2021-01-05T09:45:33Z</time>
      </trkpt>
      <trkpt lat="45.45232" lon="6.89975">
        <ele>2113.4</ele>
        <time>2021-01-05T09:45:35Z</time>
      </trkpt>
      <trkpt lat="45.4523" lon="6.89978">
        <ele>2113.4</ele>
        <time>2021-01-05T09:45:37Z</time>
      </trkpt>
      <trkpt lat="45.45228" lon="6.89981">
        <ele>2113.4</ele>
        <time>2021-01-05T09:45:39Z</time>
      </trkpt>
      <trkpt lat="45.45228" lon="6.89983">
        <ele>2113.4</ele>
        <time>2021-01-05T09:45:41Z</time>
      </trkpt>
      <trkpt lat="45.45228" lon="6.89987">
        <ele>2113.4</ele>
        <time>2021-01-05T09:45:43Z</time>
      </trkpt>
      <trkpt lat="45.45229" lon="6.89991">
        <ele>2113.4</ele>
        <time>2021-01-05T09:45:45Z</time>
      </trkpt>
      <trkpt lat="45.45228" lon="6.89995">
        <ele>2113.4</ele>
        <time>2021-01-05T09:45:47Z</time>
      </trkpt>
      <trkpt lat="45.45228" lon="6.89997">
        <ele>2113.4</ele>
        <time>2021-01-05T09:45:49Z</time>
      </trkpt>
      <trkpt lat="45.45227" lon="6.90001">
        <ele>2113.4</ele>
        <time>2021-01-05T09:45:51Z</time>
      </trkpt>
      <trkpt lat="45.45227" lon="6.90004">
        <ele>2113.4</ele>
        <time>2021-01-05T09:45:53Z</time>
      </trkpt>
      <trkpt lat="45.45225" lon="6.90007">
        <ele>2113.4</ele>
        <time>2021-01-05T09:45:55Z</time>
      </trkpt>
      <trkpt lat="45.45224" lon="6.90009">
        <ele>2113.4</ele>
        <time>2021-01-05T09:45:56Z</time>
      </trkpt>
      <trkpt lat="45.45224" lon="6.90012">
        <ele>2124</ele>
        <time>2021-01-05T09:45:58Z</time>
      </trkpt>
      <trkpt lat="45.45225" lon="6.90015">
        <ele>2124</ele>
        <time>2021-01-05T09:46:00Z</time>
      </trkpt>
      <trkpt lat="45.45224" lon="6.90018">
        <ele>2124</ele>
        <time>2021-01-05T09:46:02Z</time>
      </trkpt>
      <trkpt lat="45.45221" lon="6.90021">
        <ele>2124</ele>
        <time>2021-01-05T09:46:04Z</time>
      </trkpt>
      <trkpt lat="45.4522" lon="6.90022">
        <ele>2124</ele>
        <time>2021-01-05T09:46:05Z</time>
      </trkpt>
      <trkpt lat="45.45218" lon="6.90024">
        <ele>2124</ele>
        <time>2021-01-05T09:46:07Z</time>
      </trkpt>
      <trkpt lat="45.45216" lon="6.90027">
        <ele>2124</ele>
        <time>2021-01-05T09:46:09Z</time>
      </trkpt>
      <trkpt lat="45.45215" lon="6.9003">
        <ele>2124</ele>
        <time>2021-01-05T09:46:11Z</time>
      </trkpt>
      <trkpt lat="45.45214" lon="6.90033">
        <ele>2124</ele>
        <time>2021-01-05T09:46:13Z</time>
      </trkpt>
      <trkpt lat="45.45213" lon="6.90037">
        <ele>2124</ele>
        <time>2021-01-05T09:46:15Z</time>
      </trkpt>
      <trkpt lat="45.45213" lon="6.9004">
        <ele>2124</ele>
        <time>2021-01-05T09:46:17Z</time>
      </trkpt>
      <trkpt lat="45.45211" lon="6.90041">
        <ele>2128.8</ele>
        <time>2021-01-05T09:46:18Z</time>
      </trkpt>
      <trkpt lat="45.45209" lon="6.90044">
        <ele>2128.8</ele>
        <time>2021-01-05T09:46:20Z</time>
      </trkpt>
      <trkpt lat="45.45207" lon="6.90046">
        <ele>2128.8</ele>
        <time>2021-01-05T09:46:22Z</time>
      </trkpt>
      <trkpt lat="45.45206" lon="6.90049">
        <ele>2128.8</ele>
        <time>2021-01-05T09:46:24Z</time>
      </trkpt>
      <trkpt lat="45.45204" lon="6.90051">
        <ele>2128.8</ele>
        <time>2021-01-05T09:46:25Z</time>
      </trkpt>
      <trkpt lat="45.45203" lon="6.90055">
        <ele>2128.8</ele>
        <time>2021-01-05T09:46:27Z</time>
      </trkpt>
      <trkpt lat="45.45201" lon="6.90058">
        <ele>2128.8</ele>
        <time>2021-01-05T09:46:29Z</time>
      </trkpt>
      <trkpt lat="45.45199" lon="6.90061">
        <ele>2128.8</ele>
        <time>2021-01-05T09:46:31Z</time>
      </trkpt>
      <trkpt lat="45.45197" lon="6.90064">
        <ele>2128.8</ele>
        <time>2021-01-05T09:46:33Z</time>
      </trkpt>
      <trkpt lat="45.45196" lon="6.90068">
        <ele>2128.8</ele>
        <time>2021-01-05T09:46:35Z</time>
      </trkpt>
      <trkpt lat="45.45194" lon="6.9007">
        <ele>2128.8</ele>
        <time>2021-01-05T09:46:36Z</time>
      </trkpt>
      <trkpt lat="45.45192" lon="6.90072">
        <ele>2128.8</ele>
        <time>2021-01-05T09:46:37Z</time>
      </trkpt>
      <trkpt lat="45.45191" lon="6.90074">
        <ele>2131.6</ele>
        <time>2021-01-05T09:46:38Z</time>
      </trkpt>
      <trkpt lat="45.45188" lon="6.90078">
        <ele>2131.6</ele>
        <time>2021-01-05T09:46:40Z</time>
      </trkpt>
      <trkpt lat="45.45187" lon="6.9008">
        <ele>2131.6</ele>
        <time>2021-01-05T09:46:41Z</time>
      </trkpt>
      <trkpt lat="45.45184" lon="6.90084">
        <ele>2131.6</ele>
        <time>2021-01-05T09:46:43Z</time>
      </trkpt>
      <trkpt lat="45.45183" lon="6.90086">
        <ele>2131.6</ele>
        <time>2021-01-05T09:46:45Z</time>
      </trkpt>
      <trkpt lat="45.4518" lon="6.9009">
        <ele>2131.6</ele>
        <time>2021-01-05T09:46:47Z</time>
      </trkpt>
      <trkpt lat="45.45179" lon="6.90092">
        <ele>2132.4</ele>
        <time>2021-01-05T09:46:48Z</time>
      </trkpt>
      <trkpt lat="45.45177" lon="6.90095">
        <ele>2132.4</ele>
        <time>2021-01-05T09:46:49Z</time>
      </trkpt>
      <trkpt lat="45.45176" lon="6.90098">
        <ele>2132.4</ele>
        <time>2021-01-05T09:46:51Z</time>
      </trkpt>
      <trkpt lat="45.45175" lon="6.90102">
        <ele>2132.4</ele>
        <time>2021-01-05T09:46:53Z</time>
      </trkpt>
      <trkpt lat="45.45173" lon="6.90106">
        <ele>2132.4</ele>
        <time>2021-01-05T09:46:55Z</time>
      </trkpt>
      <trkpt lat="45.45172" lon="6.90109">
        <ele>2132.4</ele>
        <time>2021-01-05T09:46:57Z</time>
      </trkpt>
      <trkpt lat="45.45171" lon="6.90113">
        <ele>2132.4</ele>
        <time>2021-01-05T09:46:59Z</time>
      </trkpt>
      <trkpt lat="45.45169" lon="6.90117">
        <ele>2132.4</ele>
        <time>2021-01-05T09:47:01Z</time>
      </trkpt>
      <trkpt lat="45.45168" lon="6.9012">
        <ele>2132.4</ele>
        <time>2021-01-05T09:47:03Z</time>
      </trkpt>
      <trkpt lat="45.45168" lon="6.90124">
        <ele>2132.4</ele>
        <time>2021-01-05T09:47:05Z</time>
      </trkpt>
      <trkpt lat="45.45167" lon="6.90129">
        <ele>2132.4</ele>
        <time>2021-01-05T09:47:07Z</time>
      </trkpt>
      <trkpt lat="45.45166" lon="6.90132">
        <ele>2132.4</ele>
        <time>2021-01-05T09:47:09Z</time>
      </trkpt>
      <trkpt lat="45.45164" lon="6.90136">
        <ele>2132.4</ele>
        <time>2021-01-05T09:47:11Z</time>
      </trkpt>
      <trkpt lat="45.45163" lon="6.90139">
        <ele>2132.4</ele>
        <time>2021-01-05T09:47:13Z</time>
      </trkpt>
      <trkpt lat="45.45163" lon="6.90142">
        <ele>2132.4</ele>
        <time>2021-01-05T09:47:15Z</time>
      </trkpt>
      <trkpt lat="45.45161" lon="6.90144">
        <ele>2132.4</ele>
        <time>2021-01-05T09:47:16Z</time>
      </trkpt>
      <trkpt lat="45.4516" lon="6.90148">
        <ele>2136.2</ele>
        <time>2021-01-05T09:47:18Z</time>
      </trkpt>
      <trkpt lat="45.4516" lon="6.90152">
        <ele>2136.2</ele>
        <time>2021-01-05T09:47:20Z</time>
      </trkpt>
      <trkpt lat="45.45159" lon="6.90156">
        <ele>2136.2</ele>
        <time>2021-01-05T09:47:22Z</time>
      </trkpt>
      <trkpt lat="45.45158" lon="6.9016">
        <ele>2136.2</ele>
        <time>2021-01-05T09:47:24Z</time>
      </trkpt>
      <trkpt lat="45.45158" lon="6.90163">
        <ele>2136.2</ele>
        <time>2021-01-05T09:47:26Z</time>
      </trkpt>
      <trkpt lat="45.45158" lon="6.90165">
        <ele>2136.2</ele>
        <time>2021-01-05T09:47:27Z</time>
      </trkpt>
      <trkpt lat="45.45158" lon="6.90168">
        <ele>2136.2</ele>
        <time>2021-01-05T09:47:29Z</time>
      </trkpt>
      <trkpt lat="45.4516" lon="6.9017">
        <ele>2136.2</ele>
        <time>2021-01-05T09:47:31Z</time>
      </trkpt>
      <trkpt lat="45.4516" lon="6.90174">
        <ele>2136.2</ele>
        <time>2021-01-05T09:47:33Z</time>
      </trkpt>
      <trkpt lat="45.4516" lon="6.90178">
        <ele>2136.2</ele>
        <time>2021-01-05T09:47:35Z</time>
      </trkpt>
      <trkpt lat="45.45159" lon="6.90183">
        <ele>2136.2</ele>
        <time>2021-01-05T09:47:37Z</time>
      </trkpt>
      <trkpt lat="45.45159" lon="6.90186">
        <ele>2136.2</ele>
        <time>2021-01-05T09:47:39Z</time>
      </trkpt>
      <trkpt lat="45.45157" lon="6.9019">
        <ele>2136.2</ele>
        <time>2021-01-05T09:47:41Z</time>
      </trkpt>
      <trkpt lat="45.45156" lon="6.90194">
        <ele>2136.2</ele>
        <time>2021-01-05T09:47:43Z</time>
      </trkpt>
      <trkpt lat="45.45156" lon="6.90198">
        <ele>2136.2</ele>
        <time>2021-01-05T09:47:45Z</time>
      </trkpt>
      <trkpt lat="45.45156" lon="6.90201">
        <ele>2136.2</ele>
        <time>2021-01-05T09:47:47Z</time>
      </trkpt>
      <trkpt lat="45.45155" lon="6.90204">
        <ele>2136.2</ele>
        <time>2021-01-05T09:47:49Z</time>
      </trkpt>
      <trkpt lat="45.45154" lon="6.90209">
        <ele>2136.2</ele>
        <time>2021-01-05T09:47:51Z</time>
      </trkpt>
      <trkpt lat="45.45154" lon="6.90213">
        <ele>2136.2</ele>
        <time>2021-01-05T09:47:53Z</time>
      </trkpt>
      <trkpt lat="45.45154" lon="6.90216">
        <ele>2136.2</ele>
        <time>2021-01-05T09:47:55Z</time>
      </trkpt>
      <trkpt lat="45.45153" lon="6.9022">
        <ele>2136.2</ele>
        <time>2021-01-05T09:47:57Z</time>
      </trkpt>
      <trkpt lat="45.45153" lon="6.90224">
        <ele>2136.2</ele>
        <time>2021-01-05T09:47:59Z</time>
      </trkpt>
      <trkpt lat="45.45154" lon="6.90226">
        <ele>2136.2</ele>
        <time>2021-01-05T09:48:01Z</time>
      </trkpt>
      <trkpt lat="45.45153" lon="6.9023">
        <ele>2136.2</ele>
        <time>2021-01-05T09:48:03Z</time>
      </trkpt>
      <trkpt lat="45.45153" lon="6.90234">
        <ele>2136.2</ele>
        <time>2021-01-05T09:48:05Z</time>
      </trkpt>
      <trkpt lat="45.45152" lon="6.90237">
        <ele>2136.2</ele>
        <time>2021-01-05T09:48:07Z</time>
      </trkpt>
      <trkpt lat="45.45153" lon="6.90241">
        <ele>2136.2</ele>
        <time>2021-01-05T09:48:10Z</time>
      </trkpt>
      <trkpt lat="45.45153" lon="6.90243">
        <ele>2136.2</ele>
        <time>2021-01-05T09:48:12Z</time>
      </trkpt>
      <trkpt lat="45.45153" lon="6.90246">
        <ele>2136.2</ele>
        <time>2021-01-05T09:48:14Z</time>
      </trkpt>
      <trkpt lat="45.45152" lon="6.9025">
        <ele>2136.2</ele>
        <time>2021-01-05T09:48:17Z</time>
      </trkpt>
      <trkpt lat="45.45151" lon="6.90253">
        <ele>2136.2</ele>
        <time>2021-01-05T09:48:19Z</time>
      </trkpt>
      <trkpt lat="45.45151" lon="6.90257">
        <ele>2136.2</ele>
        <time>2021-01-05T09:48:22Z</time>
      </trkpt>
      <trkpt lat="45.45152" lon="6.90261">
        <ele>2136.2</ele>
        <time>2021-01-05T09:48:24Z</time>
      </trkpt>
      <trkpt lat="45.45151" lon="6.90264">
        <ele>2136.2</ele>
        <time>2021-01-05T09:48:26Z</time>
      </trkpt>
      <trkpt lat="45.45152" lon="6.90266">
        <ele>2150.8</ele>
        <time>2021-01-05T09:48:28Z</time>
      </trkpt>
      <trkpt lat="45.45154" lon="6.9027">
        <ele>2150.8</ele>
        <time>2021-01-05T09:48:30Z</time>
      </trkpt>
      <trkpt lat="45.45153" lon="6.90273">
        <ele>2150.8</ele>
        <time>2021-01-05T09:48:32Z</time>
      </trkpt>
      <trkpt lat="45.45153" lon="6.90276">
        <ele>2150.8</ele>
        <time>2021-01-05T09:48:34Z</time>
      </trkpt>
      <trkpt lat="45.45154" lon="6.9028">
        <ele>2150.8</ele>
        <time>2021-01-05T09:48:36Z</time>
      </trkpt>
      <trkpt lat="45.45155" lon="6.90283">
        <ele>2154.4</ele>
        <time>2021-01-05T09:48:38Z</time>
      </trkpt>
      <trkpt lat="45.45155" lon="6.90287">
        <ele>2154.4</ele>
        <time>2021-01-05T09:48:40Z</time>
      </trkpt>
      <trkpt lat="45.45155" lon="6.9029">
        <ele>2154.4</ele>
        <time>2021-01-05T09:48:42Z</time>
      </trkpt>
      <trkpt lat="45.45153" lon="6.90292">
        <ele>2154.4</ele>
        <time>2021-01-05T09:48:44Z</time>
      </trkpt>
      <trkpt lat="45.45153" lon="6.90296">
        <ele>2154.4</ele>
        <time>2021-01-05T09:48:47Z</time>
      </trkpt>
      <trkpt lat="45.45153" lon="6.90299">
        <ele>2154.4</ele>
        <time>2021-01-05T09:48:49Z</time>
      </trkpt>
      <trkpt lat="45.45152" lon="6.90302">
        <ele>2154.4</ele>
        <time>2021-01-05T09:48:51Z</time>
      </trkpt>
      <trkpt lat="45.45151" lon="6.90306">
        <ele>2154.4</ele>
        <time>2021-01-05T09:48:53Z</time>
      </trkpt>
      <trkpt lat="45.45153" lon="6.90309">
        <ele>2154.4</ele>
        <time>2021-01-05T09:48:55Z</time>
      </trkpt>
      <trkpt lat="45.45152" lon="6.90312">
        <ele>2154.4</ele>
        <time>2021-01-05T09:48:57Z</time>
      </trkpt>
      <trkpt lat="45.45151" lon="6.90314">
        <ele>2154.4</ele>
        <time>2021-01-05T09:48:59Z</time>
      </trkpt>
      <trkpt lat="45.45151" lon="6.90318">
        <ele>2154.4</ele>
        <time>2021-01-05T09:49:02Z</time>
      </trkpt>
      <trkpt lat="45.4515" lon="6.9032">
        <ele>2154.4</ele>
        <time>2021-01-05T09:49:04Z</time>
      </trkpt>
      <trkpt lat="45.4515" lon="6.90324">
        <ele>2154.4</ele>
        <time>2021-01-05T09:49:07Z</time>
      </trkpt>
      <trkpt lat="45.4515" lon="6.90328">
        <ele>2154.4</ele>
        <time>2021-01-05T09:49:10Z</time>
      </trkpt>
      <trkpt lat="45.45151" lon="6.9033">
        <ele>2154.4</ele>
        <time>2021-01-05T09:49:12Z</time>
      </trkpt>
      <trkpt lat="45.45151" lon="6.90334">
        <ele>2154.4</ele>
        <time>2021-01-05T09:49:15Z</time>
      </trkpt>
      <trkpt lat="45.4515" lon="6.90337">
        <ele>2154.4</ele>
        <time>2021-01-05T09:49:17Z</time>
      </trkpt>
      <trkpt lat="45.45148" lon="6.90339">
        <ele>2154.4</ele>
        <time>2021-01-05T09:49:19Z</time>
      </trkpt>
      <trkpt lat="45.45147" lon="6.90342">
        <ele>2154.4</ele>
        <time>2021-01-05T09:49:22Z</time>
      </trkpt>
      <trkpt lat="45.45145" lon="6.90344">
        <ele>2154.4</ele>
        <time>2021-01-05T09:49:24Z</time>
      </trkpt>
      <trkpt lat="45.45145" lon="6.90346">
        <ele>2154.4</ele>
        <time>2021-01-05T09:49:26Z</time>
      </trkpt>
      <trkpt lat="45.45144" lon="6.90349">
        <ele>2168.6</ele>
        <time>2021-01-05T09:49:28Z</time>
      </trkpt>
      <trkpt lat="45.45143" lon="6.90352">
        <ele>2168.6</ele>
        <time>2021-01-05T09:49:30Z</time>
      </trkpt>
      <trkpt lat="45.45143" lon="6.90355">
        <ele>2168.6</ele>
        <time>2021-01-05T09:49:32Z</time>
      </trkpt>
      <trkpt lat="45.45142" lon="6.90358">
        <ele>2168.6</ele>
        <time>2021-01-05T09:49:34Z</time>
      </trkpt>
      <trkpt lat="45.45141" lon="6.9036">
        <ele>2168.6</ele>
        <time>2021-01-05T09:49:36Z</time>
      </trkpt>
      <trkpt lat="45.45141" lon="6.90364">
        <ele>2171.2</ele>
        <time>2021-01-05T09:49:38Z</time>
      </trkpt>
      <trkpt lat="45.4514" lon="6.90366">
        <ele>2171.2</ele>
        <time>2021-01-05T09:49:40Z</time>
      </trkpt>
      <trkpt lat="45.45138" lon="6.90369">
        <ele>2171.2</ele>
        <time>2021-01-05T09:49:42Z</time>
      </trkpt>
      <trkpt lat="45.45137" lon="6.90372">
        <ele>2171.2</ele>
        <time>2021-01-05T09:49:44Z</time>
      </trkpt>
      <trkpt lat="45.45138" lon="6.90375">
        <ele>2171.2</ele>
        <time>2021-01-05T09:49:46Z</time>
      </trkpt>
      <trkpt lat="45.45137" lon="6.90378">
        <ele>2173.8</ele>
        <time>2021-01-05T09:49:48Z</time>
      </trkpt>
      <trkpt lat="45.45137" lon="6.90381">
        <ele>2173.8</ele>
        <time>2021-01-05T09:49:50Z</time>
      </trkpt>
      <trkpt lat="45.45135" lon="6.90384">
        <ele>2173.8</ele>
        <time>2021-01-05T09:49:52Z</time>
      </trkpt>
      <trkpt lat="45.45135" lon="6.90388">
        <ele>2173.8</ele>
        <time>2021-01-05T09:49:55Z</time>
      </trkpt>
      <trkpt lat="45.45135" lon="6.90391">
        <ele>2176.8</ele>
        <time>2021-01-05T09:49:58Z</time>
      </trkpt>
      <trkpt lat="45.45135" lon="6.90394">
        <ele>2176.8</ele>
        <time>2021-01-05T09:50:00Z</time>
      </trkpt>
      <trkpt lat="45.45134" lon="6.90397">
        <ele>2176.8</ele>
        <time>2021-01-05T09:50:02Z</time>
      </trkpt>
      <trkpt lat="45.45134" lon="6.904">
        <ele>2176.8</ele>
        <time>2021-01-05T09:50:05Z</time>
      </trkpt>
      <trkpt lat="45.45133" lon="6.90404">
        <ele>2180.2</ele>
        <time>2021-01-05T09:50:08Z</time>
      </trkpt>
      <trkpt lat="45.45133" lon="6.90408">
        <ele>2180.2</ele>
        <time>2021-01-05T09:50:11Z</time>
      </trkpt>
      <trkpt lat="45.45132" lon="6.90411">
        <ele>2180.2</ele>
        <time>2021-01-05T09:50:14Z</time>
      </trkpt>
      <trkpt lat="45.45131" lon="6.90413">
        <ele>2180.2</ele>
        <time>2021-01-05T09:50:16Z</time>
      </trkpt>
      <trkpt lat="45.45132" lon="6.90417">
        <ele>2183.2</ele>
        <time>2021-01-05T09:50:18Z</time>
      </trkpt>
      <trkpt lat="45.45131" lon="6.9042">
        <ele>2183.2</ele>
        <time>2021-01-05T09:50:20Z</time>
      </trkpt>
      <trkpt lat="45.45131" lon="6.90424">
        <ele>2183.2</ele>
        <time>2021-01-05T09:50:23Z</time>
      </trkpt>
      <trkpt lat="45.45131" lon="6.90426">
        <ele>2183.2</ele>
        <time>2021-01-05T09:50:25Z</time>
      </trkpt>
      <trkpt lat="45.45132" lon="6.9043">
        <ele>2186.2</ele>
        <time>2021-01-05T09:50:28Z</time>
      </trkpt>
      <trkpt lat="45.45132" lon="6.90434">
        <ele>2186.2</ele>
        <time>2021-01-05T09:50:31Z</time>
      </trkpt>
      <trkpt lat="45.45132" lon="6.90437">
        <ele>2186.2</ele>
        <time>2021-01-05T09:50:33Z</time>
      </trkpt>
      <trkpt lat="45.45133" lon="6.90441">
        <ele>2186.2</ele>
        <time>2021-01-05T09:50:36Z</time>
      </trkpt>
      <trkpt lat="45.45134" lon="6.90444">
        <ele>2189.2</ele>
        <time>2021-01-05T09:50:38Z</time>
      </trkpt>
      <trkpt lat="45.45135" lon="6.90448">
        <ele>2189.2</ele>
        <time>2021-01-05T09:50:40Z</time>
      </trkpt>
      <trkpt lat="45.45135" lon="6.90451">
        <ele>2189.2</ele>
        <time>2021-01-05T09:50:43Z</time>
      </trkpt>
      <trkpt lat="45.45137" lon="6.90455">
        <ele>2189.2</ele>
        <time>2021-01-05T09:50:45Z</time>
      </trkpt>
      <trkpt lat="45.45136" lon="6.90458">
        <ele>2189.2</ele>
        <time>2021-01-05T09:50:47Z</time>
      </trkpt>
      <trkpt lat="45.45137" lon="6.90461">
        <ele>2189.2</ele>
        <time>2021-01-05T09:50:49Z</time>
      </trkpt>
      <trkpt lat="45.45137" lon="6.90464">
        <ele>2189.2</ele>
        <time>2021-01-05T09:50:51Z</time>
      </trkpt>
      <trkpt lat="45.45138" lon="6.90466">
        <ele>2189.2</ele>
        <time>2021-01-05T09:50:54Z</time>
      </trkpt>
      <trkpt lat="45.4514" lon="6.90468">
        <ele>2189.2</ele>
        <time>2021-01-05T09:50:56Z</time>
      </trkpt>
      <trkpt lat="45.4514" lon="6.90473">
        <ele>2189.2</ele>
        <time>2021-01-05T09:50:59Z</time>
      </trkpt>
      <trkpt lat="45.45141" lon="6.90475">
        <ele>2189.2</ele>
        <time>2021-01-05T09:51:01Z</time>
      </trkpt>
      <trkpt lat="45.45142" lon="6.90478">
        <ele>2189.2</ele>
        <time>2021-01-05T09:51:03Z</time>
      </trkpt>
      <trkpt lat="45.45143" lon="6.9048">
        <ele>2189.2</ele>
        <time>2021-01-05T09:51:05Z</time>
      </trkpt>
      <trkpt lat="45.45143" lon="6.90483">
        <ele>2189.2</ele>
        <time>2021-01-05T09:51:07Z</time>
      </trkpt>
      <trkpt lat="45.45145" lon="6.90486">
        <ele>2189.2</ele>
        <time>2021-01-05T09:51:09Z</time>
      </trkpt>
      <trkpt lat="45.45145" lon="6.9049">
        <ele>2189.2</ele>
        <time>2021-01-05T09:51:11Z</time>
      </trkpt>
      <trkpt lat="45.45146" lon="6.90493">
        <ele>2189.2</ele>
        <time>2021-01-05T09:51:13Z</time>
      </trkpt>
      <trkpt lat="45.45147" lon="6.90496">
        <ele>2189.2</ele>
        <time>2021-01-05T09:51:16Z</time>
      </trkpt>
      <trkpt lat="45.45146" lon="6.90499">
        <ele>2200.4</ele>
        <time>2021-01-05T09:51:18Z</time>
      </trkpt>
      <trkpt lat="45.45146" lon="6.90502">
        <ele>2200.4</ele>
        <time>2021-01-05T09:51:20Z</time>
      </trkpt>
      <trkpt lat="45.45148" lon="6.90505">
        <ele>2200.4</ele>
        <time>2021-01-05T09:51:22Z</time>
      </trkpt>
      <trkpt lat="45.45149" lon="6.90507">
        <ele>2200.4</ele>
        <time>2021-01-05T09:51:24Z</time>
      </trkpt>
      <trkpt lat="45.4515" lon="6.90511">
        <ele>2200.4</ele>
        <time>2021-01-05T09:51:26Z</time>
      </trkpt>
      <trkpt lat="45.4515" lon="6.90515">
        <ele>2202.6</ele>
        <time>2021-01-05T09:51:28Z</time>
      </trkpt>
      <trkpt lat="45.4515" lon="6.90518">
        <ele>2202.6</ele>
        <time>2021-01-05T09:51:30Z</time>
      </trkpt>
      <trkpt lat="45.4515" lon="6.90522">
        <ele>2202.6</ele>
        <time>2021-01-05T09:51:32Z</time>
      </trkpt>
      <trkpt lat="45.45151" lon="6.90525">
        <ele>2202.6</ele>
        <time>2021-01-05T09:51:34Z</time>
      </trkpt>
      <trkpt lat="45.45152" lon="6.90529">
        <ele>2202.6</ele>
        <time>2021-01-05T09:51:36Z</time>
      </trkpt>
      <trkpt lat="45.45152" lon="6.90533">
        <ele>2205</ele>
        <time>2021-01-05T09:51:38Z</time>
      </trkpt>
      <trkpt lat="45.45153" lon="6.90537">
        <ele>2205</ele>
        <time>2021-01-05T09:51:40Z</time>
      </trkpt>
      <trkpt lat="45.45152" lon="6.90542">
        <ele>2205</ele>
        <time>2021-01-05T09:51:42Z</time>
      </trkpt>
      <trkpt lat="45.45151" lon="6.90546">
        <ele>2205</ele>
        <time>2021-01-05T09:51:44Z</time>
      </trkpt>
      <trkpt lat="45.45151" lon="6.9055">
        <ele>2205</ele>
        <time>2021-01-05T09:51:46Z</time>
      </trkpt>
      <trkpt lat="45.4515" lon="6.90554">
        <ele>2206.4</ele>
        <time>2021-01-05T09:51:48Z</time>
      </trkpt>
      <trkpt lat="45.4515" lon="6.90557">
        <ele>2206.4</ele>
        <time>2021-01-05T09:51:49Z</time>
      </trkpt>
      <trkpt lat="45.45149" lon="6.9056">
        <ele>2206.4</ele>
        <time>2021-01-05T09:51:50Z</time>
      </trkpt>
      <trkpt lat="45.45148" lon="6.90564">
        <ele>2206.4</ele>
        <time>2021-01-05T09:51:52Z</time>
      </trkpt>
      <trkpt lat="45.45147" lon="6.90566">
        <ele>2206.4</ele>
        <time>2021-01-05T09:51:53Z</time>
      </trkpt>
      <trkpt lat="45.45147" lon="6.90569">
        <ele>2206.4</ele>
        <time>2021-01-05T09:51:54Z</time>
      </trkpt>
      <trkpt lat="45.45147" lon="6.90573">
        <ele>2206.4</ele>
        <time>2021-01-05T09:51:56Z</time>
      </trkpt>
      <trkpt lat="45.45146" lon="6.90578">
        <ele>2208</ele>
        <time>2021-01-05T09:51:58Z</time>
      </trkpt>
      <trkpt lat="45.45144" lon="6.9058">
        <ele>2208</ele>
        <time>2021-01-05T09:51:59Z</time>
      </trkpt>
      <trkpt lat="45.45144" lon="6.90584">
        <ele>2208</ele>
        <time>2021-01-05T09:52:01Z</time>
      </trkpt>
      <trkpt lat="45.45144" lon="6.90589">
        <ele>2208</ele>
        <time>2021-01-05T09:52:03Z</time>
      </trkpt>
      <trkpt lat="45.45143" lon="6.90592">
        <ele>2208</ele>
        <time>2021-01-05T09:52:04Z</time>
      </trkpt>
      <trkpt lat="45.45142" lon="6.90594">
        <ele>2208</ele>
        <time>2021-01-05T09:52:05Z</time>
      </trkpt>
      <trkpt lat="45.45141" lon="6.90597">
        <ele>2208</ele>
        <time>2021-01-05T09:52:06Z</time>
      </trkpt>
      <trkpt lat="45.4514" lon="6.90601">
        <ele>2209</ele>
        <time>2021-01-05T09:52:08Z</time>
      </trkpt>
      <trkpt lat="45.45139" lon="6.90603">
        <ele>2209</ele>
        <time>2021-01-05T09:52:09Z</time>
      </trkpt>
      <trkpt lat="45.45138" lon="6.90608">
        <ele>2209</ele>
        <time>2021-01-05T09:52:11Z</time>
      </trkpt>
      <trkpt lat="45.45137" lon="6.90612">
        <ele>2209</ele>
        <time>2021-01-05T09:52:13Z</time>
      </trkpt>
      <trkpt lat="45.45137" lon="6.90617">
        <ele>2209</ele>
        <time>2021-01-05T09:52:15Z</time>
      </trkpt>
      <trkpt lat="45.45135" lon="6.90621">
        <ele>2209</ele>
        <time>2021-01-05T09:52:17Z</time>
      </trkpt>
      <trkpt lat="45.45133" lon="6.90625">
        <ele>2209</ele>
        <time>2021-01-05T09:52:19Z</time>
      </trkpt>
      <trkpt lat="45.45132" lon="6.90629">
        <ele>2209</ele>
        <time>2021-01-05T09:52:21Z</time>
      </trkpt>
      <trkpt lat="45.45131" lon="6.90632">
        <ele>2209</ele>
        <time>2021-01-05T09:52:23Z</time>
      </trkpt>
      <trkpt lat="45.4513" lon="6.90635">
        <ele>2209</ele>
        <time>2021-01-05T09:52:25Z</time>
      </trkpt>
      <trkpt lat="45.45128" lon="6.90639">
        <ele>2209</ele>
        <time>2021-01-05T09:52:27Z</time>
      </trkpt>
      <trkpt lat="45.45127" lon="6.90642">
        <ele>2209</ele>
        <time>2021-01-05T09:52:29Z</time>
      </trkpt>
      <trkpt lat="45.45125" lon="6.90646">
        <ele>2209</ele>
        <time>2021-01-05T09:52:31Z</time>
      </trkpt>
      <trkpt lat="45.45125" lon="6.9065">
        <ele>2209</ele>
        <time>2021-01-05T09:52:33Z</time>
      </trkpt>
      <trkpt lat="45.45124" lon="6.90653">
        <ele>2209</ele>
        <time>2021-01-05T09:52:35Z</time>
      </trkpt>
      <trkpt lat="45.45122" lon="6.90657">
        <ele>2209</ele>
        <time>2021-01-05T09:52:37Z</time>
      </trkpt>
      <trkpt lat="45.45121" lon="6.9066">
        <ele>2209</ele>
        <time>2021-01-05T09:52:39Z</time>
      </trkpt>
      <trkpt lat="45.45119" lon="6.90662">
        <ele>2209</ele>
        <time>2021-01-05T09:52:41Z</time>
      </trkpt>
      <trkpt lat="45.45117" lon="6.90666">
        <ele>2209</ele>
        <time>2021-01-05T09:52:44Z</time>
      </trkpt>
      <trkpt lat="45.45116" lon="6.90668">
        <ele>2209</ele>
        <time>2021-01-05T09:52:46Z</time>
      </trkpt>
      <trkpt lat="45.45115" lon="6.90671">
        <ele>2216.2</ele>
        <time>2021-01-05T09:52:48Z</time>
      </trkpt>
      <trkpt lat="45.45113" lon="6.90674">
        <ele>2216.2</ele>
        <time>2021-01-05T09:52:50Z</time>
      </trkpt>
      <trkpt lat="45.45112" lon="6.90676">
        <ele>2216.2</ele>
        <time>2021-01-05T09:52:52Z</time>
      </trkpt>
      <trkpt lat="45.4511" lon="6.90678">
        <ele>2216.2</ele>
        <time>2021-01-05T09:52:54Z</time>
      </trkpt>
      <trkpt lat="45.45109" lon="6.90681">
        <ele>2216.2</ele>
        <time>2021-01-05T09:52:56Z</time>
      </trkpt>
      <trkpt lat="45.45107" lon="6.90684">
        <ele>2218.6</ele>
        <time>2021-01-05T09:52:58Z</time>
      </trkpt>
      <trkpt lat="45.45105" lon="6.90687">
        <ele>2218.6</ele>
        <time>2021-01-05T09:53:00Z</time>
      </trkpt>
      <trkpt lat="45.45103" lon="6.9069">
        <ele>2218.6</ele>
        <time>2021-01-05T09:53:02Z</time>
      </trkpt>
      <trkpt lat="45.45101" lon="6.90693">
        <ele>2218.6</ele>
        <time>2021-01-05T09:53:04Z</time>
      </trkpt>
      <trkpt lat="45.451" lon="6.90697">
        <ele>2218.6</ele>
        <time>2021-01-05T09:53:06Z</time>
      </trkpt>
      <trkpt lat="45.45098" lon="6.907">
        <ele>2221</ele>
        <time>2021-01-05T09:53:08Z</time>
      </trkpt>
      <trkpt lat="45.45096" lon="6.90703">
        <ele>2221</ele>
        <time>2021-01-05T09:53:10Z</time>
      </trkpt>
      <trkpt lat="45.45095" lon="6.90706">
        <ele>2221</ele>
        <time>2021-01-05T09:53:11Z</time>
      </trkpt>
      <trkpt lat="45.45094" lon="6.90709">
        <ele>2221</ele>
        <time>2021-01-05T09:53:13Z</time>
      </trkpt>
      <trkpt lat="45.45093" lon="6.90712">
        <ele>2221</ele>
        <time>2021-01-05T09:53:15Z</time>
      </trkpt>
      <trkpt lat="45.45091" lon="6.90715">
        <ele>2221</ele>
        <time>2021-01-05T09:53:17Z</time>
      </trkpt>
      <trkpt lat="45.45089" lon="6.90718">
        <ele>2221</ele>
        <time>2021-01-05T09:53:19Z</time>
      </trkpt>
      <trkpt lat="45.45088" lon="6.90722">
        <ele>2221</ele>
        <time>2021-01-05T09:53:21Z</time>
      </trkpt>
      <trkpt lat="45.45088" lon="6.90725">
        <ele>2221</ele>
        <time>2021-01-05T09:53:23Z</time>
      </trkpt>
      <trkpt lat="45.45086" lon="6.90728">
        <ele>2221</ele>
        <time>2021-01-05T09:53:25Z</time>
      </trkpt>
      <trkpt lat="45.45085" lon="6.90733">
        <ele>2225.2</ele>
        <time>2021-01-05T09:53:28Z</time>
      </trkpt>
      <trkpt lat="45.45084" lon="6.90736">
        <ele>2225.2</ele>
        <time>2021-01-05T09:53:30Z</time>
      </trkpt>
      <trkpt lat="45.45083" lon="6.90738">
        <ele>2225.2</ele>
        <time>2021-01-05T09:53:32Z</time>
      </trkpt>
      <trkpt lat="45.45082" lon="6.90741">
        <ele>2225.2</ele>
        <time>2021-01-05T09:53:34Z</time>
      </trkpt>
      <trkpt lat="45.45081" lon="6.90745">
        <ele>2225.2</ele>
        <time>2021-01-05T09:53:36Z</time>
      </trkpt>
      <trkpt lat="45.45081" lon="6.90748">
        <ele>2227.8</ele>
        <time>2021-01-05T09:53:38Z</time>
      </trkpt>
      <trkpt lat="45.4508" lon="6.90752">
        <ele>2227.8</ele>
        <time>2021-01-05T09:53:40Z</time>
      </trkpt>
      <trkpt lat="45.4508" lon="6.90756">
        <ele>2227.8</ele>
        <time>2021-01-05T09:53:42Z</time>
      </trkpt>
      <trkpt lat="45.4508" lon="6.90758">
        <ele>2227.8</ele>
        <time>2021-01-05T09:53:44Z</time>
      </trkpt>
      <trkpt lat="45.45079" lon="6.90762">
        <ele>2227.8</ele>
        <time>2021-01-05T09:53:46Z</time>
      </trkpt>
      <trkpt lat="45.45079" lon="6.90765">
        <ele>2230.6</ele>
        <time>2021-01-05T09:53:48Z</time>
      </trkpt>
      <trkpt lat="45.4508" lon="6.90768">
        <ele>2230.6</ele>
        <time>2021-01-05T09:53:50Z</time>
      </trkpt>
      <trkpt lat="45.45078" lon="6.90771">
        <ele>2230.6</ele>
        <time>2021-01-05T09:53:52Z</time>
      </trkpt>
      <trkpt lat="45.45076" lon="6.90775">
        <ele>2230.6</ele>
        <time>2021-01-05T09:53:54Z</time>
      </trkpt>
      <trkpt lat="45.45075" lon="6.90778">
        <ele>2230.6</ele>
        <time>2021-01-05T09:53:56Z</time>
      </trkpt>
      <trkpt lat="45.45075" lon="6.90781">
        <ele>2230.6</ele>
        <time>2021-01-05T09:53:59Z</time>
      </trkpt>
      <trkpt lat="45.45073" lon="6.90782">
        <ele>2230.6</ele>
        <time>2021-01-05T09:54:00Z</time>
      </trkpt>
      <trkpt lat="45.45072" lon="6.90786">
        <ele>2230.6</ele>
        <time>2021-01-05T09:54:03Z</time>
      </trkpt>
      <trkpt lat="45.45072" lon="6.90789">
        <ele>2230.6</ele>
        <time>2021-01-05T09:54:06Z</time>
      </trkpt>
      <trkpt lat="45.45071" lon="6.90792">
        <ele>2230.6</ele>
        <time>2021-01-05T09:54:09Z</time>
      </trkpt>
      <trkpt lat="45.45071" lon="6.90796">
        <ele>2230.6</ele>
        <time>2021-01-05T09:54:12Z</time>
      </trkpt>
      <trkpt lat="45.4507" lon="6.90799">
        <ele>2230.6</ele>
        <time>2021-01-05T09:54:15Z</time>
      </trkpt>
      <trkpt lat="45.45071" lon="6.90802">
        <ele>2230.6</ele>
        <time>2021-01-05T09:54:17Z</time>
      </trkpt>
      <trkpt lat="45.45071" lon="6.90805">
        <ele>2230.6</ele>
        <time>2021-01-05T09:54:19Z</time>
      </trkpt>
      <trkpt lat="45.45071" lon="6.90808">
        <ele>2230.6</ele>
        <time>2021-01-05T09:54:21Z</time>
      </trkpt>
      <trkpt lat="45.45072" lon="6.90812">
        <ele>2230.6</ele>
        <time>2021-01-05T09:54:23Z</time>
      </trkpt>
      <trkpt lat="45.45072" lon="6.90814">
        <ele>2230.6</ele>
        <time>2021-01-05T09:54:25Z</time>
      </trkpt>
      <trkpt lat="45.45073" lon="6.90817">
        <ele>2230.6</ele>
        <time>2021-01-05T09:54:27Z</time>
      </trkpt>
      <trkpt lat="45.45072" lon="6.9082">
        <ele>2230.6</ele>
        <time>2021-01-05T09:54:29Z</time>
      </trkpt>
      <trkpt lat="45.45071" lon="6.90823">
        <ele>2230.6</ele>
        <time>2021-01-05T09:54:31Z</time>
      </trkpt>
      <trkpt lat="45.45071" lon="6.90826">
        <ele>2230.6</ele>
        <time>2021-01-05T09:54:33Z</time>
      </trkpt>
      <trkpt lat="45.4507" lon="6.90829">
        <ele>2230.6</ele>
        <time>2021-01-05T09:54:36Z</time>
      </trkpt>
      <trkpt lat="45.45071" lon="6.90833">
        <ele>2245.2</ele>
        <time>2021-01-05T09:54:38Z</time>
      </trkpt>
      <trkpt lat="45.45072" lon="6.90836">
        <ele>2245.2</ele>
        <time>2021-01-05T09:54:41Z</time>
      </trkpt>
      <trkpt lat="45.45074" lon="6.90838">
        <ele>2245.2</ele>
        <time>2021-01-05T09:54:43Z</time>
      </trkpt>
      <trkpt lat="45.45075" lon="6.9084">
        <ele>2245.2</ele>
        <time>2021-01-05T09:54:45Z</time>
      </trkpt>
      <trkpt lat="45.45077" lon="6.90844">
        <ele>2248.6</ele>
        <time>2021-01-05T09:54:48Z</time>
      </trkpt>
      <trkpt lat="45.45079" lon="6.90846">
        <ele>2248.6</ele>
        <time>2021-01-05T09:54:50Z</time>
      </trkpt>
      <trkpt lat="45.4508" lon="6.90849">
        <ele>2248.6</ele>
        <time>2021-01-05T09:54:52Z</time>
      </trkpt>
      <trkpt lat="45.45081" lon="6.90851">
        <ele>2248.6</ele>
        <time>2021-01-05T09:54:55Z</time>
      </trkpt>
      <trkpt lat="45.45083" lon="6.90853">
        <ele>2248.6</ele>
        <time>2021-01-05T09:54:57Z</time>
      </trkpt>
      <trkpt lat="45.45085" lon="6.90856">
        <ele>2248.6</ele>
        <time>2021-01-05T09:55:00Z</time>
      </trkpt>
      <trkpt lat="45.45086" lon="6.90858">
        <ele>2248.6</ele>
        <time>2021-01-05T09:55:02Z</time>
      </trkpt>
      <trkpt lat="45.45088" lon="6.9086">
        <ele>2248.6</ele>
        <time>2021-01-05T09:55:05Z</time>
      </trkpt>
      <trkpt lat="45.4509" lon="6.90862">
        <ele>2248.6</ele>
        <time>2021-01-05T09:55:07Z</time>
      </trkpt>
      <trkpt lat="45.45092" lon="6.90864">
        <ele>2248.6</ele>
        <time>2021-01-05T09:55:10Z</time>
      </trkpt>
      <trkpt lat="45.45094" lon="6.90866">
        <ele>2248.6</ele>
        <time>2021-01-05T09:55:13Z</time>
      </trkpt>
      <trkpt lat="45.45096" lon="6.90867">
        <ele>2248.6</ele>
        <time>2021-01-05T09:55:15Z</time>
      </trkpt>
      <trkpt lat="45.45099" lon="6.90867">
        <ele>2248.6</ele>
        <time>2021-01-05T09:55:17Z</time>
      </trkpt>
      <trkpt lat="45.45101" lon="6.90867">
        <ele>2248.6</ele>
        <time>2021-01-05T09:55:19Z</time>
      </trkpt>
      <trkpt lat="45.45104" lon="6.90867">
        <ele>2248.6</ele>
        <time>2021-01-05T09:55:22Z</time>
      </trkpt>
      <trkpt lat="45.45107" lon="6.90867">
        <ele>2248.6</ele>
        <time>2021-01-05T09:55:24Z</time>
      </trkpt>
      <trkpt lat="45.45109" lon="6.90868">
        <ele>2248.6</ele>
        <time>2021-01-05T09:55:27Z</time>
      </trkpt>
      <trkpt lat="45.45111" lon="6.90869">
        <ele>2248.6</ele>
        <time>2021-01-05T09:55:29Z</time>
      </trkpt>
      <trkpt lat="45.45113" lon="6.90869">
        <ele>2248.6</ele>
        <time>2021-01-05T09:55:31Z</time>
      </trkpt>
      <trkpt lat="45.45115" lon="6.90869">
        <ele>2248.6</ele>
        <time>2021-01-05T09:55:33Z</time>
      </trkpt>
      <trkpt lat="45.45117" lon="6.90869">
        <ele>2248.6</ele>
        <time>2021-01-05T09:55:35Z</time>
      </trkpt>
      <trkpt lat="45.45119" lon="6.9087">
        <ele>2262.2</ele>
        <time>2021-01-05T09:55:38Z</time>
      </trkpt>
      <trkpt lat="45.45121" lon="6.9087">
        <ele>2262.2</ele>
        <time>2021-01-05T09:55:39Z</time>
      </trkpt>
      <trkpt lat="45.45123" lon="6.9087">
        <ele>2262.2</ele>
        <time>2021-01-05T09:55:41Z</time>
      </trkpt>
      <trkpt lat="45.45125" lon="6.90872">
        <ele>2262.2</ele>
        <time>2021-01-05T09:55:43Z</time>
      </trkpt>
      <trkpt lat="45.45128" lon="6.90872">
        <ele>2262.2</ele>
        <time>2021-01-05T09:55:46Z</time>
      </trkpt>
      <trkpt lat="45.4513" lon="6.90872">
        <ele>2264.8</ele>
        <time>2021-01-05T09:55:48Z</time>
      </trkpt>
      <trkpt lat="45.45133" lon="6.90872">
        <ele>2264.8</ele>
        <time>2021-01-05T09:55:51Z</time>
      </trkpt>
      <trkpt lat="45.45135" lon="6.90871">
        <ele>2264.8</ele>
        <time>2021-01-05T09:55:53Z</time>
      </trkpt>
      <trkpt lat="45.45137" lon="6.90872">
        <ele>2264.8</ele>
        <time>2021-01-05T09:55:55Z</time>
      </trkpt>
      <trkpt lat="45.45139" lon="6.90871">
        <ele>2264.8</ele>
        <time>2021-01-05T09:55:57Z</time>
      </trkpt>
      <trkpt lat="45.45141" lon="6.90871">
        <ele>2264.8</ele>
        <time>2021-01-05T09:55:59Z</time>
      </trkpt>
      <trkpt lat="45.45143" lon="6.90871">
        <ele>2264.8</ele>
        <time>2021-01-05T09:56:02Z</time>
      </trkpt>
      <trkpt lat="45.45146" lon="6.90871">
        <ele>2264.8</ele>
        <time>2021-01-05T09:56:04Z</time>
      </trkpt>
      <trkpt lat="45.45148" lon="6.90872">
        <ele>2264.8</ele>
        <time>2021-01-05T09:56:06Z</time>
      </trkpt>
      <trkpt lat="45.4515" lon="6.90871">
        <ele>2264.8</ele>
        <time>2021-01-05T09:56:09Z</time>
      </trkpt>
      <trkpt lat="45.45153" lon="6.90871">
        <ele>2264.8</ele>
        <time>2021-01-05T09:56:11Z</time>
      </trkpt>
      <trkpt lat="45.45155" lon="6.90869">
        <ele>2264.8</ele>
        <time>2021-01-05T09:56:14Z</time>
      </trkpt>
      <trkpt lat="45.45157" lon="6.90868">
        <ele>2264.8</ele>
        <time>2021-01-05T09:56:16Z</time>
      </trkpt>
      <trkpt lat="45.4516" lon="6.90868">
        <ele>2274</ele>
        <time>2021-01-05T09:56:18Z</time>
      </trkpt>
      <trkpt lat="45.45162" lon="6.90867">
        <ele>2274</ele>
        <time>2021-01-05T09:56:21Z</time>
      </trkpt>
      <trkpt lat="45.45164" lon="6.90866">
        <ele>2274</ele>
        <time>2021-01-05T09:56:23Z</time>
      </trkpt>
      <trkpt lat="45.45166" lon="6.90866">
        <ele>2274</ele>
        <time>2021-01-05T09:56:25Z</time>
      </trkpt>
      <trkpt lat="45.45168" lon="6.90865">
        <ele>2274</ele>
        <time>2021-01-05T09:56:27Z</time>
      </trkpt>
      <trkpt lat="45.4517" lon="6.90865">
        <ele>2274</ele>
        <time>2021-01-05T09:56:29Z</time>
      </trkpt>
      <trkpt lat="45.45172" lon="6.90864">
        <ele>2274</ele>
        <time>2021-01-05T09:56:31Z</time>
      </trkpt>
      <trkpt lat="45.45174" lon="6.90863">
        <ele>2274</ele>
        <time>2021-01-05T09:56:33Z</time>
      </trkpt>
      <trkpt lat="45.45177" lon="6.90863">
        <ele>2274</ele>
        <time>2021-01-05T09:56:35Z</time>
      </trkpt>
      <trkpt lat="45.45179" lon="6.90862">
        <ele>2274</ele>
        <time>2021-01-05T09:56:37Z</time>
      </trkpt>
      <trkpt lat="45.45181" lon="6.90861">
        <ele>2274</ele>
        <time>2021-01-05T09:56:39Z</time>
      </trkpt>
      <trkpt lat="45.45183" lon="6.9086">
        <ele>2274</ele>
        <time>2021-01-05T09:56:41Z</time>
      </trkpt>
      <trkpt lat="45.45185" lon="6.90859">
        <ele>2274</ele>
        <time>2021-01-05T09:56:43Z</time>
      </trkpt>
      <trkpt lat="45.45188" lon="6.90859">
        <ele>2274</ele>
        <time>2021-01-05T09:56:45Z</time>
      </trkpt>
      <trkpt lat="45.4519" lon="6.90858">
        <ele>2274</ele>
        <time>2021-01-05T09:56:47Z</time>
      </trkpt>
      <trkpt lat="45.45192" lon="6.90857">
        <ele>2274</ele>
        <time>2021-01-05T09:56:49Z</time>
      </trkpt>
      <trkpt lat="45.45195" lon="6.90856">
        <ele>2274</ele>
        <time>2021-01-05T09:56:52Z</time>
      </trkpt>
      <trkpt lat="45.45197" lon="6.90854">
        <ele>2274</ele>
        <time>2021-01-05T09:56:55Z</time>
      </trkpt>
      <trkpt lat="45.452" lon="6.90852">
        <ele>2285.4</ele>
        <time>2021-01-05T09:56:58Z</time>
      </trkpt>
      <trkpt lat="45.45202" lon="6.90851">
        <ele>2285.4</ele>
        <time>2021-01-05T09:57:00Z</time>
      </trkpt>
      <trkpt lat="45.45204" lon="6.9085">
        <ele>2285.4</ele>
        <time>2021-01-05T09:57:02Z</time>
      </trkpt>
      <trkpt lat="45.45206" lon="6.90848">
        <ele>2285.4</ele>
        <time>2021-01-05T09:57:05Z</time>
      </trkpt>
      <trkpt lat="45.45208" lon="6.90847">
        <ele>2285.4</ele>
        <time>2021-01-05T09:57:07Z</time>
      </trkpt>
      <trkpt lat="45.4521" lon="6.90846">
        <ele>2285.4</ele>
        <time>2021-01-05T09:57:09Z</time>
      </trkpt>
      <trkpt lat="45.45212" lon="6.90846">
        <ele>2285.4</ele>
        <time>2021-01-05T09:57:11Z</time>
      </trkpt>
      <trkpt lat="45.45214" lon="6.90845">
        <ele>2285.4</ele>
        <time>2021-01-05T09:57:13Z</time>
      </trkpt>
      <trkpt lat="45.45216" lon="6.90845">
        <ele>2285.4</ele>
        <time>2021-01-05T09:57:15Z</time>
      </trkpt>
      <trkpt lat="45.45218" lon="6.90844">
        <ele>2285.4</ele>
        <time>2021-01-05T09:57:17Z</time>
      </trkpt>
      <trkpt lat="45.4522" lon="6.90844">
        <ele>2285.4</ele>
        <time>2021-01-05T09:57:19Z</time>
      </trkpt>
      <trkpt lat="45.45223" lon="6.90843">
        <ele>2285.4</ele>
        <time>2021-01-05T09:57:22Z</time>
      </trkpt>
      <trkpt lat="45.45225" lon="6.90841">
        <ele>2285.4</ele>
        <time>2021-01-05T09:57:25Z</time>
      </trkpt>
      <trkpt lat="45.45227" lon="6.9084">
        <ele>2285.4</ele>
        <time>2021-01-05T09:57:27Z</time>
      </trkpt>
      <trkpt lat="45.4523" lon="6.90839">
        <ele>2285.4</ele>
        <time>2021-01-05T09:57:31Z</time>
      </trkpt>
      <trkpt lat="45.45232" lon="6.90838">
        <ele>2285.4</ele>
        <time>2021-01-05T09:57:33Z</time>
      </trkpt>
      <trkpt lat="45.45236" lon="6.90837">
        <ele>2285.4</ele>
        <time>2021-01-05T09:57:35Z</time>
      </trkpt>
      <trkpt lat="45.45237" lon="6.90836">
        <ele>2285.4</ele>
        <time>2021-01-05T09:57:37Z</time>
      </trkpt>
      <trkpt lat="45.4524" lon="6.90835">
        <ele>2285.4</ele>
        <time>2021-01-05T09:57:40Z</time>
      </trkpt>
      <trkpt lat="45.45242" lon="6.90833">
        <ele>2285.4</ele>
        <time>2021-01-05T09:57:43Z</time>
      </trkpt>
      <trkpt lat="45.45243" lon="6.90832">
        <ele>2285.4</ele>
        <time>2021-01-05T09:57:45Z</time>
      </trkpt>
      <trkpt lat="45.45245" lon="6.9083">
        <ele>2285.4</ele>
        <time>2021-01-05T09:57:47Z</time>
      </trkpt>
      <trkpt lat="45.45247" lon="6.90829">
        <ele>2285.4</ele>
        <time>2021-01-05T09:57:49Z</time>
      </trkpt>
      <trkpt lat="45.45249" lon="6.90828">
        <ele>2285.4</ele>
        <time>2021-01-05T09:57:51Z</time>
      </trkpt>
      <trkpt lat="45.45252" lon="6.90827">
        <ele>2285.4</ele>
        <time>2021-01-05T09:57:54Z</time>
      </trkpt>
      <trkpt lat="45.45254" lon="6.90826">
        <ele>2285.4</ele>
        <time>2021-01-05T09:57:56Z</time>
      </trkpt>
      <trkpt lat="45.45255" lon="6.90825">
        <ele>2303</ele>
        <time>2021-01-05T09:57:58Z</time>
      </trkpt>
      <trkpt lat="45.45257" lon="6.90823">
        <ele>2303</ele>
        <time>2021-01-05T09:58:00Z</time>
      </trkpt>
      <trkpt lat="45.45259" lon="6.90822">
        <ele>2303</ele>
        <time>2021-01-05T09:58:02Z</time>
      </trkpt>
      <trkpt lat="45.45261" lon="6.9082">
        <ele>2303</ele>
        <time>2021-01-05T09:58:05Z</time>
      </trkpt>
      <trkpt lat="45.45264" lon="6.90819">
        <ele>2305.4</ele>
        <time>2021-01-05T09:58:08Z</time>
      </trkpt>
      <trkpt lat="45.45266" lon="6.90818">
        <ele>2305.4</ele>
        <time>2021-01-05T09:58:10Z</time>
      </trkpt>
      <trkpt lat="45.45268" lon="6.90818">
        <ele>2305.4</ele>
        <time>2021-01-05T09:58:12Z</time>
      </trkpt>
      <trkpt lat="45.45269" lon="6.90817">
        <ele>2305.4</ele>
        <time>2021-01-05T09:58:14Z</time>
      </trkpt>
      <trkpt lat="45.45272" lon="6.90816">
        <ele>2305.4</ele>
        <time>2021-01-05T09:58:16Z</time>
      </trkpt>
      <trkpt lat="45.45274" lon="6.90814">
        <ele>2308</ele>
        <time>2021-01-05T09:58:18Z</time>
      </trkpt>
      <trkpt lat="45.45276" lon="6.90813">
        <ele>2308</ele>
        <time>2021-01-05T09:58:20Z</time>
      </trkpt>
      <trkpt lat="45.45277" lon="6.90813">
        <ele>2308</ele>
        <time>2021-01-05T09:58:23Z</time>
      </trkpt>
      <trkpt lat="45.45279" lon="6.90813">
        <ele>2308</ele>
        <time>2021-01-05T09:58:25Z</time>
      </trkpt>
      <trkpt lat="45.45282" lon="6.90811">
        <ele>2311</ele>
        <time>2021-01-05T09:58:28Z</time>
      </trkpt>
      <trkpt lat="45.45284" lon="6.9081">
        <ele>2311</ele>
        <time>2021-01-05T09:58:30Z</time>
      </trkpt>
      <trkpt lat="45.45287" lon="6.9081">
        <ele>2311</ele>
        <time>2021-01-05T09:58:32Z</time>
      </trkpt>
      <trkpt lat="45.45289" lon="6.90809">
        <ele>2311</ele>
        <time>2021-01-05T09:58:35Z</time>
      </trkpt>
      <trkpt lat="45.45292" lon="6.90808">
        <ele>2311</ele>
        <time>2021-01-05T09:58:37Z</time>
      </trkpt>
      <trkpt lat="45.45293" lon="6.90809">
        <ele>2311</ele>
        <time>2021-01-05T09:58:39Z</time>
      </trkpt>
      <trkpt lat="45.45296" lon="6.90808">
        <ele>2311</ele>
        <time>2021-01-05T09:58:42Z</time>
      </trkpt>
      <trkpt lat="45.45298" lon="6.90808">
        <ele>2311</ele>
        <time>2021-01-05T09:58:45Z</time>
      </trkpt>
      <trkpt lat="45.453" lon="6.90809">
        <ele>2311</ele>
        <time>2021-01-05T09:58:47Z</time>
      </trkpt>
      <trkpt lat="45.45303" lon="6.90809">
        <ele>2311</ele>
        <time>2021-01-05T09:58:49Z</time>
      </trkpt>
      <trkpt lat="45.45306" lon="6.90809">
        <ele>2311</ele>
        <time>2021-01-05T09:58:51Z</time>
      </trkpt>
      <trkpt lat="45.45308" lon="6.90809">
        <ele>2311</ele>
        <time>2021-01-05T09:58:54Z</time>
      </trkpt>
      <trkpt lat="45.45311" lon="6.9081">
        <ele>2311</ele>
        <time>2021-01-05T09:58:56Z</time>
      </trkpt>
      <trkpt lat="45.45313" lon="6.9081">
        <ele>2318.8</ele>
        <time>2021-01-05T09:58:58Z</time>
      </trkpt>
      <trkpt lat="45.45315" lon="6.9081">
        <ele>2318.8</ele>
        <time>2021-01-05T09:59:01Z</time>
      </trkpt>
      <trkpt lat="45.45317" lon="6.9081">
        <ele>2318.8</ele>
        <time>2021-01-05T09:59:03Z</time>
      </trkpt>
      <trkpt lat="45.45319" lon="6.90809">
        <ele>2318.8</ele>
        <time>2021-01-05T09:59:05Z</time>
      </trkpt>
      <trkpt lat="45.45321" lon="6.90809">
        <ele>2318.8</ele>
        <time>2021-01-05T09:59:06Z</time>
      </trkpt>
      <trkpt lat="45.45323" lon="6.9081">
        <ele>2321.8</ele>
        <time>2021-01-05T09:59:08Z</time>
      </trkpt>
      <trkpt lat="45.45325" lon="6.90811">
        <ele>2321.8</ele>
        <time>2021-01-05T09:59:11Z</time>
      </trkpt>
      <trkpt lat="45.45327" lon="6.90811">
        <ele>2321.8</ele>
        <time>2021-01-05T09:59:13Z</time>
      </trkpt>
      <trkpt lat="45.45329" lon="6.90812">
        <ele>2321.8</ele>
        <time>2021-01-05T09:59:15Z</time>
      </trkpt>
      <trkpt lat="45.45331" lon="6.90812">
        <ele>2324.4</ele>
        <time>2021-01-05T09:59:18Z</time>
      </trkpt>
      <trkpt lat="45.45333" lon="6.90812">
        <ele>2324.4</ele>
        <time>2021-01-05T09:59:20Z</time>
      </trkpt>
      <trkpt lat="45.45335" lon="6.90812">
        <ele>2324.4</ele>
        <time>2021-01-05T09:59:22Z</time>
      </trkpt>
      <trkpt lat="45.45338" lon="6.90813">
        <ele>2324.4</ele>
        <time>2021-01-05T09:59:24Z</time>
      </trkpt>
      <trkpt lat="45.4534" lon="6.90813">
        <ele>2324.4</ele>
        <time>2021-01-05T09:59:26Z</time>
      </trkpt>
      <trkpt lat="45.45342" lon="6.90814">
        <ele>2327.8</ele>
        <time>2021-01-05T09:59:28Z</time>
      </trkpt>
      <trkpt lat="45.45344" lon="6.90814">
        <ele>2327.8</ele>
        <time>2021-01-05T09:59:30Z</time>
      </trkpt>
      <trkpt lat="45.45347" lon="6.90815">
        <ele>2327.8</ele>
        <time>2021-01-05T09:59:33Z</time>
      </trkpt>
      <trkpt lat="45.45349" lon="6.90816">
        <ele>2327.8</ele>
        <time>2021-01-05T09:59:35Z</time>
      </trkpt>
      <trkpt lat="45.45351" lon="6.90816">
        <ele>2327.8</ele>
        <time>2021-01-05T09:59:37Z</time>
      </trkpt>
      <trkpt lat="45.45353" lon="6.90818">
        <ele>2327.8</ele>
        <time>2021-01-05T09:59:39Z</time>
      </trkpt>
      <trkpt lat="45.45355" lon="6.90819">
        <ele>2327.8</ele>
        <time>2021-01-05T09:59:42Z</time>
      </trkpt>
      <trkpt lat="45.45357" lon="6.9082">
        <ele>2327.8</ele>
        <time>2021-01-05T09:59:44Z</time>
      </trkpt>
      <trkpt lat="45.4536" lon="6.9082">
        <ele>2327.8</ele>
        <time>2021-01-05T09:59:46Z</time>
      </trkpt>
      <trkpt lat="45.45362" lon="6.90821">
        <ele>2333</ele>
        <time>2021-01-05T09:59:48Z</time>
      </trkpt>
      <trkpt lat="45.45365" lon="6.90823">
        <ele>2333</ele>
        <time>2021-01-05T09:59:51Z</time>
      </trkpt>
      <trkpt lat="45.45368" lon="6.90824">
        <ele>2333</ele>
        <time>2021-01-05T09:59:53Z</time>
      </trkpt>
      <trkpt lat="45.45371" lon="6.90825">
        <ele>2333</ele>
        <time>2021-01-05T09:59:55Z</time>
      </trkpt>
      <trkpt lat="45.45372" lon="6.90826">
        <ele>2333</ele>
        <time>2021-01-05T09:59:57Z</time>
      </trkpt>
      <trkpt lat="45.45374" lon="6.90826">
        <ele>2333</ele>
        <time>2021-01-05T09:59:59Z</time>
      </trkpt>
      <trkpt lat="45.45377" lon="6.90828">
        <ele>2333</ele>
        <time>2021-01-05T10:00:01Z</time>
      </trkpt>
      <trkpt lat="45.45379" lon="6.90828">
        <ele>2333</ele>
        <time>2021-01-05T10:00:03Z</time>
      </trkpt>
      <trkpt lat="45.45382" lon="6.90828">
        <ele>2333</ele>
        <time>2021-01-05T10:00:05Z</time>
      </trkpt>
      <trkpt lat="45.45385" lon="6.90829">
        <ele>2333</ele>
        <time>2021-01-05T10:00:07Z</time>
      </trkpt>
      <trkpt lat="45.45387" lon="6.9083">
        <ele>2333</ele>
        <time>2021-01-05T10:00:09Z</time>
      </trkpt>
      <trkpt lat="45.45388" lon="6.9083">
        <ele>2333</ele>
        <time>2021-01-05T10:00:11Z</time>
      </trkpt>
      <trkpt lat="45.45391" lon="6.90831">
        <ele>2333</ele>
        <time>2021-01-05T10:00:14Z</time>
      </trkpt>
      <trkpt lat="45.45393" lon="6.90832">
        <ele>2333</ele>
        <time>2021-01-05T10:00:16Z</time>
      </trkpt>
      <trkpt lat="45.45396" lon="6.90832">
        <ele>2341.8</ele>
        <time>2021-01-05T10:00:18Z</time>
      </trkpt>
      <trkpt lat="45.45399" lon="6.90833">
        <ele>2341.8</ele>
        <time>2021-01-05T10:00:21Z</time>
      </trkpt>
      <trkpt lat="45.45401" lon="6.90833">
        <ele>2341.8</ele>
        <time>2021-01-05T10:00:23Z</time>
      </trkpt>
      <trkpt lat="45.45404" lon="6.90833">
        <ele>2341.8</ele>
        <time>2021-01-05T10:00:25Z</time>
      </trkpt>
      <trkpt lat="45.45406" lon="6.90835">
        <ele>2345</ele>
        <time>2021-01-05T10:00:28Z</time>
      </trkpt>
      <trkpt lat="45.45408" lon="6.90835">
        <ele>2345</ele>
        <time>2021-01-05T10:00:29Z</time>
      </trkpt>
      <trkpt lat="45.4541" lon="6.90835">
        <ele>2345</ele>
        <time>2021-01-05T10:00:30Z</time>
      </trkpt>
      <trkpt lat="45.45412" lon="6.90835">
        <ele>2345</ele>
        <time>2021-01-05T10:00:32Z</time>
      </trkpt>
      <trkpt lat="45.45415" lon="6.90835">
        <ele>2345</ele>
        <time>2021-01-05T10:00:34Z</time>
      </trkpt>
      <trkpt lat="45.45418" lon="6.90836">
        <ele>2345</ele>
        <time>2021-01-05T10:00:36Z</time>
      </trkpt>
      <trkpt lat="45.4542" lon="6.90835">
        <ele>2347.2</ele>
        <time>2021-01-05T10:00:38Z</time>
      </trkpt>
      <trkpt lat="45.45422" lon="6.90836">
        <ele>2347.2</ele>
        <time>2021-01-05T10:00:39Z</time>
      </trkpt>
      <trkpt lat="45.45425" lon="6.90837">
        <ele>2347.2</ele>
        <time>2021-01-05T10:00:41Z</time>
      </trkpt>
      <trkpt lat="45.45428" lon="6.90837">
        <ele>2347.2</ele>
        <time>2021-01-05T10:00:43Z</time>
      </trkpt>
      <trkpt lat="45.4543" lon="6.90838">
        <ele>2347.2</ele>
        <time>2021-01-05T10:00:45Z</time>
      </trkpt>
      <trkpt lat="45.45433" lon="6.90838">
        <ele>2347.2</ele>
        <time>2021-01-05T10:00:47Z</time>
      </trkpt>
      <trkpt lat="45.45435" lon="6.90839">
        <ele>2347.2</ele>
        <time>2021-01-05T10:00:49Z</time>
      </trkpt>
      <trkpt lat="45.45437" lon="6.9084">
        <ele>2347.2</ele>
        <time>2021-01-05T10:00:51Z</time>
      </trkpt>
      <trkpt lat="45.4544" lon="6.90841">
        <ele>2347.2</ele>
        <time>2021-01-05T10:00:54Z</time>
      </trkpt>
      <trkpt lat="45.45442" lon="6.90841">
        <ele>2347.2</ele>
        <time>2021-01-05T10:00:56Z</time>
      </trkpt>
      <trkpt lat="45.45444" lon="6.90842">
        <ele>2347.2</ele>
        <time>2021-01-05T10:00:59Z</time>
      </trkpt>
      <trkpt lat="45.45446" lon="6.90842">
        <ele>2347.2</ele>
        <time>2021-01-05T10:01:01Z</time>
      </trkpt>
      <trkpt lat="45.45449" lon="6.90843">
        <ele>2347.2</ele>
        <time>2021-01-05T10:01:03Z</time>
      </trkpt>
      <trkpt lat="45.45451" lon="6.90844">
        <ele>2347.2</ele>
        <time>2021-01-05T10:01:06Z</time>
      </trkpt>
      <trkpt lat="45.45453" lon="6.90844">
        <ele>2354.6</ele>
        <time>2021-01-05T10:01:08Z</time>
      </trkpt>
      <trkpt lat="45.45455" lon="6.90845">
        <ele>2354.6</ele>
        <time>2021-01-05T10:01:10Z</time>
      </trkpt>
      <trkpt lat="45.45458" lon="6.90846">
        <ele>2354.6</ele>
        <time>2021-01-05T10:01:12Z</time>
      </trkpt>
      <trkpt lat="45.4546" lon="6.90846">
        <ele>2354.6</ele>
        <time>2021-01-05T10:01:14Z</time>
      </trkpt>
      <trkpt lat="45.45462" lon="6.90846">
        <ele>2354.6</ele>
        <time>2021-01-05T10:01:16Z</time>
      </trkpt>
      <trkpt lat="45.45465" lon="6.90847">
        <ele>2357.2</ele>
        <time>2021-01-05T10:01:18Z</time>
      </trkpt>
      <trkpt lat="45.45467" lon="6.90847">
        <ele>2357.2</ele>
        <time>2021-01-05T10:01:20Z</time>
      </trkpt>
      <trkpt lat="45.4547" lon="6.90848">
        <ele>2357.2</ele>
        <time>2021-01-05T10:01:23Z</time>
      </trkpt>
      <trkpt lat="45.45472" lon="6.90849">
        <ele>2357.2</ele>
        <time>2021-01-05T10:01:25Z</time>
      </trkpt>
      <trkpt lat="45.45475" lon="6.9085">
        <ele>2357.2</ele>
        <time>2021-01-05T10:01:27Z</time>
      </trkpt>
      <trkpt lat="45.45477" lon="6.9085">
        <ele>2357.2</ele>
        <time>2021-01-05T10:01:29Z</time>
      </trkpt>
      <trkpt lat="45.4548" lon="6.90851">
        <ele>2357.2</ele>
        <time>2021-01-05T10:01:31Z</time>
      </trkpt>
      <trkpt lat="45.45483" lon="6.90852">
        <ele>2357.2</ele>
        <time>2021-01-05T10:01:33Z</time>
      </trkpt>
      <trkpt lat="45.45485" lon="6.90852">
        <ele>2357.2</ele>
        <time>2021-01-05T10:01:35Z</time>
      </trkpt>
      <trkpt lat="45.45487" lon="6.90853">
        <ele>2357.2</ele>
        <time>2021-01-05T10:01:37Z</time>
      </trkpt>
      <trkpt lat="45.4549" lon="6.90853">
        <ele>2357.2</ele>
        <time>2021-01-05T10:01:39Z</time>
      </trkpt>
      <trkpt lat="45.45492" lon="6.90855">
        <ele>2357.2</ele>
        <time>2021-01-05T10:01:41Z</time>
      </trkpt>
      <trkpt lat="45.45494" lon="6.90856">
        <ele>2357.2</ele>
        <time>2021-01-05T10:01:43Z</time>
      </trkpt>
      <trkpt lat="45.45496" lon="6.90857">
        <ele>2357.2</ele>
        <time>2021-01-05T10:01:45Z</time>
      </trkpt>
      <trkpt lat="45.45498" lon="6.90858">
        <ele>2364.6</ele>
        <time>2021-01-05T10:01:48Z</time>
      </trkpt>
      <trkpt lat="45.455" lon="6.9086">
        <ele>2364.6</ele>
        <time>2021-01-05T10:01:50Z</time>
      </trkpt>
      <trkpt lat="45.45502" lon="6.90861">
        <ele>2364.6</ele>
        <time>2021-01-05T10:01:53Z</time>
      </trkpt>
      <trkpt lat="45.45504" lon="6.90862">
        <ele>2364.6</ele>
        <time>2021-01-05T10:01:55Z</time>
      </trkpt>
      <trkpt lat="45.45506" lon="6.90862">
        <ele>2364.6</ele>
        <time>2021-01-05T10:01:57Z</time>
      </trkpt>
      <trkpt lat="45.45508" lon="6.90864">
        <ele>2364.6</ele>
        <time>2021-01-05T10:01:59Z</time>
      </trkpt>
      <trkpt lat="45.4551" lon="6.90864">
        <ele>2364.6</ele>
        <time>2021-01-05T10:02:01Z</time>
      </trkpt>
      <trkpt lat="45.45512" lon="6.90864">
        <ele>2364.6</ele>
        <time>2021-01-05T10:02:03Z</time>
      </trkpt>
      <trkpt lat="45.45514" lon="6.90866">
        <ele>2364.6</ele>
        <time>2021-01-05T10:02:06Z</time>
      </trkpt>
      <trkpt lat="45.45516" lon="6.90867">
        <ele>2370.2</ele>
        <time>2021-01-05T10:02:08Z</time>
      </trkpt>
      <trkpt lat="45.45518" lon="6.90868">
        <ele>2370.2</ele>
        <time>2021-01-05T10:02:11Z</time>
      </trkpt>
      <trkpt lat="45.4552" lon="6.90869">
        <ele>2370.2</ele>
        <time>2021-01-05T10:02:13Z</time>
      </trkpt>
      <trkpt lat="45.45522" lon="6.90869">
        <ele>2370.2</ele>
        <time>2021-01-05T10:02:15Z</time>
      </trkpt>
      <trkpt lat="45.45524" lon="6.9087">
        <ele>2370.2</ele>
        <time>2021-01-05T10:02:17Z</time>
      </trkpt>
      <trkpt lat="45.45526" lon="6.9087">
        <ele>2370.2</ele>
        <time>2021-01-05T10:02:19Z</time>
      </trkpt>
      <trkpt lat="45.45528" lon="6.90871">
        <ele>2370.2</ele>
        <time>2021-01-05T10:02:21Z</time>
      </trkpt>
      <trkpt lat="45.4553" lon="6.90872">
        <ele>2370.2</ele>
        <time>2021-01-05T10:02:23Z</time>
      </trkpt>
      <trkpt lat="45.45533" lon="6.90872">
        <ele>2370.2</ele>
        <time>2021-01-05T10:02:26Z</time>
      </trkpt>
      <trkpt lat="45.45536" lon="6.90874">
        <ele>2370.2</ele>
        <time>2021-01-05T10:02:29Z</time>
      </trkpt>
      <trkpt lat="45.45538" lon="6.90875">
        <ele>2370.2</ele>
        <time>2021-01-05T10:02:31Z</time>
      </trkpt>
      <trkpt lat="45.45541" lon="6.90875">
        <ele>2370.2</ele>
        <time>2021-01-05T10:02:33Z</time>
      </trkpt>
      <trkpt lat="45.45544" lon="6.90876">
        <ele>2370.2</ele>
        <time>2021-01-05T10:02:36Z</time>
      </trkpt>
      <trkpt lat="45.45545" lon="6.90877">
        <ele>2380.2</ele>
        <time>2021-01-05T10:02:38Z</time>
      </trkpt>
      <trkpt lat="45.45547" lon="6.90879">
        <ele>2380.2</ele>
        <time>2021-01-05T10:02:40Z</time>
      </trkpt>
      <trkpt lat="45.45549" lon="6.90881">
        <ele>2380.2</ele>
        <time>2021-01-05T10:02:43Z</time>
      </trkpt>
      <trkpt lat="45.45551" lon="6.90882">
        <ele>2380.2</ele>
        <time>2021-01-05T10:02:45Z</time>
      </trkpt>
      <trkpt lat="45.45553" lon="6.90882">
        <ele>2380.2</ele>
        <time>2021-01-05T10:02:47Z</time>
      </trkpt>
      <trkpt lat="45.45555" lon="6.90883">
        <ele>2380.2</ele>
        <time>2021-01-05T10:02:49Z</time>
      </trkpt>
      <trkpt lat="45.45557" lon="6.90883">
        <ele>2380.2</ele>
        <time>2021-01-05T10:02:51Z</time>
      </trkpt>
      <trkpt lat="45.45559" lon="6.90885">
        <ele>2380.2</ele>
        <time>2021-01-05T10:02:54Z</time>
      </trkpt>
      <trkpt lat="45.45561" lon="6.90885">
        <ele>2380.2</ele>
        <time>2021-01-05T10:02:56Z</time>
      </trkpt>
      <trkpt lat="45.45563" lon="6.90886">
        <ele>2386.2</ele>
        <time>2021-01-05T10:02:58Z</time>
      </trkpt>
      <trkpt lat="45.45566" lon="6.90887">
        <ele>2386.2</ele>
        <time>2021-01-05T10:03:01Z</time>
      </trkpt>
      <trkpt lat="45.45568" lon="6.90888">
        <ele>2386.2</ele>
        <time>2021-01-05T10:03:03Z</time>
      </trkpt>
      <trkpt lat="45.4557" lon="6.90889">
        <ele>2386.2</ele>
        <time>2021-01-05T10:03:05Z</time>
      </trkpt>
      <trkpt lat="45.45572" lon="6.9089">
        <ele>2389.2</ele>
        <time>2021-01-05T10:03:08Z</time>
      </trkpt>
      <trkpt lat="45.45574" lon="6.9089">
        <ele>2389.2</ele>
        <time>2021-01-05T10:03:10Z</time>
      </trkpt>
      <trkpt lat="45.45577" lon="6.90891">
        <ele>2389.2</ele>
        <time>2021-01-05T10:03:13Z</time>
      </trkpt>
      <trkpt lat="45.45579" lon="6.90891">
        <ele>2389.2</ele>
        <time>2021-01-05T10:03:15Z</time>
      </trkpt>
      <trkpt lat="45.45581" lon="6.90892">
        <ele>2389.2</ele>
        <time>2021-01-05T10:03:17Z</time>
      </trkpt>
      <trkpt lat="45.45583" lon="6.90893">
        <ele>2389.2</ele>
        <time>2021-01-05T10:03:19Z</time>
      </trkpt>
      <trkpt lat="45.45585" lon="6.90894">
        <ele>2389.2</ele>
        <time>2021-01-05T10:03:21Z</time>
      </trkpt>
      <trkpt lat="45.45588" lon="6.90894">
        <ele>2389.2</ele>
        <time>2021-01-05T10:03:23Z</time>
      </trkpt>
      <trkpt lat="45.45589" lon="6.90895">
        <ele>2389.2</ele>
        <time>2021-01-05T10:03:25Z</time>
      </trkpt>
      <trkpt lat="45.45592" lon="6.90896">
        <ele>2389.2</ele>
        <time>2021-01-05T10:03:27Z</time>
      </trkpt>
      <trkpt lat="45.45594" lon="6.90896">
        <ele>2389.2</ele>
        <time>2021-01-05T10:03:29Z</time>
      </trkpt>
      <trkpt lat="45.45596" lon="6.90897">
        <ele>2389.2</ele>
        <time>2021-01-05T10:03:31Z</time>
      </trkpt>
      <trkpt lat="45.45599" lon="6.90898">
        <ele>2389.2</ele>
        <time>2021-01-05T10:03:33Z</time>
      </trkpt>
      <trkpt lat="45.45601" lon="6.90899">
        <ele>2389.2</ele>
        <time>2021-01-05T10:03:35Z</time>
      </trkpt>
      <trkpt lat="45.45603" lon="6.909">
        <ele>2389.2</ele>
        <time>2021-01-05T10:03:37Z</time>
      </trkpt>
      <trkpt lat="45.45605" lon="6.90901">
        <ele>2389.2</ele>
        <time>2021-01-05T10:03:39Z</time>
      </trkpt>
      <trkpt lat="45.45609" lon="6.90902">
        <ele>2389.2</ele>
        <time>2021-01-05T10:03:41Z</time>
      </trkpt>
      <trkpt lat="45.45611" lon="6.90903">
        <ele>2389.2</ele>
        <time>2021-01-05T10:03:43Z</time>
      </trkpt>
      <trkpt lat="45.45613" lon="6.90905">
        <ele>2389.2</ele>
        <time>2021-01-05T10:03:45Z</time>
      </trkpt>
      <trkpt lat="45.45615" lon="6.90906">
        <ele>2389.2</ele>
        <time>2021-01-05T10:03:47Z</time>
      </trkpt>
      <trkpt lat="45.45618" lon="6.90907">
        <ele>2389.2</ele>
        <time>2021-01-05T10:03:49Z</time>
      </trkpt>
      <trkpt lat="45.4562" lon="6.90907">
        <ele>2389.2</ele>
        <time>2021-01-05T10:03:51Z</time>
      </trkpt>
      <trkpt lat="45.45623" lon="6.90909">
        <ele>2389.2</ele>
        <time>2021-01-05T10:03:53Z</time>
      </trkpt>
      <trkpt lat="45.45626" lon="6.9091">
        <ele>2389.2</ele>
        <time>2021-01-05T10:03:55Z</time>
      </trkpt>
      <trkpt lat="45.45628" lon="6.9091">
        <ele>2389.2</ele>
        <time>2021-01-05T10:03:57Z</time>
      </trkpt>
      <trkpt lat="45.4563" lon="6.90911">
        <ele>2402.2</ele>
        <time>2021-01-05T10:03:58Z</time>
      </trkpt>
      <trkpt lat="45.45633" lon="6.90913">
        <ele>2402.2</ele>
        <time>2021-01-05T10:04:00Z</time>
      </trkpt>
      <trkpt lat="45.45635" lon="6.90914">
        <ele>2402.2</ele>
        <time>2021-01-05T10:04:02Z</time>
      </trkpt>
      <trkpt lat="45.45636" lon="6.90916">
        <ele>2402.2</ele>
        <time>2021-01-05T10:04:04Z</time>
      </trkpt>
      <trkpt lat="45.45639" lon="6.90917">
        <ele>2402.2</ele>
        <time>2021-01-05T10:04:06Z</time>
      </trkpt>
      <trkpt lat="45.45641" lon="6.90919">
        <ele>2404.4</ele>
        <time>2021-01-05T10:04:08Z</time>
      </trkpt>
      <trkpt lat="45.45643" lon="6.9092">
        <ele>2404.4</ele>
        <time>2021-01-05T10:04:09Z</time>
      </trkpt>
      <trkpt lat="45.45645" lon="6.90921">
        <ele>2404.4</ele>
        <time>2021-01-05T10:04:11Z</time>
      </trkpt>
      <trkpt lat="45.45647" lon="6.90923">
        <ele>2404.4</ele>
        <time>2021-01-05T10:04:13Z</time>
      </trkpt>
      <trkpt lat="45.45649" lon="6.90924">
        <ele>2404.4</ele>
        <time>2021-01-05T10:04:14Z</time>
      </trkpt>
      <trkpt lat="45.45651" lon="6.90926">
        <ele>2404.4</ele>
        <time>2021-01-05T10:04:16Z</time>
      </trkpt>
      <trkpt lat="45.45653" lon="6.90928">
        <ele>2407.2</ele>
        <time>2021-01-05T10:04:18Z</time>
      </trkpt>
      <trkpt lat="45.45655" lon="6.9093">
        <ele>2407.2</ele>
        <time>2021-01-05T10:04:20Z</time>
      </trkpt>
      <trkpt lat="45.45658" lon="6.90932">
        <ele>2407.2</ele>
        <time>2021-01-05T10:04:22Z</time>
      </trkpt>
      <trkpt lat="45.4566" lon="6.90934">
        <ele>2407.2</ele>
        <time>2021-01-05T10:04:24Z</time>
      </trkpt>
      <trkpt lat="45.45661" lon="6.90936">
        <ele>2407.2</ele>
        <time>2021-01-05T10:04:26Z</time>
      </trkpt>
      <trkpt lat="45.45663" lon="6.90936">
        <ele>2409.4</ele>
        <time>2021-01-05T10:04:28Z</time>
      </trkpt>
      <trkpt lat="45.45666" lon="6.90938">
        <ele>2409.4</ele>
        <time>2021-01-05T10:04:30Z</time>
      </trkpt>
      <trkpt lat="45.45668" lon="6.9094">
        <ele>2409.4</ele>
        <time>2021-01-05T10:04:33Z</time>
      </trkpt>
      <trkpt lat="45.45669" lon="6.90942">
        <ele>2409.4</ele>
        <time>2021-01-05T10:04:35Z</time>
      </trkpt>
      <trkpt lat="45.45672" lon="6.90944">
        <ele>2412</ele>
        <time>2021-01-05T10:04:38Z</time>
      </trkpt>
      <trkpt lat="45.45673" lon="6.90946">
        <ele>2412</ele>
        <time>2021-01-05T10:04:41Z</time>
      </trkpt>
      <trkpt lat="45.45675" lon="6.90948">
        <ele>2412</ele>
        <time>2021-01-05T10:04:43Z</time>
      </trkpt>
      <trkpt lat="45.45677" lon="6.9095">
        <ele>2412</ele>
        <time>2021-01-05T10:04:45Z</time>
      </trkpt>
      <trkpt lat="45.45679" lon="6.90952">
        <ele>2412</ele>
        <time>2021-01-05T10:04:47Z</time>
      </trkpt>
      <trkpt lat="45.45681" lon="6.90954">
        <ele>2412</ele>
        <time>2021-01-05T10:04:49Z</time>
      </trkpt>
      <trkpt lat="45.45683" lon="6.90956">
        <ele>2412</ele>
        <time>2021-01-05T10:04:51Z</time>
      </trkpt>
      <trkpt lat="45.45684" lon="6.90958">
        <ele>2412</ele>
        <time>2021-01-05T10:04:53Z</time>
      </trkpt>
      <trkpt lat="45.45686" lon="6.9096">
        <ele>2412</ele>
        <time>2021-01-05T10:04:55Z</time>
      </trkpt>
      <trkpt lat="45.45687" lon="6.90962">
        <ele>2412</ele>
        <time>2021-01-05T10:04:57Z</time>
      </trkpt>
      <trkpt lat="45.45689" lon="6.90963">
        <ele>2412</ele>
        <time>2021-01-05T10:04:59Z</time>
      </trkpt>
      <trkpt lat="45.45691" lon="6.90965">
        <ele>2412</ele>
        <time>2021-01-05T10:05:01Z</time>
      </trkpt>
      <trkpt lat="45.45692" lon="6.90967">
        <ele>2412</ele>
        <time>2021-01-05T10:05:03Z</time>
      </trkpt>
      <trkpt lat="45.45694" lon="6.90969">
        <ele>2412</ele>
        <time>2021-01-05T10:05:05Z</time>
      </trkpt>
      <trkpt lat="45.45695" lon="6.90971">
        <ele>2412</ele>
        <time>2021-01-05T10:05:07Z</time>
      </trkpt>
      <trkpt lat="45.45697" lon="6.90974">
        <ele>2412</ele>
        <time>2021-01-05T10:05:09Z</time>
      </trkpt>
      <trkpt lat="45.45699" lon="6.90975">
        <ele>2412</ele>
        <time>2021-01-05T10:05:11Z</time>
      </trkpt>
      <trkpt lat="45.457" lon="6.90978">
        <ele>2412</ele>
        <time>2021-01-05T10:05:13Z</time>
      </trkpt>
      <trkpt lat="45.45702" lon="6.90981">
        <ele>2412</ele>
        <time>2021-01-05T10:05:15Z</time>
      </trkpt>
      <trkpt lat="45.45703" lon="6.90984">
        <ele>2412</ele>
        <time>2021-01-05T10:05:17Z</time>
      </trkpt>
      <trkpt lat="45.45705" lon="6.90986">
        <ele>2412</ele>
        <time>2021-01-05T10:05:19Z</time>
      </trkpt>
      <trkpt lat="45.45707" lon="6.90989">
        <ele>2412</ele>
        <time>2021-01-05T10:05:21Z</time>
      </trkpt>
      <trkpt lat="45.45708" lon="6.90991">
        <ele>2412</ele>
        <time>2021-01-05T10:05:23Z</time>
      </trkpt>
      <trkpt lat="45.4571" lon="6.90992">
        <ele>2412</ele>
        <time>2021-01-05T10:05:25Z</time>
      </trkpt>
      <trkpt lat="45.45712" lon="6.90996">
        <ele>2426</ele>
        <time>2021-01-05T10:05:28Z</time>
      </trkpt>
      <trkpt lat="45.45714" lon="6.90998">
        <ele>2426</ele>
        <time>2021-01-05T10:05:30Z</time>
      </trkpt>
      <trkpt lat="45.45716" lon="6.91">
        <ele>2426</ele>
        <time>2021-01-05T10:05:33Z</time>
      </trkpt>
      <trkpt lat="45.45718" lon="6.91002">
        <ele>2426</ele>
        <time>2021-01-05T10:05:35Z</time>
      </trkpt>
      <trkpt lat="45.45719" lon="6.91005">
        <ele>2429.2</ele>
        <time>2021-01-05T10:05:38Z</time>
      </trkpt>
      <trkpt lat="45.45721" lon="6.91007">
        <ele>2429.2</ele>
        <time>2021-01-05T10:05:40Z</time>
      </trkpt>
      <trkpt lat="45.45722" lon="6.91011">
        <ele>2429.2</ele>
        <time>2021-01-05T10:05:43Z</time>
      </trkpt>
      <trkpt lat="45.45724" lon="6.91013">
        <ele>2429.2</ele>
        <time>2021-01-05T10:05:46Z</time>
      </trkpt>
      <trkpt lat="45.45726" lon="6.91016">
        <ele>2432.4</ele>
        <time>2021-01-05T10:05:48Z</time>
      </trkpt>
      <trkpt lat="45.45728" lon="6.91017">
        <ele>2432.4</ele>
        <time>2021-01-05T10:05:50Z</time>
      </trkpt>
      <trkpt lat="45.45729" lon="6.9102">
        <ele>2432.4</ele>
        <time>2021-01-05T10:05:52Z</time>
      </trkpt>
      <trkpt lat="45.45731" lon="6.91022">
        <ele>2432.4</ele>
        <time>2021-01-05T10:05:55Z</time>
      </trkpt>
      <trkpt lat="45.45733" lon="6.91023">
        <ele>2432.4</ele>
        <time>2021-01-05T10:05:57Z</time>
      </trkpt>
      <trkpt lat="45.45735" lon="6.91025">
        <ele>2432.4</ele>
        <time>2021-01-05T10:05:59Z</time>
      </trkpt>
      <trkpt lat="45.45736" lon="6.91027">
        <ele>2432.4</ele>
        <time>2021-01-05T10:06:01Z</time>
      </trkpt>
      <trkpt lat="45.45738" lon="6.91029">
        <ele>2432.4</ele>
        <time>2021-01-05T10:06:03Z</time>
      </trkpt>
      <trkpt lat="45.4574" lon="6.9103">
        <ele>2432.4</ele>
        <time>2021-01-05T10:06:05Z</time>
      </trkpt>
      <trkpt lat="45.45742" lon="6.91032">
        <ele>2432.4</ele>
        <time>2021-01-05T10:06:07Z</time>
      </trkpt>
      <trkpt lat="45.45744" lon="6.91036">
        <ele>2432.4</ele>
        <time>2021-01-05T10:06:10Z</time>
      </trkpt>
      <trkpt lat="45.45746" lon="6.91038">
        <ele>2432.4</ele>
        <time>2021-01-05T10:06:12Z</time>
      </trkpt>
      <trkpt lat="45.45747" lon="6.91041">
        <ele>2432.4</ele>
        <time>2021-01-05T10:06:14Z</time>
      </trkpt>
      <trkpt lat="45.45748" lon="6.91044">
        <ele>2432.4</ele>
        <time>2021-01-05T10:06:16Z</time>
      </trkpt>
      <trkpt lat="45.45749" lon="6.91046">
        <ele>2441.8</ele>
        <time>2021-01-05T10:06:18Z</time>
      </trkpt>
      <trkpt lat="45.4575" lon="6.91049">
        <ele>2441.8</ele>
        <time>2021-01-05T10:06:20Z</time>
      </trkpt>
      <trkpt lat="45.45752" lon="6.91052">
        <ele>2441.8</ele>
        <time>2021-01-05T10:06:22Z</time>
      </trkpt>
      <trkpt lat="45.45754" lon="6.91054">
        <ele>2441.8</ele>
        <time>2021-01-05T10:06:25Z</time>
      </trkpt>
      <trkpt lat="45.45755" lon="6.91057">
        <ele>2444</ele>
        <time>2021-01-05T10:06:28Z</time>
      </trkpt>
      <trkpt lat="45.45756" lon="6.91059">
        <ele>2444</ele>
        <time>2021-01-05T10:06:30Z</time>
      </trkpt>
      <trkpt lat="45.45757" lon="6.91062">
        <ele>2444</ele>
        <time>2021-01-05T10:06:33Z</time>
      </trkpt>
      <trkpt lat="45.45758" lon="6.91066">
        <ele>2444</ele>
        <time>2021-01-05T10:06:36Z</time>
      </trkpt>
      <trkpt lat="45.4576" lon="6.91068">
        <ele>2447.6</ele>
        <time>2021-01-05T10:06:38Z</time>
      </trkpt>
      <trkpt lat="45.4576" lon="6.91071">
        <ele>2447.6</ele>
        <time>2021-01-05T10:06:41Z</time>
      </trkpt>
      <trkpt lat="45.45761" lon="6.91074">
        <ele>2447.6</ele>
        <time>2021-01-05T10:06:43Z</time>
      </trkpt>
      <trkpt lat="45.45762" lon="6.91077">
        <ele>2447.6</ele>
        <time>2021-01-05T10:06:45Z</time>
      </trkpt>
      <trkpt lat="45.45763" lon="6.9108">
        <ele>2451.4</ele>
        <time>2021-01-05T10:06:48Z</time>
      </trkpt>
      <trkpt lat="45.45764" lon="6.91083">
        <ele>2451.4</ele>
        <time>2021-01-05T10:06:50Z</time>
      </trkpt>
      <trkpt lat="45.45766" lon="6.91086">
        <ele>2451.4</ele>
        <time>2021-01-05T10:06:52Z</time>
      </trkpt>
      <trkpt lat="45.45767" lon="6.91088">
        <ele>2451.4</ele>
        <time>2021-01-05T10:06:54Z</time>
      </trkpt>
      <trkpt lat="45.45768" lon="6.91092">
        <ele>2451.4</ele>
        <time>2021-01-05T10:06:56Z</time>
      </trkpt>
      <trkpt lat="45.45768" lon="6.91095">
        <ele>2451.4</ele>
        <time>2021-01-05T10:06:59Z</time>
      </trkpt>
      <trkpt lat="45.45768" lon="6.91098">
        <ele>2451.4</ele>
        <time>2021-01-05T10:07:01Z</time>
      </trkpt>
      <trkpt lat="45.4577" lon="6.91101">
        <ele>2451.4</ele>
        <time>2021-01-05T10:07:03Z</time>
      </trkpt>
      <trkpt lat="45.45771" lon="6.91104">
        <ele>2451.4</ele>
        <time>2021-01-05T10:07:05Z</time>
      </trkpt>
      <trkpt lat="45.45772" lon="6.91106">
        <ele>2451.4</ele>
        <time>2021-01-05T10:07:07Z</time>
      </trkpt>
      <trkpt lat="45.45773" lon="6.91109">
        <ele>2451.4</ele>
        <time>2021-01-05T10:07:09Z</time>
      </trkpt>
      <trkpt lat="45.45774" lon="6.91112">
        <ele>2451.4</ele>
        <time>2021-01-05T10:07:11Z</time>
      </trkpt>
      <trkpt lat="45.45774" lon="6.91115">
        <ele>2451.4</ele>
        <time>2021-01-05T10:07:13Z</time>
      </trkpt>
      <trkpt lat="45.45775" lon="6.91118">
        <ele>2451.4</ele>
        <time>2021-01-05T10:07:15Z</time>
      </trkpt>
      <trkpt lat="45.45775" lon="6.91121">
        <ele>2451.4</ele>
        <time>2021-01-05T10:07:17Z</time>
      </trkpt>
      <trkpt lat="45.45775" lon="6.91124">
        <ele>2451.4</ele>
        <time>2021-01-05T10:07:19Z</time>
      </trkpt>
      <trkpt lat="45.45777" lon="6.91127">
        <ele>2451.4</ele>
        <time>2021-01-05T10:07:21Z</time>
      </trkpt>
      <trkpt lat="45.45778" lon="6.9113">
        <ele>2451.4</ele>
        <time>2021-01-05T10:07:23Z</time>
      </trkpt>
      <trkpt lat="45.45779" lon="6.91132">
        <ele>2451.4</ele>
        <time>2021-01-05T10:07:25Z</time>
      </trkpt>
      <trkpt lat="45.4578" lon="6.91134">
        <ele>2451.4</ele>
        <time>2021-01-05T10:07:27Z</time>
      </trkpt>
      <trkpt lat="45.4578" lon="6.91137">
        <ele>2451.4</ele>
        <time>2021-01-05T10:07:29Z</time>
      </trkpt>
      <trkpt lat="45.4578" lon="6.91141">
        <ele>2451.4</ele>
        <time>2021-01-05T10:07:32Z</time>
      </trkpt>
      <trkpt lat="45.4578" lon="6.91144">
        <ele>2451.4</ele>
        <time>2021-01-05T10:07:34Z</time>
      </trkpt>
      <trkpt lat="45.4578" lon="6.91148">
        <ele>2451.4</ele>
        <time>2021-01-05T10:07:37Z</time>
      </trkpt>
      <trkpt lat="45.4578" lon="6.91152">
        <ele>2451.4</ele>
        <time>2021-01-05T10:07:39Z</time>
      </trkpt>
      <trkpt lat="45.4578" lon="6.91154">
        <ele>2451.4</ele>
        <time>2021-01-05T10:07:41Z</time>
      </trkpt>
      <trkpt lat="45.4578" lon="6.91158">
        <ele>2451.4</ele>
        <time>2021-01-05T10:07:43Z</time>
      </trkpt>
      <trkpt lat="45.4578" lon="6.9116">
        <ele>2451.4</ele>
        <time>2021-01-05T10:07:45Z</time>
      </trkpt>
      <trkpt lat="45.4578" lon="6.91164">
        <ele>2451.4</ele>
        <time>2021-01-05T10:07:47Z</time>
      </trkpt>
      <trkpt lat="45.45781" lon="6.91166">
        <ele>2451.4</ele>
        <time>2021-01-05T10:07:49Z</time>
      </trkpt>
      <trkpt lat="45.45782" lon="6.91169">
        <ele>2451.4</ele>
        <time>2021-01-05T10:07:51Z</time>
      </trkpt>
      <trkpt lat="45.45783" lon="6.91172">
        <ele>2451.4</ele>
        <time>2021-01-05T10:07:53Z</time>
      </trkpt>
      <trkpt lat="45.45784" lon="6.91176">
        <ele>2451.4</ele>
        <time>2021-01-05T10:07:55Z</time>
      </trkpt>
      <trkpt lat="45.45784" lon="6.91179">
        <ele>2451.4</ele>
        <time>2021-01-05T10:07:57Z</time>
      </trkpt>
      <trkpt lat="45.45784" lon="6.91183">
        <ele>2451.4</ele>
        <time>2021-01-05T10:07:59Z</time>
      </trkpt>
      <trkpt lat="45.45784" lon="6.91187">
        <ele>2451.4</ele>
        <time>2021-01-05T10:08:01Z</time>
      </trkpt>
      <trkpt lat="45.45784" lon="6.91192">
        <ele>2451.4</ele>
        <time>2021-01-05T10:08:03Z</time>
      </trkpt>
      <trkpt lat="45.45785" lon="6.91196">
        <ele>2451.4</ele>
        <time>2021-01-05T10:08:05Z</time>
      </trkpt>
      <trkpt lat="45.45785" lon="6.912">
        <ele>2451.4</ele>
        <time>2021-01-05T10:08:07Z</time>
      </trkpt>
      <trkpt lat="45.45786" lon="6.91204">
        <ele>2451.4</ele>
        <time>2021-01-05T10:08:09Z</time>
      </trkpt>
      <trkpt lat="45.45786" lon="6.91208">
        <ele>2451.4</ele>
        <time>2021-01-05T10:08:11Z</time>
      </trkpt>
      <trkpt lat="45.45786" lon="6.91213">
        <ele>2451.4</ele>
        <time>2021-01-05T10:08:13Z</time>
      </trkpt>
      <trkpt lat="45.45787" lon="6.91218">
        <ele>2451.4</ele>
        <time>2021-01-05T10:08:15Z</time>
      </trkpt>
      <trkpt lat="45.45788" lon="6.91222">
        <ele>2451.4</ele>
        <time>2021-01-05T10:08:17Z</time>
      </trkpt>
      <trkpt lat="45.45788" lon="6.91225">
        <ele>2477.2</ele>
        <time>2021-01-05T10:08:18Z</time>
      </trkpt>
      <trkpt lat="45.45788" lon="6.91227">
        <ele>2477.2</ele>
        <time>2021-01-05T10:08:19Z</time>
      </trkpt>
      <trkpt lat="45.45789" lon="6.91232">
        <ele>2477.2</ele>
        <time>2021-01-05T10:08:21Z</time>
      </trkpt>
      <trkpt lat="45.45789" lon="6.91237">
        <ele>2477.2</ele>
        <time>2021-01-05T10:08:23Z</time>
      </trkpt>
      <trkpt lat="45.45789" lon="6.91241">
        <ele>2477.2</ele>
        <time>2021-01-05T10:08:25Z</time>
      </trkpt>
      <trkpt lat="45.4579" lon="6.91245">
        <ele>2477.2</ele>
        <time>2021-01-05T10:08:27Z</time>
      </trkpt>
      <trkpt lat="45.45791" lon="6.91249">
        <ele>2477.2</ele>
        <time>2021-01-05T10:08:29Z</time>
      </trkpt>
      <trkpt lat="45.45791" lon="6.91254">
        <ele>2477.2</ele>
        <time>2021-01-05T10:08:31Z</time>
      </trkpt>
      <trkpt lat="45.45792" lon="6.91258">
        <ele>2477.2</ele>
        <time>2021-01-05T10:08:33Z</time>
      </trkpt>
      <trkpt lat="45.45792" lon="6.9126">
        <ele>2477.2</ele>
        <time>2021-01-05T10:08:34Z</time>
      </trkpt>
      <trkpt lat="45.45792" lon="6.91265">
        <ele>2477.2</ele>
        <time>2021-01-05T10:08:36Z</time>
      </trkpt>
      <trkpt lat="45.45793" lon="6.91268">
        <ele>2477.2</ele>
        <time>2021-01-05T10:08:37Z</time>
      </trkpt>
      <trkpt lat="45.45794" lon="6.91272">
        <ele>2477.2</ele>
        <time>2021-01-05T10:08:39Z</time>
      </trkpt>
      <trkpt lat="45.45794" lon="6.91277">
        <ele>2477.2</ele>
        <time>2021-01-05T10:08:41Z</time>
      </trkpt>
      <trkpt lat="45.45794" lon="6.91282">
        <ele>2477.2</ele>
        <time>2021-01-05T10:08:43Z</time>
      </trkpt>
      <trkpt lat="45.45794" lon="6.91286">
        <ele>2477.2</ele>
        <time>2021-01-05T10:08:45Z</time>
      </trkpt>
      <trkpt lat="45.45793" lon="6.91289">
        <ele>2477.2</ele>
        <time>2021-01-05T10:08:46Z</time>
      </trkpt>
      <trkpt lat="45.45793" lon="6.91292">
        <ele>2477.2</ele>
        <time>2021-01-05T10:08:47Z</time>
      </trkpt>
      <trkpt lat="45.45794" lon="6.91295">
        <ele>2482.4</ele>
        <time>2021-01-05T10:08:48Z</time>
      </trkpt>
      <trkpt lat="45.45795" lon="6.91299">
        <ele>2482.4</ele>
        <time>2021-01-05T10:08:50Z</time>
      </trkpt>
      <trkpt lat="45.45797" lon="6.91303">
        <ele>2482.4</ele>
        <time>2021-01-05T10:08:52Z</time>
      </trkpt>
      <trkpt lat="45.458" lon="6.91306">
        <ele>2482.4</ele>
        <time>2021-01-05T10:08:54Z</time>
      </trkpt>
      <trkpt lat="45.45801" lon="6.91307">
        <ele>2482.4</ele>
        <time>2021-01-05T10:08:55Z</time>
      </trkpt>
      <trkpt lat="45.45804" lon="6.91309">
        <ele>2482.4</ele>
        <time>2021-01-05T10:08:56Z</time>
      </trkpt>
      <trkpt lat="45.45806" lon="6.9131">
        <ele>2482.4</ele>
        <time>2021-01-05T10:08:57Z</time>
      </trkpt>
      <trkpt lat="45.45808" lon="6.91311">
        <ele>2483.6</ele>
        <time>2021-01-05T10:08:58Z</time>
      </trkpt>
      <trkpt lat="45.45811" lon="6.91313">
        <ele>2483.6</ele>
        <time>2021-01-05T10:09:00Z</time>
      </trkpt>
      <trkpt lat="45.45812" lon="6.91314">
        <ele>2483.6</ele>
        <time>2021-01-05T10:09:01Z</time>
      </trkpt>
      <trkpt lat="45.45814" lon="6.91316">
        <ele>2483.6</ele>
        <time>2021-01-05T10:09:02Z</time>
      </trkpt>
      <trkpt lat="45.45817" lon="6.91318">
        <ele>2483.6</ele>
        <time>2021-01-05T10:09:04Z</time>
      </trkpt>
      <trkpt lat="45.45819" lon="6.9132">
        <ele>2483.6</ele>
        <time>2021-01-05T10:09:05Z</time>
      </trkpt>
      <trkpt lat="45.45821" lon="6.91322">
        <ele>2483.6</ele>
        <time>2021-01-05T10:09:06Z</time>
      </trkpt>
      <trkpt lat="45.45823" lon="6.91323">
        <ele>2483.6</ele>
        <time>2021-01-05T10:09:07Z</time>
      </trkpt>
      <trkpt lat="45.45826" lon="6.91325">
        <ele>2483.6</ele>
        <time>2021-01-05T10:09:09Z</time>
      </trkpt>
      <trkpt lat="45.45828" lon="6.91327">
        <ele>2483.6</ele>
        <time>2021-01-05T10:09:10Z</time>
      </trkpt>
      <trkpt lat="45.4583" lon="6.91328">
        <ele>2483.6</ele>
        <time>2021-01-05T10:09:11Z</time>
      </trkpt>
      <trkpt lat="45.45832" lon="6.91329">
        <ele>2483.6</ele>
        <time>2021-01-05T10:09:12Z</time>
      </trkpt>
      <trkpt lat="45.45836" lon="6.91331">
        <ele>2483.6</ele>
        <time>2021-01-05T10:09:14Z</time>
      </trkpt>
      <trkpt lat="45.45837" lon="6.91332">
        <ele>2483.6</ele>
        <time>2021-01-05T10:09:15Z</time>
      </trkpt>
      <trkpt lat="45.4584" lon="6.91336">
        <ele>2483.6</ele>
        <time>2021-01-05T10:09:17Z</time>
      </trkpt>
      <trkpt lat="45.45843" lon="6.91338">
        <ele>2484.2</ele>
        <time>2021-01-05T10:09:18Z</time>
      </trkpt>
      <trkpt lat="45.45845" lon="6.9134">
        <ele>2484.2</ele>
        <time>2021-01-05T10:09:19Z</time>
      </trkpt>
      <trkpt lat="45.45846" lon="6.91342">
        <ele>2484.2</ele>
        <time>2021-01-05T10:09:20Z</time>
      </trkpt>
      <trkpt lat="45.45848" lon="6.91343">
        <ele>2484.2</ele>
        <time>2021-01-05T10:09:21Z</time>
      </trkpt>
      <trkpt lat="45.45851" lon="6.91346">
        <ele>2484.2</ele>
        <time>2021-01-05T10:09:23Z</time>
      </trkpt>
      <trkpt lat="45.45853" lon="6.91348">
        <ele>2484.2</ele>
        <time>2021-01-05T10:09:24Z</time>
      </trkpt>
      <trkpt lat="45.45854" lon="6.9135">
        <ele>2484.2</ele>
        <time>2021-01-05T10:09:25Z</time>
      </trkpt>
      <trkpt lat="45.45854" lon="6.91353">
        <ele>2484.2</ele>
        <time>2021-01-05T10:09:26Z</time>
      </trkpt>
      <trkpt lat="45.45855" lon="6.91357">
        <ele>2484.6</ele>
        <time>2021-01-05T10:09:28Z</time>
      </trkpt>
      <trkpt lat="45.45855" lon="6.91362">
        <ele>2484.6</ele>
        <time>2021-01-05T10:09:30Z</time>
      </trkpt>
      <trkpt lat="45.45855" lon="6.91364">
        <ele>2484.6</ele>
        <time>2021-01-05T10:09:32Z</time>
      </trkpt>
      <trkpt lat="45.45853" lon="6.91365">
        <ele>2484.6</ele>
        <time>2021-01-05T10:09:42Z</time>
      </trkpt>
      <trkpt lat="45.45851" lon="6.91365">
        <ele>2483.8</ele>
        <time>2021-01-05T10:09:48Z</time>
      </trkpt>
      <trkpt lat="45.45854" lon="6.91364">
        <ele>2483.8</ele>
        <time>2021-01-05T10:10:17Z</time>
      </trkpt>
      <trkpt lat="45.45856" lon="6.91364">
        <ele>2486.2</ele>
        <time>2021-01-05T10:10:18Z</time>
      </trkpt>
      <trkpt lat="45.4586" lon="6.91364">
        <ele>2486.2</ele>
        <time>2021-01-05T10:10:19Z</time>
      </trkpt>
      <trkpt lat="45.45865" lon="6.91365">
        <ele>2486.2</ele>
        <time>2021-01-05T10:10:20Z</time>
      </trkpt>
      <trkpt lat="45.4587" lon="6.91365">
        <ele>2486.2</ele>
        <time>2021-01-05T10:10:21Z</time>
      </trkpt>
      <trkpt lat="45.45876" lon="6.91366">
        <ele>2486.2</ele>
        <time>2021-01-05T10:10:22Z</time>
      </trkpt>
      <trkpt lat="45.45881" lon="6.91369">
        <ele>2486.2</ele>
        <time>2021-01-05T10:10:23Z</time>
      </trkpt>
      <trkpt lat="45.45887" lon="6.91371">
        <ele>2486.2</ele>
        <time>2021-01-05T10:10:24Z</time>
      </trkpt>
      <trkpt lat="45.45893" lon="6.91372">
        <ele>2486.2</ele>
        <time>2021-01-05T10:10:25Z</time>
      </trkpt>
      <trkpt lat="45.45898" lon="6.91375">
        <ele>2486.2</ele>
        <time>2021-01-05T10:10:26Z</time>
      </trkpt>
      <trkpt lat="45.45903" lon="6.9138">
        <ele>2486.2</ele>
        <time>2021-01-05T10:10:27Z</time>
      </trkpt>
      <trkpt lat="45.45908" lon="6.91387">
        <ele>2479.8</ele>
        <time>2021-01-05T10:10:28Z</time>
      </trkpt>
      <trkpt lat="45.45913" lon="6.91393">
        <ele>2479.8</ele>
        <time>2021-01-05T10:10:29Z</time>
      </trkpt>
      <trkpt lat="45.45919" lon="6.91399">
        <ele>2479.8</ele>
        <time>2021-01-05T10:10:30Z</time>
      </trkpt>
      <trkpt lat="45.45925" lon="6.91404">
        <ele>2479.8</ele>
        <time>2021-01-05T10:10:31Z</time>
      </trkpt>
      <trkpt lat="45.45932" lon="6.91408">
        <ele>2479.8</ele>
        <time>2021-01-05T10:10:32Z</time>
      </trkpt>
      <trkpt lat="45.45939" lon="6.9141">
        <ele>2479.8</ele>
        <time>2021-01-05T10:10:33Z</time>
      </trkpt>
      <trkpt lat="45.45947" lon="6.91413">
        <ele>2479.8</ele>
        <time>2021-01-05T10:10:34Z</time>
      </trkpt>
      <trkpt lat="45.45954" lon="6.91415">
        <ele>2479.8</ele>
        <time>2021-01-05T10:10:35Z</time>
      </trkpt>
      <trkpt lat="45.45963" lon="6.91416">
        <ele>2479.8</ele>
        <time>2021-01-05T10:10:36Z</time>
      </trkpt>
      <trkpt lat="45.45971" lon="6.91418">
        <ele>2479.8</ele>
        <time>2021-01-05T10:10:37Z</time>
      </trkpt>
      <trkpt lat="45.45978" lon="6.91417">
        <ele>2461.6</ele>
        <time>2021-01-05T10:10:38Z</time>
      </trkpt>
      <trkpt lat="45.45986" lon="6.91415">
        <ele>2461.6</ele>
        <time>2021-01-05T10:10:39Z</time>
      </trkpt>
      <trkpt lat="45.45993" lon="6.91415">
        <ele>2461.6</ele>
        <time>2021-01-05T10:10:40Z</time>
      </trkpt>
      <trkpt lat="45.46001" lon="6.91415">
        <ele>2461.6</ele>
        <time>2021-01-05T10:10:41Z</time>
      </trkpt>
      <trkpt lat="45.46008" lon="6.91414">
        <ele>2461.6</ele>
        <time>2021-01-05T10:10:42Z</time>
      </trkpt>
      <trkpt lat="45.46014" lon="6.91411">
        <ele>2461.6</ele>
        <time>2021-01-05T10:10:43Z</time>
      </trkpt>
      <trkpt lat="45.46021" lon="6.91409">
        <ele>2461.6</ele>
        <time>2021-01-05T10:10:44Z</time>
      </trkpt>
      <trkpt lat="45.46028" lon="6.91409">
        <ele>2461.6</ele>
        <time>2021-01-05T10:10:45Z</time>
      </trkpt>
      <trkpt lat="45.46035" lon="6.91406">
        <ele>2461.6</ele>
        <time>2021-01-05T10:10:46Z</time>
      </trkpt>
      <trkpt lat="45.46042" lon="6.91402">
        <ele>2461.6</ele>
        <time>2021-01-05T10:10:47Z</time>
      </trkpt>
      <trkpt lat="45.46048" lon="6.914">
        <ele>2439.8</ele>
        <time>2021-01-05T10:10:48Z</time>
      </trkpt>
      <trkpt lat="45.46054" lon="6.91395">
        <ele>2439.8</ele>
        <time>2021-01-05T10:10:49Z</time>
      </trkpt>
      <trkpt lat="45.46059" lon="6.9139">
        <ele>2439.8</ele>
        <time>2021-01-05T10:10:50Z</time>
      </trkpt>
      <trkpt lat="45.46064" lon="6.91386">
        <ele>2439.8</ele>
        <time>2021-01-05T10:10:51Z</time>
      </trkpt>
      <trkpt lat="45.46069" lon="6.91381">
        <ele>2439.8</ele>
        <time>2021-01-05T10:10:52Z</time>
      </trkpt>
      <trkpt lat="45.46074" lon="6.91375">
        <ele>2439.8</ele>
        <time>2021-01-05T10:10:53Z</time>
      </trkpt>
      <trkpt lat="45.46078" lon="6.9137">
        <ele>2439.8</ele>
        <time>2021-01-05T10:10:54Z</time>
      </trkpt>
      <trkpt lat="45.46082" lon="6.91366">
        <ele>2439.8</ele>
        <time>2021-01-05T10:10:55Z</time>
      </trkpt>
      <trkpt lat="45.46087" lon="6.91362">
        <ele>2439.8</ele>
        <time>2021-01-05T10:10:56Z</time>
      </trkpt>
      <trkpt lat="45.4609" lon="6.91356">
        <ele>2439.8</ele>
        <time>2021-01-05T10:10:57Z</time>
      </trkpt>
      <trkpt lat="45.46094" lon="6.91349">
        <ele>2416.8</ele>
        <time>2021-01-05T10:10:58Z</time>
      </trkpt>
      <trkpt lat="45.46099" lon="6.91346">
        <ele>2416.8</ele>
        <time>2021-01-05T10:10:59Z</time>
      </trkpt>
      <trkpt lat="45.46103" lon="6.91345">
        <ele>2416.8</ele>
        <time>2021-01-05T10:11:00Z</time>
      </trkpt>
      <trkpt lat="45.46108" lon="6.91344">
        <ele>2416.8</ele>
        <time>2021-01-05T10:11:01Z</time>
      </trkpt>
      <trkpt lat="45.46111" lon="6.9134">
        <ele>2416.8</ele>
        <time>2021-01-05T10:11:02Z</time>
      </trkpt>
      <trkpt lat="45.46116" lon="6.91336">
        <ele>2416.8</ele>
        <time>2021-01-05T10:11:03Z</time>
      </trkpt>
      <trkpt lat="45.46122" lon="6.91332">
        <ele>2416.8</ele>
        <time>2021-01-05T10:11:04Z</time>
      </trkpt>
      <trkpt lat="45.46129" lon="6.91326">
        <ele>2416.8</ele>
        <time>2021-01-05T10:11:05Z</time>
      </trkpt>
      <trkpt lat="45.46137" lon="6.91319">
        <ele>2416.8</ele>
        <time>2021-01-05T10:11:06Z</time>
      </trkpt>
      <trkpt lat="45.46145" lon="6.91313">
        <ele>2416.8</ele>
        <time>2021-01-05T10:11:07Z</time>
      </trkpt>
      <trkpt lat="45.46151" lon="6.91309">
        <ele>2390.4</ele>
        <time>2021-01-05T10:11:08Z</time>
      </trkpt>
      <trkpt lat="45.46155" lon="6.91303">
        <ele>2390.4</ele>
        <time>2021-01-05T10:11:09Z</time>
      </trkpt>
      <trkpt lat="45.46159" lon="6.91297">
        <ele>2390.4</ele>
        <time>2021-01-05T10:11:10Z</time>
      </trkpt>
      <trkpt lat="45.46163" lon="6.91293">
        <ele>2390.4</ele>
        <time>2021-01-05T10:11:11Z</time>
      </trkpt>
      <trkpt lat="45.46168" lon="6.91292">
        <ele>2390.4</ele>
        <time>2021-01-05T10:11:12Z</time>
      </trkpt>
      <trkpt lat="45.46172" lon="6.91291">
        <ele>2390.4</ele>
        <time>2021-01-05T10:11:13Z</time>
      </trkpt>
      <trkpt lat="45.46178" lon="6.9129">
        <ele>2390.4</ele>
        <time>2021-01-05T10:11:14Z</time>
      </trkpt>
      <trkpt lat="45.46183" lon="6.91288">
        <ele>2390.4</ele>
        <time>2021-01-05T10:11:15Z</time>
      </trkpt>
      <trkpt lat="45.46188" lon="6.91285">
        <ele>2390.4</ele>
        <time>2021-01-05T10:11:16Z</time>
      </trkpt>
      <trkpt lat="45.46195" lon="6.91283">
        <ele>2390.4</ele>
        <time>2021-01-05T10:11:17Z</time>
      </trkpt>
      <trkpt lat="45.46199" lon="6.91279">
        <ele>2373.8</ele>
        <time>2021-01-05T10:11:18Z</time>
      </trkpt>
      <trkpt lat="45.46204" lon="6.91274">
        <ele>2373.8</ele>
        <time>2021-01-05T10:11:19Z</time>
      </trkpt>
      <trkpt lat="45.46209" lon="6.9127">
        <ele>2373.8</ele>
        <time>2021-01-05T10:11:20Z</time>
      </trkpt>
      <trkpt lat="45.46214" lon="6.91266">
        <ele>2373.8</ele>
        <time>2021-01-05T10:11:21Z</time>
      </trkpt>
      <trkpt lat="45.46219" lon="6.91265">
        <ele>2373.8</ele>
        <time>2021-01-05T10:11:22Z</time>
      </trkpt>
      <trkpt lat="45.46224" lon="6.91264">
        <ele>2373.8</ele>
        <time>2021-01-05T10:11:23Z</time>
      </trkpt>
      <trkpt lat="45.46229" lon="6.91263">
        <ele>2373.8</ele>
        <time>2021-01-05T10:11:24Z</time>
      </trkpt>
      <trkpt lat="45.46235" lon="6.91259">
        <ele>2373.8</ele>
        <time>2021-01-05T10:11:25Z</time>
      </trkpt>
      <trkpt lat="45.46239" lon="6.91257">
        <ele>2373.8</ele>
        <time>2021-01-05T10:11:26Z</time>
      </trkpt>
      <trkpt lat="45.46242" lon="6.91259">
        <ele>2373.8</ele>
        <time>2021-01-05T10:11:27Z</time>
      </trkpt>
      <trkpt lat="45.46244" lon="6.9126">
        <ele>2355.4</ele>
        <time>2021-01-05T10:11:28Z</time>
      </trkpt>
      <trkpt lat="45.46246" lon="6.91259">
        <ele>2355.4</ele>
        <time>2021-01-05T10:11:35Z</time>
      </trkpt>
      <trkpt lat="45.46248" lon="6.9126">
        <ele>2355.4</ele>
        <time>2021-01-05T10:11:36Z</time>
      </trkpt>
      <trkpt lat="45.46251" lon="6.9126">
        <ele>2355.4</ele>
        <time>2021-01-05T10:11:37Z</time>
      </trkpt>
      <trkpt lat="45.46254" lon="6.91259">
        <ele>2347.6</ele>
        <time>2021-01-05T10:11:38Z</time>
      </trkpt>
      <trkpt lat="45.46258" lon="6.91258">
        <ele>2347.6</ele>
        <time>2021-01-05T10:11:39Z</time>
      </trkpt>
      <trkpt lat="45.46261" lon="6.91258">
        <ele>2347.6</ele>
        <time>2021-01-05T10:11:40Z</time>
      </trkpt>
      <trkpt lat="45.46265" lon="6.91258">
        <ele>2347.6</ele>
        <time>2021-01-05T10:11:41Z</time>
      </trkpt>
      <trkpt lat="45.46269" lon="6.91257">
        <ele>2347.6</ele>
        <time>2021-01-05T10:11:42Z</time>
      </trkpt>
      <trkpt lat="45.46273" lon="6.91258">
        <ele>2347.6</ele>
        <time>2021-01-05T10:11:43Z</time>
      </trkpt>
      <trkpt lat="45.46278" lon="6.91258">
        <ele>2347.6</ele>
        <time>2021-01-05T10:11:44Z</time>
      </trkpt>
      <trkpt lat="45.46282" lon="6.91259">
        <ele>2347.6</ele>
        <time>2021-01-05T10:11:45Z</time>
      </trkpt>
      <trkpt lat="45.46286" lon="6.91262">
        <ele>2347.6</ele>
        <time>2021-01-05T10:11:46Z</time>
      </trkpt>
      <trkpt lat="45.4629" lon="6.91264">
        <ele>2347.6</ele>
        <time>2021-01-05T10:11:47Z</time>
      </trkpt>
      <trkpt lat="45.46292" lon="6.91261">
        <ele>2334</ele>
        <time>2021-01-05T10:11:48Z</time>
      </trkpt>
      <trkpt lat="45.46294" lon="6.91255">
        <ele>2334</ele>
        <time>2021-01-05T10:11:49Z</time>
      </trkpt>
      <trkpt lat="45.46298" lon="6.91252">
        <ele>2334</ele>
        <time>2021-01-05T10:11:50Z</time>
      </trkpt>
      <trkpt lat="45.46302" lon="6.91253">
        <ele>2334</ele>
        <time>2021-01-05T10:11:51Z</time>
      </trkpt>
      <trkpt lat="45.46306" lon="6.91257">
        <ele>2334</ele>
        <time>2021-01-05T10:11:52Z</time>
      </trkpt>
      <trkpt lat="45.4631" lon="6.91261">
        <ele>2334</ele>
        <time>2021-01-05T10:11:53Z</time>
      </trkpt>
      <trkpt lat="45.46314" lon="6.91261">
        <ele>2334</ele>
        <time>2021-01-05T10:11:54Z</time>
      </trkpt>
      <trkpt lat="45.46318" lon="6.91262">
        <ele>2334</ele>
        <time>2021-01-05T10:11:55Z</time>
      </trkpt>
      <trkpt lat="45.46322" lon="6.91263">
        <ele>2334</ele>
        <time>2021-01-05T10:11:56Z</time>
      </trkpt>
      <trkpt lat="45.46326" lon="6.91263">
        <ele>2334</ele>
        <time>2021-01-05T10:11:57Z</time>
      </trkpt>
      <trkpt lat="45.4633" lon="6.9126">
        <ele>2316</ele>
        <time>2021-01-05T10:11:58Z</time>
      </trkpt>
      <trkpt lat="45.46334" lon="6.9126">
        <ele>2316</ele>
        <time>2021-01-05T10:11:59Z</time>
      </trkpt>
      <trkpt lat="45.46338" lon="6.91263">
        <ele>2316</ele>
        <time>2021-01-05T10:12:00Z</time>
      </trkpt>
      <trkpt lat="45.4634" lon="6.91269">
        <ele>2316</ele>
        <time>2021-01-05T10:12:01Z</time>
      </trkpt>
      <trkpt lat="45.46342" lon="6.91274">
        <ele>2316</ele>
        <time>2021-01-05T10:12:02Z</time>
      </trkpt>
      <trkpt lat="45.46344" lon="6.91277">
        <ele>2316</ele>
        <time>2021-01-05T10:12:03Z</time>
      </trkpt>
      <trkpt lat="45.46347" lon="6.91276">
        <ele>2316</ele>
        <time>2021-01-05T10:12:04Z</time>
      </trkpt>
      <trkpt lat="45.46351" lon="6.91279">
        <ele>2316</ele>
        <time>2021-01-05T10:12:06Z</time>
      </trkpt>
      <trkpt lat="45.46354" lon="6.91279">
        <ele>2316</ele>
        <time>2021-01-05T10:12:07Z</time>
      </trkpt>
      <trkpt lat="45.46358" lon="6.91277">
        <ele>2299.6</ele>
        <time>2021-01-05T10:12:08Z</time>
      </trkpt>
      <trkpt lat="45.46362" lon="6.91279">
        <ele>2299.6</ele>
        <time>2021-01-05T10:12:09Z</time>
      </trkpt>
      <trkpt lat="45.46364" lon="6.91283">
        <ele>2299.6</ele>
        <time>2021-01-05T10:12:10Z</time>
      </trkpt>
      <trkpt lat="45.46365" lon="6.91288">
        <ele>2299.6</ele>
        <time>2021-01-05T10:12:11Z</time>
      </trkpt>
      <trkpt lat="45.46369" lon="6.91288">
        <ele>2299.6</ele>
        <time>2021-01-05T10:12:12Z</time>
      </trkpt>
      <trkpt lat="45.46373" lon="6.9129">
        <ele>2299.6</ele>
        <time>2021-01-05T10:12:13Z</time>
      </trkpt>
      <trkpt lat="45.46377" lon="6.91294">
        <ele>2299.6</ele>
        <time>2021-01-05T10:12:14Z</time>
      </trkpt>
      <trkpt lat="45.4638" lon="6.91296">
        <ele>2299.6</ele>
        <time>2021-01-05T10:12:15Z</time>
      </trkpt>
      <trkpt lat="45.46386" lon="6.91296">
        <ele>2299.6</ele>
        <time>2021-01-05T10:12:16Z</time>
      </trkpt>
      <trkpt lat="45.4639" lon="6.91298">
        <ele>2299.6</ele>
        <time>2021-01-05T10:12:17Z</time>
      </trkpt>
      <trkpt lat="45.46393" lon="6.91302">
        <ele>2282.6</ele>
        <time>2021-01-05T10:12:18Z</time>
      </trkpt>
      <trkpt lat="45.46396" lon="6.91303">
        <ele>2282.6</ele>
        <time>2021-01-05T10:12:19Z</time>
      </trkpt>
      <trkpt lat="45.464" lon="6.91305">
        <ele>2282.6</ele>
        <time>2021-01-05T10:12:20Z</time>
      </trkpt>
      <trkpt lat="45.46404" lon="6.91308">
        <ele>2282.6</ele>
        <time>2021-01-05T10:12:21Z</time>
      </trkpt>
      <trkpt lat="45.46406" lon="6.91311">
        <ele>2282.6</ele>
        <time>2021-01-05T10:12:22Z</time>
      </trkpt>
      <trkpt lat="45.46409" lon="6.9131">
        <ele>2282.6</ele>
        <time>2021-01-05T10:12:23Z</time>
      </trkpt>
      <trkpt lat="45.46412" lon="6.91308">
        <ele>2282.6</ele>
        <time>2021-01-05T10:12:24Z</time>
      </trkpt>
      <trkpt lat="45.46414" lon="6.91306">
        <ele>2282.6</ele>
        <time>2021-01-05T10:12:25Z</time>
      </trkpt>
      <trkpt lat="45.46417" lon="6.91306">
        <ele>2282.6</ele>
        <time>2021-01-05T10:12:26Z</time>
      </trkpt>
      <trkpt lat="45.4642" lon="6.91309">
        <ele>2282.6</ele>
        <time>2021-01-05T10:12:27Z</time>
      </trkpt>
      <trkpt lat="45.46422" lon="6.91312">
        <ele>2264</ele>
        <time>2021-01-05T10:12:28Z</time>
      </trkpt>
      <trkpt lat="45.46425" lon="6.91316">
        <ele>2264</ele>
        <time>2021-01-05T10:12:29Z</time>
      </trkpt>
      <trkpt lat="45.46428" lon="6.91318">
        <ele>2264</ele>
        <time>2021-01-05T10:12:30Z</time>
      </trkpt>
      <trkpt lat="45.46433" lon="6.9132">
        <ele>2264</ele>
        <time>2021-01-05T10:12:31Z</time>
      </trkpt>
      <trkpt lat="45.46437" lon="6.91322">
        <ele>2264</ele>
        <time>2021-01-05T10:12:32Z</time>
      </trkpt>
      <trkpt lat="45.46442" lon="6.91321">
        <ele>2264</ele>
        <time>2021-01-05T10:12:33Z</time>
      </trkpt>
      <trkpt lat="45.46448" lon="6.91322">
        <ele>2264</ele>
        <time>2021-01-05T10:12:34Z</time>
      </trkpt>
      <trkpt lat="45.46453" lon="6.91322">
        <ele>2264</ele>
        <time>2021-01-05T10:12:35Z</time>
      </trkpt>
      <trkpt lat="45.46457" lon="6.91324">
        <ele>2264</ele>
        <time>2021-01-05T10:12:36Z</time>
      </trkpt>
      <trkpt lat="45.4646" lon="6.91324">
        <ele>2264</ele>
        <time>2021-01-05T10:12:37Z</time>
      </trkpt>
      <trkpt lat="45.46461" lon="6.91322">
        <ele>2264</ele>
        <time>2021-01-05T10:12:40Z</time>
      </trkpt>
      <trkpt lat="45.46462" lon="6.91317">
        <ele>2264</ele>
        <time>2021-01-05T10:12:42Z</time>
      </trkpt>
      <trkpt lat="45.46465" lon="6.91316">
        <ele>2264</ele>
        <time>2021-01-05T10:12:43Z</time>
      </trkpt>
      <trkpt lat="45.46468" lon="6.91316">
        <ele>2264</ele>
        <time>2021-01-05T10:12:44Z</time>
      </trkpt>
      <trkpt lat="45.4647" lon="6.91314">
        <ele>2264</ele>
        <time>2021-01-05T10:12:45Z</time>
      </trkpt>
      <trkpt lat="45.46471" lon="6.9131">
        <ele>2264</ele>
        <time>2021-01-05T10:12:46Z</time>
      </trkpt>
      <trkpt lat="45.46473" lon="6.91307">
        <ele>2264</ele>
        <time>2021-01-05T10:12:47Z</time>
      </trkpt>
      <trkpt lat="45.46474" lon="6.91304">
        <ele>2240.2</ele>
        <time>2021-01-05T10:12:48Z</time>
      </trkpt>
      <trkpt lat="45.46474" lon="6.91299">
        <ele>2240.2</ele>
        <time>2021-01-05T10:12:49Z</time>
      </trkpt>
      <trkpt lat="45.46475" lon="6.91295">
        <ele>2240.2</ele>
        <time>2021-01-05T10:12:50Z</time>
      </trkpt>
      <trkpt lat="45.46477" lon="6.91293">
        <ele>2240.2</ele>
        <time>2021-01-05T10:12:51Z</time>
      </trkpt>
      <trkpt lat="45.4648" lon="6.91293">
        <ele>2240.2</ele>
        <time>2021-01-05T10:12:52Z</time>
      </trkpt>
      <trkpt lat="45.46484" lon="6.91294">
        <ele>2240.2</ele>
        <time>2021-01-05T10:12:53Z</time>
      </trkpt>
      <trkpt lat="45.46487" lon="6.91295">
        <ele>2240.2</ele>
        <time>2021-01-05T10:12:54Z</time>
      </trkpt>
      <trkpt lat="45.46489" lon="6.91294">
        <ele>2240.2</ele>
        <time>2021-01-05T10:12:55Z</time>
      </trkpt>
      <trkpt lat="45.46493" lon="6.91293">
        <ele>2240.2</ele>
        <time>2021-01-05T10:12:56Z</time>
      </trkpt>
      <trkpt lat="45.46495" lon="6.91289">
        <ele>2240.2</ele>
        <time>2021-01-05T10:12:57Z</time>
      </trkpt>
      <trkpt lat="45.46497" lon="6.91286">
        <ele>2227</ele>
        <time>2021-01-05T10:12:58Z</time>
      </trkpt>
      <trkpt lat="45.465" lon="6.91284">
        <ele>2227</ele>
        <time>2021-01-05T10:12:59Z</time>
      </trkpt>
      <trkpt lat="45.46502" lon="6.9128">
        <ele>2227</ele>
        <time>2021-01-05T10:13:00Z</time>
      </trkpt>
      <trkpt lat="45.46505" lon="6.91276">
        <ele>2227</ele>
        <time>2021-01-05T10:13:01Z</time>
      </trkpt>
      <trkpt lat="45.46507" lon="6.91274">
        <ele>2227</ele>
        <time>2021-01-05T10:13:02Z</time>
      </trkpt>
      <trkpt lat="45.46509" lon="6.9127">
        <ele>2227</ele>
        <time>2021-01-05T10:13:03Z</time>
      </trkpt>
      <trkpt lat="45.4651" lon="6.91266">
        <ele>2227</ele>
        <time>2021-01-05T10:13:04Z</time>
      </trkpt>
      <trkpt lat="45.46514" lon="6.91262">
        <ele>2227</ele>
        <time>2021-01-05T10:13:05Z</time>
      </trkpt>
      <trkpt lat="45.46517" lon="6.91259">
        <ele>2227</ele>
        <time>2021-01-05T10:13:06Z</time>
      </trkpt>
      <trkpt lat="45.46518" lon="6.91255">
        <ele>2227</ele>
        <time>2021-01-05T10:13:07Z</time>
      </trkpt>
      <trkpt lat="45.46519" lon="6.9125">
        <ele>2211.8</ele>
        <time>2021-01-05T10:13:08Z</time>
      </trkpt>
      <trkpt lat="45.46521" lon="6.91247">
        <ele>2211.8</ele>
        <time>2021-01-05T10:13:09Z</time>
      </trkpt>
      <trkpt lat="45.46523" lon="6.91244">
        <ele>2211.8</ele>
        <time>2021-01-05T10:13:10Z</time>
      </trkpt>
      <trkpt lat="45.46524" lon="6.9124">
        <ele>2211.8</ele>
        <time>2021-01-05T10:13:11Z</time>
      </trkpt>
      <trkpt lat="45.46525" lon="6.91235">
        <ele>2211.8</ele>
        <time>2021-01-05T10:13:12Z</time>
      </trkpt>
      <trkpt lat="45.46526" lon="6.9123">
        <ele>2211.8</ele>
        <time>2021-01-05T10:13:13Z</time>
      </trkpt>
      <trkpt lat="45.46529" lon="6.91227">
        <ele>2211.8</ele>
        <time>2021-01-05T10:13:14Z</time>
      </trkpt>
      <trkpt lat="45.46531" lon="6.91225">
        <ele>2211.8</ele>
        <time>2021-01-05T10:13:15Z</time>
      </trkpt>
      <trkpt lat="45.46534" lon="6.91221">
        <ele>2211.8</ele>
        <time>2021-01-05T10:13:16Z</time>
      </trkpt>
      <trkpt lat="45.46537" lon="6.91219">
        <ele>2211.8</ele>
        <time>2021-01-05T10:13:17Z</time>
      </trkpt>
      <trkpt lat="45.4654" lon="6.91219">
        <ele>2196</ele>
        <time>2021-01-05T10:13:18Z</time>
      </trkpt>
      <trkpt lat="45.46542" lon="6.9122">
        <ele>2196</ele>
        <time>2021-01-05T10:13:19Z</time>
      </trkpt>
      <trkpt lat="45.46544" lon="6.91219">
        <ele>2196</ele>
        <time>2021-01-05T10:13:20Z</time>
      </trkpt>
      <trkpt lat="45.46543" lon="6.91213">
        <ele>2196</ele>
        <time>2021-01-05T10:13:22Z</time>
      </trkpt>
      <trkpt lat="45.46542" lon="6.91208">
        <ele>2196</ele>
        <time>2021-01-05T10:13:23Z</time>
      </trkpt>
      <trkpt lat="45.46541" lon="6.91203">
        <ele>2196</ele>
        <time>2021-01-05T10:13:24Z</time>
      </trkpt>
      <trkpt lat="45.46543" lon="6.912">
        <ele>2196</ele>
        <time>2021-01-05T10:13:25Z</time>
      </trkpt>
      <trkpt lat="45.46543" lon="6.91196">
        <ele>2196</ele>
        <time>2021-01-05T10:13:26Z</time>
      </trkpt>
      <trkpt lat="45.46544" lon="6.91191">
        <ele>2196</ele>
        <time>2021-01-05T10:13:27Z</time>
      </trkpt>
      <trkpt lat="45.46546" lon="6.91188">
        <ele>2182.8</ele>
        <time>2021-01-05T10:13:28Z</time>
      </trkpt>
      <trkpt lat="45.4655" lon="6.91188">
        <ele>2182.8</ele>
        <time>2021-01-05T10:13:29Z</time>
      </trkpt>
      <trkpt lat="45.46553" lon="6.91188">
        <ele>2182.8</ele>
        <time>2021-01-05T10:13:30Z</time>
      </trkpt>
      <trkpt lat="45.46557" lon="6.91189">
        <ele>2182.8</ele>
        <time>2021-01-05T10:13:31Z</time>
      </trkpt>
      <trkpt lat="45.46559" lon="6.91191">
        <ele>2182.8</ele>
        <time>2021-01-05T10:13:35Z</time>
      </trkpt>
      <trkpt lat="45.46561" lon="6.9119">
        <ele>2182.8</ele>
        <time>2021-01-05T10:13:44Z</time>
      </trkpt>
      <trkpt lat="45.46561" lon="6.91187">
        <ele>2182.8</ele>
        <time>2021-01-05T10:13:45Z</time>
      </trkpt>
      <trkpt lat="45.46561" lon="6.91184">
        <ele>2182.8</ele>
        <time>2021-01-05T10:13:46Z</time>
      </trkpt>
      <trkpt lat="45.46562" lon="6.91181">
        <ele>2182.8</ele>
        <time>2021-01-05T10:13:47Z</time>
      </trkpt>
      <trkpt lat="45.46564" lon="6.9118">
        <ele>2168.4</ele>
        <time>2021-01-05T10:13:48Z</time>
      </trkpt>
      <trkpt lat="45.46566" lon="6.91179">
        <ele>2168.4</ele>
        <time>2021-01-05T10:13:49Z</time>
      </trkpt>
      <trkpt lat="45.46567" lon="6.91174">
        <ele>2168.4</ele>
        <time>2021-01-05T10:13:50Z</time>
      </trkpt>
      <trkpt lat="45.46569" lon="6.9117">
        <ele>2168.4</ele>
        <time>2021-01-05T10:13:51Z</time>
      </trkpt>
      <trkpt lat="45.46571" lon="6.91167">
        <ele>2168.4</ele>
        <time>2021-01-05T10:13:52Z</time>
      </trkpt>
      <trkpt lat="45.46573" lon="6.91163">
        <ele>2168.4</ele>
        <time>2021-01-05T10:13:53Z</time>
      </trkpt>
      <trkpt lat="45.46573" lon="6.91159">
        <ele>2168.4</ele>
        <time>2021-01-05T10:13:54Z</time>
      </trkpt>
      <trkpt lat="45.46572" lon="6.91155">
        <ele>2168.4</ele>
        <time>2021-01-05T10:13:55Z</time>
      </trkpt>
      <trkpt lat="45.46571" lon="6.91152">
        <ele>2168.4</ele>
        <time>2021-01-05T10:13:56Z</time>
      </trkpt>
      <trkpt lat="45.46574" lon="6.91152">
        <ele>2155</ele>
        <time>2021-01-05T10:13:58Z</time>
      </trkpt>
      <trkpt lat="45.46576" lon="6.91153">
        <ele>2155</ele>
        <time>2021-01-05T10:13:59Z</time>
      </trkpt>
      <trkpt lat="45.46578" lon="6.91154">
        <ele>2155</ele>
        <time>2021-01-05T10:14:14Z</time>
      </trkpt>
      <trkpt lat="45.4658" lon="6.91153">
        <ele>2155</ele>
        <time>2021-01-05T10:14:15Z</time>
      </trkpt>
      <trkpt lat="45.46582" lon="6.91149">
        <ele>2155</ele>
        <time>2021-01-05T10:14:16Z</time>
      </trkpt>
      <trkpt lat="45.46582" lon="6.91142">
        <ele>2155</ele>
        <time>2021-01-05T10:14:17Z</time>
      </trkpt>
      <trkpt lat="45.46583" lon="6.91134">
        <ele>2147</ele>
        <time>2021-01-05T10:14:18Z</time>
      </trkpt>
      <trkpt lat="45.46584" lon="6.91126">
        <ele>2147</ele>
        <time>2021-01-05T10:14:19Z</time>
      </trkpt>
      <trkpt lat="45.46587" lon="6.91119">
        <ele>2147</ele>
        <time>2021-01-05T10:14:20Z</time>
      </trkpt>
      <trkpt lat="45.46591" lon="6.9111">
        <ele>2147</ele>
        <time>2021-01-05T10:14:21Z</time>
      </trkpt>
      <trkpt lat="45.46595" lon="6.91103">
        <ele>2147</ele>
        <time>2021-01-05T10:14:22Z</time>
      </trkpt>
      <trkpt lat="45.466" lon="6.91095">
        <ele>2147</ele>
        <time>2021-01-05T10:14:23Z</time>
      </trkpt>
      <trkpt lat="45.46606" lon="6.91088">
        <ele>2147</ele>
        <time>2021-01-05T10:14:24Z</time>
      </trkpt>
      <trkpt lat="45.46612" lon="6.91081">
        <ele>2147</ele>
        <time>2021-01-05T10:14:25Z</time>
      </trkpt>
      <trkpt lat="45.46618" lon="6.91076">
        <ele>2147</ele>
        <time>2021-01-05T10:14:26Z</time>
      </trkpt>
      <trkpt lat="45.46626" lon="6.91072">
        <ele>2147</ele>
        <time>2021-01-05T10:14:27Z</time>
      </trkpt>
      <trkpt lat="45.46633" lon="6.9107">
        <ele>2127.2</ele>
        <time>2021-01-05T10:14:28Z</time>
      </trkpt>
      <trkpt lat="45.46641" lon="6.91068">
        <ele>2127.2</ele>
        <time>2021-01-05T10:14:29Z</time>
      </trkpt>
      <trkpt lat="45.46648" lon="6.91066">
        <ele>2127.2</ele>
        <time>2021-01-05T10:14:30Z</time>
      </trkpt>
      <trkpt lat="45.46654" lon="6.91062">
        <ele>2127.2</ele>
        <time>2021-01-05T10:14:31Z</time>
      </trkpt>
      <trkpt lat="45.4666" lon="6.91057">
        <ele>2127.2</ele>
        <time>2021-01-05T10:14:32Z</time>
      </trkpt>
      <trkpt lat="45.46668" lon="6.91051">
        <ele>2127.2</ele>
        <time>2021-01-05T10:14:33Z</time>
      </trkpt>
      <trkpt lat="45.46674" lon="6.91044">
        <ele>2127.2</ele>
        <time>2021-01-05T10:14:34Z</time>
      </trkpt>
      <trkpt lat="45.4668" lon="6.91035">
        <ele>2127.2</ele>
        <time>2021-01-05T10:14:35Z</time>
      </trkpt>
      <trkpt lat="45.46687" lon="6.91027">
        <ele>2127.2</ele>
        <time>2021-01-05T10:14:36Z</time>
      </trkpt>
      <trkpt lat="45.46693" lon="6.91018">
        <ele>2127.2</ele>
        <time>2021-01-05T10:14:37Z</time>
      </trkpt>
      <trkpt lat="45.467" lon="6.91008">
        <ele>2109.2</ele>
        <time>2021-01-05T10:14:38Z</time>
      </trkpt>
      <trkpt lat="45.46705" lon="6.90998">
        <ele>2109.2</ele>
        <time>2021-01-05T10:14:39Z</time>
      </trkpt>
      <trkpt lat="45.46711" lon="6.90988">
        <ele>2109.2</ele>
        <time>2021-01-05T10:14:40Z</time>
      </trkpt>
      <trkpt lat="45.46718" lon="6.90977">
        <ele>2109.2</ele>
        <time>2021-01-05T10:14:41Z</time>
      </trkpt>
      <trkpt lat="45.46724" lon="6.90968">
        <ele>2109.2</ele>
        <time>2021-01-05T10:14:42Z</time>
      </trkpt>
      <trkpt lat="45.46731" lon="6.90958">
        <ele>2109.2</ele>
        <time>2021-01-05T10:14:43Z</time>
      </trkpt>
      <trkpt lat="45.46737" lon="6.90948">
        <ele>2109.2</ele>
        <time>2021-01-05T10:14:44Z</time>
      </trkpt>
      <trkpt lat="45.46743" lon="6.90937">
        <ele>2109.2</ele>
        <time>2021-01-05T10:14:45Z</time>
      </trkpt>
      <trkpt lat="45.46749" lon="6.90928">
        <ele>2109.2</ele>
        <time>2021-01-05T10:14:46Z</time>
      </trkpt>
      <trkpt lat="45.46756" lon="6.90921">
        <ele>2109.2</ele>
        <time>2021-01-05T10:14:47Z</time>
      </trkpt>
      <trkpt lat="45.46761" lon="6.90916">
        <ele>2091.2</ele>
        <time>2021-01-05T10:14:48Z</time>
      </trkpt>
      <trkpt lat="45.46767" lon="6.90909">
        <ele>2091.2</ele>
        <time>2021-01-05T10:14:49Z</time>
      </trkpt>
      <trkpt lat="45.46772" lon="6.90902">
        <ele>2091.2</ele>
        <time>2021-01-05T10:14:50Z</time>
      </trkpt>
      <trkpt lat="45.46776" lon="6.90896">
        <ele>2091.2</ele>
        <time>2021-01-05T10:14:51Z</time>
      </trkpt>
      <trkpt lat="45.46781" lon="6.90887">
        <ele>2091.2</ele>
        <time>2021-01-05T10:14:52Z</time>
      </trkpt>
      <trkpt lat="45.46784" lon="6.90881">
        <ele>2091.2</ele>
        <time>2021-01-05T10:14:53Z</time>
      </trkpt>
      <trkpt lat="45.46788" lon="6.90873">
        <ele>2091.2</ele>
        <time>2021-01-05T10:14:54Z</time>
      </trkpt>
      <trkpt lat="45.4679" lon="6.90867">
        <ele>2091.2</ele>
        <time>2021-01-05T10:14:55Z</time>
      </trkpt>
      <trkpt lat="45.46793" lon="6.9086">
        <ele>2091.2</ele>
        <time>2021-01-05T10:14:56Z</time>
      </trkpt>
      <trkpt lat="45.46796" lon="6.90853">
        <ele>2091.2</ele>
        <time>2021-01-05T10:14:57Z</time>
      </trkpt>
      <trkpt lat="45.46798" lon="6.90848">
        <ele>2082.4</ele>
        <time>2021-01-05T10:14:58Z</time>
      </trkpt>
      <trkpt lat="45.46801" lon="6.90843">
        <ele>2082.4</ele>
        <time>2021-01-05T10:14:59Z</time>
      </trkpt>
      <trkpt lat="45.46803" lon="6.90838">
        <ele>2082.4</ele>
        <time>2021-01-05T10:15:00Z</time>
      </trkpt>
      <trkpt lat="45.46804" lon="6.90835">
        <ele>2082.4</ele>
        <time>2021-01-05T10:15:01Z</time>
      </trkpt>
      <trkpt lat="45.46807" lon="6.9083">
        <ele>2082.4</ele>
        <time>2021-01-05T10:15:02Z</time>
      </trkpt>
      <trkpt lat="45.4681" lon="6.90826">
        <ele>2082.4</ele>
        <time>2021-01-05T10:15:03Z</time>
      </trkpt>
      <trkpt lat="45.46812" lon="6.90822">
        <ele>2082.4</ele>
        <time>2021-01-05T10:15:04Z</time>
      </trkpt>
      <trkpt lat="45.46814" lon="6.90819">
        <ele>2082.4</ele>
        <time>2021-01-05T10:15:05Z</time>
      </trkpt>
      <trkpt lat="45.46817" lon="6.90816">
        <ele>2082.4</ele>
        <time>2021-01-05T10:15:06Z</time>
      </trkpt>
      <trkpt lat="45.4682" lon="6.90813">
        <ele>2082.4</ele>
        <time>2021-01-05T10:15:07Z</time>
      </trkpt>
      <trkpt lat="45.46822" lon="6.9081">
        <ele>2080.8</ele>
        <time>2021-01-05T10:15:08Z</time>
      </trkpt>
      <trkpt lat="45.46824" lon="6.90808">
        <ele>2080.8</ele>
        <time>2021-01-05T10:15:09Z</time>
      </trkpt>
      <trkpt lat="45.46827" lon="6.90805">
        <ele>2080.8</ele>
        <time>2021-01-05T10:15:10Z</time>
      </trkpt>
      <trkpt lat="45.46828" lon="6.90801">
        <ele>2080.8</ele>
        <time>2021-01-05T10:15:11Z</time>
      </trkpt>
      <trkpt lat="45.4683" lon="6.90798">
        <ele>2080.8</ele>
        <time>2021-01-05T10:15:12Z</time>
      </trkpt>
      <trkpt lat="45.46833" lon="6.90794">
        <ele>2080.8</ele>
        <time>2021-01-05T10:15:13Z</time>
      </trkpt>
      <trkpt lat="45.46834" lon="6.90792">
        <ele>2080.8</ele>
        <time>2021-01-05T10:15:14Z</time>
      </trkpt>
      <trkpt lat="45.46836" lon="6.90789">
        <ele>2080.8</ele>
        <time>2021-01-05T10:15:15Z</time>
      </trkpt>
      <trkpt lat="45.46837" lon="6.90786">
        <ele>2080.8</ele>
        <time>2021-01-05T10:15:16Z</time>
      </trkpt>
      <trkpt lat="45.46839" lon="6.90782">
        <ele>2080.8</ele>
        <time>2021-01-05T10:15:17Z</time>
      </trkpt>
      <trkpt lat="45.46841" lon="6.90779">
        <ele>2081.4</ele>
        <time>2021-01-05T10:15:18Z</time>
      </trkpt>
      <trkpt lat="45.46843" lon="6.90776">
        <ele>2081.4</ele>
        <time>2021-01-05T10:15:19Z</time>
      </trkpt>
      <trkpt lat="45.46844" lon="6.90773">
        <ele>2081.4</ele>
        <time>2021-01-05T10:15:20Z</time>
      </trkpt>
      <trkpt lat="45.46845" lon="6.9077">
        <ele>2081.4</ele>
        <time>2021-01-05T10:15:21Z</time>
      </trkpt>
      <trkpt lat="45.46847" lon="6.90767">
        <ele>2081.4</ele>
        <time>2021-01-05T10:15:22Z</time>
      </trkpt>
      <trkpt lat="45.46849" lon="6.90765">
        <ele>2081.4</ele>
        <time>2021-01-05T10:15:23Z</time>
      </trkpt>
      <trkpt lat="45.46851" lon="6.90762">
        <ele>2081.4</ele>
        <time>2021-01-05T10:15:24Z</time>
      </trkpt>
      <trkpt lat="45.46852" lon="6.90759">
        <ele>2081.4</ele>
        <time>2021-01-05T10:15:25Z</time>
      </trkpt>
      <trkpt lat="45.46854" lon="6.90756">
        <ele>2081.4</ele>
        <time>2021-01-05T10:15:26Z</time>
      </trkpt>
      <trkpt lat="45.46856" lon="6.90754">
        <ele>2081.4</ele>
        <time>2021-01-05T10:15:27Z</time>
      </trkpt>
      <trkpt lat="45.46858" lon="6.90752">
        <ele>2083</ele>
        <time>2021-01-05T10:15:28Z</time>
      </trkpt>
      <trkpt lat="45.46859" lon="6.90749">
        <ele>2083</ele>
        <time>2021-01-05T10:15:29Z</time>
      </trkpt>
      <trkpt lat="45.4686" lon="6.90747">
        <ele>2083</ele>
        <time>2021-01-05T10:15:30Z</time>
      </trkpt>
      <trkpt lat="45.46862" lon="6.90745">
        <ele>2083</ele>
        <time>2021-01-05T10:15:31Z</time>
      </trkpt>
      <trkpt lat="45.46865" lon="6.9074">
        <ele>2083</ele>
        <time>2021-01-05T10:15:33Z</time>
      </trkpt>
      <trkpt lat="45.46866" lon="6.90737">
        <ele>2083</ele>
        <time>2021-01-05T10:15:34Z</time>
      </trkpt>
      <trkpt lat="45.46868" lon="6.90735">
        <ele>2083</ele>
        <time>2021-01-05T10:15:35Z</time>
      </trkpt>
      <trkpt lat="45.4687" lon="6.90733">
        <ele>2083</ele>
        <time>2021-01-05T10:15:36Z</time>
      </trkpt>
      <trkpt lat="45.46872" lon="6.9073">
        <ele>2083</ele>
        <time>2021-01-05T10:15:37Z</time>
      </trkpt>
      <trkpt lat="45.46874" lon="6.90728">
        <ele>2085.4</ele>
        <time>2021-01-05T10:15:38Z</time>
      </trkpt>
      <trkpt lat="45.46875" lon="6.90726">
        <ele>2085.4</ele>
        <time>2021-01-05T10:15:39Z</time>
      </trkpt>
      <trkpt lat="45.46876" lon="6.90723">
        <ele>2085.4</ele>
        <time>2021-01-05T10:15:40Z</time>
      </trkpt>
      <trkpt lat="45.46878" lon="6.9072">
        <ele>2085.4</ele>
        <time>2021-01-05T10:15:41Z</time>
      </trkpt>
      <trkpt lat="45.46879" lon="6.90717">
        <ele>2085.4</ele>
        <time>2021-01-05T10:15:42Z</time>
      </trkpt>
      <trkpt lat="45.46882" lon="6.90714">
        <ele>2085.4</ele>
        <time>2021-01-05T10:15:43Z</time>
      </trkpt>
      <trkpt lat="45.46884" lon="6.90712">
        <ele>2085.4</ele>
        <time>2021-01-05T10:15:44Z</time>
      </trkpt>
      <trkpt lat="45.46886" lon="6.90709">
        <ele>2085.4</ele>
        <time>2021-01-05T10:15:45Z</time>
      </trkpt>
      <trkpt lat="45.46888" lon="6.90706">
        <ele>2085.4</ele>
        <time>2021-01-05T10:15:46Z</time>
      </trkpt>
      <trkpt lat="45.4689" lon="6.90704">
        <ele>2085.4</ele>
        <time>2021-01-05T10:15:47Z</time>
      </trkpt>
      <trkpt lat="45.46892" lon="6.90702">
        <ele>2086</ele>
        <time>2021-01-05T10:15:48Z</time>
      </trkpt>
      <trkpt lat="45.46894" lon="6.907">
        <ele>2086</ele>
        <time>2021-01-05T10:15:49Z</time>
      </trkpt>
      <trkpt lat="45.46896" lon="6.90698">
        <ele>2086</ele>
        <time>2021-01-05T10:15:50Z</time>
      </trkpt>
      <trkpt lat="45.46898" lon="6.90697">
        <ele>2086</ele>
        <time>2021-01-05T10:15:51Z</time>
      </trkpt>
      <trkpt lat="45.469" lon="6.90694">
        <ele>2086</ele>
        <time>2021-01-05T10:15:53Z</time>
      </trkpt>
      <trkpt lat="45.46903" lon="6.90691">
        <ele>2086</ele>
        <time>2021-01-05T10:15:55Z</time>
      </trkpt>
      <trkpt lat="45.46904" lon="6.90689">
        <ele>2086</ele>
        <time>2021-01-05T10:15:57Z</time>
      </trkpt>
      <trkpt lat="45.46906" lon="6.90688">
        <ele>2086</ele>
        <time>2021-01-05T10:16:01Z</time>
      </trkpt>
      <trkpt lat="45.46908" lon="6.90689">
        <ele>2086</ele>
        <time>2021-01-05T10:16:06Z</time>
      </trkpt>
      <trkpt lat="45.46907" lon="6.90688">
        <ele>2086</ele>
        <time>2021-01-05T10:16:15Z</time>
      </trkpt>
      <trkpt lat="45.46908" lon="6.90684">
        <ele>2086</ele>
        <time>2021-01-05T10:17:15Z</time>
      </trkpt>
      <trkpt lat="45.4691" lon="6.90681">
        <ele>2086</ele>
        <time>2021-01-05T10:17:17Z</time>
      </trkpt>
      <trkpt lat="45.46912" lon="6.90678">
        <ele>2086</ele>
        <time>2021-01-05T10:17:21Z</time>
      </trkpt>
      <trkpt lat="45.46915" lon="6.90674">
        <ele>2086</ele>
        <time>2021-01-05T10:17:23Z</time>
      </trkpt>
      <trkpt lat="45.46918" lon="6.90672">
        <ele>2086</ele>
        <time>2021-01-05T10:17:25Z</time>
      </trkpt>
      <trkpt lat="45.46919" lon="6.90671">
        <ele>2086</ele>
        <time>2021-01-05T10:17:26Z</time>
      </trkpt>
      <trkpt lat="45.4692" lon="6.90668">
        <ele>2086</ele>
        <time>2021-01-05T10:17:27Z</time>
      </trkpt>
      <trkpt lat="45.46922" lon="6.90663">
        <ele>2086</ele>
        <time>2021-01-05T10:17:29Z</time>
      </trkpt>
      <trkpt lat="45.46923" lon="6.90661">
        <ele>2086</ele>
        <time>2021-01-05T10:17:30Z</time>
      </trkpt>
      <trkpt lat="45.46924" lon="6.90659">
        <ele>2086</ele>
        <time>2021-01-05T10:17:31Z</time>
      </trkpt>
      <trkpt lat="45.46925" lon="6.90658">
        <ele>2086</ele>
        <time>2021-01-05T10:17:32Z</time>
      </trkpt>
      <trkpt lat="45.46929" lon="6.90654">
        <ele>2086</ele>
        <time>2021-01-05T10:17:34Z</time>
      </trkpt>
      <trkpt lat="45.4693" lon="6.90652">
        <ele>2086</ele>
        <time>2021-01-05T10:17:35Z</time>
      </trkpt>
      <trkpt lat="45.46932" lon="6.9065">
        <ele>2086</ele>
        <time>2021-01-05T10:17:36Z</time>
      </trkpt>
      <trkpt lat="45.46934" lon="6.90648">
        <ele>2086</ele>
        <time>2021-01-05T10:17:37Z</time>
      </trkpt>
      <trkpt lat="45.46935" lon="6.90646">
        <ele>2087.6</ele>
        <time>2021-01-05T10:17:38Z</time>
      </trkpt>
      <trkpt lat="45.46938" lon="6.90642">
        <ele>2087.6</ele>
        <time>2021-01-05T10:17:40Z</time>
      </trkpt>
      <trkpt lat="45.4694" lon="6.90638">
        <ele>2087.6</ele>
        <time>2021-01-05T10:17:42Z</time>
      </trkpt>
      <trkpt lat="45.4694" lon="6.90636">
        <ele>2087.6</ele>
        <time>2021-01-05T10:17:43Z</time>
      </trkpt>
      <trkpt lat="45.46943" lon="6.90632">
        <ele>2087.6</ele>
        <time>2021-01-05T10:17:45Z</time>
      </trkpt>
      <trkpt lat="45.46945" lon="6.90631">
        <ele>2087.6</ele>
        <time>2021-01-05T10:17:46Z</time>
      </trkpt>
      <trkpt lat="45.46947" lon="6.9063">
        <ele>2087.6</ele>
        <time>2021-01-05T10:17:47Z</time>
      </trkpt>
      <trkpt lat="45.46949" lon="6.9063">
        <ele>2088</ele>
        <time>2021-01-05T10:17:48Z</time>
      </trkpt>
      <trkpt lat="45.46951" lon="6.90629">
        <ele>2088</ele>
        <time>2021-01-05T10:17:49Z</time>
      </trkpt>
      <trkpt lat="45.46954" lon="6.90627">
        <ele>2088</ele>
        <time>2021-01-05T10:17:51Z</time>
      </trkpt>
      <trkpt lat="45.46957" lon="6.90626">
        <ele>2088</ele>
        <time>2021-01-05T10:17:53Z</time>
      </trkpt>
      <trkpt lat="45.46959" lon="6.90625">
        <ele>2088</ele>
        <time>2021-01-05T10:17:54Z</time>
      </trkpt>
      <trkpt lat="45.46961" lon="6.90624">
        <ele>2088</ele>
        <time>2021-01-05T10:17:56Z</time>
      </trkpt>
      <trkpt lat="45.46964" lon="6.90623">
        <ele>2088.6</ele>
        <time>2021-01-05T10:17:58Z</time>
      </trkpt>
      <trkpt lat="45.46966" lon="6.90621">
        <ele>2088.6</ele>
        <time>2021-01-05T10:18:00Z</time>
      </trkpt>
      <trkpt lat="45.4697" lon="6.9062">
        <ele>2088.6</ele>
        <time>2021-01-05T10:18:02Z</time>
      </trkpt>
      <trkpt lat="45.46972" lon="6.90619">
        <ele>2088.6</ele>
        <time>2021-01-05T10:18:03Z</time>
      </trkpt>
      <trkpt lat="45.46975" lon="6.90618">
        <ele>2088.6</ele>
        <time>2021-01-05T10:18:05Z</time>
      </trkpt>
      <trkpt lat="45.46977" lon="6.90616">
        <ele>2088.6</ele>
        <time>2021-01-05T10:18:07Z</time>
      </trkpt>
      <trkpt lat="45.4698" lon="6.90614">
        <ele>2088.6</ele>
        <time>2021-01-05T10:18:09Z</time>
      </trkpt>
      <trkpt lat="45.46982" lon="6.90614">
        <ele>2088.6</ele>
        <time>2021-01-05T10:18:10Z</time>
      </trkpt>
      <trkpt lat="45.46985" lon="6.90613">
        <ele>2088.6</ele>
        <time>2021-01-05T10:18:12Z</time>
      </trkpt>
      <trkpt lat="45.46987" lon="6.90612">
        <ele>2088.6</ele>
        <time>2021-01-05T10:18:14Z</time>
      </trkpt>
      <trkpt lat="45.46989" lon="6.90612">
        <ele>2088.6</ele>
        <time>2021-01-05T10:18:16Z</time>
      </trkpt>
      <trkpt lat="45.46992" lon="6.90611">
        <ele>2093.8</ele>
        <time>2021-01-05T10:18:18Z</time>
      </trkpt>
      <trkpt lat="45.46995" lon="6.9061">
        <ele>2093.8</ele>
        <time>2021-01-05T10:18:20Z</time>
      </trkpt>
      <trkpt lat="45.46997" lon="6.90608">
        <ele>2093.8</ele>
        <time>2021-01-05T10:18:22Z</time>
      </trkpt>
      <trkpt lat="45.46999" lon="6.90607">
        <ele>2093.8</ele>
        <time>2021-01-05T10:18:24Z</time>
      </trkpt>
      <trkpt lat="45.47001" lon="6.90606">
        <ele>2093.8</ele>
        <time>2021-01-05T10:18:26Z</time>
      </trkpt>
      <trkpt lat="45.47003" lon="6.90604">
        <ele>2093.8</ele>
        <time>2021-01-05T10:18:29Z</time>
      </trkpt>
      <trkpt lat="45.47005" lon="6.90603">
        <ele>2093.8</ele>
        <time>2021-01-05T10:18:31Z</time>
      </trkpt>
      <trkpt lat="45.47007" lon="6.906">
        <ele>2093.8</ele>
        <time>2021-01-05T10:18:34Z</time>
      </trkpt>
      <trkpt lat="45.4701" lon="6.90599">
        <ele>2099.6</ele>
        <time>2021-01-05T10:18:38Z</time>
      </trkpt>
      <trkpt lat="45.47012" lon="6.90597">
        <ele>2099.6</ele>
        <time>2021-01-05T10:18:40Z</time>
      </trkpt>
      <trkpt lat="45.47016" lon="6.90597">
        <ele>2099.6</ele>
        <time>2021-01-05T10:18:42Z</time>
      </trkpt>
      <trkpt lat="45.47018" lon="6.90597">
        <ele>2099.6</ele>
        <time>2021-01-05T10:18:43Z</time>
      </trkpt>
      <trkpt lat="45.4702" lon="6.90596">
        <ele>2099.6</ele>
        <time>2021-01-05T10:18:44Z</time>
      </trkpt>
      <trkpt lat="45.47022" lon="6.90595">
        <ele>2099.6</ele>
        <time>2021-01-05T10:18:46Z</time>
      </trkpt>
      <trkpt lat="45.47025" lon="6.90593">
        <ele>2102</ele>
        <time>2021-01-05T10:18:48Z</time>
      </trkpt>
      <trkpt lat="45.47027" lon="6.90592">
        <ele>2102</ele>
        <time>2021-01-05T10:18:50Z</time>
      </trkpt>
      <trkpt lat="45.47029" lon="6.9059">
        <ele>2102</ele>
        <time>2021-01-05T10:18:52Z</time>
      </trkpt>
      <trkpt lat="45.47031" lon="6.90589">
        <ele>2102</ele>
        <time>2021-01-05T10:18:54Z</time>
      </trkpt>
      <trkpt lat="45.47035" lon="6.90588">
        <ele>2102</ele>
        <time>2021-01-05T10:18:56Z</time>
      </trkpt>
      <trkpt lat="45.47037" lon="6.90586">
        <ele>2105</ele>
        <time>2021-01-05T10:18:58Z</time>
      </trkpt>
      <trkpt lat="45.47039" lon="6.90584">
        <ele>2105</ele>
        <time>2021-01-05T10:19:00Z</time>
      </trkpt>
      <trkpt lat="45.47041" lon="6.90583">
        <ele>2105</ele>
        <time>2021-01-05T10:19:02Z</time>
      </trkpt>
      <trkpt lat="45.47043" lon="6.90582">
        <ele>2105</ele>
        <time>2021-01-05T10:19:03Z</time>
      </trkpt>
      <trkpt lat="45.47045" lon="6.9058">
        <ele>2105</ele>
        <time>2021-01-05T10:19:05Z</time>
      </trkpt>
      <trkpt lat="45.47048" lon="6.90579">
        <ele>2105</ele>
        <time>2021-01-05T10:19:07Z</time>
      </trkpt>
      <trkpt lat="45.47051" lon="6.90578">
        <ele>2105</ele>
        <time>2021-01-05T10:19:09Z</time>
      </trkpt>
      <trkpt lat="45.47053" lon="6.90576">
        <ele>2105</ele>
        <time>2021-01-05T10:19:11Z</time>
      </trkpt>
      <trkpt lat="45.47055" lon="6.90574">
        <ele>2105</ele>
        <time>2021-01-05T10:19:13Z</time>
      </trkpt>
      <trkpt lat="45.47057" lon="6.90574">
        <ele>2105</ele>
        <time>2021-01-05T10:19:14Z</time>
      </trkpt>
      <trkpt lat="45.4706" lon="6.90573">
        <ele>2105</ele>
        <time>2021-01-05T10:19:16Z</time>
      </trkpt>
      <trkpt lat="45.47063" lon="6.90572">
        <ele>2109.4</ele>
        <time>2021-01-05T10:19:18Z</time>
      </trkpt>
      <trkpt lat="45.47067" lon="6.90571">
        <ele>2109.4</ele>
        <time>2021-01-05T10:19:20Z</time>
      </trkpt>
      <trkpt lat="45.47068" lon="6.90571">
        <ele>2109.4</ele>
        <time>2021-01-05T10:19:21Z</time>
      </trkpt>
      <trkpt lat="45.47071" lon="6.9057">
        <ele>2109.4</ele>
        <time>2021-01-05T10:19:23Z</time>
      </trkpt>
      <trkpt lat="45.47073" lon="6.90568">
        <ele>2109.4</ele>
        <time>2021-01-05T10:19:25Z</time>
      </trkpt>
      <trkpt lat="45.47077" lon="6.90568">
        <ele>2109.4</ele>
        <time>2021-01-05T10:19:27Z</time>
      </trkpt>
      <trkpt lat="45.47079" lon="6.90567">
        <ele>2112.2</ele>
        <time>2021-01-05T10:19:28Z</time>
      </trkpt>
      <trkpt lat="45.47081" lon="6.90566">
        <ele>2112.2</ele>
        <time>2021-01-05T10:19:29Z</time>
      </trkpt>
      <trkpt lat="45.47084" lon="6.90565">
        <ele>2112.2</ele>
        <time>2021-01-05T10:19:31Z</time>
      </trkpt>
      <trkpt lat="45.47087" lon="6.90564">
        <ele>2112.2</ele>
        <time>2021-01-05T10:19:33Z</time>
      </trkpt>
      <trkpt lat="45.4709" lon="6.90564">
        <ele>2112.2</ele>
        <time>2021-01-05T10:19:35Z</time>
      </trkpt>
      <trkpt lat="45.47092" lon="6.90563">
        <ele>2112.2</ele>
        <time>2021-01-05T10:19:37Z</time>
      </trkpt>
      <trkpt lat="45.47095" lon="6.90563">
        <ele>2112.2</ele>
        <time>2021-01-05T10:19:39Z</time>
      </trkpt>
      <trkpt lat="45.47098" lon="6.90562">
        <ele>2112.2</ele>
        <time>2021-01-05T10:19:41Z</time>
      </trkpt>
      <trkpt lat="45.471" lon="6.90561">
        <ele>2112.2</ele>
        <time>2021-01-05T10:19:43Z</time>
      </trkpt>
      <trkpt lat="45.47102" lon="6.9056">
        <ele>2112.2</ele>
        <time>2021-01-05T10:19:45Z</time>
      </trkpt>
      <trkpt lat="45.47105" lon="6.90559">
        <ele>2112.2</ele>
        <time>2021-01-05T10:19:47Z</time>
      </trkpt>
      <trkpt lat="45.47108" lon="6.90559">
        <ele>2112.2</ele>
        <time>2021-01-05T10:19:49Z</time>
      </trkpt>
      <trkpt lat="45.47111" lon="6.90558">
        <ele>2112.2</ele>
        <time>2021-01-05T10:19:51Z</time>
      </trkpt>
      <trkpt lat="45.47113" lon="6.90557">
        <ele>2112.2</ele>
        <time>2021-01-05T10:19:53Z</time>
      </trkpt>
      <trkpt lat="45.47115" lon="6.90556">
        <ele>2112.2</ele>
        <time>2021-01-05T10:19:54Z</time>
      </trkpt>
      <trkpt lat="45.47118" lon="6.90556">
        <ele>2112.2</ele>
        <time>2021-01-05T10:19:56Z</time>
      </trkpt>
      <trkpt lat="45.4712" lon="6.90555">
        <ele>2117.8</ele>
        <time>2021-01-05T10:19:58Z</time>
      </trkpt>
      <trkpt lat="45.47123" lon="6.90554">
        <ele>2117.8</ele>
        <time>2021-01-05T10:20:00Z</time>
      </trkpt>
      <trkpt lat="45.47125" lon="6.90553">
        <ele>2117.8</ele>
        <time>2021-01-05T10:20:01Z</time>
      </trkpt>
      <trkpt lat="45.47128" lon="6.90552">
        <ele>2117.8</ele>
        <time>2021-01-05T10:20:03Z</time>
      </trkpt>
      <trkpt lat="45.47131" lon="6.90551">
        <ele>2117.8</ele>
        <time>2021-01-05T10:20:05Z</time>
      </trkpt>
      <trkpt lat="45.47132" lon="6.9055">
        <ele>2117.8</ele>
        <time>2021-01-05T10:20:06Z</time>
      </trkpt>
      <trkpt lat="45.47136" lon="6.90549">
        <ele>2119.8</ele>
        <time>2021-01-05T10:20:08Z</time>
      </trkpt>
      <trkpt lat="45.47139" lon="6.90548">
        <ele>2119.8</ele>
        <time>2021-01-05T10:20:10Z</time>
      </trkpt>
      <trkpt lat="45.47142" lon="6.90548">
        <ele>2119.8</ele>
        <time>2021-01-05T10:20:12Z</time>
      </trkpt>
      <trkpt lat="45.47144" lon="6.90547">
        <ele>2119.8</ele>
        <time>2021-01-05T10:20:13Z</time>
      </trkpt>
      <trkpt lat="45.47146" lon="6.90546">
        <ele>2119.8</ele>
        <time>2021-01-05T10:20:15Z</time>
      </trkpt>
      <trkpt lat="45.47149" lon="6.90545">
        <ele>2119.8</ele>
        <time>2021-01-05T10:20:17Z</time>
      </trkpt>
      <trkpt lat="45.47151" lon="6.90544">
        <ele>2121.2</ele>
        <time>2021-01-05T10:20:18Z</time>
      </trkpt>
      <trkpt lat="45.47153" lon="6.90544">
        <ele>2121.2</ele>
        <time>2021-01-05T10:20:19Z</time>
      </trkpt>
      <trkpt lat="45.47156" lon="6.90542">
        <ele>2121.2</ele>
        <time>2021-01-05T10:20:21Z</time>
      </trkpt>
      <trkpt lat="45.47158" lon="6.90542">
        <ele>2121.2</ele>
        <time>2021-01-05T10:20:22Z</time>
      </trkpt>
      <trkpt lat="45.47162" lon="6.90541">
        <ele>2121.2</ele>
        <time>2021-01-05T10:20:24Z</time>
      </trkpt>
      <trkpt lat="45.47165" lon="6.9054">
        <ele>2121.2</ele>
        <time>2021-01-05T10:20:26Z</time>
      </trkpt>
      <trkpt lat="45.47168" lon="6.9054">
        <ele>2122</ele>
        <time>2021-01-05T10:20:28Z</time>
      </trkpt>
      <trkpt lat="45.4717" lon="6.90539">
        <ele>2122</ele>
        <time>2021-01-05T10:20:29Z</time>
      </trkpt>
      <trkpt lat="45.47172" lon="6.90539">
        <ele>2122</ele>
        <time>2021-01-05T10:20:30Z</time>
      </trkpt>
      <trkpt lat="45.47175" lon="6.90539">
        <ele>2122</ele>
        <time>2021-01-05T10:20:32Z</time>
      </trkpt>
      <trkpt lat="45.47177" lon="6.90539">
        <ele>2122</ele>
        <time>2021-01-05T10:20:33Z</time>
      </trkpt>
      <trkpt lat="45.4718" lon="6.90538">
        <ele>2122</ele>
        <time>2021-01-05T10:20:35Z</time>
      </trkpt>
      <trkpt lat="45.47183" lon="6.90538">
        <ele>2122</ele>
        <time>2021-01-05T10:20:37Z</time>
      </trkpt>
      <trkpt lat="45.47186" lon="6.90538">
        <ele>2122</ele>
        <time>2021-01-05T10:20:39Z</time>
      </trkpt>
      <trkpt lat="45.47188" lon="6.90538">
        <ele>2122</ele>
        <time>2021-01-05T10:20:40Z</time>
      </trkpt>
      <trkpt lat="45.47191" lon="6.90537">
        <ele>2122</ele>
        <time>2021-01-05T10:20:42Z</time>
      </trkpt>
      <trkpt lat="45.47195" lon="6.90537">
        <ele>2122</ele>
        <time>2021-01-05T10:20:44Z</time>
      </trkpt>
      <trkpt lat="45.47198" lon="6.90537">
        <ele>2122</ele>
        <time>2021-01-05T10:20:46Z</time>
      </trkpt>
      <trkpt lat="45.472" lon="6.90536">
        <ele>2125</ele>
        <time>2021-01-05T10:20:48Z</time>
      </trkpt>
      <trkpt lat="45.47203" lon="6.90536">
        <ele>2125</ele>
        <time>2021-01-05T10:20:50Z</time>
      </trkpt>
      <trkpt lat="45.47205" lon="6.90535">
        <ele>2125</ele>
        <time>2021-01-05T10:20:52Z</time>
      </trkpt>
      <trkpt lat="45.47208" lon="6.90535">
        <ele>2125</ele>
        <time>2021-01-05T10:20:54Z</time>
      </trkpt>
      <trkpt lat="45.47211" lon="6.90535">
        <ele>2125</ele>
        <time>2021-01-05T10:20:56Z</time>
      </trkpt>
      <trkpt lat="45.47213" lon="6.90535">
        <ele>2127.6</ele>
        <time>2021-01-05T10:20:58Z</time>
      </trkpt>
      <trkpt lat="45.47216" lon="6.90534">
        <ele>2127.6</ele>
        <time>2021-01-05T10:21:00Z</time>
      </trkpt>
      <trkpt lat="45.47218" lon="6.90534">
        <ele>2127.6</ele>
        <time>2021-01-05T10:21:02Z</time>
      </trkpt>
      <trkpt lat="45.47221" lon="6.90534">
        <ele>2127.6</ele>
        <time>2021-01-05T10:21:04Z</time>
      </trkpt>
      <trkpt lat="45.47224" lon="6.90535">
        <ele>2127.6</ele>
        <time>2021-01-05T10:21:06Z</time>
      </trkpt>
      <trkpt lat="45.47227" lon="6.90535">
        <ele>2130.4</ele>
        <time>2021-01-05T10:21:08Z</time>
      </trkpt>
      <trkpt lat="45.47229" lon="6.90535">
        <ele>2130.4</ele>
        <time>2021-01-05T10:21:10Z</time>
      </trkpt>
      <trkpt lat="45.47232" lon="6.90535">
        <ele>2130.4</ele>
        <time>2021-01-05T10:21:12Z</time>
      </trkpt>
      <trkpt lat="45.47234" lon="6.90536">
        <ele>2130.4</ele>
        <time>2021-01-05T10:21:13Z</time>
      </trkpt>
      <trkpt lat="45.47236" lon="6.90536">
        <ele>2130.4</ele>
        <time>2021-01-05T10:21:15Z</time>
      </trkpt>
      <trkpt lat="45.47238" lon="6.90538">
        <ele>2130.4</ele>
        <time>2021-01-05T10:21:17Z</time>
      </trkpt>
      <trkpt lat="45.47241" lon="6.90538">
        <ele>2130.4</ele>
        <time>2021-01-05T10:21:20Z</time>
      </trkpt>
      <trkpt lat="45.47243" lon="6.90538">
        <ele>2130.4</ele>
        <time>2021-01-05T10:21:22Z</time>
      </trkpt>
      <trkpt lat="45.47245" lon="6.90539">
        <ele>2130.4</ele>
        <time>2021-01-05T10:21:24Z</time>
      </trkpt>
      <trkpt lat="45.47247" lon="6.9054">
        <ele>2130.4</ele>
        <time>2021-01-05T10:21:26Z</time>
      </trkpt>
      <trkpt lat="45.47249" lon="6.9054">
        <ele>2136.4</ele>
        <time>2021-01-05T10:21:28Z</time>
      </trkpt>
      <trkpt lat="45.47252" lon="6.90541">
        <ele>2136.4</ele>
        <time>2021-01-05T10:21:30Z</time>
      </trkpt>
      <trkpt lat="45.47254" lon="6.90542">
        <ele>2136.4</ele>
        <time>2021-01-05T10:21:32Z</time>
      </trkpt>
      <trkpt lat="45.47255" lon="6.90544">
        <ele>2136.4</ele>
        <time>2021-01-05T10:21:33Z</time>
      </trkpt>
      <trkpt lat="45.47257" lon="6.90544">
        <ele>2136.4</ele>
        <time>2021-01-05T10:21:34Z</time>
      </trkpt>
      <trkpt lat="45.4726" lon="6.90545">
        <ele>2136.4</ele>
        <time>2021-01-05T10:21:37Z</time>
      </trkpt>
      <trkpt lat="45.47263" lon="6.90547">
        <ele>2136.4</ele>
        <time>2021-01-05T10:21:39Z</time>
      </trkpt>
      <trkpt lat="45.47265" lon="6.90549">
        <ele>2136.4</ele>
        <time>2021-01-05T10:21:41Z</time>
      </trkpt>
      <trkpt lat="45.47267" lon="6.90551">
        <ele>2136.4</ele>
        <time>2021-01-05T10:21:43Z</time>
      </trkpt>
      <trkpt lat="45.47269" lon="6.90552">
        <ele>2136.4</ele>
        <time>2021-01-05T10:21:44Z</time>
      </trkpt>
      <trkpt lat="45.47271" lon="6.90554">
        <ele>2136.4</ele>
        <time>2021-01-05T10:21:46Z</time>
      </trkpt>
      <trkpt lat="45.47273" lon="6.90555">
        <ele>2142.2</ele>
        <time>2021-01-05T10:21:48Z</time>
      </trkpt>
      <trkpt lat="45.47275" lon="6.90557">
        <ele>2142.2</ele>
        <time>2021-01-05T10:21:50Z</time>
      </trkpt>
      <trkpt lat="45.47277" lon="6.90558">
        <ele>2142.2</ele>
        <time>2021-01-05T10:21:52Z</time>
      </trkpt>
      <trkpt lat="45.4728" lon="6.9056">
        <ele>2142.2</ele>
        <time>2021-01-05T10:21:54Z</time>
      </trkpt>
      <trkpt lat="45.47283" lon="6.90562">
        <ele>2142.2</ele>
        <time>2021-01-05T10:21:56Z</time>
      </trkpt>
      <trkpt lat="45.47285" lon="6.90563">
        <ele>2144.6</ele>
        <time>2021-01-05T10:21:58Z</time>
      </trkpt>
      <trkpt lat="45.47287" lon="6.90565">
        <ele>2144.6</ele>
        <time>2021-01-05T10:22:00Z</time>
      </trkpt>
      <trkpt lat="45.47289" lon="6.90566">
        <ele>2144.6</ele>
        <time>2021-01-05T10:22:01Z</time>
      </trkpt>
      <trkpt lat="45.47291" lon="6.90567">
        <ele>2144.6</ele>
        <time>2021-01-05T10:22:02Z</time>
      </trkpt>
      <trkpt lat="45.47293" lon="6.90568">
        <ele>2144.6</ele>
        <time>2021-01-05T10:22:04Z</time>
      </trkpt>
      <trkpt lat="45.47295" lon="6.90572">
        <ele>2144.6</ele>
        <time>2021-01-05T10:22:07Z</time>
      </trkpt>
      <trkpt lat="45.47297" lon="6.90573">
        <ele>2147.2</ele>
        <time>2021-01-05T10:22:08Z</time>
      </trkpt>
      <trkpt lat="45.473" lon="6.90575">
        <ele>2147.2</ele>
        <time>2021-01-05T10:22:10Z</time>
      </trkpt>
      <trkpt lat="45.47301" lon="6.90577">
        <ele>2147.2</ele>
        <time>2021-01-05T10:22:12Z</time>
      </trkpt>
      <trkpt lat="45.47304" lon="6.9058">
        <ele>2147.2</ele>
        <time>2021-01-05T10:22:15Z</time>
      </trkpt>
      <trkpt lat="45.47307" lon="6.90581">
        <ele>2147.2</ele>
        <time>2021-01-05T10:22:17Z</time>
      </trkpt>
      <trkpt lat="45.47308" lon="6.90583">
        <ele>2147.2</ele>
        <time>2021-01-05T10:22:19Z</time>
      </trkpt>
      <trkpt lat="45.47311" lon="6.90586">
        <ele>2147.2</ele>
        <time>2021-01-05T10:22:21Z</time>
      </trkpt>
      <trkpt lat="45.47313" lon="6.90587">
        <ele>2147.2</ele>
        <time>2021-01-05T10:22:22Z</time>
      </trkpt>
      <trkpt lat="45.47315" lon="6.90588">
        <ele>2147.2</ele>
        <time>2021-01-05T10:22:24Z</time>
      </trkpt>
      <trkpt lat="45.47318" lon="6.9059">
        <ele>2147.2</ele>
        <time>2021-01-05T10:22:26Z</time>
      </trkpt>
      <trkpt lat="45.4732" lon="6.9059">
        <ele>2147.2</ele>
        <time>2021-01-05T10:22:27Z</time>
      </trkpt>
      <trkpt lat="45.47323" lon="6.90592">
        <ele>2147.2</ele>
        <time>2021-01-05T10:22:29Z</time>
      </trkpt>
      <trkpt lat="45.47325" lon="6.90594">
        <ele>2147.2</ele>
        <time>2021-01-05T10:22:31Z</time>
      </trkpt>
      <trkpt lat="45.47328" lon="6.90596">
        <ele>2147.2</ele>
        <time>2021-01-05T10:22:33Z</time>
      </trkpt>
      <trkpt lat="45.4733" lon="6.90599">
        <ele>2147.2</ele>
        <time>2021-01-05T10:22:35Z</time>
      </trkpt>
      <trkpt lat="45.47332" lon="6.90601">
        <ele>2147.2</ele>
        <time>2021-01-05T10:22:37Z</time>
      </trkpt>
      <trkpt lat="45.47334" lon="6.90602">
        <ele>2153.2</ele>
        <time>2021-01-05T10:22:38Z</time>
      </trkpt>
      <trkpt lat="45.47336" lon="6.90603">
        <ele>2153.2</ele>
        <time>2021-01-05T10:22:39Z</time>
      </trkpt>
      <trkpt lat="45.47338" lon="6.90605">
        <ele>2153.2</ele>
        <time>2021-01-05T10:22:41Z</time>
      </trkpt>
      <trkpt lat="45.4734" lon="6.90606">
        <ele>2153.2</ele>
        <time>2021-01-05T10:22:43Z</time>
      </trkpt>
      <trkpt lat="45.47342" lon="6.90608">
        <ele>2153.2</ele>
        <time>2021-01-05T10:22:45Z</time>
      </trkpt>
      <trkpt lat="45.47344" lon="6.90611">
        <ele>2153.2</ele>
        <time>2021-01-05T10:22:47Z</time>
      </trkpt>
      <trkpt lat="45.47346" lon="6.90612">
        <ele>2155.6</ele>
        <time>2021-01-05T10:22:48Z</time>
      </trkpt>
      <trkpt lat="45.47348" lon="6.90614">
        <ele>2155.6</ele>
        <time>2021-01-05T10:22:49Z</time>
      </trkpt>
      <trkpt lat="45.4735" lon="6.90616">
        <ele>2155.6</ele>
        <time>2021-01-05T10:22:51Z</time>
      </trkpt>
      <trkpt lat="45.47353" lon="6.90618">
        <ele>2155.6</ele>
        <time>2021-01-05T10:22:53Z</time>
      </trkpt>
      <trkpt lat="45.47356" lon="6.90622">
        <ele>2155.6</ele>
        <time>2021-01-05T10:22:55Z</time>
      </trkpt>
      <trkpt lat="45.47357" lon="6.90624">
        <ele>2155.6</ele>
        <time>2021-01-05T10:22:56Z</time>
      </trkpt>
      <trkpt lat="45.4736" lon="6.90626">
        <ele>2157.6</ele>
        <time>2021-01-05T10:22:58Z</time>
      </trkpt>
      <trkpt lat="45.47363" lon="6.90628">
        <ele>2157.6</ele>
        <time>2021-01-05T10:23:00Z</time>
      </trkpt>
      <trkpt lat="45.47365" lon="6.90631">
        <ele>2157.6</ele>
        <time>2021-01-05T10:23:02Z</time>
      </trkpt>
      <trkpt lat="45.47367" lon="6.90632">
        <ele>2157.6</ele>
        <time>2021-01-05T10:23:03Z</time>
      </trkpt>
      <trkpt lat="45.47369" lon="6.90634">
        <ele>2157.6</ele>
        <time>2021-01-05T10:23:04Z</time>
      </trkpt>
      <trkpt lat="45.47371" lon="6.90635">
        <ele>2157.6</ele>
        <time>2021-01-05T10:23:05Z</time>
      </trkpt>
      <trkpt lat="45.47373" lon="6.90637">
        <ele>2157.6</ele>
        <time>2021-01-05T10:23:07Z</time>
      </trkpt>
      <trkpt lat="45.47375" lon="6.90639">
        <ele>2157.6</ele>
        <time>2021-01-05T10:23:09Z</time>
      </trkpt>
      <trkpt lat="45.47377" lon="6.90641">
        <ele>2157.6</ele>
        <time>2021-01-05T10:23:10Z</time>
      </trkpt>
      <trkpt lat="45.47379" lon="6.90644">
        <ele>2157.6</ele>
        <time>2021-01-05T10:23:12Z</time>
      </trkpt>
      <trkpt lat="45.47381" lon="6.90646">
        <ele>2157.6</ele>
        <time>2021-01-05T10:23:14Z</time>
      </trkpt>
      <trkpt lat="45.47383" lon="6.90649">
        <ele>2157.6</ele>
        <time>2021-01-05T10:23:16Z</time>
      </trkpt>
      <trkpt lat="45.47387" lon="6.90652">
        <ele>2160.8</ele>
        <time>2021-01-05T10:23:18Z</time>
      </trkpt>
      <trkpt lat="45.47389" lon="6.90654">
        <ele>2160.8</ele>
        <time>2021-01-05T10:23:20Z</time>
      </trkpt>
      <trkpt lat="45.47391" lon="6.90657">
        <ele>2160.8</ele>
        <time>2021-01-05T10:23:22Z</time>
      </trkpt>
      <trkpt lat="45.47393" lon="6.90658">
        <ele>2160.8</ele>
        <time>2021-01-05T10:23:23Z</time>
      </trkpt>
      <trkpt lat="45.47395" lon="6.9066">
        <ele>2160.8</ele>
        <time>2021-01-05T10:23:24Z</time>
      </trkpt>
      <trkpt lat="45.47396" lon="6.90662">
        <ele>2160.8</ele>
        <time>2021-01-05T10:23:25Z</time>
      </trkpt>
      <trkpt lat="45.47398" lon="6.90664">
        <ele>2160.8</ele>
        <time>2021-01-05T10:23:26Z</time>
      </trkpt>
      <trkpt lat="45.47401" lon="6.90665">
        <ele>2162.8</ele>
        <time>2021-01-05T10:23:28Z</time>
      </trkpt>
      <trkpt lat="45.47403" lon="6.90667">
        <ele>2162.8</ele>
        <time>2021-01-05T10:23:30Z</time>
      </trkpt>
      <trkpt lat="45.47406" lon="6.9067">
        <ele>2162.8</ele>
        <time>2021-01-05T10:23:32Z</time>
      </trkpt>
      <trkpt lat="45.47408" lon="6.90671">
        <ele>2162.8</ele>
        <time>2021-01-05T10:23:34Z</time>
      </trkpt>
      <trkpt lat="45.47411" lon="6.90672">
        <ele>2162.8</ele>
        <time>2021-01-05T10:23:36Z</time>
      </trkpt>
      <trkpt lat="45.47414" lon="6.90674">
        <ele>2164.8</ele>
        <time>2021-01-05T10:23:38Z</time>
      </trkpt>
      <trkpt lat="45.47417" lon="6.90677">
        <ele>2164.8</ele>
        <time>2021-01-05T10:23:40Z</time>
      </trkpt>
      <trkpt lat="45.47419" lon="6.90678">
        <ele>2164.8</ele>
        <time>2021-01-05T10:23:42Z</time>
      </trkpt>
      <trkpt lat="45.47422" lon="6.90681">
        <ele>2164.8</ele>
        <time>2021-01-05T10:23:44Z</time>
      </trkpt>
      <trkpt lat="45.47424" lon="6.90682">
        <ele>2164.8</ele>
        <time>2021-01-05T10:23:46Z</time>
      </trkpt>
      <trkpt lat="45.47427" lon="6.90684">
        <ele>2166</ele>
        <time>2021-01-05T10:23:48Z</time>
      </trkpt>
      <trkpt lat="45.4743" lon="6.90684">
        <ele>2166</ele>
        <time>2021-01-05T10:23:50Z</time>
      </trkpt>
      <trkpt lat="45.47433" lon="6.90685">
        <ele>2166</ele>
        <time>2021-01-05T10:23:52Z</time>
      </trkpt>
      <trkpt lat="45.47436" lon="6.90686">
        <ele>2166</ele>
        <time>2021-01-05T10:23:54Z</time>
      </trkpt>
      <trkpt lat="45.47438" lon="6.90688">
        <ele>2166</ele>
        <time>2021-01-05T10:23:56Z</time>
      </trkpt>
      <trkpt lat="45.4744" lon="6.9069">
        <ele>2168.2</ele>
        <time>2021-01-05T10:23:58Z</time>
      </trkpt>
      <trkpt lat="45.47443" lon="6.90691">
        <ele>2168.2</ele>
        <time>2021-01-05T10:24:00Z</time>
      </trkpt>
      <trkpt lat="45.47445" lon="6.9069">
        <ele>2168.2</ele>
        <time>2021-01-05T10:24:02Z</time>
      </trkpt>
      <trkpt lat="45.47448" lon="6.90691">
        <ele>2168.2</ele>
        <time>2021-01-05T10:24:04Z</time>
      </trkpt>
      <trkpt lat="45.47451" lon="6.90694">
        <ele>2168.2</ele>
        <time>2021-01-05T10:24:06Z</time>
      </trkpt>
      <trkpt lat="45.47452" lon="6.90697">
        <ele>2172</ele>
        <time>2021-01-05T10:24:08Z</time>
      </trkpt>
      <trkpt lat="45.47454" lon="6.907">
        <ele>2172</ele>
        <time>2021-01-05T10:24:10Z</time>
      </trkpt>
      <trkpt lat="45.47455" lon="6.90702">
        <ele>2172</ele>
        <time>2021-01-05T10:24:12Z</time>
      </trkpt>
      <trkpt lat="45.47457" lon="6.90704">
        <ele>2172</ele>
        <time>2021-01-05T10:24:14Z</time>
      </trkpt>
      <trkpt lat="45.47459" lon="6.90707">
        <ele>2172</ele>
        <time>2021-01-05T10:24:16Z</time>
      </trkpt>
      <trkpt lat="45.47462" lon="6.9071">
        <ele>2175.2</ele>
        <time>2021-01-05T10:24:18Z</time>
      </trkpt>
      <trkpt lat="45.47464" lon="6.90712">
        <ele>2175.2</ele>
        <time>2021-01-05T10:24:20Z</time>
      </trkpt>
      <trkpt lat="45.47466" lon="6.90714">
        <ele>2175.2</ele>
        <time>2021-01-05T10:24:22Z</time>
      </trkpt>
      <trkpt lat="45.47468" lon="6.90716">
        <ele>2175.2</ele>
        <time>2021-01-05T10:24:24Z</time>
      </trkpt>
      <trkpt lat="45.4747" lon="6.90718">
        <ele>2175.2</ele>
        <time>2021-01-05T10:24:26Z</time>
      </trkpt>
      <trkpt lat="45.47472" lon="6.9072">
        <ele>2175.2</ele>
        <time>2021-01-05T10:24:29Z</time>
      </trkpt>
      <trkpt lat="45.47475" lon="6.9072">
        <ele>2175.2</ele>
        <time>2021-01-05T10:24:31Z</time>
      </trkpt>
      <trkpt lat="45.47477" lon="6.9072">
        <ele>2175.2</ele>
        <time>2021-01-05T10:24:33Z</time>
      </trkpt>
      <trkpt lat="45.47479" lon="6.9072">
        <ele>2175.2</ele>
        <time>2021-01-05T10:24:35Z</time>
      </trkpt>
      <trkpt lat="45.47482" lon="6.9072">
        <ele>2175.2</ele>
        <time>2021-01-05T10:24:37Z</time>
      </trkpt>
      <trkpt lat="45.47484" lon="6.90721">
        <ele>2175.2</ele>
        <time>2021-01-05T10:24:40Z</time>
      </trkpt>
      <trkpt lat="45.47486" lon="6.90722">
        <ele>2175.2</ele>
        <time>2021-01-05T10:24:42Z</time>
      </trkpt>
      <trkpt lat="45.47489" lon="6.90722">
        <ele>2175.2</ele>
        <time>2021-01-05T10:24:44Z</time>
      </trkpt>
      <trkpt lat="45.47492" lon="6.90722">
        <ele>2175.2</ele>
        <time>2021-01-05T10:24:46Z</time>
      </trkpt>
      <trkpt lat="45.47496" lon="6.90722">
        <ele>2183.6</ele>
        <time>2021-01-05T10:24:48Z</time>
      </trkpt>
      <trkpt lat="45.47499" lon="6.90722">
        <ele>2183.6</ele>
        <time>2021-01-05T10:24:50Z</time>
      </trkpt>
      <trkpt lat="45.47501" lon="6.90722">
        <ele>2183.6</ele>
        <time>2021-01-05T10:24:52Z</time>
      </trkpt>
      <trkpt lat="45.47504" lon="6.90722">
        <ele>2183.6</ele>
        <time>2021-01-05T10:24:54Z</time>
      </trkpt>
      <trkpt lat="45.47506" lon="6.90722">
        <ele>2183.6</ele>
        <time>2021-01-05T10:24:56Z</time>
      </trkpt>
      <trkpt lat="45.47508" lon="6.90723">
        <ele>2186</ele>
        <time>2021-01-05T10:24:58Z</time>
      </trkpt>
      <trkpt lat="45.4751" lon="6.90724">
        <ele>2186</ele>
        <time>2021-01-05T10:25:00Z</time>
      </trkpt>
      <trkpt lat="45.47513" lon="6.90726">
        <ele>2186</ele>
        <time>2021-01-05T10:25:02Z</time>
      </trkpt>
      <trkpt lat="45.47515" lon="6.90727">
        <ele>2186</ele>
        <time>2021-01-05T10:25:03Z</time>
      </trkpt>
      <trkpt lat="45.47518" lon="6.90729">
        <ele>2186</ele>
        <time>2021-01-05T10:25:05Z</time>
      </trkpt>
      <trkpt lat="45.4752" lon="6.90731">
        <ele>2186</ele>
        <time>2021-01-05T10:25:07Z</time>
      </trkpt>
      <trkpt lat="45.47523" lon="6.90734">
        <ele>2186</ele>
        <time>2021-01-05T10:25:09Z</time>
      </trkpt>
      <trkpt lat="45.47525" lon="6.90738">
        <ele>2186</ele>
        <time>2021-01-05T10:25:11Z</time>
      </trkpt>
      <trkpt lat="45.47527" lon="6.90741">
        <ele>2186</ele>
        <time>2021-01-05T10:25:13Z</time>
      </trkpt>
      <trkpt lat="45.47529" lon="6.90744">
        <ele>2186</ele>
        <time>2021-01-05T10:25:15Z</time>
      </trkpt>
      <trkpt lat="45.47531" lon="6.90747">
        <ele>2186</ele>
        <time>2021-01-05T10:25:17Z</time>
      </trkpt>
      <trkpt lat="45.47533" lon="6.90751">
        <ele>2186</ele>
        <time>2021-01-05T10:25:19Z</time>
      </trkpt>
      <trkpt lat="45.47536" lon="6.90755">
        <ele>2186</ele>
        <time>2021-01-05T10:25:21Z</time>
      </trkpt>
      <trkpt lat="45.47538" lon="6.90758">
        <ele>2186</ele>
        <time>2021-01-05T10:25:23Z</time>
      </trkpt>
      <trkpt lat="45.4754" lon="6.90761">
        <ele>2186</ele>
        <time>2021-01-05T10:25:25Z</time>
      </trkpt>
      <trkpt lat="45.47542" lon="6.90764">
        <ele>2186</ele>
        <time>2021-01-05T10:25:27Z</time>
      </trkpt>
      <trkpt lat="45.47544" lon="6.90766">
        <ele>2191</ele>
        <time>2021-01-05T10:25:28Z</time>
      </trkpt>
      <trkpt lat="45.47545" lon="6.90767">
        <ele>2191</ele>
        <time>2021-01-05T10:25:29Z</time>
      </trkpt>
      <trkpt lat="45.47547" lon="6.90769">
        <ele>2191</ele>
        <time>2021-01-05T10:25:31Z</time>
      </trkpt>
      <trkpt lat="45.47549" lon="6.90772">
        <ele>2191</ele>
        <time>2021-01-05T10:25:33Z</time>
      </trkpt>
      <trkpt lat="45.47551" lon="6.90775">
        <ele>2191</ele>
        <time>2021-01-05T10:25:35Z</time>
      </trkpt>
      <trkpt lat="45.47553" lon="6.90776">
        <ele>2191</ele>
        <time>2021-01-05T10:25:36Z</time>
      </trkpt>
      <trkpt lat="45.47555" lon="6.90779">
        <ele>2193</ele>
        <time>2021-01-05T10:25:38Z</time>
      </trkpt>
      <trkpt lat="45.47558" lon="6.90781">
        <ele>2193</ele>
        <time>2021-01-05T10:25:40Z</time>
      </trkpt>
      <trkpt lat="45.47559" lon="6.90784">
        <ele>2193</ele>
        <time>2021-01-05T10:25:42Z</time>
      </trkpt>
      <trkpt lat="45.47563" lon="6.90786">
        <ele>2193</ele>
        <time>2021-01-05T10:25:44Z</time>
      </trkpt>
      <trkpt lat="45.47564" lon="6.90788">
        <ele>2193</ele>
        <time>2021-01-05T10:25:45Z</time>
      </trkpt>
      <trkpt lat="45.47567" lon="6.9079">
        <ele>2193</ele>
        <time>2021-01-05T10:25:47Z</time>
      </trkpt>
      <trkpt lat="45.47569" lon="6.90791">
        <ele>2195.4</ele>
        <time>2021-01-05T10:25:48Z</time>
      </trkpt>
      <trkpt lat="45.47572" lon="6.90793">
        <ele>2195.4</ele>
        <time>2021-01-05T10:25:50Z</time>
      </trkpt>
      <trkpt lat="45.47575" lon="6.90795">
        <ele>2195.4</ele>
        <time>2021-01-05T10:25:52Z</time>
      </trkpt>
      <trkpt lat="45.47577" lon="6.90798">
        <ele>2195.4</ele>
        <time>2021-01-05T10:25:54Z</time>
      </trkpt>
      <trkpt lat="45.47579" lon="6.908">
        <ele>2195.4</ele>
        <time>2021-01-05T10:25:55Z</time>
      </trkpt>
      <trkpt lat="45.4758" lon="6.90802">
        <ele>2195.4</ele>
        <time>2021-01-05T10:25:56Z</time>
      </trkpt>
      <trkpt lat="45.47582" lon="6.90805">
        <ele>2196.8</ele>
        <time>2021-01-05T10:25:58Z</time>
      </trkpt>
      <trkpt lat="45.47583" lon="6.90808">
        <ele>2196.8</ele>
        <time>2021-01-05T10:26:00Z</time>
      </trkpt>
      <trkpt lat="45.47585" lon="6.90812">
        <ele>2196.8</ele>
        <time>2021-01-05T10:26:02Z</time>
      </trkpt>
      <trkpt lat="45.47586" lon="6.90816">
        <ele>2196.8</ele>
        <time>2021-01-05T10:26:04Z</time>
      </trkpt>
      <trkpt lat="45.47587" lon="6.90819">
        <ele>2196.8</ele>
        <time>2021-01-05T10:26:05Z</time>
      </trkpt>
      <trkpt lat="45.47588" lon="6.90822">
        <ele>2196.8</ele>
        <time>2021-01-05T10:26:06Z</time>
      </trkpt>
      <trkpt lat="45.47588" lon="6.90826">
        <ele>2199.4</ele>
        <time>2021-01-05T10:26:08Z</time>
      </trkpt>
      <trkpt lat="45.47589" lon="6.9083">
        <ele>2199.4</ele>
        <time>2021-01-05T10:26:10Z</time>
      </trkpt>
      <trkpt lat="45.47591" lon="6.90833">
        <ele>2199.4</ele>
        <time>2021-01-05T10:26:12Z</time>
      </trkpt>
      <trkpt lat="45.47592" lon="6.90836">
        <ele>2199.4</ele>
        <time>2021-01-05T10:26:13Z</time>
      </trkpt>
      <trkpt lat="45.47593" lon="6.90838">
        <ele>2199.4</ele>
        <time>2021-01-05T10:26:14Z</time>
      </trkpt>
      <trkpt lat="45.47595" lon="6.90843">
        <ele>2199.4</ele>
        <time>2021-01-05T10:26:16Z</time>
      </trkpt>
      <trkpt lat="45.47597" lon="6.90847">
        <ele>2200.6</ele>
        <time>2021-01-05T10:26:18Z</time>
      </trkpt>
      <trkpt lat="45.476" lon="6.9085">
        <ele>2200.6</ele>
        <time>2021-01-05T10:26:20Z</time>
      </trkpt>
      <trkpt lat="45.47603" lon="6.90854">
        <ele>2200.6</ele>
        <time>2021-01-05T10:26:22Z</time>
      </trkpt>
      <trkpt lat="45.47605" lon="6.90858">
        <ele>2200.6</ele>
        <time>2021-01-05T10:26:24Z</time>
      </trkpt>
      <trkpt lat="45.47608" lon="6.9086">
        <ele>2200.6</ele>
        <time>2021-01-05T10:26:25Z</time>
      </trkpt>
      <trkpt lat="45.4761" lon="6.90862">
        <ele>2200.6</ele>
        <time>2021-01-05T10:26:26Z</time>
      </trkpt>
      <trkpt lat="45.47612" lon="6.90865">
        <ele>2201.6</ele>
        <time>2021-01-05T10:26:28Z</time>
      </trkpt>
      <trkpt lat="45.47614" lon="6.90869">
        <ele>2201.6</ele>
        <time>2021-01-05T10:26:30Z</time>
      </trkpt>
      <trkpt lat="45.47617" lon="6.90872">
        <ele>2201.6</ele>
        <time>2021-01-05T10:26:32Z</time>
      </trkpt>
      <trkpt lat="45.47618" lon="6.90874">
        <ele>2201.6</ele>
        <time>2021-01-05T10:26:33Z</time>
      </trkpt>
      <trkpt lat="45.4762" lon="6.90876">
        <ele>2201.6</ele>
        <time>2021-01-05T10:26:34Z</time>
      </trkpt>
      <trkpt lat="45.47621" lon="6.90878">
        <ele>2201.6</ele>
        <time>2021-01-05T10:26:35Z</time>
      </trkpt>
      <trkpt lat="45.47623" lon="6.90881">
        <ele>2201.6</ele>
        <time>2021-01-05T10:26:37Z</time>
      </trkpt>
      <trkpt lat="45.47626" lon="6.90884">
        <ele>2201.6</ele>
        <time>2021-01-05T10:26:39Z</time>
      </trkpt>
      <trkpt lat="45.47629" lon="6.90886">
        <ele>2201.6</ele>
        <time>2021-01-05T10:26:41Z</time>
      </trkpt>
      <trkpt lat="45.47631" lon="6.90888">
        <ele>2201.6</ele>
        <time>2021-01-05T10:26:43Z</time>
      </trkpt>
      <trkpt lat="45.47633" lon="6.9089">
        <ele>2201.6</ele>
        <time>2021-01-05T10:26:45Z</time>
      </trkpt>
      <trkpt lat="45.47635" lon="6.90892">
        <ele>2201.6</ele>
        <time>2021-01-05T10:26:47Z</time>
      </trkpt>
      <trkpt lat="45.47638" lon="6.90894">
        <ele>2201.6</ele>
        <time>2021-01-05T10:26:49Z</time>
      </trkpt>
      <trkpt lat="45.47641" lon="6.90895">
        <ele>2201.6</ele>
        <time>2021-01-05T10:26:51Z</time>
      </trkpt>
      <trkpt lat="45.47643" lon="6.90896">
        <ele>2201.6</ele>
        <time>2021-01-05T10:26:53Z</time>
      </trkpt>
      <trkpt lat="45.47646" lon="6.90896">
        <ele>2201.6</ele>
        <time>2021-01-05T10:26:55Z</time>
      </trkpt>
      <trkpt lat="45.47649" lon="6.90897">
        <ele>2201.6</ele>
        <time>2021-01-05T10:26:57Z</time>
      </trkpt>
      <trkpt lat="45.47653" lon="6.90897">
        <ele>2201.6</ele>
        <time>2021-01-05T10:26:59Z</time>
      </trkpt>
      <trkpt lat="45.47655" lon="6.90897">
        <ele>2201.6</ele>
        <time>2021-01-05T10:27:01Z</time>
      </trkpt>
      <trkpt lat="45.47658" lon="6.90896">
        <ele>2201.6</ele>
        <time>2021-01-05T10:27:03Z</time>
      </trkpt>
      <trkpt lat="45.4766" lon="6.90896">
        <ele>2201.6</ele>
        <time>2021-01-05T10:27:04Z</time>
      </trkpt>
      <trkpt lat="45.47663" lon="6.90894">
        <ele>2201.6</ele>
        <time>2021-01-05T10:27:06Z</time>
      </trkpt>
      <trkpt lat="45.47666" lon="6.90892">
        <ele>2209.2</ele>
        <time>2021-01-05T10:27:08Z</time>
      </trkpt>
      <trkpt lat="45.47668" lon="6.9089">
        <ele>2209.2</ele>
        <time>2021-01-05T10:27:10Z</time>
      </trkpt>
      <trkpt lat="45.4767" lon="6.90888">
        <ele>2209.2</ele>
        <time>2021-01-05T10:27:12Z</time>
      </trkpt>
      <trkpt lat="45.47672" lon="6.90885">
        <ele>2209.2</ele>
        <time>2021-01-05T10:27:14Z</time>
      </trkpt>
      <trkpt lat="45.47674" lon="6.90882">
        <ele>2209.2</ele>
        <time>2021-01-05T10:27:16Z</time>
      </trkpt>
      <trkpt lat="45.47676" lon="6.90879">
        <ele>2211.2</ele>
        <time>2021-01-05T10:27:18Z</time>
      </trkpt>
      <trkpt lat="45.47678" lon="6.90878">
        <ele>2211.2</ele>
        <time>2021-01-05T10:27:19Z</time>
      </trkpt>
      <trkpt lat="45.47681" lon="6.90874">
        <ele>2211.2</ele>
        <time>2021-01-05T10:27:21Z</time>
      </trkpt>
      <trkpt lat="45.47683" lon="6.90872">
        <ele>2211.2</ele>
        <time>2021-01-05T10:27:23Z</time>
      </trkpt>
      <trkpt lat="45.47684" lon="6.9087">
        <ele>2211.2</ele>
        <time>2021-01-05T10:27:24Z</time>
      </trkpt>
      <trkpt lat="45.47686" lon="6.90868">
        <ele>2211.2</ele>
        <time>2021-01-05T10:27:25Z</time>
      </trkpt>
      <trkpt lat="45.47688" lon="6.90866">
        <ele>2211.2</ele>
        <time>2021-01-05T10:27:27Z</time>
      </trkpt>
      <trkpt lat="45.4769" lon="6.90863">
        <ele>2211.2</ele>
        <time>2021-01-05T10:27:29Z</time>
      </trkpt>
      <trkpt lat="45.47692" lon="6.90862">
        <ele>2211.2</ele>
        <time>2021-01-05T10:27:31Z</time>
      </trkpt>
      <trkpt lat="45.47695" lon="6.9086">
        <ele>2211.2</ele>
        <time>2021-01-05T10:27:33Z</time>
      </trkpt>
      <trkpt lat="45.47697" lon="6.90858">
        <ele>2211.2</ele>
        <time>2021-01-05T10:27:35Z</time>
      </trkpt>
      <trkpt lat="45.47699" lon="6.90858">
        <ele>2211.2</ele>
        <time>2021-01-05T10:27:37Z</time>
      </trkpt>
      <trkpt lat="45.47702" lon="6.90858">
        <ele>2211.2</ele>
        <time>2021-01-05T10:27:39Z</time>
      </trkpt>
      <trkpt lat="45.47705" lon="6.90858">
        <ele>2211.2</ele>
        <time>2021-01-05T10:27:41Z</time>
      </trkpt>
      <trkpt lat="45.47708" lon="6.90858">
        <ele>2211.2</ele>
        <time>2021-01-05T10:27:43Z</time>
      </trkpt>
      <trkpt lat="45.4771" lon="6.90859">
        <ele>2211.2</ele>
        <time>2021-01-05T10:27:46Z</time>
      </trkpt>
      <trkpt lat="45.47712" lon="6.9086">
        <ele>2216.6</ele>
        <time>2021-01-05T10:27:48Z</time>
      </trkpt>
      <trkpt lat="45.47716" lon="6.90861">
        <ele>2216.6</ele>
        <time>2021-01-05T10:27:50Z</time>
      </trkpt>
      <trkpt lat="45.47718" lon="6.90862">
        <ele>2216.6</ele>
        <time>2021-01-05T10:27:52Z</time>
      </trkpt>
      <trkpt lat="45.47722" lon="6.90863">
        <ele>2216.6</ele>
        <time>2021-01-05T10:27:54Z</time>
      </trkpt>
      <trkpt lat="45.47725" lon="6.90864">
        <ele>2216.6</ele>
        <time>2021-01-05T10:27:56Z</time>
      </trkpt>
      <trkpt lat="45.47727" lon="6.90864">
        <ele>2216.6</ele>
        <time>2021-01-05T10:27:57Z</time>
      </trkpt>
      <trkpt lat="45.4773" lon="6.90866">
        <ele>2216.6</ele>
        <time>2021-01-05T10:27:59Z</time>
      </trkpt>
      <trkpt lat="45.47732" lon="6.90869">
        <ele>2216.6</ele>
        <time>2021-01-05T10:28:01Z</time>
      </trkpt>
      <trkpt lat="45.47734" lon="6.9087">
        <ele>2216.6</ele>
        <time>2021-01-05T10:28:02Z</time>
      </trkpt>
      <trkpt lat="45.47736" lon="6.90872">
        <ele>2216.6</ele>
        <time>2021-01-05T10:28:04Z</time>
      </trkpt>
      <trkpt lat="45.47738" lon="6.90874">
        <ele>2216.6</ele>
        <time>2021-01-05T10:28:05Z</time>
      </trkpt>
      <trkpt lat="45.4774" lon="6.90875">
        <ele>2216.6</ele>
        <time>2021-01-05T10:28:06Z</time>
      </trkpt>
      <trkpt lat="45.47742" lon="6.90878">
        <ele>2221.8</ele>
        <time>2021-01-05T10:28:08Z</time>
      </trkpt>
      <trkpt lat="45.47744" lon="6.9088">
        <ele>2221.8</ele>
        <time>2021-01-05T10:28:09Z</time>
      </trkpt>
      <trkpt lat="45.47746" lon="6.90882">
        <ele>2221.8</ele>
        <time>2021-01-05T10:28:11Z</time>
      </trkpt>
      <trkpt lat="45.47748" lon="6.90886">
        <ele>2221.8</ele>
        <time>2021-01-05T10:28:13Z</time>
      </trkpt>
      <trkpt lat="45.4775" lon="6.90888">
        <ele>2221.8</ele>
        <time>2021-01-05T10:28:14Z</time>
      </trkpt>
      <trkpt lat="45.47751" lon="6.90891">
        <ele>2221.8</ele>
        <time>2021-01-05T10:28:15Z</time>
      </trkpt>
      <trkpt lat="45.47753" lon="6.90894">
        <ele>2221.8</ele>
        <time>2021-01-05T10:28:17Z</time>
      </trkpt>
      <trkpt lat="45.47754" lon="6.90896">
        <ele>2223</ele>
        <time>2021-01-05T10:28:18Z</time>
      </trkpt>
      <trkpt lat="45.47756" lon="6.90898">
        <ele>2223</ele>
        <time>2021-01-05T10:28:19Z</time>
      </trkpt>
      <trkpt lat="45.47758" lon="6.90902">
        <ele>2223</ele>
        <time>2021-01-05T10:28:21Z</time>
      </trkpt>
      <trkpt lat="45.4776" lon="6.90905">
        <ele>2223</ele>
        <time>2021-01-05T10:28:23Z</time>
      </trkpt>
      <trkpt lat="45.47761" lon="6.90907">
        <ele>2223</ele>
        <time>2021-01-05T10:28:24Z</time>
      </trkpt>
      <trkpt lat="45.47763" lon="6.90911">
        <ele>2223</ele>
        <time>2021-01-05T10:28:26Z</time>
      </trkpt>
      <trkpt lat="45.47765" lon="6.90914">
        <ele>2223</ele>
        <time>2021-01-05T10:28:27Z</time>
      </trkpt>
      <trkpt lat="45.47766" lon="6.90916">
        <ele>2224</ele>
        <time>2021-01-05T10:28:28Z</time>
      </trkpt>
      <trkpt lat="45.47768" lon="6.90919">
        <ele>2224</ele>
        <time>2021-01-05T10:28:29Z</time>
      </trkpt>
      <trkpt lat="45.47772" lon="6.90922">
        <ele>2224</ele>
        <time>2021-01-05T10:28:31Z</time>
      </trkpt>
      <trkpt lat="45.47773" lon="6.90925">
        <ele>2224</ele>
        <time>2021-01-05T10:28:33Z</time>
      </trkpt>
      <trkpt lat="45.47774" lon="6.90927">
        <ele>2224</ele>
        <time>2021-01-05T10:28:34Z</time>
      </trkpt>
      <trkpt lat="45.47778" lon="6.90931">
        <ele>2224</ele>
        <time>2021-01-05T10:28:36Z</time>
      </trkpt>
      <trkpt lat="45.47779" lon="6.90934">
        <ele>2225.4</ele>
        <time>2021-01-05T10:28:38Z</time>
      </trkpt>
      <trkpt lat="45.47782" lon="6.90939">
        <ele>2225.4</ele>
        <time>2021-01-05T10:28:40Z</time>
      </trkpt>
      <trkpt lat="45.47786" lon="6.90943">
        <ele>2225.4</ele>
        <time>2021-01-05T10:28:42Z</time>
      </trkpt>
      <trkpt lat="45.47788" lon="6.90946">
        <ele>2225.4</ele>
        <time>2021-01-05T10:28:44Z</time>
      </trkpt>
      <trkpt lat="45.4779" lon="6.9095">
        <ele>2225.4</ele>
        <time>2021-01-05T10:28:46Z</time>
      </trkpt>
      <trkpt lat="45.47792" lon="6.90953">
        <ele>2225.4</ele>
        <time>2021-01-05T10:28:47Z</time>
      </trkpt>
      <trkpt lat="45.47794" lon="6.90956">
        <ele>2226.2</ele>
        <time>2021-01-05T10:28:48Z</time>
      </trkpt>
      <trkpt lat="45.47795" lon="6.90958">
        <ele>2226.2</ele>
        <time>2021-01-05T10:28:49Z</time>
      </trkpt>
      <trkpt lat="45.47796" lon="6.90961">
        <ele>2226.2</ele>
        <time>2021-01-05T10:28:50Z</time>
      </trkpt>
      <trkpt lat="45.47798" lon="6.90964">
        <ele>2226.2</ele>
        <time>2021-01-05T10:28:52Z</time>
      </trkpt>
      <trkpt lat="45.478" lon="6.90967">
        <ele>2226.2</ele>
        <time>2021-01-05T10:28:54Z</time>
      </trkpt>
      <trkpt lat="45.47802" lon="6.90969">
        <ele>2226.2</ele>
        <time>2021-01-05T10:28:55Z</time>
      </trkpt>
      <trkpt lat="45.47804" lon="6.90971">
        <ele>2226.2</ele>
        <time>2021-01-05T10:28:56Z</time>
      </trkpt>
      <trkpt lat="45.47806" lon="6.90974">
        <ele>2227</ele>
        <time>2021-01-05T10:28:58Z</time>
      </trkpt>
      <trkpt lat="45.47809" lon="6.90976">
        <ele>2227</ele>
        <time>2021-01-05T10:29:00Z</time>
      </trkpt>
      <trkpt lat="45.47812" lon="6.90977">
        <ele>2227</ele>
        <time>2021-01-05T10:29:01Z</time>
      </trkpt>
      <trkpt lat="45.47814" lon="6.90979">
        <ele>2227</ele>
        <time>2021-01-05T10:29:03Z</time>
      </trkpt>
      <trkpt lat="45.47818" lon="6.9098">
        <ele>2227</ele>
        <time>2021-01-05T10:29:05Z</time>
      </trkpt>
      <trkpt lat="45.4782" lon="6.90981">
        <ele>2227</ele>
        <time>2021-01-05T10:29:06Z</time>
      </trkpt>
      <trkpt lat="45.47822" lon="6.90981">
        <ele>2227</ele>
        <time>2021-01-05T10:29:07Z</time>
      </trkpt>
      <trkpt lat="45.47824" lon="6.90982">
        <ele>2228.2</ele>
        <time>2021-01-05T10:29:08Z</time>
      </trkpt>
      <trkpt lat="45.47828" lon="6.90981">
        <ele>2228.2</ele>
        <time>2021-01-05T10:29:10Z</time>
      </trkpt>
      <trkpt lat="45.47829" lon="6.90982">
        <ele>2228.2</ele>
        <time>2021-01-05T10:29:11Z</time>
      </trkpt>
      <trkpt lat="45.47831" lon="6.90982">
        <ele>2228.2</ele>
        <time>2021-01-05T10:29:12Z</time>
      </trkpt>
      <trkpt lat="45.47833" lon="6.90981">
        <ele>2228.2</ele>
        <time>2021-01-05T10:29:14Z</time>
      </trkpt>
      <trkpt lat="45.47836" lon="6.9098">
        <ele>2228.2</ele>
        <time>2021-01-05T10:29:16Z</time>
      </trkpt>
      <trkpt lat="45.47837" lon="6.90979">
        <ele>2228.2</ele>
        <time>2021-01-05T10:29:17Z</time>
      </trkpt>
      <trkpt lat="45.47839" lon="6.90978">
        <ele>2229</ele>
        <time>2021-01-05T10:29:18Z</time>
      </trkpt>
      <trkpt lat="45.47843" lon="6.90977">
        <ele>2229</ele>
        <time>2021-01-05T10:29:20Z</time>
      </trkpt>
      <trkpt lat="45.47845" lon="6.90977">
        <ele>2229</ele>
        <time>2021-01-05T10:29:21Z</time>
      </trkpt>
      <trkpt lat="45.47849" lon="6.90975">
        <ele>2229</ele>
        <time>2021-01-05T10:29:23Z</time>
      </trkpt>
      <trkpt lat="45.47851" lon="6.90974">
        <ele>2229</ele>
        <time>2021-01-05T10:29:24Z</time>
      </trkpt>
      <trkpt lat="45.47853" lon="6.90974">
        <ele>2229</ele>
        <time>2021-01-05T10:29:25Z</time>
      </trkpt>
      <trkpt lat="45.47855" lon="6.90973">
        <ele>2229</ele>
        <time>2021-01-05T10:29:26Z</time>
      </trkpt>
      <trkpt lat="45.47857" lon="6.90972">
        <ele>2230.8</ele>
        <time>2021-01-05T10:29:28Z</time>
      </trkpt>
      <trkpt lat="45.47859" lon="6.90971">
        <ele>2230.8</ele>
        <time>2021-01-05T10:29:29Z</time>
      </trkpt>
      <trkpt lat="45.47862" lon="6.90969">
        <ele>2230.8</ele>
        <time>2021-01-05T10:29:31Z</time>
      </trkpt>
      <trkpt lat="45.47865" lon="6.90967">
        <ele>2230.8</ele>
        <time>2021-01-05T10:29:33Z</time>
      </trkpt>
      <trkpt lat="45.47867" lon="6.90967">
        <ele>2230.8</ele>
        <time>2021-01-05T10:29:34Z</time>
      </trkpt>
      <trkpt lat="45.47869" lon="6.90967">
        <ele>2230.8</ele>
        <time>2021-01-05T10:29:35Z</time>
      </trkpt>
      <trkpt lat="45.47872" lon="6.90966">
        <ele>2230.8</ele>
        <time>2021-01-05T10:29:37Z</time>
      </trkpt>
      <trkpt lat="45.47875" lon="6.90964">
        <ele>2230.8</ele>
        <time>2021-01-05T10:29:39Z</time>
      </trkpt>
      <trkpt lat="45.47877" lon="6.90964">
        <ele>2230.8</ele>
        <time>2021-01-05T10:29:40Z</time>
      </trkpt>
      <trkpt lat="45.47879" lon="6.90963">
        <ele>2230.8</ele>
        <time>2021-01-05T10:29:41Z</time>
      </trkpt>
      <trkpt lat="45.47881" lon="6.90962">
        <ele>2230.8</ele>
        <time>2021-01-05T10:29:42Z</time>
      </trkpt>
      <trkpt lat="45.47884" lon="6.90963">
        <ele>2230.8</ele>
        <time>2021-01-05T10:29:43Z</time>
      </trkpt>
      <trkpt lat="45.47885" lon="6.90963">
        <ele>2230.8</ele>
        <time>2021-01-05T10:29:44Z</time>
      </trkpt>
      <trkpt lat="45.47888" lon="6.90963">
        <ele>2230.8</ele>
        <time>2021-01-05T10:29:46Z</time>
      </trkpt>
      <trkpt lat="45.4789" lon="6.90962">
        <ele>2230.8</ele>
        <time>2021-01-05T10:29:47Z</time>
      </trkpt>
      <trkpt lat="45.47892" lon="6.90963">
        <ele>2233.4</ele>
        <time>2021-01-05T10:29:48Z</time>
      </trkpt>
      <trkpt lat="45.47894" lon="6.90962">
        <ele>2233.4</ele>
        <time>2021-01-05T10:29:49Z</time>
      </trkpt>
      <trkpt lat="45.47897" lon="6.90963">
        <ele>2233.4</ele>
        <time>2021-01-05T10:29:50Z</time>
      </trkpt>
      <trkpt lat="45.47899" lon="6.90963">
        <ele>2233.4</ele>
        <time>2021-01-05T10:29:51Z</time>
      </trkpt>
      <trkpt lat="45.47901" lon="6.90964">
        <ele>2233.4</ele>
        <time>2021-01-05T10:29:52Z</time>
      </trkpt>
      <trkpt lat="45.47903" lon="6.90964">
        <ele>2233.4</ele>
        <time>2021-01-05T10:29:53Z</time>
      </trkpt>
      <trkpt lat="45.47905" lon="6.90965">
        <ele>2233.4</ele>
        <time>2021-01-05T10:29:54Z</time>
      </trkpt>
      <trkpt lat="45.47908" lon="6.90966">
        <ele>2233.4</ele>
        <time>2021-01-05T10:29:56Z</time>
      </trkpt>
      <trkpt lat="45.47911" lon="6.90966">
        <ele>2234.2</ele>
        <time>2021-01-05T10:29:58Z</time>
      </trkpt>
      <trkpt lat="45.47914" lon="6.90967">
        <ele>2234.2</ele>
        <time>2021-01-05T10:30:00Z</time>
      </trkpt>
      <trkpt lat="45.47918" lon="6.90967">
        <ele>2234.2</ele>
        <time>2021-01-05T10:30:02Z</time>
      </trkpt>
      <trkpt lat="45.47921" lon="6.90968">
        <ele>2234.2</ele>
        <time>2021-01-05T10:30:03Z</time>
      </trkpt>
      <trkpt lat="45.47924" lon="6.90968">
        <ele>2234.2</ele>
        <time>2021-01-05T10:30:04Z</time>
      </trkpt>
      <trkpt lat="45.47926" lon="6.90969">
        <ele>2234.2</ele>
        <time>2021-01-05T10:30:05Z</time>
      </trkpt>
      <trkpt lat="45.47929" lon="6.90969">
        <ele>2234.2</ele>
        <time>2021-01-05T10:30:06Z</time>
      </trkpt>
      <trkpt lat="45.47932" lon="6.90969">
        <ele>2235</ele>
        <time>2021-01-05T10:30:08Z</time>
      </trkpt>
      <trkpt lat="45.47935" lon="6.9097">
        <ele>2235</ele>
        <time>2021-01-05T10:30:10Z</time>
      </trkpt>
      <trkpt lat="45.47938" lon="6.9097">
        <ele>2235</ele>
        <time>2021-01-05T10:30:12Z</time>
      </trkpt>
      <trkpt lat="45.4794" lon="6.9097">
        <ele>2235</ele>
        <time>2021-01-05T10:30:13Z</time>
      </trkpt>
      <trkpt lat="45.47943" lon="6.9097">
        <ele>2235</ele>
        <time>2021-01-05T10:30:15Z</time>
      </trkpt>
      <trkpt lat="45.47946" lon="6.90971">
        <ele>2235</ele>
        <time>2021-01-05T10:30:17Z</time>
      </trkpt>
      <trkpt lat="45.47949" lon="6.90973">
        <ele>2235</ele>
        <time>2021-01-05T10:30:19Z</time>
      </trkpt>
      <trkpt lat="45.47951" lon="6.90974">
        <ele>2235</ele>
        <time>2021-01-05T10:30:20Z</time>
      </trkpt>
      <trkpt lat="45.47954" lon="6.90975">
        <ele>2235</ele>
        <time>2021-01-05T10:30:21Z</time>
      </trkpt>
      <trkpt lat="45.47957" lon="6.90976">
        <ele>2235</ele>
        <time>2021-01-05T10:30:23Z</time>
      </trkpt>
      <trkpt lat="45.4796" lon="6.90977">
        <ele>2235</ele>
        <time>2021-01-05T10:30:25Z</time>
      </trkpt>
      <trkpt lat="45.47962" lon="6.90978">
        <ele>2235</ele>
        <time>2021-01-05T10:30:26Z</time>
      </trkpt>
      <trkpt lat="45.47964" lon="6.90979">
        <ele>2235</ele>
        <time>2021-01-05T10:30:27Z</time>
      </trkpt>
      <trkpt lat="45.47968" lon="6.90981">
        <ele>2235</ele>
        <time>2021-01-05T10:30:29Z</time>
      </trkpt>
      <trkpt lat="45.4797" lon="6.90982">
        <ele>2235</ele>
        <time>2021-01-05T10:30:30Z</time>
      </trkpt>
      <trkpt lat="45.47972" lon="6.90984">
        <ele>2235</ele>
        <time>2021-01-05T10:30:31Z</time>
      </trkpt>
      <trkpt lat="45.47974" lon="6.90986">
        <ele>2235</ele>
        <time>2021-01-05T10:30:32Z</time>
      </trkpt>
      <trkpt lat="45.47976" lon="6.90987">
        <ele>2235</ele>
        <time>2021-01-05T10:30:33Z</time>
      </trkpt>
      <trkpt lat="45.47979" lon="6.90989">
        <ele>2235</ele>
        <time>2021-01-05T10:30:35Z</time>
      </trkpt>
      <trkpt lat="45.47982" lon="6.90992">
        <ele>2235</ele>
        <time>2021-01-05T10:30:37Z</time>
      </trkpt>
      <trkpt lat="45.47984" lon="6.90994">
        <ele>2238.4</ele>
        <time>2021-01-05T10:30:38Z</time>
      </trkpt>
      <trkpt lat="45.47986" lon="6.90997">
        <ele>2238.4</ele>
        <time>2021-01-05T10:30:40Z</time>
      </trkpt>
      <trkpt lat="45.47988" lon="6.91">
        <ele>2238.4</ele>
        <time>2021-01-05T10:30:41Z</time>
      </trkpt>
      <trkpt lat="45.4799" lon="6.91001">
        <ele>2238.4</ele>
        <time>2021-01-05T10:30:42Z</time>
      </trkpt>
      <trkpt lat="45.47992" lon="6.91002">
        <ele>2238.4</ele>
        <time>2021-01-05T10:30:43Z</time>
      </trkpt>
      <trkpt lat="45.47995" lon="6.91004">
        <ele>2238.4</ele>
        <time>2021-01-05T10:30:45Z</time>
      </trkpt>
      <trkpt lat="45.47996" lon="6.91006">
        <ele>2238.4</ele>
        <time>2021-01-05T10:30:47Z</time>
      </trkpt>
      <trkpt lat="45.47999" lon="6.91009">
        <ele>2238.4</ele>
        <time>2021-01-05T10:30:49Z</time>
      </trkpt>
      <trkpt lat="45.48002" lon="6.9101">
        <ele>2238.4</ele>
        <time>2021-01-05T10:30:50Z</time>
      </trkpt>
      <trkpt lat="45.48004" lon="6.91013">
        <ele>2238.4</ele>
        <time>2021-01-05T10:30:52Z</time>
      </trkpt>
      <trkpt lat="45.48006" lon="6.91015">
        <ele>2238.4</ele>
        <time>2021-01-05T10:30:53Z</time>
      </trkpt>
      <trkpt lat="45.48008" lon="6.91017">
        <ele>2238.4</ele>
        <time>2021-01-05T10:30:54Z</time>
      </trkpt>
      <trkpt lat="45.4801" lon="6.91018">
        <ele>2238.4</ele>
        <time>2021-01-05T10:30:55Z</time>
      </trkpt>
      <trkpt lat="45.48011" lon="6.9102">
        <ele>2238.4</ele>
        <time>2021-01-05T10:30:56Z</time>
      </trkpt>
      <trkpt lat="45.48012" lon="6.91023">
        <ele>2238.4</ele>
        <time>2021-01-05T10:30:57Z</time>
      </trkpt>
      <trkpt lat="45.48014" lon="6.91026">
        <ele>2238.4</ele>
        <time>2021-01-05T10:30:59Z</time>
      </trkpt>
      <trkpt lat="45.48016" lon="6.91028">
        <ele>2238.4</ele>
        <time>2021-01-05T10:31:01Z</time>
      </trkpt>
      <trkpt lat="45.4802" lon="6.91032">
        <ele>2238.4</ele>
        <time>2021-01-05T10:31:03Z</time>
      </trkpt>
      <trkpt lat="45.48021" lon="6.91034">
        <ele>2238.4</ele>
        <time>2021-01-05T10:31:04Z</time>
      </trkpt>
      <trkpt lat="45.48023" lon="6.91036">
        <ele>2238.4</ele>
        <time>2021-01-05T10:31:05Z</time>
      </trkpt>
      <trkpt lat="45.48024" lon="6.91037">
        <ele>2238.4</ele>
        <time>2021-01-05T10:31:06Z</time>
      </trkpt>
      <trkpt lat="45.48028" lon="6.91039">
        <ele>2241.8</ele>
        <time>2021-01-05T10:31:08Z</time>
      </trkpt>
      <trkpt lat="45.48029" lon="6.9104">
        <ele>2241.8</ele>
        <time>2021-01-05T10:31:09Z</time>
      </trkpt>
      <trkpt lat="45.48031" lon="6.91042">
        <ele>2241.8</ele>
        <time>2021-01-05T10:31:10Z</time>
      </trkpt>
      <trkpt lat="45.48035" lon="6.91044">
        <ele>2241.8</ele>
        <time>2021-01-05T10:31:12Z</time>
      </trkpt>
      <trkpt lat="45.48036" lon="6.91045">
        <ele>2241.8</ele>
        <time>2021-01-05T10:31:13Z</time>
      </trkpt>
      <trkpt lat="45.48039" lon="6.91048">
        <ele>2241.8</ele>
        <time>2021-01-05T10:31:15Z</time>
      </trkpt>
      <trkpt lat="45.48041" lon="6.9105">
        <ele>2241.8</ele>
        <time>2021-01-05T10:31:16Z</time>
      </trkpt>
      <trkpt lat="45.48044" lon="6.91052">
        <ele>2242.4</ele>
        <time>2021-01-05T10:31:18Z</time>
      </trkpt>
      <trkpt lat="45.48046" lon="6.91054">
        <ele>2242.4</ele>
        <time>2021-01-05T10:31:20Z</time>
      </trkpt>
      <trkpt lat="45.48048" lon="6.91056">
        <ele>2242.4</ele>
        <time>2021-01-05T10:31:21Z</time>
      </trkpt>
      <trkpt lat="45.4805" lon="6.91058">
        <ele>2242.4</ele>
        <time>2021-01-05T10:31:22Z</time>
      </trkpt>
      <trkpt lat="45.48051" lon="6.9106">
        <ele>2242.4</ele>
        <time>2021-01-05T10:31:23Z</time>
      </trkpt>
      <trkpt lat="45.48054" lon="6.91062">
        <ele>2242.4</ele>
        <time>2021-01-05T10:31:25Z</time>
      </trkpt>
      <trkpt lat="45.48056" lon="6.91063">
        <ele>2242.4</ele>
        <time>2021-01-05T10:31:27Z</time>
      </trkpt>
      <trkpt lat="45.48058" lon="6.91065">
        <ele>2244</ele>
        <time>2021-01-05T10:31:28Z</time>
      </trkpt>
      <trkpt lat="45.48059" lon="6.91066">
        <ele>2244</ele>
        <time>2021-01-05T10:31:29Z</time>
      </trkpt>
      <trkpt lat="45.48062" lon="6.91068">
        <ele>2244</ele>
        <time>2021-01-05T10:31:31Z</time>
      </trkpt>
      <trkpt lat="45.48064" lon="6.91068">
        <ele>2244</ele>
        <time>2021-01-05T10:31:32Z</time>
      </trkpt>
      <trkpt lat="45.48067" lon="6.9107">
        <ele>2244</ele>
        <time>2021-01-05T10:31:34Z</time>
      </trkpt>
      <trkpt lat="45.4807" lon="6.91072">
        <ele>2244</ele>
        <time>2021-01-05T10:31:36Z</time>
      </trkpt>
      <trkpt lat="45.48071" lon="6.91073">
        <ele>2244</ele>
        <time>2021-01-05T10:31:37Z</time>
      </trkpt>
      <trkpt lat="45.48074" lon="6.91075">
        <ele>2244</ele>
        <time>2021-01-05T10:31:39Z</time>
      </trkpt>
      <trkpt lat="45.48077" lon="6.91077">
        <ele>2244</ele>
        <time>2021-01-05T10:31:41Z</time>
      </trkpt>
      <trkpt lat="45.4808" lon="6.91079">
        <ele>2244</ele>
        <time>2021-01-05T10:31:43Z</time>
      </trkpt>
      <trkpt lat="45.48082" lon="6.9108">
        <ele>2244</ele>
        <time>2021-01-05T10:31:44Z</time>
      </trkpt>
      <trkpt lat="45.48085" lon="6.9108">
        <ele>2244</ele>
        <time>2021-01-05T10:31:46Z</time>
      </trkpt>
      <trkpt lat="45.48088" lon="6.91082">
        <ele>2246.8</ele>
        <time>2021-01-05T10:31:48Z</time>
      </trkpt>
      <trkpt lat="45.4809" lon="6.91083">
        <ele>2246.8</ele>
        <time>2021-01-05T10:31:49Z</time>
      </trkpt>
      <trkpt lat="45.48092" lon="6.91084">
        <ele>2246.8</ele>
        <time>2021-01-05T10:31:50Z</time>
      </trkpt>
      <trkpt lat="45.48093" lon="6.91086">
        <ele>2246.8</ele>
        <time>2021-01-05T10:31:51Z</time>
      </trkpt>
      <trkpt lat="45.48096" lon="6.91087">
        <ele>2246.8</ele>
        <time>2021-01-05T10:31:53Z</time>
      </trkpt>
      <trkpt lat="45.48098" lon="6.91088">
        <ele>2246.8</ele>
        <time>2021-01-05T10:31:54Z</time>
      </trkpt>
      <trkpt lat="45.48101" lon="6.91089">
        <ele>2246.8</ele>
        <time>2021-01-05T10:31:56Z</time>
      </trkpt>
      <trkpt lat="45.48103" lon="6.91092">
        <ele>2248.4</ele>
        <time>2021-01-05T10:31:58Z</time>
      </trkpt>
      <trkpt lat="45.48106" lon="6.91093">
        <ele>2248.4</ele>
        <time>2021-01-05T10:32:00Z</time>
      </trkpt>
      <trkpt lat="45.48109" lon="6.91094">
        <ele>2248.4</ele>
        <time>2021-01-05T10:32:02Z</time>
      </trkpt>
      <trkpt lat="45.48113" lon="6.91096">
        <ele>2248.4</ele>
        <time>2021-01-05T10:32:04Z</time>
      </trkpt>
      <trkpt lat="45.48116" lon="6.91098">
        <ele>2248.4</ele>
        <time>2021-01-05T10:32:06Z</time>
      </trkpt>
      <trkpt lat="45.48118" lon="6.91099">
        <ele>2250.6</ele>
        <time>2021-01-05T10:32:08Z</time>
      </trkpt>
      <trkpt lat="45.48121" lon="6.91102">
        <ele>2250.6</ele>
        <time>2021-01-05T10:32:10Z</time>
      </trkpt>
      <trkpt lat="45.48124" lon="6.91104">
        <ele>2250.6</ele>
        <time>2021-01-05T10:32:12Z</time>
      </trkpt>
      <trkpt lat="45.48126" lon="6.91106">
        <ele>2250.6</ele>
        <time>2021-01-05T10:32:14Z</time>
      </trkpt>
      <trkpt lat="45.48129" lon="6.91107">
        <ele>2250.6</ele>
        <time>2021-01-05T10:32:16Z</time>
      </trkpt>
      <trkpt lat="45.48131" lon="6.91109">
        <ele>2252.6</ele>
        <time>2021-01-05T10:32:18Z</time>
      </trkpt>
      <trkpt lat="45.48134" lon="6.91111">
        <ele>2252.6</ele>
        <time>2021-01-05T10:32:20Z</time>
      </trkpt>
      <trkpt lat="45.48136" lon="6.91112">
        <ele>2252.6</ele>
        <time>2021-01-05T10:32:21Z</time>
      </trkpt>
      <trkpt lat="45.48138" lon="6.91114">
        <ele>2252.6</ele>
        <time>2021-01-05T10:32:23Z</time>
      </trkpt>
      <trkpt lat="45.4814" lon="6.91117">
        <ele>2252.6</ele>
        <time>2021-01-05T10:32:25Z</time>
      </trkpt>
      <trkpt lat="45.48143" lon="6.91119">
        <ele>2252.6</ele>
        <time>2021-01-05T10:32:27Z</time>
      </trkpt>
      <trkpt lat="45.48146" lon="6.91121">
        <ele>2252.6</ele>
        <time>2021-01-05T10:32:29Z</time>
      </trkpt>
      <trkpt lat="45.48148" lon="6.91123">
        <ele>2252.6</ele>
        <time>2021-01-05T10:32:31Z</time>
      </trkpt>
      <trkpt lat="45.48151" lon="6.91125">
        <ele>2252.6</ele>
        <time>2021-01-05T10:32:33Z</time>
      </trkpt>
      <trkpt lat="45.48154" lon="6.91128">
        <ele>2252.6</ele>
        <time>2021-01-05T10:32:35Z</time>
      </trkpt>
      <trkpt lat="45.48155" lon="6.9113">
        <ele>2252.6</ele>
        <time>2021-01-05T10:32:37Z</time>
      </trkpt>
      <trkpt lat="45.48156" lon="6.91135">
        <ele>2252.6</ele>
        <time>2021-01-05T10:32:39Z</time>
      </trkpt>
      <trkpt lat="45.48158" lon="6.91138">
        <ele>2252.6</ele>
        <time>2021-01-05T10:32:41Z</time>
      </trkpt>
      <trkpt lat="45.48159" lon="6.91142">
        <ele>2252.6</ele>
        <time>2021-01-05T10:32:43Z</time>
      </trkpt>
      <trkpt lat="45.4816" lon="6.91144">
        <ele>2252.6</ele>
        <time>2021-01-05T10:32:45Z</time>
      </trkpt>
      <trkpt lat="45.48163" lon="6.91148">
        <ele>2252.6</ele>
        <time>2021-01-05T10:32:47Z</time>
      </trkpt>
      <trkpt lat="45.48164" lon="6.91152">
        <ele>2252.6</ele>
        <time>2021-01-05T10:32:49Z</time>
      </trkpt>
      <trkpt lat="45.48166" lon="6.91154">
        <ele>2252.6</ele>
        <time>2021-01-05T10:32:51Z</time>
      </trkpt>
      <trkpt lat="45.48167" lon="6.91157">
        <ele>2252.6</ele>
        <time>2021-01-05T10:32:53Z</time>
      </trkpt>
      <trkpt lat="45.48168" lon="6.9116">
        <ele>2252.6</ele>
        <time>2021-01-05T10:32:55Z</time>
      </trkpt>
      <trkpt lat="45.4817" lon="6.91164">
        <ele>2252.6</ele>
        <time>2021-01-05T10:32:57Z</time>
      </trkpt>
      <trkpt lat="45.48171" lon="6.91166">
        <ele>2252.6</ele>
        <time>2021-01-05T10:32:59Z</time>
      </trkpt>
      <trkpt lat="45.48173" lon="6.91169">
        <ele>2252.6</ele>
        <time>2021-01-05T10:33:01Z</time>
      </trkpt>
      <trkpt lat="45.48175" lon="6.91172">
        <ele>2252.6</ele>
        <time>2021-01-05T10:33:03Z</time>
      </trkpt>
      <trkpt lat="45.48177" lon="6.91175">
        <ele>2252.6</ele>
        <time>2021-01-05T10:33:05Z</time>
      </trkpt>
      <trkpt lat="45.48178" lon="6.91178">
        <ele>2252.6</ele>
        <time>2021-01-05T10:33:07Z</time>
      </trkpt>
      <trkpt lat="45.48179" lon="6.9118">
        <ele>2263.4</ele>
        <time>2021-01-05T10:33:08Z</time>
      </trkpt>
      <trkpt lat="45.4818" lon="6.91183">
        <ele>2263.4</ele>
        <time>2021-01-05T10:33:10Z</time>
      </trkpt>
      <trkpt lat="45.48181" lon="6.91185">
        <ele>2263.4</ele>
        <time>2021-01-05T10:33:12Z</time>
      </trkpt>
      <trkpt lat="45.48183" lon="6.91189">
        <ele>2263.4</ele>
        <time>2021-01-05T10:33:14Z</time>
      </trkpt>
      <trkpt lat="45.48184" lon="6.91191">
        <ele>2263.4</ele>
        <time>2021-01-05T10:33:16Z</time>
      </trkpt>
      <trkpt lat="45.48185" lon="6.91194">
        <ele>2266</ele>
        <time>2021-01-05T10:33:18Z</time>
      </trkpt>
      <trkpt lat="45.48187" lon="6.91196">
        <ele>2266</ele>
        <time>2021-01-05T10:33:20Z</time>
      </trkpt>
      <trkpt lat="45.48188" lon="6.91199">
        <ele>2266</ele>
        <time>2021-01-05T10:33:22Z</time>
      </trkpt>
      <trkpt lat="45.48189" lon="6.91203">
        <ele>2266</ele>
        <time>2021-01-05T10:33:24Z</time>
      </trkpt>
      <trkpt lat="45.48191" lon="6.91206">
        <ele>2266</ele>
        <time>2021-01-05T10:33:25Z</time>
      </trkpt>
      <trkpt lat="45.48191" lon="6.91208">
        <ele>2266</ele>
        <time>2021-01-05T10:33:27Z</time>
      </trkpt>
      <trkpt lat="45.48193" lon="6.91212">
        <ele>2266</ele>
        <time>2021-01-05T10:33:29Z</time>
      </trkpt>
      <trkpt lat="45.48194" lon="6.91214">
        <ele>2266</ele>
        <time>2021-01-05T10:33:30Z</time>
      </trkpt>
      <trkpt lat="45.48195" lon="6.91216">
        <ele>2266</ele>
        <time>2021-01-05T10:33:32Z</time>
      </trkpt>
      <trkpt lat="45.48197" lon="6.91218">
        <ele>2266</ele>
        <time>2021-01-05T10:33:34Z</time>
      </trkpt>
      <trkpt lat="45.48199" lon="6.9122">
        <ele>2266</ele>
        <time>2021-01-05T10:33:36Z</time>
      </trkpt>
      <trkpt lat="45.48201" lon="6.91222">
        <ele>2271.6</ele>
        <time>2021-01-05T10:33:38Z</time>
      </trkpt>
      <trkpt lat="45.48203" lon="6.91225">
        <ele>2271.6</ele>
        <time>2021-01-05T10:33:40Z</time>
      </trkpt>
      <trkpt lat="45.48205" lon="6.91228">
        <ele>2271.6</ele>
        <time>2021-01-05T10:33:42Z</time>
      </trkpt>
      <trkpt lat="45.48205" lon="6.91231">
        <ele>2271.6</ele>
        <time>2021-01-05T10:33:44Z</time>
      </trkpt>
      <trkpt lat="45.48206" lon="6.91234">
        <ele>2271.6</ele>
        <time>2021-01-05T10:33:46Z</time>
      </trkpt>
      <trkpt lat="45.48208" lon="6.91237">
        <ele>2273.8</ele>
        <time>2021-01-05T10:33:48Z</time>
      </trkpt>
      <trkpt lat="45.4821" lon="6.9124">
        <ele>2273.8</ele>
        <time>2021-01-05T10:33:50Z</time>
      </trkpt>
      <trkpt lat="45.48212" lon="6.91242">
        <ele>2273.8</ele>
        <time>2021-01-05T10:33:52Z</time>
      </trkpt>
      <trkpt lat="45.48214" lon="6.91244">
        <ele>2273.8</ele>
        <time>2021-01-05T10:33:54Z</time>
      </trkpt>
      <trkpt lat="45.48216" lon="6.91246">
        <ele>2273.8</ele>
        <time>2021-01-05T10:33:56Z</time>
      </trkpt>
      <trkpt lat="45.48219" lon="6.91248">
        <ele>2276.4</ele>
        <time>2021-01-05T10:33:58Z</time>
      </trkpt>
      <trkpt lat="45.48221" lon="6.9125">
        <ele>2276.4</ele>
        <time>2021-01-05T10:34:00Z</time>
      </trkpt>
      <trkpt lat="45.48223" lon="6.91252">
        <ele>2276.4</ele>
        <time>2021-01-05T10:34:02Z</time>
      </trkpt>
      <trkpt lat="45.48225" lon="6.91254">
        <ele>2276.4</ele>
        <time>2021-01-05T10:34:04Z</time>
      </trkpt>
      <trkpt lat="45.48227" lon="6.91256">
        <ele>2276.4</ele>
        <time>2021-01-05T10:34:06Z</time>
      </trkpt>
      <trkpt lat="45.48228" lon="6.91257">
        <ele>2276.4</ele>
        <time>2021-01-05T10:34:07Z</time>
      </trkpt>
      <trkpt lat="45.48231" lon="6.9126">
        <ele>2276.4</ele>
        <time>2021-01-05T10:34:09Z</time>
      </trkpt>
      <trkpt lat="45.48233" lon="6.91262">
        <ele>2276.4</ele>
        <time>2021-01-05T10:34:11Z</time>
      </trkpt>
      <trkpt lat="45.48235" lon="6.91264">
        <ele>2276.4</ele>
        <time>2021-01-05T10:34:13Z</time>
      </trkpt>
      <trkpt lat="45.48237" lon="6.91267">
        <ele>2276.4</ele>
        <time>2021-01-05T10:34:15Z</time>
      </trkpt>
      <trkpt lat="45.48238" lon="6.91269">
        <ele>2276.4</ele>
        <time>2021-01-05T10:34:17Z</time>
      </trkpt>
      <trkpt lat="45.48241" lon="6.91272">
        <ele>2276.4</ele>
        <time>2021-01-05T10:34:19Z</time>
      </trkpt>
      <trkpt lat="45.48243" lon="6.91274">
        <ele>2276.4</ele>
        <time>2021-01-05T10:34:21Z</time>
      </trkpt>
      <trkpt lat="45.48246" lon="6.91276">
        <ele>2276.4</ele>
        <time>2021-01-05T10:34:23Z</time>
      </trkpt>
      <trkpt lat="45.48248" lon="6.91279">
        <ele>2276.4</ele>
        <time>2021-01-05T10:34:25Z</time>
      </trkpt>
      <trkpt lat="45.4825" lon="6.91281">
        <ele>2283.6</ele>
        <time>2021-01-05T10:34:28Z</time>
      </trkpt>
      <trkpt lat="45.48252" lon="6.91284">
        <ele>2283.6</ele>
        <time>2021-01-05T10:34:30Z</time>
      </trkpt>
      <trkpt lat="45.48254" lon="6.91285">
        <ele>2283.6</ele>
        <time>2021-01-05T10:34:32Z</time>
      </trkpt>
      <trkpt lat="45.48256" lon="6.91287">
        <ele>2283.6</ele>
        <time>2021-01-05T10:34:34Z</time>
      </trkpt>
      <trkpt lat="45.48258" lon="6.9129">
        <ele>2283.6</ele>
        <time>2021-01-05T10:34:36Z</time>
      </trkpt>
      <trkpt lat="45.4826" lon="6.91293">
        <ele>2283.6</ele>
        <time>2021-01-05T10:34:39Z</time>
      </trkpt>
      <trkpt lat="45.48262" lon="6.91295">
        <ele>2283.6</ele>
        <time>2021-01-05T10:34:41Z</time>
      </trkpt>
      <trkpt lat="45.48264" lon="6.91298">
        <ele>2283.6</ele>
        <time>2021-01-05T10:34:43Z</time>
      </trkpt>
      <trkpt lat="45.48266" lon="6.913">
        <ele>2283.6</ele>
        <time>2021-01-05T10:34:45Z</time>
      </trkpt>
      <trkpt lat="45.48268" lon="6.91302">
        <ele>2283.6</ele>
        <time>2021-01-05T10:34:47Z</time>
      </trkpt>
      <trkpt lat="45.4827" lon="6.91304">
        <ele>2283.6</ele>
        <time>2021-01-05T10:34:49Z</time>
      </trkpt>
      <trkpt lat="45.48272" lon="6.91308">
        <ele>2283.6</ele>
        <time>2021-01-05T10:34:52Z</time>
      </trkpt>
      <trkpt lat="45.48274" lon="6.9131">
        <ele>2283.6</ele>
        <time>2021-01-05T10:34:54Z</time>
      </trkpt>
      <trkpt lat="45.48276" lon="6.91312">
        <ele>2283.6</ele>
        <time>2021-01-05T10:34:56Z</time>
      </trkpt>
      <trkpt lat="45.48278" lon="6.91314">
        <ele>2291</ele>
        <time>2021-01-05T10:34:58Z</time>
      </trkpt>
      <trkpt lat="45.4828" lon="6.91316">
        <ele>2291</ele>
        <time>2021-01-05T10:35:01Z</time>
      </trkpt>
      <trkpt lat="45.48283" lon="6.91318">
        <ele>2291</ele>
        <time>2021-01-05T10:35:03Z</time>
      </trkpt>
      <trkpt lat="45.48285" lon="6.91319">
        <ele>2291</ele>
        <time>2021-01-05T10:35:05Z</time>
      </trkpt>
      <trkpt lat="45.48287" lon="6.91321">
        <ele>2291</ele>
        <time>2021-01-05T10:35:07Z</time>
      </trkpt>
      <trkpt lat="45.48289" lon="6.91323">
        <ele>2291</ele>
        <time>2021-01-05T10:35:09Z</time>
      </trkpt>
      <trkpt lat="45.48292" lon="6.91324">
        <ele>2291</ele>
        <time>2021-01-05T10:35:12Z</time>
      </trkpt>
      <trkpt lat="45.48293" lon="6.91325">
        <ele>2291</ele>
        <time>2021-01-05T10:35:13Z</time>
      </trkpt>
      <trkpt lat="45.48296" lon="6.91325">
        <ele>2291</ele>
        <time>2021-01-05T10:35:15Z</time>
      </trkpt>
      <trkpt lat="45.48299" lon="6.91326">
        <ele>2291</ele>
        <time>2021-01-05T10:35:17Z</time>
      </trkpt>
      <trkpt lat="45.483" lon="6.91327">
        <ele>2291</ele>
        <time>2021-01-05T10:35:19Z</time>
      </trkpt>
      <trkpt lat="45.48302" lon="6.91328">
        <ele>2291</ele>
        <time>2021-01-05T10:35:21Z</time>
      </trkpt>
      <trkpt lat="45.48305" lon="6.91329">
        <ele>2291</ele>
        <time>2021-01-05T10:35:23Z</time>
      </trkpt>
      <trkpt lat="45.48308" lon="6.91329">
        <ele>2291</ele>
        <time>2021-01-05T10:35:25Z</time>
      </trkpt>
      <trkpt lat="45.48311" lon="6.91329">
        <ele>2291</ele>
        <time>2021-01-05T10:35:27Z</time>
      </trkpt>
      <trkpt lat="45.48314" lon="6.91329">
        <ele>2291</ele>
        <time>2021-01-05T10:35:29Z</time>
      </trkpt>
      <trkpt lat="45.48316" lon="6.91328">
        <ele>2291</ele>
        <time>2021-01-05T10:35:30Z</time>
      </trkpt>
      <trkpt lat="45.48318" lon="6.91327">
        <ele>2291</ele>
        <time>2021-01-05T10:35:32Z</time>
      </trkpt>
      <trkpt lat="45.48321" lon="6.91325">
        <ele>2291</ele>
        <time>2021-01-05T10:35:34Z</time>
      </trkpt>
      <trkpt lat="45.48324" lon="6.91323">
        <ele>2291</ele>
        <time>2021-01-05T10:35:36Z</time>
      </trkpt>
      <trkpt lat="45.48326" lon="6.9132">
        <ele>2299.6</ele>
        <time>2021-01-05T10:35:38Z</time>
      </trkpt>
      <trkpt lat="45.48328" lon="6.91318">
        <ele>2299.6</ele>
        <time>2021-01-05T10:35:40Z</time>
      </trkpt>
      <trkpt lat="45.48329" lon="6.91315">
        <ele>2299.6</ele>
        <time>2021-01-05T10:35:42Z</time>
      </trkpt>
      <trkpt lat="45.48332" lon="6.91313">
        <ele>2299.6</ele>
        <time>2021-01-05T10:35:44Z</time>
      </trkpt>
      <trkpt lat="45.48333" lon="6.9131">
        <ele>2299.6</ele>
        <time>2021-01-05T10:35:46Z</time>
      </trkpt>
      <trkpt lat="45.48334" lon="6.91308">
        <ele>2302</ele>
        <time>2021-01-05T10:35:48Z</time>
      </trkpt>
      <trkpt lat="45.48336" lon="6.91305">
        <ele>2302</ele>
        <time>2021-01-05T10:35:50Z</time>
      </trkpt>
      <trkpt lat="45.48338" lon="6.91304">
        <ele>2302</ele>
        <time>2021-01-05T10:35:51Z</time>
      </trkpt>
      <trkpt lat="45.48339" lon="6.91301">
        <ele>2302</ele>
        <time>2021-01-05T10:35:53Z</time>
      </trkpt>
      <trkpt lat="45.48341" lon="6.91298">
        <ele>2302</ele>
        <time>2021-01-05T10:35:55Z</time>
      </trkpt>
      <trkpt lat="45.48342" lon="6.91295">
        <ele>2302</ele>
        <time>2021-01-05T10:35:57Z</time>
      </trkpt>
      <trkpt lat="45.48344" lon="6.91293">
        <ele>2302</ele>
        <time>2021-01-05T10:35:59Z</time>
      </trkpt>
      <trkpt lat="45.48346" lon="6.91291">
        <ele>2302</ele>
        <time>2021-01-05T10:36:01Z</time>
      </trkpt>
      <trkpt lat="45.48348" lon="6.91288">
        <ele>2302</ele>
        <time>2021-01-05T10:36:04Z</time>
      </trkpt>
      <trkpt lat="45.4835" lon="6.91286">
        <ele>2302</ele>
        <time>2021-01-05T10:36:06Z</time>
      </trkpt>
      <trkpt lat="45.48351" lon="6.91283">
        <ele>2306.6</ele>
        <time>2021-01-05T10:36:08Z</time>
      </trkpt>
      <trkpt lat="45.48352" lon="6.9128">
        <ele>2306.6</ele>
        <time>2021-01-05T10:36:10Z</time>
      </trkpt>
      <trkpt lat="45.48353" lon="6.91278">
        <ele>2306.6</ele>
        <time>2021-01-05T10:36:12Z</time>
      </trkpt>
      <trkpt lat="45.48355" lon="6.91274">
        <ele>2306.6</ele>
        <time>2021-01-05T10:36:15Z</time>
      </trkpt>
      <trkpt lat="45.48356" lon="6.91272">
        <ele>2309</ele>
        <time>2021-01-05T10:36:18Z</time>
      </trkpt>
      <trkpt lat="45.48356" lon="6.91269">
        <ele>2309</ele>
        <time>2021-01-05T10:36:21Z</time>
      </trkpt>
      <trkpt lat="45.48358" lon="6.91266">
        <ele>2309</ele>
        <time>2021-01-05T10:36:24Z</time>
      </trkpt>
      <trkpt lat="45.4836" lon="6.91263">
        <ele>2309</ele>
        <time>2021-01-05T10:36:27Z</time>
      </trkpt>
      <trkpt lat="45.4836" lon="6.9126">
        <ele>2309</ele>
        <time>2021-01-05T10:36:29Z</time>
      </trkpt>
      <trkpt lat="45.48361" lon="6.91259">
        <ele>2309</ele>
        <time>2021-01-05T10:36:31Z</time>
      </trkpt>
      <trkpt lat="45.48363" lon="6.91256">
        <ele>2309</ele>
        <time>2021-01-05T10:36:34Z</time>
      </trkpt>
      <trkpt lat="45.48364" lon="6.91253">
        <ele>2309</ele>
        <time>2021-01-05T10:36:37Z</time>
      </trkpt>
      <trkpt lat="45.48365" lon="6.91251">
        <ele>2309</ele>
        <time>2021-01-05T10:36:39Z</time>
      </trkpt>
      <trkpt lat="45.48365" lon="6.91248">
        <ele>2309</ele>
        <time>2021-01-05T10:36:41Z</time>
      </trkpt>
      <trkpt lat="45.48366" lon="6.91246">
        <ele>2309</ele>
        <time>2021-01-05T10:36:43Z</time>
      </trkpt>
      <trkpt lat="45.48368" lon="6.91244">
        <ele>2309</ele>
        <time>2021-01-05T10:36:45Z</time>
      </trkpt>
      <trkpt lat="45.48369" lon="6.91243">
        <ele>2309</ele>
        <time>2021-01-05T10:36:47Z</time>
      </trkpt>
      <trkpt lat="45.48371" lon="6.91241">
        <ele>2309</ele>
        <time>2021-01-05T10:36:49Z</time>
      </trkpt>
      <trkpt lat="45.48372" lon="6.91238">
        <ele>2309</ele>
        <time>2021-01-05T10:36:51Z</time>
      </trkpt>
      <trkpt lat="45.48373" lon="6.91236">
        <ele>2309</ele>
        <time>2021-01-05T10:36:53Z</time>
      </trkpt>
      <trkpt lat="45.48374" lon="6.91234">
        <ele>2309</ele>
        <time>2021-01-05T10:36:55Z</time>
      </trkpt>
      <trkpt lat="45.48376" lon="6.91232">
        <ele>2309</ele>
        <time>2021-01-05T10:36:57Z</time>
      </trkpt>
      <trkpt lat="45.48377" lon="6.91229">
        <ele>2309</ele>
        <time>2021-01-05T10:37:00Z</time>
      </trkpt>
      <trkpt lat="45.48378" lon="6.91226">
        <ele>2309</ele>
        <time>2021-01-05T10:37:02Z</time>
      </trkpt>
      <trkpt lat="45.48378" lon="6.91222">
        <ele>2309</ele>
        <time>2021-01-05T10:37:04Z</time>
      </trkpt>
      <trkpt lat="45.48378" lon="6.91219">
        <ele>2309</ele>
        <time>2021-01-05T10:37:06Z</time>
      </trkpt>
      <trkpt lat="45.48378" lon="6.91216">
        <ele>2325.4</ele>
        <time>2021-01-05T10:37:08Z</time>
      </trkpt>
      <trkpt lat="45.48378" lon="6.91212">
        <ele>2325.4</ele>
        <time>2021-01-05T10:37:10Z</time>
      </trkpt>
      <trkpt lat="45.48378" lon="6.91209">
        <ele>2325.4</ele>
        <time>2021-01-05T10:37:12Z</time>
      </trkpt>
      <trkpt lat="45.48377" lon="6.91206">
        <ele>2325.4</ele>
        <time>2021-01-05T10:37:14Z</time>
      </trkpt>
      <trkpt lat="45.48377" lon="6.91203">
        <ele>2325.4</ele>
        <time>2021-01-05T10:37:16Z</time>
      </trkpt>
      <trkpt lat="45.48377" lon="6.91199">
        <ele>2325.4</ele>
        <time>2021-01-05T10:37:19Z</time>
      </trkpt>
      <trkpt lat="45.48377" lon="6.91196">
        <ele>2325.4</ele>
        <time>2021-01-05T10:37:21Z</time>
      </trkpt>
      <trkpt lat="45.48376" lon="6.91193">
        <ele>2325.4</ele>
        <time>2021-01-05T10:37:23Z</time>
      </trkpt>
      <trkpt lat="45.48375" lon="6.9119">
        <ele>2325.4</ele>
        <time>2021-01-05T10:37:25Z</time>
      </trkpt>
      <trkpt lat="45.48375" lon="6.91187">
        <ele>2325.4</ele>
        <time>2021-01-05T10:37:27Z</time>
      </trkpt>
      <trkpt lat="45.48374" lon="6.91184">
        <ele>2325.4</ele>
        <time>2021-01-05T10:37:29Z</time>
      </trkpt>
      <trkpt lat="45.48373" lon="6.91181">
        <ele>2325.4</ele>
        <time>2021-01-05T10:37:31Z</time>
      </trkpt>
      <trkpt lat="45.48372" lon="6.91178">
        <ele>2325.4</ele>
        <time>2021-01-05T10:37:33Z</time>
      </trkpt>
      <trkpt lat="45.48372" lon="6.91176">
        <ele>2325.4</ele>
        <time>2021-01-05T10:37:35Z</time>
      </trkpt>
      <trkpt lat="45.48372" lon="6.91172">
        <ele>2325.4</ele>
        <time>2021-01-05T10:37:37Z</time>
      </trkpt>
      <trkpt lat="45.48371" lon="6.9117">
        <ele>2325.4</ele>
        <time>2021-01-05T10:37:39Z</time>
      </trkpt>
      <trkpt lat="45.4837" lon="6.91168">
        <ele>2325.4</ele>
        <time>2021-01-05T10:37:41Z</time>
      </trkpt>
      <trkpt lat="45.48369" lon="6.91165">
        <ele>2325.4</ele>
        <time>2021-01-05T10:37:43Z</time>
      </trkpt>
      <trkpt lat="45.48368" lon="6.91162">
        <ele>2325.4</ele>
        <time>2021-01-05T10:37:45Z</time>
      </trkpt>
      <trkpt lat="45.48368" lon="6.9116">
        <ele>2325.4</ele>
        <time>2021-01-05T10:37:47Z</time>
      </trkpt>
      <trkpt lat="45.48367" lon="6.91156">
        <ele>2325.4</ele>
        <time>2021-01-05T10:37:49Z</time>
      </trkpt>
      <trkpt lat="45.48366" lon="6.91153">
        <ele>2325.4</ele>
        <time>2021-01-05T10:37:51Z</time>
      </trkpt>
      <trkpt lat="45.48365" lon="6.9115">
        <ele>2325.4</ele>
        <time>2021-01-05T10:37:53Z</time>
      </trkpt>
      <trkpt lat="45.48364" lon="6.91147">
        <ele>2325.4</ele>
        <time>2021-01-05T10:37:55Z</time>
      </trkpt>
      <trkpt lat="45.48362" lon="6.91144">
        <ele>2325.4</ele>
        <time>2021-01-05T10:37:57Z</time>
      </trkpt>
      <trkpt lat="45.48362" lon="6.9114">
        <ele>2325.4</ele>
        <time>2021-01-05T10:38:00Z</time>
      </trkpt>
      <trkpt lat="45.4836" lon="6.91136">
        <ele>2325.4</ele>
        <time>2021-01-05T10:38:02Z</time>
      </trkpt>
      <trkpt lat="45.4836" lon="6.91132">
        <ele>2325.4</ele>
        <time>2021-01-05T10:38:04Z</time>
      </trkpt>
      <trkpt lat="45.48359" lon="6.91129">
        <ele>2325.4</ele>
        <time>2021-01-05T10:38:06Z</time>
      </trkpt>
      <trkpt lat="45.48358" lon="6.91126">
        <ele>2342</ele>
        <time>2021-01-05T10:38:08Z</time>
      </trkpt>
      <trkpt lat="45.48359" lon="6.91123">
        <ele>2342</ele>
        <time>2021-01-05T10:38:10Z</time>
      </trkpt>
      <trkpt lat="45.48358" lon="6.91121">
        <ele>2342</ele>
        <time>2021-01-05T10:38:26Z</time>
      </trkpt>
      <trkpt lat="45.48356" lon="6.9112">
        <ele>2342</ele>
        <time>2021-01-05T10:38:33Z</time>
      </trkpt>
      <trkpt lat="45.4836" lon="6.91118">
        <ele>2342</ele>
        <time>2021-01-05T10:39:06Z</time>
      </trkpt>
      <trkpt lat="45.48364" lon="6.91117">
        <ele>2342</ele>
        <time>2021-01-05T10:39:07Z</time>
      </trkpt>
      <trkpt lat="45.48368" lon="6.91116">
        <ele>2343.6</ele>
        <time>2021-01-05T10:39:08Z</time>
      </trkpt>
      <trkpt lat="45.48373" lon="6.91112">
        <ele>2343.6</ele>
        <time>2021-01-05T10:39:09Z</time>
      </trkpt>
      <trkpt lat="45.48378" lon="6.91108">
        <ele>2343.6</ele>
        <time>2021-01-05T10:39:10Z</time>
      </trkpt>
      <trkpt lat="45.48384" lon="6.91105">
        <ele>2343.6</ele>
        <time>2021-01-05T10:39:11Z</time>
      </trkpt>
      <trkpt lat="45.4839" lon="6.91108">
        <ele>2343.6</ele>
        <time>2021-01-05T10:39:12Z</time>
      </trkpt>
      <trkpt lat="45.48393" lon="6.91114">
        <ele>2343.6</ele>
        <time>2021-01-05T10:39:13Z</time>
      </trkpt>
      <trkpt lat="45.48397" lon="6.91119">
        <ele>2343.6</ele>
        <time>2021-01-05T10:39:14Z</time>
      </trkpt>
      <trkpt lat="45.48402" lon="6.91125">
        <ele>2343.6</ele>
        <time>2021-01-05T10:39:15Z</time>
      </trkpt>
      <trkpt lat="45.48407" lon="6.9113">
        <ele>2343.6</ele>
        <time>2021-01-05T10:39:16Z</time>
      </trkpt>
      <trkpt lat="45.48413" lon="6.91134">
        <ele>2343.6</ele>
        <time>2021-01-05T10:39:17Z</time>
      </trkpt>
      <trkpt lat="45.48419" lon="6.91138">
        <ele>2343.6</ele>
        <time>2021-01-05T10:39:18Z</time>
      </trkpt>
      <trkpt lat="45.48425" lon="6.91139">
        <ele>2332.4</ele>
        <time>2021-01-05T10:39:19Z</time>
      </trkpt>
      <trkpt lat="45.48431" lon="6.91139">
        <ele>2332.4</ele>
        <time>2021-01-05T10:39:20Z</time>
      </trkpt>
      <trkpt lat="45.48437" lon="6.91138">
        <ele>2332.4</ele>
        <time>2021-01-05T10:39:21Z</time>
      </trkpt>
      <trkpt lat="45.48443" lon="6.91136">
        <ele>2332.4</ele>
        <time>2021-01-05T10:39:22Z</time>
      </trkpt>
      <trkpt lat="45.4845" lon="6.91136">
        <ele>2332.4</ele>
        <time>2021-01-05T10:39:23Z</time>
      </trkpt>
      <trkpt lat="45.48457" lon="6.91138">
        <ele>2332.4</ele>
        <time>2021-01-05T10:39:24Z</time>
      </trkpt>
      <trkpt lat="45.48463" lon="6.9114">
        <ele>2332.4</ele>
        <time>2021-01-05T10:39:25Z</time>
      </trkpt>
      <trkpt lat="45.48471" lon="6.91139">
        <ele>2332.4</ele>
        <time>2021-01-05T10:39:26Z</time>
      </trkpt>
      <trkpt lat="45.48479" lon="6.91139">
        <ele>2332.4</ele>
        <time>2021-01-05T10:39:27Z</time>
      </trkpt>
      <trkpt lat="45.48487" lon="6.9114">
        <ele>2310.6</ele>
        <time>2021-01-05T10:39:28Z</time>
      </trkpt>
      <trkpt lat="45.48495" lon="6.91137">
        <ele>2310.6</ele>
        <time>2021-01-05T10:39:29Z</time>
      </trkpt>
      <trkpt lat="45.48503" lon="6.91132">
        <ele>2310.6</ele>
        <time>2021-01-05T10:39:30Z</time>
      </trkpt>
      <trkpt lat="45.48512" lon="6.9113">
        <ele>2310.6</ele>
        <time>2021-01-05T10:39:31Z</time>
      </trkpt>
      <trkpt lat="45.48521" lon="6.91129">
        <ele>2310.6</ele>
        <time>2021-01-05T10:39:32Z</time>
      </trkpt>
      <trkpt lat="45.4853" lon="6.91126">
        <ele>2310.6</ele>
        <time>2021-01-05T10:39:33Z</time>
      </trkpt>
      <trkpt lat="45.4854" lon="6.91124">
        <ele>2310.6</ele>
        <time>2021-01-05T10:39:34Z</time>
      </trkpt>
      <trkpt lat="45.4855" lon="6.91125">
        <ele>2310.6</ele>
        <time>2021-01-05T10:39:35Z</time>
      </trkpt>
      <trkpt lat="45.48559" lon="6.91126">
        <ele>2310.6</ele>
        <time>2021-01-05T10:39:36Z</time>
      </trkpt>
      <trkpt lat="45.48569" lon="6.91124">
        <ele>2310.6</ele>
        <time>2021-01-05T10:39:37Z</time>
      </trkpt>
      <trkpt lat="45.48578" lon="6.91123">
        <ele>2282</ele>
        <time>2021-01-05T10:39:38Z</time>
      </trkpt>
      <trkpt lat="45.48589" lon="6.91123">
        <ele>2282</ele>
        <time>2021-01-05T10:39:39Z</time>
      </trkpt>
      <trkpt lat="45.48598" lon="6.91127">
        <ele>2282</ele>
        <time>2021-01-05T10:39:40Z</time>
      </trkpt>
      <trkpt lat="45.48608" lon="6.91129">
        <ele>2282</ele>
        <time>2021-01-05T10:39:41Z</time>
      </trkpt>
      <trkpt lat="45.48618" lon="6.9113">
        <ele>2282</ele>
        <time>2021-01-05T10:39:42Z</time>
      </trkpt>
      <trkpt lat="45.48628" lon="6.91132">
        <ele>2282</ele>
        <time>2021-01-05T10:39:43Z</time>
      </trkpt>
      <trkpt lat="45.48638" lon="6.91136">
        <ele>2282</ele>
        <time>2021-01-05T10:39:44Z</time>
      </trkpt>
      <trkpt lat="45.48647" lon="6.91139">
        <ele>2282</ele>
        <time>2021-01-05T10:39:45Z</time>
      </trkpt>
      <trkpt lat="45.48656" lon="6.91144">
        <ele>2282</ele>
        <time>2021-01-05T10:39:46Z</time>
      </trkpt>
      <trkpt lat="45.48663" lon="6.91149">
        <ele>2282</ele>
        <time>2021-01-05T10:39:47Z</time>
      </trkpt>
      <trkpt lat="45.48674" lon="6.91156">
        <ele>2255.4</ele>
        <time>2021-01-05T10:39:48Z</time>
      </trkpt>
      <trkpt lat="45.48684" lon="6.91161">
        <ele>2255.4</ele>
        <time>2021-01-05T10:39:49Z</time>
      </trkpt>
      <trkpt lat="45.48694" lon="6.91164">
        <ele>2255.4</ele>
        <time>2021-01-05T10:39:50Z</time>
      </trkpt>
      <trkpt lat="45.48704" lon="6.91168">
        <ele>2255.4</ele>
        <time>2021-01-05T10:39:51Z</time>
      </trkpt>
      <trkpt lat="45.48715" lon="6.91172">
        <ele>2255.4</ele>
        <time>2021-01-05T10:39:52Z</time>
      </trkpt>
      <trkpt lat="45.48724" lon="6.91177">
        <ele>2255.4</ele>
        <time>2021-01-05T10:39:53Z</time>
      </trkpt>
      <trkpt lat="45.48734" lon="6.91181">
        <ele>2255.4</ele>
        <time>2021-01-05T10:39:54Z</time>
      </trkpt>
      <trkpt lat="45.48743" lon="6.91184">
        <ele>2255.4</ele>
        <time>2021-01-05T10:39:55Z</time>
      </trkpt>
      <trkpt lat="45.48751" lon="6.91189">
        <ele>2255.4</ele>
        <time>2021-01-05T10:39:56Z</time>
      </trkpt>
      <trkpt lat="45.48757" lon="6.91194">
        <ele>2255.4</ele>
        <time>2021-01-05T10:39:57Z</time>
      </trkpt>
      <trkpt lat="45.48765" lon="6.912">
        <ele>2234.2</ele>
        <time>2021-01-05T10:39:58Z</time>
      </trkpt>
      <trkpt lat="45.48773" lon="6.91206">
        <ele>2234.2</ele>
        <time>2021-01-05T10:39:59Z</time>
      </trkpt>
      <trkpt lat="45.48782" lon="6.91213">
        <ele>2234.2</ele>
        <time>2021-01-05T10:40:00Z</time>
      </trkpt>
      <trkpt lat="45.48792" lon="6.9122">
        <ele>2234.2</ele>
        <time>2021-01-05T10:40:01Z</time>
      </trkpt>
      <trkpt lat="45.48803" lon="6.91228">
        <ele>2234.2</ele>
        <time>2021-01-05T10:40:02Z</time>
      </trkpt>
      <trkpt lat="45.48816" lon="6.91236">
        <ele>2234.2</ele>
        <time>2021-01-05T10:40:03Z</time>
      </trkpt>
      <trkpt lat="45.48828" lon="6.91244">
        <ele>2234.2</ele>
        <time>2021-01-05T10:40:04Z</time>
      </trkpt>
      <trkpt lat="45.48841" lon="6.91251">
        <ele>2234.2</ele>
        <time>2021-01-05T10:40:05Z</time>
      </trkpt>
      <trkpt lat="45.48854" lon="6.91258">
        <ele>2234.2</ele>
        <time>2021-01-05T10:40:06Z</time>
      </trkpt>
      <trkpt lat="45.48868" lon="6.91266">
        <ele>2234.2</ele>
        <time>2021-01-05T10:40:07Z</time>
      </trkpt>
      <trkpt lat="45.48881" lon="6.91273">
        <ele>2209.4</ele>
        <time>2021-01-05T10:40:08Z</time>
      </trkpt>
      <trkpt lat="45.48894" lon="6.91282">
        <ele>2209.4</ele>
        <time>2021-01-05T10:40:09Z</time>
      </trkpt>
      <trkpt lat="45.48908" lon="6.9129">
        <ele>2209.4</ele>
        <time>2021-01-05T10:40:10Z</time>
      </trkpt>
      <trkpt lat="45.48921" lon="6.91299">
        <ele>2209.4</ele>
        <time>2021-01-05T10:40:11Z</time>
      </trkpt>
      <trkpt lat="45.48934" lon="6.91308">
        <ele>2209.4</ele>
        <time>2021-01-05T10:40:12Z</time>
      </trkpt>
      <trkpt lat="45.48946" lon="6.91316">
        <ele>2209.4</ele>
        <time>2021-01-05T10:40:13Z</time>
      </trkpt>
      <trkpt lat="45.48959" lon="6.91324">
        <ele>2209.4</ele>
        <time>2021-01-05T10:40:14Z</time>
      </trkpt>
      <trkpt lat="45.48972" lon="6.9133">
        <ele>2209.4</ele>
        <time>2021-01-05T10:40:15Z</time>
      </trkpt>
      <trkpt lat="45.48985" lon="6.91337">
        <ele>2209.4</ele>
        <time>2021-01-05T10:40:16Z</time>
      </trkpt>
      <trkpt lat="45.48996" lon="6.91344">
        <ele>2209.4</ele>
        <time>2021-01-05T10:40:17Z</time>
      </trkpt>
      <trkpt lat="45.49008" lon="6.91351">
        <ele>2178.8</ele>
        <time>2021-01-05T10:40:18Z</time>
      </trkpt>
      <trkpt lat="45.49018" lon="6.91357">
        <ele>2178.8</ele>
        <time>2021-01-05T10:40:19Z</time>
      </trkpt>
      <trkpt lat="45.49027" lon="6.91363">
        <ele>2178.8</ele>
        <time>2021-01-05T10:40:20Z</time>
      </trkpt>
      <trkpt lat="45.49036" lon="6.91369">
        <ele>2178.8</ele>
        <time>2021-01-05T10:40:21Z</time>
      </trkpt>
      <trkpt lat="45.49044" lon="6.91374">
        <ele>2178.8</ele>
        <time>2021-01-05T10:40:22Z</time>
      </trkpt>
      <trkpt lat="45.49051" lon="6.91379">
        <ele>2178.8</ele>
        <time>2021-01-05T10:40:23Z</time>
      </trkpt>
      <trkpt lat="45.49057" lon="6.91382">
        <ele>2178.8</ele>
        <time>2021-01-05T10:40:24Z</time>
      </trkpt>
      <trkpt lat="45.49062" lon="6.91384">
        <ele>2178.8</ele>
        <time>2021-01-05T10:40:25Z</time>
      </trkpt>
      <trkpt lat="45.49067" lon="6.91387">
        <ele>2178.8</ele>
        <time>2021-01-05T10:40:26Z</time>
      </trkpt>
      <trkpt lat="45.49071" lon="6.91389">
        <ele>2178.8</ele>
        <time>2021-01-05T10:40:27Z</time>
      </trkpt>
      <trkpt lat="45.49075" lon="6.91391">
        <ele>2171.8</ele>
        <time>2021-01-05T10:40:28Z</time>
      </trkpt>
      <trkpt lat="45.49079" lon="6.91392">
        <ele>2171.8</ele>
        <time>2021-01-05T10:40:29Z</time>
      </trkpt>
      <trkpt lat="45.49083" lon="6.91395">
        <ele>2171.8</ele>
        <time>2021-01-05T10:40:30Z</time>
      </trkpt>
      <trkpt lat="45.49086" lon="6.91397">
        <ele>2171.8</ele>
        <time>2021-01-05T10:40:31Z</time>
      </trkpt>
      <trkpt lat="45.4909" lon="6.914">
        <ele>2171.8</ele>
        <time>2021-01-05T10:40:32Z</time>
      </trkpt>
      <trkpt lat="45.49094" lon="6.91403">
        <ele>2171.8</ele>
        <time>2021-01-05T10:40:33Z</time>
      </trkpt>
      <trkpt lat="45.49099" lon="6.91406">
        <ele>2171.8</ele>
        <time>2021-01-05T10:40:34Z</time>
      </trkpt>
      <trkpt lat="45.49103" lon="6.91409">
        <ele>2171.8</ele>
        <time>2021-01-05T10:40:35Z</time>
      </trkpt>
      <trkpt lat="45.49108" lon="6.91413">
        <ele>2171.8</ele>
        <time>2021-01-05T10:40:36Z</time>
      </trkpt>
      <trkpt lat="45.49114" lon="6.91416">
        <ele>2171.8</ele>
        <time>2021-01-05T10:40:37Z</time>
      </trkpt>
      <trkpt lat="45.49119" lon="6.9142">
        <ele>2170.4</ele>
        <time>2021-01-05T10:40:38Z</time>
      </trkpt>
      <trkpt lat="45.49124" lon="6.91424">
        <ele>2170.4</ele>
        <time>2021-01-05T10:40:39Z</time>
      </trkpt>
      <trkpt lat="45.4913" lon="6.91428">
        <ele>2170.4</ele>
        <time>2021-01-05T10:40:40Z</time>
      </trkpt>
      <trkpt lat="45.49136" lon="6.91431">
        <ele>2170.4</ele>
        <time>2021-01-05T10:40:41Z</time>
      </trkpt>
      <trkpt lat="45.49142" lon="6.91435">
        <ele>2170.4</ele>
        <time>2021-01-05T10:40:42Z</time>
      </trkpt>
      <trkpt lat="45.49148" lon="6.91439">
        <ele>2170.4</ele>
        <time>2021-01-05T10:40:43Z</time>
      </trkpt>
      <trkpt lat="45.49155" lon="6.91443">
        <ele>2170.4</ele>
        <time>2021-01-05T10:40:44Z</time>
      </trkpt>
      <trkpt lat="45.49161" lon="6.91447">
        <ele>2170.4</ele>
        <time>2021-01-05T10:40:45Z</time>
      </trkpt>
      <trkpt lat="45.49168" lon="6.91451">
        <ele>2170.4</ele>
        <time>2021-01-05T10:40:46Z</time>
      </trkpt>
      <trkpt lat="45.49175" lon="6.91455">
        <ele>2170.4</ele>
        <time>2021-01-05T10:40:47Z</time>
      </trkpt>
      <trkpt lat="45.49182" lon="6.91459">
        <ele>2163.8</ele>
        <time>2021-01-05T10:40:48Z</time>
      </trkpt>
      <trkpt lat="45.49189" lon="6.91463">
        <ele>2163.8</ele>
        <time>2021-01-05T10:40:49Z</time>
      </trkpt>
      <trkpt lat="45.49196" lon="6.91467">
        <ele>2163.8</ele>
        <time>2021-01-05T10:40:50Z</time>
      </trkpt>
      <trkpt lat="45.49201" lon="6.9147">
        <ele>2163.8</ele>
        <time>2021-01-05T10:40:51Z</time>
      </trkpt>
      <trkpt lat="45.49207" lon="6.91474">
        <ele>2163.8</ele>
        <time>2021-01-05T10:40:52Z</time>
      </trkpt>
      <trkpt lat="45.49213" lon="6.91479">
        <ele>2163.8</ele>
        <time>2021-01-05T10:40:53Z</time>
      </trkpt>
      <trkpt lat="45.4922" lon="6.91484">
        <ele>2163.8</ele>
        <time>2021-01-05T10:40:54Z</time>
      </trkpt>
      <trkpt lat="45.49227" lon="6.9149">
        <ele>2163.8</ele>
        <time>2021-01-05T10:40:55Z</time>
      </trkpt>
      <trkpt lat="45.49233" lon="6.91494">
        <ele>2163.8</ele>
        <time>2021-01-05T10:40:56Z</time>
      </trkpt>
      <trkpt lat="45.49239" lon="6.91499">
        <ele>2163.8</ele>
        <time>2021-01-05T10:40:57Z</time>
      </trkpt>
      <trkpt lat="45.49246" lon="6.91504">
        <ele>2156.2</ele>
        <time>2021-01-05T10:40:58Z</time>
      </trkpt>
      <trkpt lat="45.49253" lon="6.91509">
        <ele>2156.2</ele>
        <time>2021-01-05T10:40:59Z</time>
      </trkpt>
      <trkpt lat="45.49262" lon="6.91517">
        <ele>2156.2</ele>
        <time>2021-01-05T10:41:00Z</time>
      </trkpt>
      <trkpt lat="45.49268" lon="6.91524">
        <ele>2156.2</ele>
        <time>2021-01-05T10:41:01Z</time>
      </trkpt>
      <trkpt lat="45.49274" lon="6.91532">
        <ele>2156.2</ele>
        <time>2021-01-05T10:41:02Z</time>
      </trkpt>
      <trkpt lat="45.49281" lon="6.91538">
        <ele>2156.2</ele>
        <time>2021-01-05T10:41:03Z</time>
      </trkpt>
      <trkpt lat="45.49288" lon="6.91541">
        <ele>2156.2</ele>
        <time>2021-01-05T10:41:04Z</time>
      </trkpt>
      <trkpt lat="45.49296" lon="6.91547">
        <ele>2156.2</ele>
        <time>2021-01-05T10:41:05Z</time>
      </trkpt>
      <trkpt lat="45.49304" lon="6.91554">
        <ele>2156.2</ele>
        <time>2021-01-05T10:41:06Z</time>
      </trkpt>
      <trkpt lat="45.49311" lon="6.9156">
        <ele>2156.2</ele>
        <time>2021-01-05T10:41:07Z</time>
      </trkpt>
      <trkpt lat="45.4932" lon="6.91564">
        <ele>2143.6</ele>
        <time>2021-01-05T10:41:08Z</time>
      </trkpt>
      <trkpt lat="45.49331" lon="6.91568">
        <ele>2143.6</ele>
        <time>2021-01-05T10:41:09Z</time>
      </trkpt>
      <trkpt lat="45.49338" lon="6.91574">
        <ele>2143.6</ele>
        <time>2021-01-05T10:41:10Z</time>
      </trkpt>
      <trkpt lat="45.49346" lon="6.91582">
        <ele>2143.6</ele>
        <time>2021-01-05T10:41:11Z</time>
      </trkpt>
      <trkpt lat="45.49353" lon="6.91592">
        <ele>2143.6</ele>
        <time>2021-01-05T10:41:12Z</time>
      </trkpt>
      <trkpt lat="45.49359" lon="6.91605">
        <ele>2143.6</ele>
        <time>2021-01-05T10:41:13Z</time>
      </trkpt>
      <trkpt lat="45.49364" lon="6.91616">
        <ele>2143.6</ele>
        <time>2021-01-05T10:41:14Z</time>
      </trkpt>
      <trkpt lat="45.49366" lon="6.91628">
        <ele>2143.6</ele>
        <time>2021-01-05T10:41:15Z</time>
      </trkpt>
      <trkpt lat="45.49365" lon="6.9164">
        <ele>2143.6</ele>
        <time>2021-01-05T10:41:16Z</time>
      </trkpt>
      <trkpt lat="45.49362" lon="6.91652">
        <ele>2143.6</ele>
        <time>2021-01-05T10:41:17Z</time>
      </trkpt>
      <trkpt lat="45.49356" lon="6.91665">
        <ele>2117</ele>
        <time>2021-01-05T10:41:18Z</time>
      </trkpt>
      <trkpt lat="45.49349" lon="6.9168">
        <ele>2117</ele>
        <time>2021-01-05T10:41:19Z</time>
      </trkpt>
      <trkpt lat="45.49344" lon="6.91696">
        <ele>2117</ele>
        <time>2021-01-05T10:41:20Z</time>
      </trkpt>
      <trkpt lat="45.4934" lon="6.91712">
        <ele>2117</ele>
        <time>2021-01-05T10:41:21Z</time>
      </trkpt>
      <trkpt lat="45.49338" lon="6.9173">
        <ele>2117</ele>
        <time>2021-01-05T10:41:22Z</time>
      </trkpt>
      <trkpt lat="45.49335" lon="6.91747">
        <ele>2117</ele>
        <time>2021-01-05T10:41:23Z</time>
      </trkpt>
      <trkpt lat="45.49332" lon="6.91765">
        <ele>2117</ele>
        <time>2021-01-05T10:41:24Z</time>
      </trkpt>
      <trkpt lat="45.49328" lon="6.91781">
        <ele>2117</ele>
        <time>2021-01-05T10:41:25Z</time>
      </trkpt>
      <trkpt lat="45.49323" lon="6.91796">
        <ele>2117</ele>
        <time>2021-01-05T10:41:26Z</time>
      </trkpt>
      <trkpt lat="45.49318" lon="6.9181">
        <ele>2117</ele>
        <time>2021-01-05T10:41:27Z</time>
      </trkpt>
      <trkpt lat="45.49313" lon="6.91822">
        <ele>2088.6</ele>
        <time>2021-01-05T10:41:28Z</time>
      </trkpt>
      <trkpt lat="45.49307" lon="6.91832">
        <ele>2088.6</ele>
        <time>2021-01-05T10:41:29Z</time>
      </trkpt>
      <trkpt lat="45.49301" lon="6.91842">
        <ele>2088.6</ele>
        <time>2021-01-05T10:41:30Z</time>
      </trkpt>
      <trkpt lat="45.49295" lon="6.91851">
        <ele>2088.6</ele>
        <time>2021-01-05T10:41:31Z</time>
      </trkpt>
      <trkpt lat="45.49289" lon="6.9186">
        <ele>2088.6</ele>
        <time>2021-01-05T10:41:32Z</time>
      </trkpt>
      <trkpt lat="45.49284" lon="6.91869">
        <ele>2088.6</ele>
        <time>2021-01-05T10:41:33Z</time>
      </trkpt>
      <trkpt lat="45.49278" lon="6.91877">
        <ele>2088.6</ele>
        <time>2021-01-05T10:41:34Z</time>
      </trkpt>
      <trkpt lat="45.49273" lon="6.91884">
        <ele>2088.6</ele>
        <time>2021-01-05T10:41:35Z</time>
      </trkpt>
      <trkpt lat="45.49267" lon="6.91892">
        <ele>2088.6</ele>
        <time>2021-01-05T10:41:36Z</time>
      </trkpt>
      <trkpt lat="45.49261" lon="6.91899">
        <ele>2088.6</ele>
        <time>2021-01-05T10:41:37Z</time>
      </trkpt>
      <trkpt lat="45.49256" lon="6.91906">
        <ele>2073.8</ele>
        <time>2021-01-05T10:41:38Z</time>
      </trkpt>
      <trkpt lat="45.49251" lon="6.91913">
        <ele>2073.8</ele>
        <time>2021-01-05T10:41:39Z</time>
      </trkpt>
      <trkpt lat="45.49246" lon="6.9192">
        <ele>2073.8</ele>
        <time>2021-01-05T10:41:40Z</time>
      </trkpt>
      <trkpt lat="45.49241" lon="6.91928">
        <ele>2073.8</ele>
        <time>2021-01-05T10:41:41Z</time>
      </trkpt>
      <trkpt lat="45.49236" lon="6.91935">
        <ele>2073.8</ele>
        <time>2021-01-05T10:41:42Z</time>
      </trkpt>
      <trkpt lat="45.4923" lon="6.91942">
        <ele>2073.8</ele>
        <time>2021-01-05T10:41:43Z</time>
      </trkpt>
      <trkpt lat="45.49225" lon="6.91948">
        <ele>2073.8</ele>
        <time>2021-01-05T10:41:44Z</time>
      </trkpt>
      <trkpt lat="45.49219" lon="6.91955">
        <ele>2073.8</ele>
        <time>2021-01-05T10:41:45Z</time>
      </trkpt>
      <trkpt lat="45.49213" lon="6.91961">
        <ele>2073.8</ele>
        <time>2021-01-05T10:41:46Z</time>
      </trkpt>
      <trkpt lat="45.49206" lon="6.91968">
        <ele>2073.8</ele>
        <time>2021-01-05T10:41:47Z</time>
      </trkpt>
      <trkpt lat="45.492" lon="6.91973">
        <ele>2064.6</ele>
        <time>2021-01-05T10:41:48Z</time>
      </trkpt>
      <trkpt lat="45.49192" lon="6.9198">
        <ele>2064.6</ele>
        <time>2021-01-05T10:41:49Z</time>
      </trkpt>
      <trkpt lat="45.49185" lon="6.91987">
        <ele>2064.6</ele>
        <time>2021-01-05T10:41:50Z</time>
      </trkpt>
      <trkpt lat="45.49177" lon="6.91994">
        <ele>2064.6</ele>
        <time>2021-01-05T10:41:51Z</time>
      </trkpt>
      <trkpt lat="45.49171" lon="6.91998">
        <ele>2064.6</ele>
        <time>2021-01-05T10:41:52Z</time>
      </trkpt>
      <trkpt lat="45.49163" lon="6.92004">
        <ele>2064.6</ele>
        <time>2021-01-05T10:41:53Z</time>
      </trkpt>
      <trkpt lat="45.49154" lon="6.92009">
        <ele>2064.6</ele>
        <time>2021-01-05T10:41:54Z</time>
      </trkpt>
      <trkpt lat="45.49143" lon="6.92016">
        <ele>2064.6</ele>
        <time>2021-01-05T10:41:55Z</time>
      </trkpt>
      <trkpt lat="45.49134" lon="6.92021">
        <ele>2064.6</ele>
        <time>2021-01-05T10:41:56Z</time>
      </trkpt>
      <trkpt lat="45.49126" lon="6.92026">
        <ele>2064.6</ele>
        <time>2021-01-05T10:41:57Z</time>
      </trkpt>
      <trkpt lat="45.49115" lon="6.92034">
        <ele>2051.6</ele>
        <time>2021-01-05T10:41:58Z</time>
      </trkpt>
      <trkpt lat="45.49105" lon="6.92042">
        <ele>2051.6</ele>
        <time>2021-01-05T10:41:59Z</time>
      </trkpt>
      <trkpt lat="45.49096" lon="6.9205">
        <ele>2051.6</ele>
        <time>2021-01-05T10:42:00Z</time>
      </trkpt>
      <trkpt lat="45.49088" lon="6.92059">
        <ele>2051.6</ele>
        <time>2021-01-05T10:42:01Z</time>
      </trkpt>
      <trkpt lat="45.49081" lon="6.9207">
        <ele>2051.6</ele>
        <time>2021-01-05T10:42:02Z</time>
      </trkpt>
      <trkpt lat="45.49075" lon="6.92083">
        <ele>2051.6</ele>
        <time>2021-01-05T10:42:03Z</time>
      </trkpt>
      <trkpt lat="45.49069" lon="6.92096">
        <ele>2051.6</ele>
        <time>2021-01-05T10:42:04Z</time>
      </trkpt>
      <trkpt lat="45.49066" lon="6.9211">
        <ele>2051.6</ele>
        <time>2021-01-05T10:42:05Z</time>
      </trkpt>
      <trkpt lat="45.49063" lon="6.92125">
        <ele>2051.6</ele>
        <time>2021-01-05T10:42:06Z</time>
      </trkpt>
      <trkpt lat="45.49059" lon="6.9214">
        <ele>2051.6</ele>
        <time>2021-01-05T10:42:07Z</time>
      </trkpt>
      <trkpt lat="45.49055" lon="6.92151">
        <ele>2033.8</ele>
        <time>2021-01-05T10:42:08Z</time>
      </trkpt>
      <trkpt lat="45.49051" lon="6.92165">
        <ele>2033.8</ele>
        <time>2021-01-05T10:42:09Z</time>
      </trkpt>
      <trkpt lat="45.49046" lon="6.92178">
        <ele>2033.8</ele>
        <time>2021-01-05T10:42:10Z</time>
      </trkpt>
      <trkpt lat="45.49041" lon="6.9219">
        <ele>2033.8</ele>
        <time>2021-01-05T10:42:11Z</time>
      </trkpt>
      <trkpt lat="45.49038" lon="6.92201">
        <ele>2033.8</ele>
        <time>2021-01-05T10:42:12Z</time>
      </trkpt>
      <trkpt lat="45.49035" lon="6.92214">
        <ele>2033.8</ele>
        <time>2021-01-05T10:42:13Z</time>
      </trkpt>
      <trkpt lat="45.49035" lon="6.92222">
        <ele>2033.8</ele>
        <time>2021-01-05T10:42:14Z</time>
      </trkpt>
      <trkpt lat="45.49036" lon="6.9223">
        <ele>2033.8</ele>
        <time>2021-01-05T10:42:15Z</time>
      </trkpt>
      <trkpt lat="45.4904" lon="6.92237">
        <ele>2033.8</ele>
        <time>2021-01-05T10:42:16Z</time>
      </trkpt>
      <trkpt lat="45.49045" lon="6.92245">
        <ele>2033.8</ele>
        <time>2021-01-05T10:42:17Z</time>
      </trkpt>
      <trkpt lat="45.4905" lon="6.9225">
        <ele>2008.6</ele>
        <time>2021-01-05T10:42:18Z</time>
      </trkpt>
      <trkpt lat="45.49055" lon="6.92252">
        <ele>2008.6</ele>
        <time>2021-01-05T10:42:19Z</time>
      </trkpt>
      <trkpt lat="45.49062" lon="6.92252">
        <ele>2008.6</ele>
        <time>2021-01-05T10:42:20Z</time>
      </trkpt>
      <trkpt lat="45.4907" lon="6.92251">
        <ele>2008.6</ele>
        <time>2021-01-05T10:42:21Z</time>
      </trkpt>
      <trkpt lat="45.49078" lon="6.92245">
        <ele>2008.6</ele>
        <time>2021-01-05T10:42:22Z</time>
      </trkpt>
      <trkpt lat="45.49084" lon="6.92236">
        <ele>2008.6</ele>
        <time>2021-01-05T10:42:23Z</time>
      </trkpt>
      <trkpt lat="45.49091" lon="6.92222">
        <ele>2008.6</ele>
        <time>2021-01-05T10:42:24Z</time>
      </trkpt>
      <trkpt lat="45.49098" lon="6.92213">
        <ele>2008.6</ele>
        <time>2021-01-05T10:42:25Z</time>
      </trkpt>
      <trkpt lat="45.49106" lon="6.92204">
        <ele>2008.6</ele>
        <time>2021-01-05T10:42:26Z</time>
      </trkpt>
      <trkpt lat="45.49114" lon="6.92196">
        <ele>2008.6</ele>
        <time>2021-01-05T10:42:27Z</time>
      </trkpt>
      <trkpt lat="45.49122" lon="6.92191">
        <ele>1983.6</ele>
        <time>2021-01-05T10:42:28Z</time>
      </trkpt>
      <trkpt lat="45.4913" lon="6.92185">
        <ele>1983.6</ele>
        <time>2021-01-05T10:42:29Z</time>
      </trkpt>
      <trkpt lat="45.49136" lon="6.92177">
        <ele>1983.6</ele>
        <time>2021-01-05T10:42:30Z</time>
      </trkpt>
      <trkpt lat="45.49144" lon="6.9217">
        <ele>1983.6</ele>
        <time>2021-01-05T10:42:31Z</time>
      </trkpt>
      <trkpt lat="45.49151" lon="6.92168">
        <ele>1983.6</ele>
        <time>2021-01-05T10:42:32Z</time>
      </trkpt>
      <trkpt lat="45.49158" lon="6.92164">
        <ele>1983.6</ele>
        <time>2021-01-05T10:42:33Z</time>
      </trkpt>
      <trkpt lat="45.49166" lon="6.92158">
        <ele>1983.6</ele>
        <time>2021-01-05T10:42:34Z</time>
      </trkpt>
      <trkpt lat="45.49175" lon="6.92156">
        <ele>1983.6</ele>
        <time>2021-01-05T10:42:35Z</time>
      </trkpt>
      <trkpt lat="45.49183" lon="6.92157">
        <ele>1983.6</ele>
        <time>2021-01-05T10:42:36Z</time>
      </trkpt>
      <trkpt lat="45.49191" lon="6.92156">
        <ele>1983.6</ele>
        <time>2021-01-05T10:42:37Z</time>
      </trkpt>
      <trkpt lat="45.49201" lon="6.92155">
        <ele>1958.8</ele>
        <time>2021-01-05T10:42:38Z</time>
      </trkpt>
      <trkpt lat="45.49206" lon="6.92154">
        <ele>1958.8</ele>
        <time>2021-01-05T10:42:39Z</time>
      </trkpt>
      <trkpt lat="45.49213" lon="6.92154">
        <ele>1958.8</ele>
        <time>2021-01-05T10:42:40Z</time>
      </trkpt>
      <trkpt lat="45.49222" lon="6.92154">
        <ele>1958.8</ele>
        <time>2021-01-05T10:42:41Z</time>
      </trkpt>
      <trkpt lat="45.4923" lon="6.92152">
        <ele>1958.8</ele>
        <time>2021-01-05T10:42:42Z</time>
      </trkpt>
      <trkpt lat="45.49239" lon="6.92154">
        <ele>1958.8</ele>
        <time>2021-01-05T10:42:43Z</time>
      </trkpt>
      <trkpt lat="45.49249" lon="6.92155">
        <ele>1958.8</ele>
        <time>2021-01-05T10:42:44Z</time>
      </trkpt>
      <trkpt lat="45.49258" lon="6.92151">
        <ele>1958.8</ele>
        <time>2021-01-05T10:42:45Z</time>
      </trkpt>
      <trkpt lat="45.49268" lon="6.92147">
        <ele>1958.8</ele>
        <time>2021-01-05T10:42:46Z</time>
      </trkpt>
      <trkpt lat="45.49279" lon="6.92144">
        <ele>1958.8</ele>
        <time>2021-01-05T10:42:47Z</time>
      </trkpt>
      <trkpt lat="45.49289" lon="6.92143">
        <ele>1929.4</ele>
        <time>2021-01-05T10:42:48Z</time>
      </trkpt>
      <trkpt lat="45.49299" lon="6.92142">
        <ele>1929.4</ele>
        <time>2021-01-05T10:42:49Z</time>
      </trkpt>
      <trkpt lat="45.4931" lon="6.9214">
        <ele>1929.4</ele>
        <time>2021-01-05T10:42:50Z</time>
      </trkpt>
      <trkpt lat="45.49322" lon="6.92138">
        <ele>1929.4</ele>
        <time>2021-01-05T10:42:51Z</time>
      </trkpt>
      <trkpt lat="45.49334" lon="6.92136">
        <ele>1929.4</ele>
        <time>2021-01-05T10:42:52Z</time>
      </trkpt>
      <trkpt lat="45.49347" lon="6.92133">
        <ele>1929.4</ele>
        <time>2021-01-05T10:42:53Z</time>
      </trkpt>
      <trkpt lat="45.49361" lon="6.9213">
        <ele>1929.4</ele>
        <time>2021-01-05T10:42:54Z</time>
      </trkpt>
      <trkpt lat="45.49374" lon="6.92126">
        <ele>1929.4</ele>
        <time>2021-01-05T10:42:55Z</time>
      </trkpt>
      <trkpt lat="45.49387" lon="6.92122">
        <ele>1929.4</ele>
        <time>2021-01-05T10:42:56Z</time>
      </trkpt>
      <trkpt lat="45.494" lon="6.92118">
        <ele>1929.4</ele>
        <time>2021-01-05T10:42:57Z</time>
      </trkpt>
      <trkpt lat="45.49412" lon="6.92115">
        <ele>1900.4</ele>
        <time>2021-01-05T10:42:58Z</time>
      </trkpt>
      <trkpt lat="45.49425" lon="6.92111">
        <ele>1900.4</ele>
        <time>2021-01-05T10:42:59Z</time>
      </trkpt>
      <trkpt lat="45.49437" lon="6.92109">
        <ele>1900.4</ele>
        <time>2021-01-05T10:43:00Z</time>
      </trkpt>
      <trkpt lat="45.49448" lon="6.92109">
        <ele>1900.4</ele>
        <time>2021-01-05T10:43:01Z</time>
      </trkpt>
      <trkpt lat="45.49456" lon="6.92114">
        <ele>1900.4</ele>
        <time>2021-01-05T10:43:02Z</time>
      </trkpt>
      <trkpt lat="45.49458" lon="6.92124">
        <ele>1900.4</ele>
        <time>2021-01-05T10:43:03Z</time>
      </trkpt>
      <trkpt lat="45.49456" lon="6.92133">
        <ele>1900.4</ele>
        <time>2021-01-05T10:43:04Z</time>
      </trkpt>
      <trkpt lat="45.49452" lon="6.92142">
        <ele>1900.4</ele>
        <time>2021-01-05T10:43:05Z</time>
      </trkpt>
      <trkpt lat="45.49449" lon="6.92154">
        <ele>1900.4</ele>
        <time>2021-01-05T10:43:06Z</time>
      </trkpt>
      <trkpt lat="45.49446" lon="6.92164">
        <ele>1900.4</ele>
        <time>2021-01-05T10:43:07Z</time>
      </trkpt>
      <trkpt lat="45.49441" lon="6.92173">
        <ele>1873.4</ele>
        <time>2021-01-05T10:43:08Z</time>
      </trkpt>
      <trkpt lat="45.49439" lon="6.92182">
        <ele>1873.4</ele>
        <time>2021-01-05T10:43:09Z</time>
      </trkpt>
      <trkpt lat="45.4944" lon="6.92192">
        <ele>1873.4</ele>
        <time>2021-01-05T10:43:10Z</time>
      </trkpt>
      <trkpt lat="45.49447" lon="6.92199">
        <ele>1873.4</ele>
        <time>2021-01-05T10:43:11Z</time>
      </trkpt>
      <trkpt lat="45.49456" lon="6.92203">
        <ele>1873.4</ele>
        <time>2021-01-05T10:43:12Z</time>
      </trkpt>
      <trkpt lat="45.49465" lon="6.92204">
        <ele>1873.4</ele>
        <time>2021-01-05T10:43:13Z</time>
      </trkpt>
      <trkpt lat="45.49474" lon="6.92203">
        <ele>1873.4</ele>
        <time>2021-01-05T10:43:14Z</time>
      </trkpt>
      <trkpt lat="45.49483" lon="6.922">
        <ele>1873.4</ele>
        <time>2021-01-05T10:43:15Z</time>
      </trkpt>
      <trkpt lat="45.49492" lon="6.92198">
        <ele>1873.4</ele>
        <time>2021-01-05T10:43:16Z</time>
      </trkpt>
      <trkpt lat="45.49501" lon="6.92196">
        <ele>1873.4</ele>
        <time>2021-01-05T10:43:17Z</time>
      </trkpt>
      <trkpt lat="45.49511" lon="6.92194">
        <ele>1847.6</ele>
        <time>2021-01-05T10:43:18Z</time>
      </trkpt>
      <trkpt lat="45.4952" lon="6.92191">
        <ele>1847.6</ele>
        <time>2021-01-05T10:43:19Z</time>
      </trkpt>
      <trkpt lat="45.4953" lon="6.92188">
        <ele>1847.6</ele>
        <time>2021-01-05T10:43:20Z</time>
      </trkpt>
      <trkpt lat="45.49539" lon="6.92188">
        <ele>1847.6</ele>
        <time>2021-01-05T10:43:21Z</time>
      </trkpt>
      <trkpt lat="45.49545" lon="6.92192">
        <ele>1847.6</ele>
        <time>2021-01-05T10:43:22Z</time>
      </trkpt>
      <trkpt lat="45.49547" lon="6.92201">
        <ele>1847.6</ele>
        <time>2021-01-05T10:43:23Z</time>
      </trkpt>
      <trkpt lat="45.49548" lon="6.92211">
        <ele>1847.6</ele>
        <time>2021-01-05T10:43:24Z</time>
      </trkpt>
      <trkpt lat="45.4955" lon="6.92222">
        <ele>1847.6</ele>
        <time>2021-01-05T10:43:25Z</time>
      </trkpt>
      <trkpt lat="45.49552" lon="6.92231">
        <ele>1847.6</ele>
        <time>2021-01-05T10:43:26Z</time>
      </trkpt>
      <trkpt lat="45.49554" lon="6.92239">
        <ele>1847.6</ele>
        <time>2021-01-05T10:43:27Z</time>
      </trkpt>
      <trkpt lat="45.49556" lon="6.92247">
        <ele>1832</ele>
        <time>2021-01-05T10:43:28Z</time>
      </trkpt>
      <trkpt lat="45.49557" lon="6.92255">
        <ele>1832</ele>
        <time>2021-01-05T10:43:29Z</time>
      </trkpt>
      <trkpt lat="45.49559" lon="6.92262">
        <ele>1832</ele>
        <time>2021-01-05T10:43:30Z</time>
      </trkpt>
      <trkpt lat="45.4956" lon="6.9227">
        <ele>1832</ele>
        <time>2021-01-05T10:43:31Z</time>
      </trkpt>
      <trkpt lat="45.49561" lon="6.92277">
        <ele>1832</ele>
        <time>2021-01-05T10:43:32Z</time>
      </trkpt>
      <trkpt lat="45.49563" lon="6.92283">
        <ele>1832</ele>
        <time>2021-01-05T10:43:33Z</time>
      </trkpt>
      <trkpt lat="45.49563" lon="6.92289">
        <ele>1832</ele>
        <time>2021-01-05T10:43:34Z</time>
      </trkpt>
      <trkpt lat="45.49564" lon="6.92295">
        <ele>1832</ele>
        <time>2021-01-05T10:43:35Z</time>
      </trkpt>
      <trkpt lat="45.49566" lon="6.92299">
        <ele>1832</ele>
        <time>2021-01-05T10:43:36Z</time>
      </trkpt>
      <trkpt lat="45.49569" lon="6.92302">
        <ele>1832</ele>
        <time>2021-01-05T10:43:37Z</time>
      </trkpt>
      <trkpt lat="45.49572" lon="6.92304">
        <ele>1826.4</ele>
        <time>2021-01-05T10:43:38Z</time>
      </trkpt>
      <trkpt lat="45.49575" lon="6.92307">
        <ele>1826.4</ele>
        <time>2021-01-05T10:43:39Z</time>
      </trkpt>
      <trkpt lat="45.49579" lon="6.92309">
        <ele>1826.4</ele>
        <time>2021-01-05T10:43:40Z</time>
      </trkpt>
      <trkpt lat="45.49584" lon="6.92311">
        <ele>1826.4</ele>
        <time>2021-01-05T10:43:41Z</time>
      </trkpt>
      <trkpt lat="45.49588" lon="6.92313">
        <ele>1826.4</ele>
        <time>2021-01-05T10:43:42Z</time>
      </trkpt>
      <trkpt lat="45.49593" lon="6.92314">
        <ele>1826.4</ele>
        <time>2021-01-05T10:43:43Z</time>
      </trkpt>
      <trkpt lat="45.49597" lon="6.92316">
        <ele>1826.4</ele>
        <time>2021-01-05T10:43:44Z</time>
      </trkpt>
      <trkpt lat="45.49603" lon="6.92318">
        <ele>1826.4</ele>
        <time>2021-01-05T10:43:45Z</time>
      </trkpt>
      <trkpt lat="45.49609" lon="6.92319">
        <ele>1826.4</ele>
        <time>2021-01-05T10:43:46Z</time>
      </trkpt>
      <trkpt lat="45.49614" lon="6.92319">
        <ele>1826.4</ele>
        <time>2021-01-05T10:43:47Z</time>
      </trkpt>
      <trkpt lat="45.4962" lon="6.9232">
        <ele>1823.2</ele>
        <time>2021-01-05T10:43:48Z</time>
      </trkpt>
      <trkpt lat="45.49623" lon="6.92323">
        <ele>1823.2</ele>
        <time>2021-01-05T10:43:49Z</time>
      </trkpt>
      <trkpt lat="45.49622" lon="6.92327">
        <ele>1823.2</ele>
        <time>2021-01-05T10:43:50Z</time>
      </trkpt>
      <trkpt lat="45.49621" lon="6.92331">
        <ele>1823.2</ele>
        <time>2021-01-05T10:43:51Z</time>
      </trkpt>
      <trkpt lat="45.49617" lon="6.92337">
        <ele>1823.2</ele>
        <time>2021-01-05T10:43:52Z</time>
      </trkpt>
      <trkpt lat="45.49612" lon="6.92344">
        <ele>1823.2</ele>
        <time>2021-01-05T10:43:53Z</time>
      </trkpt>
      <trkpt lat="45.49607" lon="6.9235">
        <ele>1823.2</ele>
        <time>2021-01-05T10:43:54Z</time>
      </trkpt>
      <trkpt lat="45.49603" lon="6.92358">
        <ele>1823.2</ele>
        <time>2021-01-05T10:43:55Z</time>
      </trkpt>
      <trkpt lat="45.49599" lon="6.92365">
        <ele>1823.2</ele>
        <time>2021-01-05T10:43:56Z</time>
      </trkpt>
      <trkpt lat="45.49594" lon="6.92373">
        <ele>1823.2</ele>
        <time>2021-01-05T10:43:57Z</time>
      </trkpt>
      <trkpt lat="45.4959" lon="6.92378">
        <ele>1813.8</ele>
        <time>2021-01-05T10:43:58Z</time>
      </trkpt>
      <trkpt lat="45.49584" lon="6.92384">
        <ele>1813.8</ele>
        <time>2021-01-05T10:43:59Z</time>
      </trkpt>
      <trkpt lat="45.49578" lon="6.92392">
        <ele>1813.8</ele>
        <time>2021-01-05T10:44:00Z</time>
      </trkpt>
      <trkpt lat="45.49573" lon="6.924">
        <ele>1813.8</ele>
        <time>2021-01-05T10:44:01Z</time>
      </trkpt>
      <trkpt lat="45.4957" lon="6.92408">
        <ele>1813.8</ele>
        <time>2021-01-05T10:44:02Z</time>
      </trkpt>
      <trkpt lat="45.49569" lon="6.92416">
        <ele>1813.8</ele>
        <time>2021-01-05T10:44:03Z</time>
      </trkpt>
      <trkpt lat="45.49568" lon="6.92425">
        <ele>1813.8</ele>
        <time>2021-01-05T10:44:04Z</time>
      </trkpt>
      <trkpt lat="45.49565" lon="6.92434">
        <ele>1813.8</ele>
        <time>2021-01-05T10:44:05Z</time>
      </trkpt>
      <trkpt lat="45.49562" lon="6.92442">
        <ele>1813.8</ele>
        <time>2021-01-05T10:44:06Z</time>
      </trkpt>
      <trkpt lat="45.49557" lon="6.92449">
        <ele>1813.8</ele>
        <time>2021-01-05T10:44:07Z</time>
      </trkpt>
      <trkpt lat="45.49554" lon="6.92456">
        <ele>1801.6</ele>
        <time>2021-01-05T10:44:08Z</time>
      </trkpt>
      <trkpt lat="45.4955" lon="6.92462">
        <ele>1801.6</ele>
        <time>2021-01-05T10:44:09Z</time>
      </trkpt>
      <trkpt lat="45.49547" lon="6.92468">
        <ele>1801.6</ele>
        <time>2021-01-05T10:44:10Z</time>
      </trkpt>
      <trkpt lat="45.49543" lon="6.92475">
        <ele>1801.6</ele>
        <time>2021-01-05T10:44:11Z</time>
      </trkpt>
      <trkpt lat="45.49541" lon="6.92481">
        <ele>1801.6</ele>
        <time>2021-01-05T10:44:12Z</time>
      </trkpt>
      <trkpt lat="45.49539" lon="6.92486">
        <ele>1801.6</ele>
        <time>2021-01-05T10:44:13Z</time>
      </trkpt>
      <trkpt lat="45.49537" lon="6.9249">
        <ele>1801.6</ele>
        <time>2021-01-05T10:44:14Z</time>
      </trkpt>
      <trkpt lat="45.49535" lon="6.92494">
        <ele>1801.6</ele>
        <time>2021-01-05T10:44:15Z</time>
      </trkpt>
      <trkpt lat="45.49535" lon="6.92499">
        <ele>1801.6</ele>
        <time>2021-01-05T10:44:16Z</time>
      </trkpt>
      <trkpt lat="45.49535" lon="6.92504">
        <ele>1801.6</ele>
        <time>2021-01-05T10:44:17Z</time>
      </trkpt>
      <trkpt lat="45.49535" lon="6.92508">
        <ele>1794.8</ele>
        <time>2021-01-05T10:44:18Z</time>
      </trkpt>
      <trkpt lat="45.49535" lon="6.92512">
        <ele>1794.8</ele>
        <time>2021-01-05T10:44:19Z</time>
      </trkpt>
      <trkpt lat="45.49536" lon="6.92516">
        <ele>1794.8</ele>
        <time>2021-01-05T10:44:20Z</time>
      </trkpt>
      <trkpt lat="45.49537" lon="6.92521">
        <ele>1794.8</ele>
        <time>2021-01-05T10:44:21Z</time>
      </trkpt>
      <trkpt lat="45.49538" lon="6.92526">
        <ele>1794.8</ele>
        <time>2021-01-05T10:44:22Z</time>
      </trkpt>
      <trkpt lat="45.49538" lon="6.9253">
        <ele>1794.8</ele>
        <time>2021-01-05T10:44:23Z</time>
      </trkpt>
      <trkpt lat="45.49537" lon="6.92534">
        <ele>1794.8</ele>
        <time>2021-01-05T10:44:24Z</time>
      </trkpt>
      <trkpt lat="45.49537" lon="6.92539">
        <ele>1794.8</ele>
        <time>2021-01-05T10:44:25Z</time>
      </trkpt>
      <trkpt lat="45.49537" lon="6.92544">
        <ele>1794.8</ele>
        <time>2021-01-05T10:44:26Z</time>
      </trkpt>
      <trkpt lat="45.49536" lon="6.92548">
        <ele>1794.8</ele>
        <time>2021-01-05T10:44:27Z</time>
      </trkpt>
      <trkpt lat="45.49535" lon="6.92553">
        <ele>1793.4</ele>
        <time>2021-01-05T10:44:28Z</time>
      </trkpt>
      <trkpt lat="45.49533" lon="6.92557">
        <ele>1793.4</ele>
        <time>2021-01-05T10:44:29Z</time>
      </trkpt>
      <trkpt lat="45.49531" lon="6.92561">
        <ele>1793.4</ele>
        <time>2021-01-05T10:44:30Z</time>
      </trkpt>
      <trkpt lat="45.49529" lon="6.92564">
        <ele>1793.4</ele>
        <time>2021-01-05T10:44:31Z</time>
      </trkpt>
      <trkpt lat="45.49527" lon="6.92567">
        <ele>1793.4</ele>
        <time>2021-01-05T10:44:32Z</time>
      </trkpt>
      <trkpt lat="45.49526" lon="6.9257">
        <ele>1793.4</ele>
        <time>2021-01-05T10:44:33Z</time>
      </trkpt>
      <trkpt lat="45.49524" lon="6.92574">
        <ele>1793.4</ele>
        <time>2021-01-05T10:44:34Z</time>
      </trkpt>
      <trkpt lat="45.49522" lon="6.92577">
        <ele>1793.4</ele>
        <time>2021-01-05T10:44:35Z</time>
      </trkpt>
      <trkpt lat="45.49521" lon="6.92581">
        <ele>1793.4</ele>
        <time>2021-01-05T10:44:36Z</time>
      </trkpt>
      <trkpt lat="45.49519" lon="6.92585">
        <ele>1793.4</ele>
        <time>2021-01-05T10:44:37Z</time>
      </trkpt>
      <trkpt lat="45.49518" lon="6.92588">
        <ele>1792.6</ele>
        <time>2021-01-05T10:44:38Z</time>
      </trkpt>
      <trkpt lat="45.49518" lon="6.92591">
        <ele>1792.6</ele>
        <time>2021-01-05T10:44:39Z</time>
      </trkpt>
      <trkpt lat="45.49518" lon="6.92594">
        <ele>1792.6</ele>
        <time>2021-01-05T10:44:40Z</time>
      </trkpt>
      <trkpt lat="45.49518" lon="6.92599">
        <ele>1792.6</ele>
        <time>2021-01-05T10:44:42Z</time>
      </trkpt>
      <trkpt lat="45.49519" lon="6.92601">
        <ele>1792.6</ele>
        <time>2021-01-05T10:44:44Z</time>
      </trkpt>
      <trkpt lat="45.4952" lon="6.92605">
        <ele>1792.6</ele>
        <time>2021-01-05T10:44:46Z</time>
      </trkpt>
      <trkpt lat="45.49518" lon="6.92609">
        <ele>1793.2</ele>
        <time>2021-01-05T10:44:48Z</time>
      </trkpt>
      <trkpt lat="45.49516" lon="6.92612">
        <ele>1793.2</ele>
        <time>2021-01-05T10:44:49Z</time>
      </trkpt>
      <trkpt lat="45.49515" lon="6.92614">
        <ele>1793.2</ele>
        <time>2021-01-05T10:44:50Z</time>
      </trkpt>
      <trkpt lat="45.49514" lon="6.92617">
        <ele>1793.2</ele>
        <time>2021-01-05T10:44:51Z</time>
      </trkpt>
      <trkpt lat="45.49514" lon="6.92621">
        <ele>1793.2</ele>
        <time>2021-01-05T10:44:52Z</time>
      </trkpt>
      <trkpt lat="45.49513" lon="6.92624">
        <ele>1793.2</ele>
        <time>2021-01-05T10:44:53Z</time>
      </trkpt>
      <trkpt lat="45.49513" lon="6.92628">
        <ele>1793.2</ele>
        <time>2021-01-05T10:44:54Z</time>
      </trkpt>
      <trkpt lat="45.49513" lon="6.92631">
        <ele>1793.2</ele>
        <time>2021-01-05T10:44:55Z</time>
      </trkpt>
      <trkpt lat="45.49513" lon="6.92636">
        <ele>1793.2</ele>
        <time>2021-01-05T10:44:56Z</time>
      </trkpt>
      <trkpt lat="45.49513" lon="6.92639">
        <ele>1793.2</ele>
        <time>2021-01-05T10:44:57Z</time>
      </trkpt>
      <trkpt lat="45.49511" lon="6.92642">
        <ele>1793</ele>
        <time>2021-01-05T10:44:58Z</time>
      </trkpt>
      <trkpt lat="45.49509" lon="6.92644">
        <ele>1793</ele>
        <time>2021-01-05T10:44:59Z</time>
      </trkpt>
      <trkpt lat="45.49507" lon="6.92648">
        <ele>1793</ele>
        <time>2021-01-05T10:45:00Z</time>
      </trkpt>
      <trkpt lat="45.49505" lon="6.92649">
        <ele>1793</ele>
        <time>2021-01-05T10:45:01Z</time>
      </trkpt>
      <trkpt lat="45.49501" lon="6.92652">
        <ele>1793</ele>
        <time>2021-01-05T10:45:02Z</time>
      </trkpt>
      <trkpt lat="45.49488" lon="6.92657">
        <ele>1793</ele>
        <time>2021-01-05T10:45:07Z</time>
      </trkpt>
      <trkpt lat="45.49485" lon="6.92656">
        <ele>1794.2</ele>
        <time>2021-01-05T10:45:08Z</time>
      </trkpt>
      <trkpt lat="45.49483" lon="6.92653">
        <ele>1794.2</ele>
        <time>2021-01-05T10:45:09Z</time>
      </trkpt>
      <trkpt lat="45.49482" lon="6.9265">
        <ele>1794.2</ele>
        <time>2021-01-05T10:45:10Z</time>
      </trkpt>
      <trkpt lat="45.4948" lon="6.92648">
        <ele>1794.2</ele>
        <time>2021-01-05T10:45:11Z</time>
      </trkpt>
      <trkpt lat="45.49478" lon="6.92645">
        <ele>1794.2</ele>
        <time>2021-01-05T10:45:12Z</time>
      </trkpt>
      <trkpt lat="45.49476" lon="6.92642">
        <ele>1794.2</ele>
        <time>2021-01-05T10:45:13Z</time>
      </trkpt>
      <trkpt lat="45.49474" lon="6.9264">
        <ele>1794.2</ele>
        <time>2021-01-05T10:45:14Z</time>
      </trkpt>
      <trkpt lat="45.49472" lon="6.92639">
        <ele>1794.2</ele>
        <time>2021-01-05T10:45:15Z</time>
      </trkpt>
      <trkpt lat="45.4947" lon="6.92642">
        <ele>1794.2</ele>
        <time>2021-01-05T10:45:17Z</time>
      </trkpt>
      <trkpt lat="45.49469" lon="6.92647">
        <ele>1794.2</ele>
        <time>2021-01-05T10:45:19Z</time>
      </trkpt>
      <trkpt lat="45.49469" lon="6.9265">
        <ele>1794.2</ele>
        <time>2021-01-05T10:45:20Z</time>
      </trkpt>
      <trkpt lat="45.49468" lon="6.92652">
        <ele>1794.2</ele>
        <time>2021-01-05T10:45:21Z</time>
      </trkpt>
      <trkpt lat="45.49468" lon="6.92656">
        <ele>1794.2</ele>
        <time>2021-01-05T10:45:22Z</time>
      </trkpt>
      <trkpt lat="45.49468" lon="6.92659">
        <ele>1794.2</ele>
        <time>2021-01-05T10:45:23Z</time>
      </trkpt>
      <trkpt lat="45.49467" lon="6.92663">
        <ele>1794.2</ele>
        <time>2021-01-05T10:45:24Z</time>
      </trkpt>
      <trkpt lat="45.49467" lon="6.9267">
        <ele>1794.2</ele>
        <time>2021-01-05T10:45:26Z</time>
      </trkpt>
      <trkpt lat="45.49466" lon="6.92672">
        <ele>1794.2</ele>
        <time>2021-01-05T10:45:27Z</time>
      </trkpt>
      <trkpt lat="45.49465" lon="6.92675">
        <ele>1793.2</ele>
        <time>2021-01-05T10:45:28Z</time>
      </trkpt>
      <trkpt lat="45.49462" lon="6.92678">
        <ele>1793.2</ele>
        <time>2021-01-05T10:45:29Z</time>
      </trkpt>
      <trkpt lat="45.4946" lon="6.9268">
        <ele>1793.2</ele>
        <time>2021-01-05T10:45:30Z</time>
      </trkpt>
      <trkpt lat="45.49458" lon="6.92682">
        <ele>1793.2</ele>
        <time>2021-01-05T10:45:31Z</time>
      </trkpt>
      <trkpt lat="45.49457" lon="6.92685">
        <ele>1793.2</ele>
        <time>2021-01-05T10:45:32Z</time>
      </trkpt>
      <trkpt lat="45.49455" lon="6.92687">
        <ele>1793.2</ele>
        <time>2021-01-05T10:45:33Z</time>
      </trkpt>
      <trkpt lat="45.49453" lon="6.9269">
        <ele>1793.2</ele>
        <time>2021-01-05T10:45:34Z</time>
      </trkpt>
      <trkpt lat="45.49451" lon="6.92693">
        <ele>1793.2</ele>
        <time>2021-01-05T10:45:35Z</time>
      </trkpt>
      <trkpt lat="45.49449" lon="6.92695">
        <ele>1793.2</ele>
        <time>2021-01-05T10:45:36Z</time>
      </trkpt>
      <trkpt lat="45.49447" lon="6.92698">
        <ele>1793.2</ele>
        <time>2021-01-05T10:45:37Z</time>
      </trkpt>
      <trkpt lat="45.49445" lon="6.927">
        <ele>1792.8</ele>
        <time>2021-01-05T10:45:38Z</time>
      </trkpt>
      <trkpt lat="45.49444" lon="6.92703">
        <ele>1792.8</ele>
        <time>2021-01-05T10:45:39Z</time>
      </trkpt>
      <trkpt lat="45.49442" lon="6.92705">
        <ele>1792.8</ele>
        <time>2021-01-05T10:45:40Z</time>
      </trkpt>
      <trkpt lat="45.49439" lon="6.92706">
        <ele>1792.8</ele>
        <time>2021-01-05T10:45:41Z</time>
      </trkpt>
      <trkpt lat="45.49437" lon="6.92707">
        <ele>1792.8</ele>
        <time>2021-01-05T10:45:42Z</time>
      </trkpt>
      <trkpt lat="45.49435" lon="6.92709">
        <ele>1792.8</ele>
        <time>2021-01-05T10:45:43Z</time>
      </trkpt>
      <trkpt lat="45.49434" lon="6.92712">
        <ele>1792.8</ele>
        <time>2021-01-05T10:45:45Z</time>
      </trkpt>
      <trkpt lat="45.49432" lon="6.92713">
        <ele>1792.8</ele>
        <time>2021-01-05T10:45:50Z</time>
      </trkpt>
    </trkseg>
  </trk>
</gpx>